<?xml version='1.0' encoding='UTF-8'?><gpx version="1.1" creator="JPX - https://github.com/jenetics/jpx" xmlns="http://www.topografix.com/GPX/1/1"><trk><trkseg><trkpt lat="36.80789675040774" lon="-108.00545430176754"><ele>1732.0</ele><time>2026-04-19T16:28:46.001Z</time></trkpt><trkpt lat="36.80782819292706" lon="-108.00541705438977"><ele>1731.9999999999998</ele><time>2026-04-19T16:28:49.001Z</time></trkpt><trkpt lat="36.80774353344709" lon="-108.00547640600458"><ele>1731.9999999999998</ele><time>2026-04-19T16:28:52.001Z</time></trkpt><trkpt lat="36.807622875655305" lon="-108.00555410998845"><ele>1732.0</ele><time>2026-04-19T16:28:54.001Z</time></trkpt><trkpt lat="36.80756234521068" lon="-108.00562434668807"><ele>1732.0</ele><time>2026-04-19T16:28:57.001Z</time></trkpt><trkpt lat="36.80748490055336" lon="-108.00569059911032"><ele>1732.1666666666667</ele><time>2026-04-19T16:28:59.001Z</time></trkpt><trkpt lat="36.80741719223314" lon="-108.00573796831709"><ele>1732.3333333333335</ele><time>2026-04-19T16:29:01.001Z</time></trkpt><trkpt lat="36.8073347915678" lon="-108.00580922147604"><ele>1732.5</ele><time>2026-04-19T16:29:03.001Z</time></trkpt><trkpt lat="36.80725455226669" lon="-108.0058585190853"><ele>1732.6666666666665</ele><time>2026-04-19T16:29:05.001Z</time></trkpt><trkpt lat="36.807177556922426" lon="-108.00593030753126"><ele>1732.8333333333333</ele><time>2026-04-19T16:29:07.001Z</time></trkpt><trkpt lat="36.807120971908724" lon="-108.00597704937185"><ele>1733.0</ele><time>2026-04-19T16:29:09.001Z</time></trkpt><trkpt lat="36.807052768720915" lon="-108.00602231924188"><ele>1733.2</ele><time>2026-04-19T16:29:12.001Z</time></trkpt><trkpt lat="36.80695316817212" lon="-108.00611449077977"><ele>1733.4</ele><time>2026-04-19T16:29:14.001Z</time></trkpt><trkpt lat="36.80688269683471" lon="-108.0061313797955"><ele>1733.6000000000001</ele><time>2026-04-19T16:29:17.001Z</time></trkpt><trkpt lat="36.8067802797986" lon="-108.0061622032296"><ele>1733.8000000000002</ele><time>2026-04-19T16:29:41.001Z</time></trkpt><trkpt lat="36.806664481489506" lon="-108.00617540275816"><ele>1734.0</ele><time>2026-04-19T16:29:43.001Z</time></trkpt><trkpt lat="36.806561323448065" lon="-108.00615992322003"><ele>1734.4</ele><time>2026-04-19T16:29:44.001Z</time></trkpt><trkpt lat="36.80646456402692" lon="-108.00614759808077"><ele>1734.8000000000002</ele><time>2026-04-19T16:29:45.001Z</time></trkpt><trkpt lat="36.80634992893632" lon="-108.00614964111826"><ele>1735.1999999999998</ele><time>2026-04-19T16:29:46.001Z</time></trkpt><trkpt lat="36.806271201424615" lon="-108.00618721527874"><ele>1735.6</ele><time>2026-04-19T16:29:47Z</time></trkpt><trkpt lat="36.80618405148084" lon="-108.00625442426497"><ele>1736.0</ele><time>2026-04-19T16:29:48Z</time></trkpt><trkpt lat="36.80607656740906" lon="-108.00634587045528"><ele>1736.9999999999998</ele><time>2026-04-19T16:29:49Z</time></trkpt><trkpt lat="36.80597055637667" lon="-108.00641740917726"><ele>1738.0</ele><time>2026-04-19T16:29:50Z</time></trkpt><trkpt lat="36.80590288354329" lon="-108.00645792394087"><ele>1739.0</ele><time>2026-04-19T16:29:51Z</time></trkpt><trkpt lat="36.80579887077601" lon="-108.00651831417832"><ele>1740.0</ele><time>2026-04-19T16:29:53Z</time></trkpt><trkpt lat="36.80573184737744" lon="-108.00655925645125"><ele>1740.9999999999998</ele><time>2026-04-19T16:29:55Z</time></trkpt><trkpt lat="36.80568115622838" lon="-108.0066087965732"><ele>1742.0</ele><time>2026-04-19T16:29:57Z</time></trkpt><trkpt lat="36.80562918171751" lon="-108.00666138822993"><ele>1742.0</ele><time>2026-04-19T16:29:58Z</time></trkpt><trkpt lat="36.80555586536267" lon="-108.00670878635317"><ele>1741.9999999999998</ele><time>2026-04-19T16:29:59Z</time></trkpt><trkpt lat="36.80546293510889" lon="-108.00677652177725"><ele>1741.9999999999998</ele><time>2026-04-19T16:30:00Z</time></trkpt><trkpt lat="36.805375785449506" lon="-108.00684037630272"><ele>1742.0</ele><time>2026-04-19T16:30:01Z</time></trkpt><trkpt lat="36.805289443845695" lon="-108.00688799423102"><ele>1742.0</ele><time>2026-04-19T16:30:02Z</time></trkpt><trkpt lat="36.805211191176475" lon="-108.00692296450241"><ele>1744.6</ele><time>2026-04-19T16:30:03Z</time></trkpt><trkpt lat="36.80513292058521" lon="-108.00696244586653"><ele>1747.1999999999998</ele><time>2026-04-19T16:30:05Z</time></trkpt><trkpt lat="36.8049967818985" lon="-108.00699138602923"><ele>1749.8</ele><time>2026-04-19T16:30:07Z</time></trkpt><trkpt lat="36.804908906614635" lon="-108.00704833989046"><ele>1752.4</ele><time>2026-04-19T16:30:08Z</time></trkpt><trkpt lat="36.80484843978255" lon="-108.00710213162668"><ele>1755.0</ele><time>2026-04-19T16:30:09Z</time></trkpt><trkpt lat="36.80476727702254" lon="-108.00703413486332"><ele>1755.0</ele><time>2026-04-19T16:30:11Z</time></trkpt><trkpt lat="36.80475405926482" lon="-108.00692374559038"><ele>1755.0</ele><time>2026-04-19T16:30:12Z</time></trkpt><trkpt lat="36.80471839841279" lon="-108.00678656210279"><ele>1755.0</ele><time>2026-04-19T16:30:13Z</time></trkpt><trkpt lat="36.804668734852584" lon="-108.00666739980748"><ele>1755.0</ele><time>2026-04-19T16:30:14Z</time></trkpt><trkpt lat="36.80463426392847" lon="-108.00660071425469"><ele>1755.0</ele><time>2026-04-19T16:30:15.001Z</time></trkpt><trkpt lat="36.80461939024992" lon="-108.00647735897617"><ele>1755.2</ele><time>2026-04-19T16:30:17.001Z</time></trkpt><trkpt lat="36.80463753905676" lon="-108.00638611288467"><ele>1755.4</ele><time>2026-04-19T16:30:18.001Z</time></trkpt><trkpt lat="36.80461199086902" lon="-108.00623251471258"><ele>1755.6</ele><time>2026-04-19T16:30:20.001Z</time></trkpt><trkpt lat="36.80462711855547" lon="-108.00608892822589"><ele>1755.8</ele><time>2026-04-19T16:30:22.001Z</time></trkpt><trkpt lat="36.804642575255514" lon="-108.0059648417763"><ele>1756.0</ele><time>2026-04-19T16:30:24.001Z</time></trkpt><trkpt lat="36.80462255909556" lon="-108.00585193786078"><ele>1755.5000000000002</ele><time>2026-04-19T16:30:25.001Z</time></trkpt><trkpt lat="36.804681044869874" lon="-108.00578891304465"><ele>1755.0</ele><time>2026-04-19T16:30:26.001Z</time></trkpt><trkpt lat="36.80468181492042" lon="-108.00570708917306"><ele>1754.5</ele><time>2026-04-19T16:30:27.001Z</time></trkpt><trkpt lat="36.804705068325376" lon="-108.00557622704633"><ele>1754.0</ele><time>2026-04-19T16:30:29.001Z</time></trkpt><trkpt lat="36.80474890757699" lon="-108.00551757655572"><ele>1753.5000000000002</ele><time>2026-04-19T16:30:30.001Z</time></trkpt><trkpt lat="36.804811201466045" lon="-108.00541160911747"><ele>1753.0</ele><time>2026-04-19T16:30:32.001Z</time></trkpt><trkpt lat="36.80483961693665" lon="-108.00523283469235"><ele>1753.0</ele><time>2026-04-19T16:30:34.001Z</time></trkpt><trkpt lat="36.80485318823482" lon="-108.00508602797336"><ele>1753.0</ele><time>2026-04-19T16:30:35.001Z</time></trkpt><trkpt lat="36.804860833303614" lon="-108.0049539539431"><ele>1753.0</ele><time>2026-04-19T16:30:36.001Z</time></trkpt><trkpt lat="36.80485076794662" lon="-108.00481509963623"><ele>1753.0</ele><time>2026-04-19T16:30:37.001Z</time></trkpt><trkpt lat="36.80484257213308" lon="-108.0046656824258"><ele>1752.2</ele><time>2026-04-19T16:30:38.001Z</time></trkpt><trkpt lat="36.80481967857178" lon="-108.0045325292518"><ele>1751.4</ele><time>2026-04-19T16:30:39.001Z</time></trkpt><trkpt lat="36.80478974764746" lon="-108.00441896324519"><ele>1750.6000000000001</ele><time>2026-04-19T16:30:40.001Z</time></trkpt><trkpt lat="36.80475748691105" lon="-108.00431477995663"><ele>1749.8000000000002</ele><time>2026-04-19T16:30:41.001Z</time></trkpt><trkpt lat="36.80469424507838" lon="-108.00422692367063"><ele>1749.0</ele><time>2026-04-19T16:30:42.001Z</time></trkpt><trkpt lat="36.804573034489984" lon="-108.0040906384459"><ele>1747.8333333333333</ele><time>2026-04-19T16:30:43.001Z</time></trkpt><trkpt lat="36.80451432849723" lon="-108.00396253244658"><ele>1746.6666666666665</ele><time>2026-04-19T16:30:44.001Z</time></trkpt><trkpt lat="36.80448004448059" lon="-108.00386689957278"><ele>1745.5</ele><time>2026-04-19T16:30:45.001Z</time></trkpt><trkpt lat="36.80443650950829" lon="-108.0037655663803"><ele>1744.3333333333333</ele><time>2026-04-19T16:30:46.001Z</time></trkpt><trkpt lat="36.80439794329543" lon="-108.00366886192634"><ele>1743.1666666666665</ele><time>2026-04-19T16:30:47.001Z</time></trkpt><trkpt lat="36.804385359408556" lon="-108.00358503436813"><ele>1742.0</ele><time>2026-04-19T16:30:48.001Z</time></trkpt><trkpt lat="36.804331551171" lon="-108.00343360396553"><ele>1741.6</ele><time>2026-04-19T16:30:50.001Z</time></trkpt><trkpt lat="36.80427058151411" lon="-108.00333890609257"><ele>1741.1999999999998</ele><time>2026-04-19T16:30:51.001Z</time></trkpt><trkpt lat="36.80421766815564" lon="-108.00323548164705"><ele>1740.8</ele><time>2026-04-19T16:30:52.001Z</time></trkpt><trkpt lat="36.804174406018504" lon="-108.00312728985928"><ele>1740.4</ele><time>2026-04-19T16:30:53.001Z</time></trkpt><trkpt lat="36.80412645884976" lon="-108.0030034321354"><ele>1740.0</ele><time>2026-04-19T16:30:54.001Z</time></trkpt><trkpt lat="36.80409049637319" lon="-108.00291197094383"><ele>1740.0</ele><time>2026-04-19T16:30:55.001Z</time></trkpt><trkpt lat="36.80405135427211" lon="-108.00282530616118"><ele>1740.0</ele><time>2026-04-19T16:30:57.001Z</time></trkpt><trkpt lat="36.80393790074922" lon="-108.00281566547595"><ele>1740.0</ele><time>2026-04-19T16:31:21.001Z</time></trkpt><trkpt lat="36.80386491926488" lon="-108.00283460658335"><ele>1740.0</ele><time>2026-04-19T16:31:22.001Z</time></trkpt><trkpt lat="36.803778186334455" lon="-108.00283107325903"><ele>1740.0</ele><time>2026-04-19T16:31:23.001Z</time></trkpt><trkpt lat="36.80367160467107" lon="-108.00280773651022"><ele>1740.0</ele><time>2026-04-19T16:31:24.001Z</time></trkpt><trkpt lat="36.803553390912946" lon="-108.00275119716359"><ele>1740.0</ele><time>2026-04-19T16:31:25.001Z</time></trkpt><trkpt lat="36.80342620788553" lon="-108.00266060336712"><ele>1740.0</ele><time>2026-04-19T16:31:26.001Z</time></trkpt><trkpt lat="36.80329192895907" lon="-108.00256294296666"><ele>1740.0</ele><time>2026-04-19T16:31:27.001Z</time></trkpt><trkpt lat="36.80316937277036" lon="-108.0025032225782"><ele>1740.75</ele><time>2026-04-19T16:31:28.001Z</time></trkpt><trkpt lat="36.80304648041173" lon="-108.0024747482374"><ele>1741.5</ele><time>2026-04-19T16:31:29.001Z</time></trkpt><trkpt lat="36.80293342174128" lon="-108.00247934588857"><ele>1742.25</ele><time>2026-04-19T16:31:30.001Z</time></trkpt><trkpt lat="36.802835422173615" lon="-108.0025004190829"><ele>1743.0</ele><time>2026-04-19T16:31:31.001Z</time></trkpt><trkpt lat="36.80271036503133" lon="-108.00256123398164"><ele>1743.75</ele><time>2026-04-19T16:31:32.001Z</time></trkpt><trkpt lat="36.80257632255899" lon="-108.00263910971427"><ele>1744.5</ele><time>2026-04-19T16:31:33.001Z</time></trkpt><trkpt lat="36.80245004725624" lon="-108.00272641451083"><ele>1745.25</ele><time>2026-04-19T16:31:34.001Z</time></trkpt><trkpt lat="36.802337341903964" lon="-108.00284114110647"><ele>1746.0</ele><time>2026-04-19T16:31:35.001Z</time></trkpt><trkpt lat="36.80224504420238" lon="-108.0029169602208"><ele>1746.0</ele><time>2026-04-19T16:31:36.001Z</time></trkpt><trkpt lat="36.80216083489492" lon="-108.00296266052882"><ele>1746.0</ele><time>2026-04-19T16:31:37.001Z</time></trkpt><trkpt lat="36.8020636803955" lon="-108.00297236192648"><ele>1746.0</ele><time>2026-04-19T16:31:38.001Z</time></trkpt><trkpt lat="36.80194341553756" lon="-108.0029398377273"><ele>1746.0</ele><time>2026-04-19T16:31:39.001Z</time></trkpt><trkpt lat="36.80181345132577" lon="-108.00286468427088"><ele>1746.5</ele><time>2026-04-19T16:31:40.001Z</time></trkpt><trkpt lat="36.801682266617874" lon="-108.00276876795871"><ele>1747.0</ele><time>2026-04-19T16:31:41.001Z</time></trkpt><trkpt lat="36.80156692834267" lon="-108.00271994604779"><ele>1747.5</ele><time>2026-04-19T16:31:42.001Z</time></trkpt><trkpt lat="36.801421944843355" lon="-108.00272510927181"><ele>1748.0</ele><time>2026-04-19T16:31:43.001Z</time></trkpt><trkpt lat="36.80127490915473" lon="-108.0027826892406"><ele>1748.0</ele><time>2026-04-19T16:31:44.001Z</time></trkpt><trkpt lat="36.80112632717386" lon="-108.00287896163698"><ele>1748.0</ele><time>2026-04-19T16:31:45.001Z</time></trkpt><trkpt lat="36.80097552003404" lon="-108.00299273584533"><ele>1748.0</ele><time>2026-04-19T16:31:46.001Z</time></trkpt><trkpt lat="36.80086029759344" lon="-108.0030612039142"><ele>1748.4999999999998</ele><time>2026-04-19T16:31:47.001Z</time></trkpt><trkpt lat="36.80078650250229" lon="-108.00308554229869"><ele>1749.0</ele><time>2026-04-19T16:31:48.002Z</time></trkpt><trkpt lat="36.800711796363544" lon="-108.00308526908891"><ele>1749.5</ele><time>2026-04-19T16:31:50.002Z</time></trkpt><trkpt lat="36.80066788987146" lon="-108.00297952978337"><ele>1750.0</ele><time>2026-04-19T16:31:52.002Z</time></trkpt><trkpt lat="36.800629254911435" lon="-108.00291620719229"><ele>1750.4999999999998</ele><time>2026-04-19T16:31:53Z</time></trkpt><trkpt lat="36.80050480106041" lon="-108.00294987276222"><ele>1751.0</ele><time>2026-04-19T16:31:55Z</time></trkpt><trkpt lat="36.80042921050731" lon="-108.00299306490814"><ele>1751.0</ele><time>2026-04-19T16:31:56Z</time></trkpt><trkpt lat="36.80033573448654" lon="-108.00301623647137"><ele>1751.0</ele><time>2026-04-19T16:31:58Z</time></trkpt><trkpt lat="36.80020198369859" lon="-108.0029199919986"><ele>1751.0</ele><time>2026-04-19T16:32:00Z</time></trkpt><trkpt lat="36.80010500965979" lon="-108.0028643548751"><ele>1751.0</ele><time>2026-04-19T16:32:01Z</time></trkpt><trkpt lat="36.79999829606455" lon="-108.00279114350106"><ele>1751.6</ele><time>2026-04-19T16:32:02Z</time></trkpt><trkpt lat="36.79994075213905" lon="-108.00272710867436"><ele>1752.1999999999998</ele><time>2026-04-19T16:32:03Z</time></trkpt><trkpt lat="36.79990516238985" lon="-108.0026060642762"><ele>1752.8000000000002</ele><time>2026-04-19T16:32:05Z</time></trkpt><trkpt lat="36.79990744907391" lon="-108.0024679544318"><ele>1753.4</ele><time>2026-04-19T16:32:06Z</time></trkpt><trkpt lat="36.799868214025004" lon="-108.00236795182427"><ele>1754.0</ele><time>2026-04-19T16:32:08Z</time></trkpt><trkpt lat="36.79975055644797" lon="-108.00237456359277"><ele>1754.0</ele><time>2026-04-19T16:32:10Z</time></trkpt><trkpt lat="36.79965919615164" lon="-108.00242165239045"><ele>1754.0</ele><time>2026-04-19T16:32:11Z</time></trkpt><trkpt lat="36.799547442323366" lon="-108.00247948134736"><ele>1754.0</ele><time>2026-04-19T16:32:12Z</time></trkpt><trkpt lat="36.799411711837855" lon="-108.00250903903114"><ele>1754.0</ele><time>2026-04-19T16:32:13Z</time></trkpt><trkpt lat="36.799279369298056" lon="-108.0025005047134"><ele>1755.6666666666665</ele><time>2026-04-19T16:32:14Z</time></trkpt><trkpt lat="36.79914812035242" lon="-108.0024534952666"><ele>1757.3333333333335</ele><time>2026-04-19T16:32:15Z</time></trkpt><trkpt lat="36.799000706688226" lon="-108.0023716260098"><ele>1759.0</ele><time>2026-04-19T16:32:16.001Z</time></trkpt><trkpt lat="36.79883263197967" lon="-108.00228136288995"><ele>1759.0</ele><time>2026-04-19T16:32:17.001Z</time></trkpt><trkpt lat="36.79865565328267" lon="-108.00221410766373"><ele>1759.0</ele><time>2026-04-19T16:32:18.001Z</time></trkpt><trkpt lat="36.79847091520847" lon="-108.00216442673693"><ele>1759.0</ele><time>2026-04-19T16:32:19.001Z</time></trkpt><trkpt lat="36.79829542019899" lon="-108.00211725891373"><ele>1758.75</ele><time>2026-04-19T16:32:20.001Z</time></trkpt><trkpt lat="36.798155093757416" lon="-108.00208001130959"><ele>1758.5</ele><time>2026-04-19T16:32:21.001Z</time></trkpt><trkpt lat="36.79803620455424" lon="-108.00206686977546"><ele>1758.25</ele><time>2026-04-19T16:32:22.001Z</time></trkpt><trkpt lat="36.797931533915424" lon="-108.00207393652103"><ele>1758.0</ele><time>2026-04-19T16:32:23.001Z</time></trkpt><trkpt lat="36.79784970303207" lon="-108.00210709737105"><ele>1758.0</ele><time>2026-04-19T16:32:24.001Z</time></trkpt><trkpt lat="36.797777019429354" lon="-108.00217053022541"><ele>1758.0</ele><time>2026-04-19T16:32:25.001Z</time></trkpt><trkpt lat="36.7976462598355" lon="-108.00225016914827"><ele>1758.0</ele><time>2026-04-19T16:32:26.001Z</time></trkpt><trkpt lat="36.797507193063375" lon="-108.00232115936049"><ele>1758.0</ele><time>2026-04-19T16:32:27.001Z</time></trkpt><trkpt lat="36.79735498190135" lon="-108.00237149229892"><ele>1758.0</ele><time>2026-04-19T16:32:28.001Z</time></trkpt><trkpt lat="36.79719410557358" lon="-108.00244328628142"><ele>1758.0</ele><time>2026-04-19T16:32:29.001Z</time></trkpt><trkpt lat="36.79707086456306" lon="-108.0025280661775"><ele>1758.0</ele><time>2026-04-19T16:32:30.001Z</time></trkpt><trkpt lat="36.796985267783285" lon="-108.00260003838997"><ele>1758.0</ele><time>2026-04-19T16:32:31.001Z</time></trkpt><trkpt lat="36.79691300550534" lon="-108.00268153644984"><ele>1758.5</ele><time>2026-04-19T16:32:32.001Z</time></trkpt><trkpt lat="36.796811115363354" lon="-108.00281536402817"><ele>1759.0</ele><time>2026-04-19T16:32:33.001Z</time></trkpt><trkpt lat="36.796690654650206" lon="-108.00293166017367"><ele>1759.5</ele><time>2026-04-19T16:32:34.001Z</time></trkpt><trkpt lat="36.79661797665088" lon="-108.00297917596059"><ele>1760.0</ele><time>2026-04-19T16:32:35.001Z</time></trkpt><trkpt lat="36.796550198439796" lon="-108.00302414709456"><ele>1760.0</ele><time>2026-04-19T16:32:36.001Z</time></trkpt><trkpt lat="36.79645592548205" lon="-108.00305120547908"><ele>1760.0</ele><time>2026-04-19T16:32:37.001Z</time></trkpt><trkpt lat="36.796319698029194" lon="-108.0030705361407"><ele>1760.0</ele><time>2026-04-19T16:32:38.001Z</time></trkpt><trkpt lat="36.79615928123003" lon="-108.0030783876885"><ele>1760.0</ele><time>2026-04-19T16:32:39.001Z</time></trkpt><trkpt lat="36.79598546729022" lon="-108.00306333813747"><ele>1761.6666666666665</ele><time>2026-04-19T16:32:40.001Z</time></trkpt><trkpt lat="36.79580326666924" lon="-108.00302830809603"><ele>1763.3333333333335</ele><time>2026-04-19T16:32:41.001Z</time></trkpt><trkpt lat="36.795616482577564" lon="-108.0029869476725"><ele>1765.0</ele><time>2026-04-19T16:32:42.001Z</time></trkpt><trkpt lat="36.79542965714528" lon="-108.00295586999779"><ele>1765.0</ele><time>2026-04-19T16:32:43.001Z</time></trkpt><trkpt lat="36.795276006202876" lon="-108.0029412346742"><ele>1765.0</ele><time>2026-04-19T16:32:44.001Z</time></trkpt><trkpt lat="36.795173677916054" lon="-108.00293445464428"><ele>1765.0</ele><time>2026-04-19T16:32:45.001Z</time></trkpt><trkpt lat="36.79510265273827" lon="-108.00290494341743"><ele>1765.0</ele><time>2026-04-19T16:32:47.001Z</time></trkpt><trkpt lat="36.79506219764474" lon="-108.00280895255798"><ele>1765.0</ele><time>2026-04-19T16:32:49.001Z</time></trkpt><trkpt lat="36.795012037659575" lon="-108.00271112933328"><ele>1765.6666666666667</ele><time>2026-04-19T16:32:51.001Z</time></trkpt><trkpt lat="36.79494686211954" lon="-108.00267884275056"><ele>1766.3333333333335</ele><time>2026-04-19T16:32:52.001Z</time></trkpt><trkpt lat="36.79485130799315" lon="-108.00267522691661"><ele>1767.0</ele><time>2026-04-19T16:32:53.001Z</time></trkpt><trkpt lat="36.79473944125895" lon="-108.00265985222619"><ele>1767.6666666666665</ele><time>2026-04-19T16:32:54.001Z</time></trkpt><trkpt lat="36.79465421102495" lon="-108.00261668890283"><ele>1768.3333333333333</ele><time>2026-04-19T16:32:55.001Z</time></trkpt><trkpt lat="36.79460212633725" lon="-108.00255300513882"><ele>1769.0</ele><time>2026-04-19T16:32:56.001Z</time></trkpt><trkpt lat="36.79452472363125" lon="-108.0024771087436"><ele>1769.0</ele><time>2026-04-19T16:32:58.001Z</time></trkpt><trkpt lat="36.79443567742802" lon="-108.00250697067655"><ele>1769.0</ele><time>2026-04-19T16:32:59.001Z</time></trkpt><trkpt lat="36.794312973361706" lon="-108.00253623762097"><ele>1769.0</ele><time>2026-04-19T16:33:00.001Z</time></trkpt><trkpt lat="36.794184694181475" lon="-108.0025426788262"><ele>1769.0</ele><time>2026-04-19T16:33:01.001Z</time></trkpt><trkpt lat="36.79408133226543" lon="-108.00254169539194"><ele>1769.0</ele><time>2026-04-19T16:33:02.001Z</time></trkpt><trkpt lat="36.79398567129699" lon="-108.0024977863083"><ele>1769.6</ele><time>2026-04-19T16:33:04.001Z</time></trkpt><trkpt lat="36.79393170950363" lon="-108.00244242406089"><ele>1770.2</ele><time>2026-04-19T16:33:05.001Z</time></trkpt><trkpt lat="36.79385372149898" lon="-108.00242354019514"><ele>1770.7999999999997</ele><time>2026-04-19T16:33:07.001Z</time></trkpt><trkpt lat="36.79371767130621" lon="-108.00236679288595"><ele>1771.3999999999999</ele><time>2026-04-19T16:33:09.001Z</time></trkpt><trkpt lat="36.79362205242883" lon="-108.00228230256782"><ele>1772.0</ele><time>2026-04-19T16:33:10.001Z</time></trkpt><trkpt lat="36.793522882042225" lon="-108.00218844828062"><ele>1772.6</ele><time>2026-04-19T16:33:11.001Z</time></trkpt><trkpt lat="36.79344800819814" lon="-108.00208740130881"><ele>1773.1999999999998</ele><time>2026-04-19T16:33:12.001Z</time></trkpt><trkpt lat="36.79339192009656" lon="-108.00197286019346"><ele>1773.8</ele><time>2026-04-19T16:33:13.001Z</time></trkpt><trkpt lat="36.79333624905885" lon="-108.00188800211127"><ele>1774.4</ele><time>2026-04-19T16:33:14.001Z</time></trkpt><trkpt lat="36.79324660579039" lon="-108.00183857208467"><ele>1775.0</ele><time>2026-04-19T16:33:15.001Z</time></trkpt><trkpt lat="36.79309980262821" lon="-108.00178452599138"><ele>1774.9999999999998</ele><time>2026-04-19T16:33:16.001Z</time></trkpt><trkpt lat="36.79297820326802" lon="-108.00174066216302"><ele>1775.0</ele><time>2026-04-19T16:33:17.001Z</time></trkpt><trkpt lat="36.79291766823623" lon="-108.00170591740401"><ele>1775.0</ele><time>2026-04-19T16:33:18.001Z</time></trkpt><trkpt lat="36.79281378512996" lon="-108.00165736022801"><ele>1775.0</ele><time>2026-04-19T16:33:20.001Z</time></trkpt><trkpt lat="36.79275818687797" lon="-108.00161485871041"><ele>1774.9999999999998</ele><time>2026-04-19T16:33:22.001Z</time></trkpt><trkpt lat="36.792726832611756" lon="-108.00154607302278"><ele>1775.0</ele><time>2026-04-19T16:33:23.001Z</time></trkpt><trkpt lat="36.79267767064489" lon="-108.00144314477551"><ele>1776.25</ele><time>2026-04-19T16:33:24.001Z</time></trkpt><trkpt lat="36.79261041286582" lon="-108.0013435306596"><ele>1777.5</ele><time>2026-04-19T16:33:25.001Z</time></trkpt><trkpt lat="36.792559600192305" lon="-108.00120245620698"><ele>1778.75</ele><time>2026-04-19T16:33:26.001Z</time></trkpt><trkpt lat="36.792518506855835" lon="-108.00103161666436"><ele>1780.0</ele><time>2026-04-19T16:33:27.001Z</time></trkpt><trkpt lat="36.79248867724612" lon="-108.00086487493813"><ele>1779.25</ele><time>2026-04-19T16:33:28.001Z</time></trkpt><trkpt lat="36.792433166331975" lon="-108.00074362590269"><ele>1778.5</ele><time>2026-04-19T16:33:29.001Z</time></trkpt><trkpt lat="36.79236864659212" lon="-108.00066628756144"><ele>1777.75</ele><time>2026-04-19T16:33:30.001Z</time></trkpt><trkpt lat="36.792262305324314" lon="-108.00059208752877"><ele>1777.0</ele><time>2026-04-19T16:33:31.001Z</time></trkpt><trkpt lat="36.792123318785684" lon="-108.00049676028564"><ele>1777.0</ele><time>2026-04-19T16:33:32.001Z</time></trkpt><trkpt lat="36.79198444120946" lon="-108.00041316626405"><ele>1777.0</ele><time>2026-04-19T16:33:33.001Z</time></trkpt><trkpt lat="36.79183534712698" lon="-108.00035195194319"><ele>1777.0</ele><time>2026-04-19T16:33:34.001Z</time></trkpt><trkpt lat="36.79170765138372" lon="-108.0002928187781"><ele>1777.0</ele><time>2026-04-19T16:33:35.001Z</time></trkpt><trkpt lat="36.79160156101591" lon="-108.00019675459245"><ele>1778.1999999999998</ele><time>2026-04-19T16:33:36.001Z</time></trkpt><trkpt lat="36.79149045078206" lon="-108.00008238488654"><ele>1779.3999999999999</ele><time>2026-04-19T16:33:37.001Z</time></trkpt><trkpt lat="36.791392091830296" lon="-107.9999869775262"><ele>1780.6000000000001</ele><time>2026-04-19T16:33:38.001Z</time></trkpt><trkpt lat="36.79133054381551" lon="-107.99991033843533"><ele>1781.8000000000002</ele><time>2026-04-19T16:33:39.001Z</time></trkpt><trkpt lat="36.79128871818979" lon="-107.99984510614486"><ele>1783.0</ele><time>2026-04-19T16:33:40.001Z</time></trkpt><trkpt lat="36.79123552157279" lon="-107.99979223459819"><ele>1783.0</ele><time>2026-04-19T16:33:41.001Z</time></trkpt><trkpt lat="36.791127323336745" lon="-107.9997428370158"><ele>1783.0</ele><time>2026-04-19T16:33:42.001Z</time></trkpt><trkpt lat="36.79100422301664" lon="-107.99967377153605"><ele>1783.0</ele><time>2026-04-19T16:33:43.001Z</time></trkpt><trkpt lat="36.79090999440126" lon="-107.99955404745846"><ele>1783.0</ele><time>2026-04-19T16:33:44.001Z</time></trkpt><trkpt lat="36.790823542881725" lon="-107.9994276521263"><ele>1784.0</ele><time>2026-04-19T16:33:45.001Z</time></trkpt><trkpt lat="36.79077249210861" lon="-107.9993230753575"><ele>1785.0000000000002</ele><time>2026-04-19T16:33:46.001Z</time></trkpt><trkpt lat="36.790741038483596" lon="-107.99923039963805"><ele>1786.0000000000002</ele><time>2026-04-19T16:33:47.001Z</time></trkpt><trkpt lat="36.790716460587895" lon="-107.99915670195183"><ele>1787.0</ele><time>2026-04-19T16:33:48.001Z</time></trkpt><trkpt lat="36.79059363984602" lon="-107.99909195093457"><ele>1788.0</ele><time>2026-04-19T16:33:50.001Z</time></trkpt><trkpt lat="36.79048578561798" lon="-107.99904879994831"><ele>1788.2</ele><time>2026-04-19T16:33:51.001Z</time></trkpt><trkpt lat="36.7904028798178" lon="-107.99899733904998"><ele>1788.4</ele><time>2026-04-19T16:33:52.001Z</time></trkpt><trkpt lat="36.79033183134704" lon="-107.99892308002181"><ele>1788.6000000000001</ele><time>2026-04-19T16:33:53.001Z</time></trkpt><trkpt lat="36.79028044943752" lon="-107.99883186296695"><ele>1788.8000000000002</ele><time>2026-04-19T16:33:54.002Z</time></trkpt><trkpt lat="36.790257843930526" lon="-107.99873105156799"><ele>1789.0</ele><time>2026-04-19T16:33:56.002Z</time></trkpt><trkpt lat="36.790323639086694" lon="-107.99864426783716"><ele>1789.0</ele><time>2026-04-19T16:33:58.002Z</time></trkpt><trkpt lat="36.7902561903548" lon="-107.99851402307849"><ele>1789.0</ele><time>2026-04-19T16:34:00Z</time></trkpt><trkpt lat="36.79020012339756" lon="-107.99843840234828"><ele>1789.0</ele><time>2026-04-19T16:34:01Z</time></trkpt><trkpt lat="36.79011890811836" lon="-107.99841842060827"><ele>1789.0</ele><time>2026-04-19T16:34:03Z</time></trkpt><trkpt lat="36.79002665993242" lon="-107.99844067353835"><ele>1789.0</ele><time>2026-04-19T16:34:04Z</time></trkpt><trkpt lat="36.78994661786058" lon="-107.99843077095207"><ele>1790.4</ele><time>2026-04-19T16:34:05Z</time></trkpt><trkpt lat="36.789892302181634" lon="-107.99838924142385"><ele>1791.8000000000002</ele><time>2026-04-19T16:34:06Z</time></trkpt><trkpt lat="36.78983818319844" lon="-107.9983038888448"><ele>1793.1999999999998</ele><time>2026-04-19T16:34:07Z</time></trkpt><trkpt lat="36.78977257210715" lon="-107.99819670755679"><ele>1794.6</ele><time>2026-04-19T16:34:08Z</time></trkpt><trkpt lat="36.789690716541024" lon="-107.99809385573542"><ele>1796.0</ele><time>2026-04-19T16:34:09Z</time></trkpt><trkpt lat="36.78962216207093" lon="-107.9980308433206"><ele>1796.4</ele><time>2026-04-19T16:34:10Z</time></trkpt><trkpt lat="36.78955546089142" lon="-107.99799335213781"><ele>1796.8</ele><time>2026-04-19T16:34:11Z</time></trkpt><trkpt lat="36.789493837581375" lon="-107.99797351615204"><ele>1797.2000000000003</ele><time>2026-04-19T16:34:12Z</time></trkpt><trkpt lat="36.789436464360485" lon="-107.99784922153411"><ele>1797.6000000000001</ele><time>2026-04-19T16:34:14Z</time></trkpt><trkpt lat="36.78940636811007" lon="-107.9977319289313"><ele>1798.0</ele><time>2026-04-19T16:34:15Z</time></trkpt><trkpt lat="36.78932580787242" lon="-107.99761958625525"><ele>1798.5000000000002</ele><time>2026-04-19T16:34:16Z</time></trkpt><trkpt lat="36.789251894179614" lon="-107.99753033014623"><ele>1799.0</ele><time>2026-04-19T16:34:17Z</time></trkpt><trkpt lat="36.7891962863932" lon="-107.99748664081048"><ele>1799.5</ele><time>2026-04-19T16:34:18Z</time></trkpt><trkpt lat="36.78915629685792" lon="-107.99738950285627"><ele>1800.0</ele><time>2026-04-19T16:34:20Z</time></trkpt><trkpt lat="36.78913387308726" lon="-107.99731131885557"><ele>1800.5000000000002</ele><time>2026-04-19T16:34:21Z</time></trkpt><trkpt lat="36.78908931514804" lon="-107.99722050732728"><ele>1801.0</ele><time>2026-04-19T16:34:23.001Z</time></trkpt><trkpt lat="36.78901154501247" lon="-107.99713506163297"><ele>1801.0000000000002</ele><time>2026-04-19T16:34:25.001Z</time></trkpt><trkpt lat="36.7889436271863" lon="-107.99711878060324"><ele>1801.0</ele><time>2026-04-19T16:34:27.001Z</time></trkpt><trkpt lat="36.789013290725826" lon="-107.99718713607112"><ele>1801.0</ele><time>2026-04-19T16:34:30.001Z</time></trkpt><trkpt lat="36.78908338563056" lon="-107.9971770312967"><ele>1801.0</ele><time>2026-04-19T16:34:32.001Z</time></trkpt><trkpt lat="36.789157359932325" lon="-107.99721122483304"><ele>1801.0000000000002</ele><time>2026-04-19T16:34:33.001Z</time></trkpt><trkpt lat="36.789237202313686" lon="-107.99724291451969"><ele>1801.0</ele><time>2026-04-19T16:34:34.001Z</time></trkpt><trkpt lat="36.78933549883714" lon="-107.99731811431772"><ele>1801.5</ele><time>2026-04-19T16:34:35.001Z</time></trkpt><trkpt lat="36.78944799516783" lon="-107.99738249879202"><ele>1802.0</ele><time>2026-04-19T16:34:36.001Z</time></trkpt><trkpt lat="36.78954911692897" lon="-107.99743406284419"><ele>1802.5</ele><time>2026-04-19T16:34:37.001Z</time></trkpt><trkpt lat="36.78967045773647" lon="-107.99751282736183"><ele>1803.0</ele><time>2026-04-19T16:34:38.001Z</time></trkpt><trkpt lat="36.78978051233291" lon="-107.99758494633183"><ele>1802.0</ele><time>2026-04-19T16:34:39.001Z</time></trkpt><trkpt lat="36.789867210993584" lon="-107.99763562520903"><ele>1801.0000000000002</ele><time>2026-04-19T16:34:40.001Z</time></trkpt><trkpt lat="36.78995950078101" lon="-107.99768032432677"><ele>1800.0000000000002</ele><time>2026-04-19T16:34:41.001Z</time></trkpt><trkpt lat="36.79006540694005" lon="-107.99773552003404"><ele>1799.0</ele><time>2026-04-19T16:34:42.001Z</time></trkpt><trkpt lat="36.790184686953516" lon="-107.99780499949468"><ele>1798.0</ele><time>2026-04-19T16:34:43.001Z</time></trkpt><trkpt lat="36.79029415473708" lon="-107.99787033086814"><ele>1797.5000000000002</ele><time>2026-04-19T16:34:44.001Z</time></trkpt><trkpt lat="36.79038569709809" lon="-107.9979195630967"><ele>1797.0</ele><time>2026-04-19T16:34:45.001Z</time></trkpt><trkpt lat="36.79045872922752" lon="-107.99795951369485"><ele>1796.5</ele><time>2026-04-19T16:34:46.001Z</time></trkpt><trkpt lat="36.790516992836906" lon="-107.99799787658637"><ele>1796.0</ele><time>2026-04-19T16:34:47.001Z</time></trkpt><trkpt lat="36.7905787811741" lon="-107.99803236329566"><ele>1795.5000000000002</ele><time>2026-04-19T16:34:48.001Z</time></trkpt><trkpt lat="36.79069669642591" lon="-107.99807984188546"><ele>1795.0</ele><time>2026-04-19T16:34:50.001Z</time></trkpt><trkpt lat="36.79077372052865" lon="-107.99810329948808"><ele>1795.0</ele><time>2026-04-19T16:34:51.001Z</time></trkpt><trkpt lat="36.79086587865781" lon="-107.99814599457457"><ele>1795.0</ele><time>2026-04-19T16:34:52.001Z</time></trkpt><trkpt lat="36.790960921682675" lon="-107.9981824914011"><ele>1795.0</ele><time>2026-04-19T16:34:53.001Z</time></trkpt><trkpt lat="36.7910795297892" lon="-107.99823808745768"><ele>1795.0</ele><time>2026-04-19T16:34:54.001Z</time></trkpt><trkpt lat="36.7911909528318" lon="-107.99832153977209"><ele>1793.4</ele><time>2026-04-19T16:34:55.001Z</time></trkpt><trkpt lat="36.791274267761985" lon="-107.99838349348055"><ele>1791.8</ele><time>2026-04-19T16:34:56.001Z</time></trkpt><trkpt lat="36.791365621054936" lon="-107.99837898569953"><ele>1790.1999999999998</ele><time>2026-04-19T16:34:58.001Z</time></trkpt><trkpt lat="36.79144993380367" lon="-107.9982716118054"><ele>1788.6</ele><time>2026-04-19T16:35:00.001Z</time></trkpt><trkpt lat="36.79150522993205" lon="-107.99821614465289"><ele>1787.0</ele><time>2026-04-19T16:35:02.001Z</time></trkpt><trkpt lat="36.79156600617544" lon="-107.9980887616089"><ele>1787.0</ele><time>2026-04-19T16:35:03.001Z</time></trkpt><trkpt lat="36.791538692369116" lon="-107.997943968523"><ele>1786.9999999999998</ele><time>2026-04-19T16:35:05.001Z</time></trkpt><trkpt lat="36.79148719908309" lon="-107.99781331365125"><ele>1786.9999999999998</ele><time>2026-04-19T16:35:06.001Z</time></trkpt><trkpt lat="36.791440224659006" lon="-107.99770096915736"><ele>1787.0</ele><time>2026-04-19T16:35:07.001Z</time></trkpt><trkpt lat="36.791382534665644" lon="-107.99763643462597"><ele>1787.0</ele><time>2026-04-19T16:35:08.001Z</time></trkpt><trkpt lat="36.79133353150851" lon="-107.99757697529128"><ele>1789.75</ele><time>2026-04-19T16:35:09.001Z</time></trkpt><trkpt lat="36.79135649280111" lon="-107.99744503874408"><ele>1792.5</ele><time>2026-04-19T16:35:11.001Z</time></trkpt><trkpt lat="36.79140971547734" lon="-107.99734076319956"><ele>1795.25</ele><time>2026-04-19T16:35:12.001Z</time></trkpt><trkpt lat="36.79131158199562" lon="-107.99714995932574"><ele>1798.0</ele><time>2026-04-19T16:35:15.001Z</time></trkpt><trkpt lat="36.79123258535184" lon="-107.99704221520359"><ele>1798.0000000000002</ele><time>2026-04-19T16:35:16.001Z</time></trkpt><trkpt lat="36.79118031782309" lon="-107.99695879527552"><ele>1798.0</ele><time>2026-04-19T16:35:17.001Z</time></trkpt><trkpt lat="36.79114652585534" lon="-107.99687986227588"><ele>1798.0</ele><time>2026-04-19T16:35:18.001Z</time></trkpt><trkpt lat="36.79111675859872" lon="-107.99675733176372"><ele>1798.0</ele><time>2026-04-19T16:35:19.001Z</time></trkpt><trkpt lat="36.79109415430027" lon="-107.99665486120361"><ele>1798.0000000000002</ele><time>2026-04-19T16:35:20.001Z</time></trkpt><trkpt lat="36.79104208322353" lon="-107.99656400983893"><ele>1798.0</ele><time>2026-04-19T16:35:21.001Z</time></trkpt><trkpt lat="36.79100509735267" lon="-107.99638365368166"><ele>1799.4</ele><time>2026-04-19T16:35:23.001Z</time></trkpt><trkpt lat="36.79098798864011" lon="-107.99624061232983"><ele>1800.8000000000002</ele><time>2026-04-19T16:35:24.001Z</time></trkpt><trkpt lat="36.79095272259563" lon="-107.99614271864824"><ele>1802.2</ele><time>2026-04-19T16:35:25.001Z</time></trkpt><trkpt lat="36.790855189029976" lon="-107.99605552403182"><ele>1803.6</ele><time>2026-04-19T16:35:27.001Z</time></trkpt><trkpt lat="36.79085806662696" lon="-107.99596843105608"><ele>1805.0</ele><time>2026-04-19T16:35:28.001Z</time></trkpt><trkpt lat="36.79082278889541" lon="-107.99587728493694"><ele>1805.9999999999998</ele><time>2026-04-19T16:35:29.001Z</time></trkpt><trkpt lat="36.790779097313525" lon="-107.99578219525517"><ele>1807.0</ele><time>2026-04-19T16:35:30.001Z</time></trkpt><trkpt lat="36.79077157994809" lon="-107.99568301327103"><ele>1808.0</ele><time>2026-04-19T16:35:31.001Z</time></trkpt><trkpt lat="36.790801547111215" lon="-107.99558550704812"><ele>1809.0</ele><time>2026-04-19T16:35:32.001Z</time></trkpt><trkpt lat="36.790803056338945" lon="-107.99547407652275"><ele>1809.9999999999998</ele><time>2026-04-19T16:35:33.001Z</time></trkpt><trkpt lat="36.790767361980706" lon="-107.99539063475007"><ele>1811.0</ele><time>2026-04-19T16:35:34.001Z</time></trkpt><trkpt lat="36.790679694185364" lon="-107.99529016208375"><ele>1811.0</ele><time>2026-04-19T16:35:35.001Z</time></trkpt><trkpt lat="36.79059132294398" lon="-107.99519620136009"><ele>1811.0</ele><time>2026-04-19T16:35:36.001Z</time></trkpt><trkpt lat="36.79056169796417" lon="-107.99511722325067"><ele>1811.0</ele><time>2026-04-19T16:35:37.001Z</time></trkpt><trkpt lat="36.79053614079274" lon="-107.99500673891909"><ele>1811.0</ele><time>2026-04-19T16:35:38.001Z</time></trkpt><trkpt lat="36.79050303306179" lon="-107.99488915233262"><ele>1811.0</ele><time>2026-04-19T16:35:39.001Z</time></trkpt><trkpt lat="36.79044955428829" lon="-107.99482296266152"><ele>1811.75</ele><time>2026-04-19T16:35:40.001Z</time></trkpt><trkpt lat="36.790357314971104" lon="-107.99474827622579"><ele>1812.5</ele><time>2026-04-19T16:35:41.001Z</time></trkpt><trkpt lat="36.79022828367322" lon="-107.99467149281713"><ele>1813.25</ele><time>2026-04-19T16:35:42.001Z</time></trkpt><trkpt lat="36.790106827706076" lon="-107.99461739449775"><ele>1814.0</ele><time>2026-04-19T16:35:43.001Z</time></trkpt><trkpt lat="36.79001426232746" lon="-107.99455622035183"><ele>1815.3333333333333</ele><time>2026-04-19T16:35:44.001Z</time></trkpt><trkpt lat="36.789931423938086" lon="-107.99451059924841"><ele>1816.6666666666665</ele><time>2026-04-19T16:35:45.001Z</time></trkpt><trkpt lat="36.789861912696814" lon="-107.99450448938198"><ele>1818.0</ele><time>2026-04-19T16:35:46.001Z</time></trkpt><trkpt lat="36.789774078722566" lon="-107.9945156039943"><ele>1819.3333333333335</ele><time>2026-04-19T16:35:47.001Z</time></trkpt><trkpt lat="36.789693583423826" lon="-107.99446673915642"><ele>1820.6666666666667</ele><time>2026-04-19T16:35:48.001Z</time></trkpt><trkpt lat="36.789665873344866" lon="-107.99437976751278"><ele>1822.0</ele><time>2026-04-19T16:35:49.001Z</time></trkpt><trkpt lat="36.78960967622893" lon="-107.99428241954"><ele>1822.0</ele><time>2026-04-19T16:35:50.001Z</time></trkpt><trkpt lat="36.789541900509676" lon="-107.9942047381618"><ele>1821.9999999999998</ele><time>2026-04-19T16:35:51.001Z</time></trkpt><trkpt lat="36.78951059009929" lon="-107.99409020553796"><ele>1821.9999999999998</ele><time>2026-04-19T16:35:52.001Z</time></trkpt><trkpt lat="36.78949629418555" lon="-107.99394849433632"><ele>1822.0</ele><time>2026-04-19T16:35:53.001Z</time></trkpt><trkpt lat="36.78948717121309" lon="-107.99384513406282"><ele>1822.0</ele><time>2026-04-19T16:35:54.001Z</time></trkpt><trkpt lat="36.78945913474578" lon="-107.99371105515777"><ele>1822.0</ele><time>2026-04-19T16:35:55.001Z</time></trkpt><trkpt lat="36.78939988178422" lon="-107.99358357939884"><ele>1821.9999999999998</ele><time>2026-04-19T16:35:56.001Z</time></trkpt><trkpt lat="36.78935285710956" lon="-107.99345389047092"><ele>1821.9999999999998</ele><time>2026-04-19T16:35:57.001Z</time></trkpt><trkpt lat="36.78932248670712" lon="-107.9933251423725"><ele>1822.0</ele><time>2026-04-19T16:35:58.002Z</time></trkpt><trkpt lat="36.789297252787385" lon="-107.99322783315598"><ele>1822.0</ele><time>2026-04-19T16:35:59.002Z</time></trkpt><trkpt lat="36.789246255817794" lon="-107.9931473546825"><ele>1823.0</ele><time>2026-04-19T16:36:00.002Z</time></trkpt><trkpt lat="36.789185599050064" lon="-107.99308108099244"><ele>1823.9999999999998</ele><time>2026-04-19T16:36:01.002Z</time></trkpt><trkpt lat="36.78911844066625" lon="-107.99299729175816"><ele>1824.9999999999998</ele><time>2026-04-19T16:36:02.002Z</time></trkpt><trkpt lat="36.789044866180866" lon="-107.99292159994268"><ele>1826.0</ele><time>2026-04-19T16:36:03.002Z</time></trkpt><trkpt lat="36.78894890098828" lon="-107.992836670919"><ele>1827.0</ele><time>2026-04-19T16:36:04.002Z</time></trkpt><trkpt lat="36.78884322355332" lon="-107.99275104914632"><ele>1827.0</ele><time>2026-04-19T16:36:05Z</time></trkpt><trkpt lat="36.788762966875254" lon="-107.99269105781403"><ele>1826.9999999999998</ele><time>2026-04-19T16:36:06Z</time></trkpt><trkpt lat="36.78870320934432" lon="-107.99265559264255"><ele>1826.9999999999998</ele><time>2026-04-19T16:36:07Z</time></trkpt><trkpt lat="36.78861993428419" lon="-107.99255980136556"><ele>1827.0</ele><time>2026-04-19T16:36:09Z</time></trkpt><trkpt lat="36.7885558869859" lon="-107.99249398157389"><ele>1827.0</ele><time>2026-04-19T16:36:10Z</time></trkpt><trkpt lat="36.788447737988406" lon="-107.99247470744314"><ele>1827.1666666666667</ele><time>2026-04-19T16:36:11Z</time></trkpt><trkpt lat="36.78835380107616" lon="-107.99244169167648"><ele>1827.3333333333335</ele><time>2026-04-19T16:36:12Z</time></trkpt><trkpt lat="36.78828208011185" lon="-107.99242753176704"><ele>1827.5</ele><time>2026-04-19T16:36:13Z</time></trkpt><trkpt lat="36.78820270114641" lon="-107.99244732821987"><ele>1827.6666666666667</ele><time>2026-04-19T16:36:14Z</time></trkpt><trkpt lat="36.78812902227932" lon="-107.99246675617393"><ele>1827.8333333333335</ele><time>2026-04-19T16:36:15Z</time></trkpt><trkpt lat="36.78805004148579" lon="-107.99245718120642"><ele>1828.0</ele><time>2026-04-19T16:36:16Z</time></trkpt><trkpt lat="36.78798317531747" lon="-107.99240676240024"><ele>1828.0</ele><time>2026-04-19T16:36:17Z</time></trkpt><trkpt lat="36.78789258260092" lon="-107.99231653201322"><ele>1828.0000000000002</ele><time>2026-04-19T16:36:18Z</time></trkpt><trkpt lat="36.787752785146985" lon="-107.99225720715856"><ele>1828.0000000000002</ele><time>2026-04-19T16:36:19Z</time></trkpt><trkpt lat="36.78766888400736" lon="-107.99221625109057"><ele>1828.0</ele><time>2026-04-19T16:36:20Z</time></trkpt><trkpt lat="36.78761947235148" lon="-107.9921605255352"><ele>1828.0</ele><time>2026-04-19T16:36:21Z</time></trkpt><trkpt lat="36.787578717709" lon="-107.99209050225613"><ele>1828.0</ele><time>2026-04-19T16:36:22Z</time></trkpt><trkpt lat="36.78753967434413" lon="-107.99200069492186"><ele>1828.0000000000002</ele><time>2026-04-19T16:36:23Z</time></trkpt><trkpt lat="36.78750142083383" lon="-107.99188123604405"><ele>1828.0000000000002</ele><time>2026-04-19T16:36:24Z</time></trkpt><trkpt lat="36.78747079777929" lon="-107.99173616805435"><ele>1828.0</ele><time>2026-04-19T16:36:25Z</time></trkpt><trkpt lat="36.78745414833945" lon="-107.99158254889257"><ele>1828.0</ele><time>2026-04-19T16:36:26Z</time></trkpt><trkpt lat="36.7874534450357" lon="-107.99143733393021"><ele>1828.25</ele><time>2026-04-19T16:36:27Z</time></trkpt><trkpt lat="36.7874617801115" lon="-107.99128851510866"><ele>1828.5</ele><time>2026-04-19T16:36:28Z</time></trkpt><trkpt lat="36.78745840132401" lon="-107.99114912636593"><ele>1828.75</ele><time>2026-04-19T16:36:29Z</time></trkpt><trkpt lat="36.78745764248557" lon="-107.99100276213464"><ele>1829.0</ele><time>2026-04-19T16:36:30.001Z</time></trkpt><trkpt lat="36.78745109502399" lon="-107.99085810997943"><ele>1829.6</ele><time>2026-04-19T16:36:31.001Z</time></trkpt><trkpt lat="36.78744241649659" lon="-107.99077453664317"><ele>1830.2</ele><time>2026-04-19T16:36:32.001Z</time></trkpt><trkpt lat="36.78733638049413" lon="-107.99063672489373"><ele>1830.7999999999997</ele><time>2026-04-19T16:36:34.001Z</time></trkpt><trkpt lat="36.787248811273514" lon="-107.99055488515147"><ele>1831.3999999999999</ele><time>2026-04-19T16:36:35.001Z</time></trkpt><trkpt lat="36.78718484483153" lon="-107.99046041890715"><ele>1832.0</ele><time>2026-04-19T16:36:36.001Z</time></trkpt><trkpt lat="36.78712719557032" lon="-107.99038562399319"><ele>1832.0</ele><time>2026-04-19T16:36:37.001Z</time></trkpt><trkpt lat="36.78705835186609" lon="-107.99035416713402"><ele>1831.9999999999998</ele><time>2026-04-19T16:36:38.001Z</time></trkpt><trkpt lat="36.786989948046184" lon="-107.99035189818204"><ele>1831.9999999999998</ele><time>2026-04-19T16:36:39.001Z</time></trkpt><trkpt lat="36.786881866624036" lon="-107.990458635086"><ele>1832.0</ele><time>2026-04-19T16:36:41.001Z</time></trkpt><trkpt lat="36.78680015002304" lon="-107.99046801085622"><ele>1832.0</ele><time>2026-04-19T16:36:42.001Z</time></trkpt><trkpt lat="36.786695139294196" lon="-107.99043057836661"><ele>1832.6</ele><time>2026-04-19T16:36:43.001Z</time></trkpt><trkpt lat="36.78658912027157" lon="-107.99042816594499"><ele>1833.1999999999998</ele><time>2026-04-19T16:36:44.001Z</time></trkpt><trkpt lat="36.78651880054769" lon="-107.99047645940347"><ele>1833.8</ele><time>2026-04-19T16:36:45.001Z</time></trkpt><trkpt lat="36.786420123391316" lon="-107.99052343371449"><ele>1834.4</ele><time>2026-04-19T16:36:46.001Z</time></trkpt><trkpt lat="36.78630749924128" lon="-107.99054541036853"><ele>1835.0</ele><time>2026-04-19T16:36:47.001Z</time></trkpt><trkpt lat="36.78620879442256" lon="-107.99053838856535"><ele>1835.0</ele><time>2026-04-19T16:36:48.001Z</time></trkpt><trkpt lat="36.78611594862306" lon="-107.99054406362208"><ele>1835.0</ele><time>2026-04-19T16:36:49.001Z</time></trkpt><trkpt lat="36.785996844315406" lon="-107.99057913783066"><ele>1835.0</ele><time>2026-04-19T16:36:50.001Z</time></trkpt><trkpt lat="36.78590272870039" lon="-107.99060096531719"><ele>1835.0</ele><time>2026-04-19T16:36:51.001Z</time></trkpt><trkpt lat="36.78578838161945" lon="-107.99062421450195"><ele>1835.0</ele><time>2026-04-19T16:36:52.001Z</time></trkpt><trkpt lat="36.78570258304722" lon="-107.99062307407222"><ele>1835.8</ele><time>2026-04-19T16:36:53.001Z</time></trkpt><trkpt lat="36.78560892454895" lon="-107.9906056409167"><ele>1836.6</ele><time>2026-04-19T16:36:54.001Z</time></trkpt><trkpt lat="36.78553490046924" lon="-107.99057449950968"><ele>1837.4</ele><time>2026-04-19T16:36:55.001Z</time></trkpt><trkpt lat="36.78544048562955" lon="-107.99053382160186"><ele>1838.2</ele><time>2026-04-19T16:36:56.001Z</time></trkpt><trkpt lat="36.78535425509588" lon="-107.99050299606787"><ele>1839.0</ele><time>2026-04-19T16:36:57.001Z</time></trkpt><trkpt lat="36.785233368513595" lon="-107.9904557164697"><ele>1838.6</ele><time>2026-04-19T16:36:59.001Z</time></trkpt><trkpt lat="36.78517326338846" lon="-107.99038729197504"><ele>1838.2</ele><time>2026-04-19T16:37:00.001Z</time></trkpt><trkpt lat="36.78510608718222" lon="-107.99032903199074"><ele>1837.7999999999997</ele><time>2026-04-19T16:37:01.001Z</time></trkpt><trkpt lat="36.78503128700013" lon="-107.99031395904592"><ele>1837.3999999999999</ele><time>2026-04-19T16:37:02.001Z</time></trkpt><trkpt lat="36.784954577706216" lon="-107.99030633756699"><ele>1837.0</ele><time>2026-04-19T16:37:03.001Z</time></trkpt><trkpt lat="36.784890723873346" lon="-107.99015525328555"><ele>1837.0</ele><time>2026-04-19T16:37:05.001Z</time></trkpt><trkpt lat="36.78480590822725" lon="-107.99005485538255"><ele>1836.9999999999998</ele><time>2026-04-19T16:37:06.001Z</time></trkpt><trkpt lat="36.78470051607505" lon="-107.98996436872444"><ele>1836.9999999999998</ele><time>2026-04-19T16:37:07.001Z</time></trkpt><trkpt lat="36.784633261512894" lon="-107.98985817047733"><ele>1837.0</ele><time>2026-04-19T16:37:08.001Z</time></trkpt><trkpt lat="36.78458175055243" lon="-107.98976282273435"><ele>1837.0</ele><time>2026-04-19T16:37:09.001Z</time></trkpt><trkpt lat="36.78444396603279" lon="-107.9897336656696"><ele>1837.1666666666667</ele><time>2026-04-19T16:37:11.001Z</time></trkpt><trkpt lat="36.784339662213014" lon="-107.98973528645666"><ele>1837.3333333333335</ele><time>2026-04-19T16:37:12.001Z</time></trkpt><trkpt lat="36.78425296402673" lon="-107.98971608057647"><ele>1837.5</ele><time>2026-04-19T16:37:13.001Z</time></trkpt><trkpt lat="36.78418180533076" lon="-107.98966485700082"><ele>1837.6666666666665</ele><time>2026-04-19T16:37:14.001Z</time></trkpt><trkpt lat="36.784127693294714" lon="-107.98960310166152"><ele>1837.8333333333333</ele><time>2026-04-19T16:37:15.001Z</time></trkpt><trkpt lat="36.78404489623899" lon="-107.9895882267919"><ele>1838.0</ele><time>2026-04-19T16:37:16.001Z</time></trkpt><trkpt lat="36.783981062927054" lon="-107.98957913599824"><ele>1838.0</ele><time>2026-04-19T16:37:17.001Z</time></trkpt><trkpt lat="36.78391076730562" lon="-107.98945676111184"><ele>1838.0000000000002</ele><time>2026-04-19T16:37:19.001Z</time></trkpt><trkpt lat="36.783904859829896" lon="-107.98935964140063"><ele>1838.0000000000002</ele><time>2026-04-19T16:37:20.001Z</time></trkpt><trkpt lat="36.783866539574284" lon="-107.98927509463032"><ele>1838.0</ele><time>2026-04-19T16:37:21.001Z</time></trkpt><trkpt lat="36.78379898806114" lon="-107.98919406854895"><ele>1838.0</ele><time>2026-04-19T16:37:22.001Z</time></trkpt><trkpt lat="36.783717062530364" lon="-107.9891194652911"><ele>1838.8000000000002</ele><time>2026-04-19T16:37:23.001Z</time></trkpt><trkpt lat="36.783640408211355" lon="-107.98908814984465"><ele>1839.6000000000001</ele><time>2026-04-19T16:37:24.001Z</time></trkpt><trkpt lat="36.78354799717023" lon="-107.9890550015074"><ele>1840.3999999999999</ele><time>2026-04-19T16:37:25.001Z</time></trkpt><trkpt lat="36.78345125072874" lon="-107.98901879383138"><ele>1841.1999999999998</ele><time>2026-04-19T16:37:26.001Z</time></trkpt><trkpt lat="36.78335498076099" lon="-107.98901651569028"><ele>1842.0</ele><time>2026-04-19T16:37:27.001Z</time></trkpt><trkpt lat="36.78325473357869" lon="-107.98903218369128"><ele>1843.1999999999998</ele><time>2026-04-19T16:37:28.001Z</time></trkpt><trkpt lat="36.78315899746821" lon="-107.9890186395874"><ele>1844.3999999999999</ele><time>2026-04-19T16:37:29.001Z</time></trkpt><trkpt lat="36.78306761851159" lon="-107.98899135215791"><ele>1845.6000000000001</ele><time>2026-04-19T16:37:30.001Z</time></trkpt><trkpt lat="36.78299742591742" lon="-107.98900874644242"><ele>1846.8000000000002</ele><time>2026-04-19T16:37:31.001Z</time></trkpt><trkpt lat="36.78293642602445" lon="-107.9890301355166"><ele>1848.0</ele><time>2026-04-19T16:37:32.001Z</time></trkpt><trkpt lat="36.78286253802697" lon="-107.9888929778252"><ele>1848.0</ele><time>2026-04-19T16:37:34.001Z</time></trkpt><trkpt lat="36.78284468331189" lon="-107.98878639539294"><ele>1848.0000000000002</ele><time>2026-04-19T16:37:35.001Z</time></trkpt><trkpt lat="36.78282526872207" lon="-107.98866660304363"><ele>1848.0000000000002</ele><time>2026-04-19T16:37:36.001Z</time></trkpt><trkpt lat="36.78279321047694" lon="-107.98853685391393"><ele>1848.0</ele><time>2026-04-19T16:37:37.001Z</time></trkpt><trkpt lat="36.78276448148016" lon="-107.9884324230202"><ele>1848.0</ele><time>2026-04-19T16:37:38.001Z</time></trkpt><trkpt lat="36.78272603738362" lon="-107.98835029937057"><ele>1848.8000000000002</ele><time>2026-04-19T16:37:39.001Z</time></trkpt><trkpt lat="36.78266060925758" lon="-107.98826141649499"><ele>1849.6000000000001</ele><time>2026-04-19T16:37:40.001Z</time></trkpt><trkpt lat="36.782581866587485" lon="-107.9881483331961"><ele>1850.3999999999999</ele><time>2026-04-19T16:37:41.001Z</time></trkpt><trkpt lat="36.78253030454975" lon="-107.98805720223316"><ele>1851.1999999999998</ele><time>2026-04-19T16:37:42.001Z</time></trkpt><trkpt lat="36.78248869343023" lon="-107.98794609148496"><ele>1852.0</ele><time>2026-04-19T16:37:43.001Z</time></trkpt><trkpt lat="36.78243852956807" lon="-107.98780859332484"><ele>1852.0</ele><time>2026-04-19T16:37:44.001Z</time></trkpt><trkpt lat="36.78238973422712" lon="-107.98769521419429"><ele>1851.9999999999998</ele><time>2026-04-19T16:37:45.001Z</time></trkpt><trkpt lat="36.78234048924154" lon="-107.98763402842282"><ele>1851.9999999999998</ele><time>2026-04-19T16:37:46.001Z</time></trkpt><trkpt lat="36.78227709880497" lon="-107.98760063747785"><ele>1852.0</ele><time>2026-04-19T16:37:47.001Z</time></trkpt><trkpt lat="36.78217313601002" lon="-107.98760035718428"><ele>1852.0</ele><time>2026-04-19T16:37:48.001Z</time></trkpt><trkpt lat="36.78205086075421" lon="-107.98757467514687"><ele>1852.0</ele><time>2026-04-19T16:37:49.001Z</time></trkpt><trkpt lat="36.78193551358484" lon="-107.9875207950822"><ele>1852.0</ele><time>2026-04-19T16:37:50.001Z</time></trkpt><trkpt lat="36.78182431576046" lon="-107.98750786562717"><ele>1852.0</ele><time>2026-04-19T16:37:51.001Z</time></trkpt><trkpt lat="36.78170137524494" lon="-107.98752908323188"><ele>1852.0</ele><time>2026-04-19T16:37:52.001Z</time></trkpt><trkpt lat="36.781583238196276" lon="-107.98753272511772"><ele>1851.6</ele><time>2026-04-19T16:37:53.001Z</time></trkpt><trkpt lat="36.781461025497094" lon="-107.98752878439329"><ele>1851.1999999999998</ele><time>2026-04-19T16:37:54.001Z</time></trkpt><trkpt lat="36.781346901245115" lon="-107.98753432565846"><ele>1850.8</ele><time>2026-04-19T16:37:55.001Z</time></trkpt><trkpt lat="36.78125212581166" lon="-107.98753440076213"><ele>1850.4</ele><time>2026-04-19T16:37:56.001Z</time></trkpt><trkpt lat="36.78115630427395" lon="-107.98751738550264"><ele>1850.0</ele><time>2026-04-19T16:37:57.001Z</time></trkpt><trkpt lat="36.78105780857767" lon="-107.98749519059746"><ele>1848.8333333333333</ele><time>2026-04-19T16:37:58.001Z</time></trkpt><trkpt lat="36.78096321764013" lon="-107.98747244387769"><ele>1847.6666666666665</ele><time>2026-04-19T16:37:59.001Z</time></trkpt><trkpt lat="36.78089874505127" lon="-107.98745221572433"><ele>1846.5</ele><time>2026-04-19T16:38:00.001Z</time></trkpt><trkpt lat="36.780764571800255" lon="-107.9874575397703"><ele>1845.3333333333335</ele><time>2026-04-19T16:38:02.001Z</time></trkpt><trkpt lat="36.78069869371365" lon="-107.98741095571252"><ele>1844.1666666666667</ele><time>2026-04-19T16:38:03.001Z</time></trkpt><trkpt lat="36.78064973196006" lon="-107.98735977459944"><ele>1843.0</ele><time>2026-04-19T16:38:04.001Z</time></trkpt><trkpt lat="36.78059687666175" lon="-107.98724088024557"><ele>1843.0</ele><time>2026-04-19T16:38:06.001Z</time></trkpt><trkpt lat="36.78061942253497" lon="-107.98710504629683"><ele>1843.0000000000002</ele><time>2026-04-19T16:38:08.002Z</time></trkpt><trkpt lat="36.78063043204237" lon="-107.98700670079297"><ele>1843.0000000000002</ele><time>2026-04-19T16:38:09.002Z</time></trkpt><trkpt lat="36.780629334412275" lon="-107.98690923861555"><ele>1843.0</ele><time>2026-04-19T16:38:10.002Z</time></trkpt><trkpt lat="36.78059716087797" lon="-107.98681488668531"><ele>1843.0</ele><time>2026-04-19T16:38:11Z</time></trkpt><trkpt lat="36.78055491275437" lon="-107.98669448196476"><ele>1842.1666666666667</ele><time>2026-04-19T16:38:12Z</time></trkpt><trkpt lat="36.78051911899539" lon="-107.98656140061891"><ele>1841.3333333333335</ele><time>2026-04-19T16:38:13Z</time></trkpt><trkpt lat="36.78048494739411" lon="-107.98645743487488"><ele>1840.5</ele><time>2026-04-19T16:38:14Z</time></trkpt><trkpt lat="36.7804447776818" lon="-107.98638682100962"><ele>1839.6666666666665</ele><time>2026-04-19T16:38:15Z</time></trkpt><trkpt lat="36.78038235197409" lon="-107.98633517928513"><ele>1838.8333333333333</ele><time>2026-04-19T16:38:16Z</time></trkpt><trkpt lat="36.78030651092561" lon="-107.98628142040354"><ele>1838.0</ele><time>2026-04-19T16:38:17Z</time></trkpt><trkpt lat="36.78024672404171" lon="-107.98622977789975"><ele>1837.0</ele><time>2026-04-19T16:38:18Z</time></trkpt><trkpt lat="36.78017774294062" lon="-107.98619973056051"><ele>1836.0000000000002</ele><time>2026-04-19T16:38:19Z</time></trkpt><trkpt lat="36.780083262500995" lon="-107.98615678198139"><ele>1835.0000000000002</ele><time>2026-04-19T16:38:20Z</time></trkpt><trkpt lat="36.77998012274685" lon="-107.98608972479391"><ele>1834.0</ele><time>2026-04-19T16:38:21Z</time></trkpt><trkpt lat="36.779894249478396" lon="-107.98603559364314"><ele>1833.0</ele><time>2026-04-19T16:38:22Z</time></trkpt><trkpt lat="36.77983392077113" lon="-107.98599409649965"><ele>1833.0</ele><time>2026-04-19T16:38:23Z</time></trkpt><trkpt lat="36.779755658536" lon="-107.98593001079473"><ele>1833.0</ele><time>2026-04-19T16:38:24Z</time></trkpt><trkpt lat="36.77967313127864" lon="-107.98587426036461"><ele>1833.0</ele><time>2026-04-19T16:38:25Z</time></trkpt><trkpt lat="36.779589213957834" lon="-107.98583486031848"><ele>1833.0</ele><time>2026-04-19T16:38:26Z</time></trkpt><trkpt lat="36.779509040619715" lon="-107.98579406050003"><ele>1833.0</ele><time>2026-04-19T16:38:27Z</time></trkpt><trkpt lat="36.77944662171414" lon="-107.985778634394"><ele>1833.0</ele><time>2026-04-19T16:38:28Z</time></trkpt><trkpt lat="36.77938065002793" lon="-107.98577655920013"><ele>1831.0</ele><time>2026-04-19T16:38:29Z</time></trkpt><trkpt lat="36.779298687759635" lon="-107.98576263733774"><ele>1829.0</ele><time>2026-04-19T16:38:30Z</time></trkpt><trkpt lat="36.77923525637649" lon="-107.98570661767934"><ele>1827.0</ele><time>2026-04-19T16:38:31Z</time></trkpt><trkpt lat="36.779195036554135" lon="-107.98562598728289"><ele>1825.0</ele><time>2026-04-19T16:38:32Z</time></trkpt><trkpt lat="36.77914804007842" lon="-107.98554290611887"><ele>1823.0</ele><time>2026-04-19T16:38:33Z</time></trkpt><trkpt lat="36.77906308152393" lon="-107.98552052211487"><ele>1821.0</ele><time>2026-04-19T16:38:34Z</time></trkpt><trkpt lat="36.77896821667591" lon="-107.98550697154059"><ele>1821.0</ele><time>2026-04-19T16:38:35Z</time></trkpt><trkpt lat="36.77890224435408" lon="-107.98546607419435"><ele>1821.0</ele><time>2026-04-19T16:38:36Z</time></trkpt><trkpt lat="36.77883743758584" lon="-107.98531794273609"><ele>1821.0</ele><time>2026-04-19T16:38:38Z</time></trkpt><trkpt lat="36.77879808412419" lon="-107.98522607999978"><ele>1821.0</ele><time>2026-04-19T16:38:39Z</time></trkpt><trkpt lat="36.77874292607533" lon="-107.98514711047315"><ele>1821.0</ele><time>2026-04-19T16:38:40.001Z</time></trkpt><trkpt lat="36.77867414713823" lon="-107.98506414194551"><ele>1820.8333333333333</ele><time>2026-04-19T16:38:41.001Z</time></trkpt><trkpt lat="36.77861605546498" lon="-107.98495572468272"><ele>1820.6666666666665</ele><time>2026-04-19T16:38:42.001Z</time></trkpt><trkpt lat="36.778566048163036" lon="-107.98485779186312"><ele>1820.5</ele><time>2026-04-19T16:38:43.001Z</time></trkpt><trkpt lat="36.77848543182629" lon="-107.98479183767951"><ele>1820.3333333333333</ele><time>2026-04-19T16:38:45.001Z</time></trkpt><trkpt lat="36.77841812528793" lon="-107.98477815618438"><ele>1820.1666666666665</ele><time>2026-04-19T16:38:46.001Z</time></trkpt><trkpt lat="36.778337315568905" lon="-107.98476392184703"><ele>1820.0</ele><time>2026-04-19T16:38:47.001Z</time></trkpt><trkpt lat="36.778239828335074" lon="-107.98478737602342"><ele>1818.6</ele><time>2026-04-19T16:38:48.001Z</time></trkpt><trkpt lat="36.778145768986136" lon="-107.98483496052208"><ele>1817.2</ele><time>2026-04-19T16:38:49.001Z</time></trkpt><trkpt lat="36.778083286699584" lon="-107.98486762054391"><ele>1815.8000000000002</ele><time>2026-04-19T16:38:50.001Z</time></trkpt><trkpt lat="36.77801833643934" lon="-107.98485363084905"><ele>1814.4</ele><time>2026-04-19T16:38:51.001Z</time></trkpt><trkpt lat="36.77792841699166" lon="-107.98479496205114"><ele>1813.0</ele><time>2026-04-19T16:38:52.001Z</time></trkpt><trkpt lat="36.777822125969024" lon="-107.9847432432232"><ele>1813.0</ele><time>2026-04-19T16:38:53.001Z</time></trkpt><trkpt lat="36.77771744672546" lon="-107.98476067556966"><ele>1813.0000000000002</ele><time>2026-04-19T16:38:54.001Z</time></trkpt><trkpt lat="36.777616742073405" lon="-107.98475571384591"><ele>1813.0000000000002</ele><time>2026-04-19T16:38:55.001Z</time></trkpt><trkpt lat="36.77752714986467" lon="-107.98473596118716"><ele>1813.0</ele><time>2026-04-19T16:38:56.001Z</time></trkpt><trkpt lat="36.77745897213186" lon="-107.9846934473067"><ele>1813.0</ele><time>2026-04-19T16:38:57.001Z</time></trkpt><trkpt lat="36.77738569459099" lon="-107.98460820763253"><ele>1812.4</ele><time>2026-04-19T16:38:58.001Z</time></trkpt><trkpt lat="36.77732120351734" lon="-107.98451046402148"><ele>1811.8000000000002</ele><time>2026-04-19T16:38:59.001Z</time></trkpt><trkpt lat="36.77726567002153" lon="-107.98446601687449"><ele>1811.2</ele><time>2026-04-19T16:39:00.001Z</time></trkpt><trkpt lat="36.77711919903254" lon="-107.98444878789988"><ele>1810.6</ele><time>2026-04-19T16:39:02.001Z</time></trkpt><trkpt lat="36.77701509635295" lon="-107.98445245165736"><ele>1810.0</ele><time>2026-04-19T16:39:03.001Z</time></trkpt><trkpt lat="36.77692459241883" lon="-107.9844156331628"><ele>1809.6</ele><time>2026-04-19T16:39:04.001Z</time></trkpt><trkpt lat="36.77683216900294" lon="-107.98436312243612"><ele>1809.2</ele><time>2026-04-19T16:39:05.001Z</time></trkpt><trkpt lat="36.77670837033774" lon="-107.9843143379444"><ele>1808.8000000000002</ele><time>2026-04-19T16:39:06.001Z</time></trkpt><trkpt lat="36.776622800953795" lon="-107.98429450215706"><ele>1808.4</ele><time>2026-04-19T16:39:07.001Z</time></trkpt><trkpt lat="36.77653325411897" lon="-107.98424016952053"><ele>1808.0</ele><time>2026-04-19T16:39:08.001Z</time></trkpt><trkpt lat="36.77647103950628" lon="-107.98419516901612"><ele>1808.0</ele><time>2026-04-19T16:39:09.001Z</time></trkpt><trkpt lat="36.77637060642341" lon="-107.98416144342465"><ele>1808.0000000000002</ele><time>2026-04-19T16:39:11.001Z</time></trkpt><trkpt lat="36.77629731726239" lon="-107.98411345760233"><ele>1808.0000000000002</ele><time>2026-04-19T16:39:13.001Z</time></trkpt><trkpt lat="36.776264694102515" lon="-107.98421473011078"><ele>1808.0</ele><time>2026-04-19T16:39:17.001Z</time></trkpt><trkpt lat="36.776297966224696" lon="-107.9844033410096"><ele>1808.0</ele><time>2026-04-19T16:39:19.001Z</time></trkpt><trkpt lat="36.7763111087717" lon="-107.98451760066041"><ele>1807.9999999999998</ele><time>2026-04-19T16:39:20.001Z</time></trkpt><trkpt lat="36.7763087240856" lon="-107.98460951652366"><ele>1808.0</ele><time>2026-04-19T16:39:21.001Z</time></trkpt><trkpt lat="36.77629904442604" lon="-107.98469834501152"><ele>1808.0</ele><time>2026-04-19T16:39:22.001Z</time></trkpt><trkpt lat="36.77629758624853" lon="-107.98482392636646"><ele>1808.0</ele><time>2026-04-19T16:39:23.001Z</time></trkpt><trkpt lat="36.77633500127719" lon="-107.98494358858599"><ele>1807.9999999999998</ele><time>2026-04-19T16:39:24.001Z</time></trkpt><trkpt lat="36.7763695843618" lon="-107.98505437907241"><ele>1808.0</ele><time>2026-04-19T16:39:25.001Z</time></trkpt><trkpt lat="36.77637595190281" lon="-107.98517019365855"><ele>1808.6666666666665</ele><time>2026-04-19T16:39:26.001Z</time></trkpt><trkpt lat="36.77638527844479" lon="-107.98530016262507"><ele>1809.3333333333333</ele><time>2026-04-19T16:39:27.001Z</time></trkpt><trkpt lat="36.776403901201704" lon="-107.9854230657861"><ele>1810.0</ele><time>2026-04-19T16:39:28.001Z</time></trkpt><trkpt lat="36.77640538679132" lon="-107.98551994509587"><ele>1810.6666666666665</ele><time>2026-04-19T16:39:29.001Z</time></trkpt><trkpt lat="36.77638611913789" lon="-107.9855989229128"><ele>1811.3333333333333</ele><time>2026-04-19T16:39:30.001Z</time></trkpt><trkpt lat="36.77634956086083" lon="-107.9856932192494"><ele>1812.0</ele><time>2026-04-19T16:39:31.001Z</time></trkpt><trkpt lat="36.776314127967424" lon="-107.98578129285448"><ele>1812.0</ele><time>2026-04-19T16:39:32.001Z</time></trkpt><trkpt lat="36.776229257527056" lon="-107.98577642144537"><ele>1811.9999999999998</ele><time>2026-04-19T16:39:35.001Z</time></trkpt><trkpt lat="36.77617160769707" lon="-107.98563752559704"><ele>1811.9999999999998</ele><time>2026-04-19T16:39:37.001Z</time></trkpt><trkpt lat="36.77618299420921" lon="-107.9854350276686"><ele>1812.0</ele><time>2026-04-19T16:39:39.001Z</time></trkpt><trkpt lat="36.776175489679396" lon="-107.98535264727717"><ele>1812.0</ele><time>2026-04-19T16:39:40.001Z</time></trkpt><trkpt lat="36.77616010787856" lon="-107.98524231779018"><ele>1812.0</ele><time>2026-04-19T16:39:42.001Z</time></trkpt><trkpt lat="36.776172749525394" lon="-107.98512410293071"><ele>1811.9999999999998</ele><time>2026-04-19T16:40:03.001Z</time></trkpt><trkpt lat="36.77617731240128" lon="-107.98497934025113"><ele>1811.9999999999998</ele><time>2026-04-19T16:40:05.001Z</time></trkpt><trkpt lat="36.776173941273804" lon="-107.98488030825263"><ele>1812.0</ele><time>2026-04-19T16:40:06.001Z</time></trkpt><trkpt lat="36.776169832525504" lon="-107.98475598695202"><ele>1812.0</ele><time>2026-04-19T16:40:07.001Z</time></trkpt><trkpt lat="36.77615982955601" lon="-107.98463984840878"><ele>1811.3333333333333</ele><time>2026-04-19T16:40:08.001Z</time></trkpt><trkpt lat="36.776139205183455" lon="-107.98454185554688"><ele>1810.6666666666665</ele><time>2026-04-19T16:40:09.001Z</time></trkpt><trkpt lat="36.776096117960336" lon="-107.98445039599252"><ele>1810.0</ele><time>2026-04-19T16:40:10.001Z</time></trkpt><trkpt lat="36.77603569007725" lon="-107.9843582959112"><ele>1809.3333333333333</ele><time>2026-04-19T16:40:11.001Z</time></trkpt><trkpt lat="36.77600036369309" lon="-107.98428033207922"><ele>1808.6666666666665</ele><time>2026-04-19T16:40:12.001Z</time></trkpt><trkpt lat="36.775998974340396" lon="-107.98419887876176"><ele>1808.0</ele><time>2026-04-19T16:40:14.001Z</time></trkpt><trkpt lat="36.776014929540544" lon="-107.9841182217766"><ele>1807.5</ele><time>2026-04-19T16:40:16.001Z</time></trkpt><trkpt lat="36.77607855199371" lon="-107.98401919056508"><ele>1807.0</ele><time>2026-04-19T16:40:19Z</time></trkpt><trkpt lat="36.776124234187584" lon="-107.98388592319432"><ele>1806.5</ele><time>2026-04-19T16:40:21Z</time></trkpt><trkpt lat="36.776053533277924" lon="-107.9837465024741"><ele>1806.0</ele><time>2026-04-19T16:40:23Z</time></trkpt><trkpt lat="36.77596764523109" lon="-107.98366839512711"><ele>1805.1999999999998</ele><time>2026-04-19T16:40:24Z</time></trkpt><trkpt lat="36.77591832223702" lon="-107.98361721014935"><ele>1804.3999999999999</ele><time>2026-04-19T16:40:25Z</time></trkpt><trkpt lat="36.77588887642144" lon="-107.9834623681251"><ele>1803.6</ele><time>2026-04-19T16:40:27Z</time></trkpt><trkpt lat="36.775836476155675" lon="-107.98334079880732"><ele>1802.8</ele><time>2026-04-19T16:40:28Z</time></trkpt><trkpt lat="36.77581412842699" lon="-107.98323208362292"><ele>1802.0</ele><time>2026-04-19T16:40:29Z</time></trkpt><trkpt lat="36.7757365920429" lon="-107.9831331655329"><ele>1801.75</ele><time>2026-04-19T16:40:31Z</time></trkpt><trkpt lat="36.77566641307878" lon="-107.98295633792284"><ele>1801.5</ele><time>2026-04-19T16:40:33Z</time></trkpt><trkpt lat="36.775632032211874" lon="-107.98281130939206"><ele>1801.25</ele><time>2026-04-19T16:40:34Z</time></trkpt><trkpt lat="36.775592337106296" lon="-107.98269358222092"><ele>1801.0</ele><time>2026-04-19T16:40:35Z</time></trkpt><trkpt lat="36.775581428184566" lon="-107.98259869680908"><ele>1801.0000000000002</ele><time>2026-04-19T16:40:36Z</time></trkpt><trkpt lat="36.775587900816724" lon="-107.98251105607143"><ele>1801.0</ele><time>2026-04-19T16:40:37Z</time></trkpt><trkpt lat="36.77559595712504" lon="-107.98239081182751"><ele>1801.0</ele><time>2026-04-19T16:40:38Z</time></trkpt><trkpt lat="36.77558470696639" lon="-107.98230336679335"><ele>1801.0</ele><time>2026-04-19T16:40:39Z</time></trkpt><trkpt lat="36.77554009260138" lon="-107.98222013900235"><ele>1801.0000000000002</ele><time>2026-04-19T16:40:40Z</time></trkpt><trkpt lat="36.77548812998715" lon="-107.9821084287577"><ele>1801.0</ele><time>2026-04-19T16:40:41Z</time></trkpt><trkpt lat="36.77547264038471" lon="-107.98198782303902"><ele>1801.0</ele><time>2026-04-19T16:40:42Z</time></trkpt><trkpt lat="36.775473229574736" lon="-107.98190577584637"><ele>1801.0</ele><time>2026-04-19T16:40:43Z</time></trkpt><trkpt lat="36.77545815795321" lon="-107.98182315084594"><ele>1801.0</ele><time>2026-04-19T16:40:44Z</time></trkpt><trkpt lat="36.7754334435129" lon="-107.9817470127387"><ele>1801.0</ele><time>2026-04-19T16:40:45Z</time></trkpt><trkpt lat="36.77537772133666" lon="-107.98167117662628"><ele>1801.0</ele><time>2026-04-19T16:40:46Z</time></trkpt><trkpt lat="36.77531579263739" lon="-107.98158848093078"><ele>1801.0</ele><time>2026-04-19T16:40:47.001Z</time></trkpt><trkpt lat="36.775287345415634" lon="-107.98150476112036"><ele>1801.0</ele><time>2026-04-19T16:40:48.001Z</time></trkpt><trkpt lat="36.77528188744052" lon="-107.98137840560472"><ele>1800.6666666666667</ele><time>2026-04-19T16:40:49.001Z</time></trkpt><trkpt lat="36.77528211067191" lon="-107.98126157174116"><ele>1800.3333333333335</ele><time>2026-04-19T16:40:50.001Z</time></trkpt><trkpt lat="36.775223557318846" lon="-107.98119130882726"><ele>1800.0</ele><time>2026-04-19T16:40:54.001Z</time></trkpt><trkpt lat="36.77529410958745" lon="-107.98110016544241"><ele>1799.6666666666665</ele><time>2026-04-19T16:40:56.001Z</time></trkpt><trkpt lat="36.77535723369045" lon="-107.9810485162167"><ele>1799.3333333333333</ele><time>2026-04-19T16:40:57.001Z</time></trkpt><trkpt lat="36.77542890872391" lon="-107.98100042156652"><ele>1799.0</ele><time>2026-04-19T16:40:58.001Z</time></trkpt><trkpt lat="36.77551525401925" lon="-107.98094922752297"><ele>1799.0</ele><time>2026-04-19T16:40:59.001Z</time></trkpt><trkpt lat="36.77561107634507" lon="-107.98091112691017"><ele>1799.0</ele><time>2026-04-19T16:41:00.001Z</time></trkpt><trkpt lat="36.775727131028574" lon="-107.98090177287177"><ele>1799.0</ele><time>2026-04-19T16:41:01.001Z</time></trkpt><trkpt lat="36.77585418669445" lon="-107.98090750599438"><ele>1799.0</ele><time>2026-04-19T16:41:02.001Z</time></trkpt><trkpt lat="36.77597430951136" lon="-107.98088790090068"><ele>1799.0</ele><time>2026-04-19T16:41:03.001Z</time></trkpt><trkpt lat="36.776091020062246" lon="-107.9808495407263"><ele>1799.0</ele><time>2026-04-19T16:41:04.001Z</time></trkpt><trkpt lat="36.776175449978496" lon="-107.98081507892526"><ele>1799.0</ele><time>2026-04-19T16:41:05.001Z</time></trkpt><trkpt lat="36.77623645794422" lon="-107.9807892062386"><ele>1799.0</ele><time>2026-04-19T16:41:06.001Z</time></trkpt><trkpt lat="36.7763199360382" lon="-107.98076273891346"><ele>1799.0</ele><time>2026-04-19T16:41:08.001Z</time></trkpt><trkpt lat="36.776188467594984" lon="-107.98080931428105"><ele>1799.0</ele><time>2026-04-19T16:41:29.001Z</time></trkpt><trkpt lat="36.77609767217121" lon="-107.98084309423112"><ele>1799.0</ele><time>2026-04-19T16:41:30.001Z</time></trkpt><trkpt lat="36.775991562985645" lon="-107.98087613472535"><ele>1799.0</ele><time>2026-04-19T16:41:31.001Z</time></trkpt><trkpt lat="36.77587427770328" lon="-107.98090263681782"><ele>1799.0</ele><time>2026-04-19T16:41:32.001Z</time></trkpt><trkpt lat="36.775769874684244" lon="-107.98091590748717"><ele>1799.0</ele><time>2026-04-19T16:41:33.001Z</time></trkpt><trkpt lat="36.775677042659424" lon="-107.98091693279922"><ele>1798.9999999999998</ele><time>2026-04-19T16:41:34.001Z</time></trkpt><trkpt lat="36.77559537782435" lon="-107.9809022588426"><ele>1799.0</ele><time>2026-04-19T16:41:35.001Z</time></trkpt><trkpt lat="36.77552998386357" lon="-107.98088195904978"><ele>1799.0</ele><time>2026-04-19T16:41:36.001Z</time></trkpt><trkpt lat="36.77540299159293" lon="-107.98081590527904"><ele>1799.0</ele><time>2026-04-19T16:41:38.001Z</time></trkpt><trkpt lat="36.7753288858034" lon="-107.98078707760132"><ele>1798.9999999999998</ele><time>2026-04-19T16:41:39.001Z</time></trkpt><trkpt lat="36.77526729490039" lon="-107.98076155833243"><ele>1799.0</ele><time>2026-04-19T16:41:41.001Z</time></trkpt><trkpt lat="36.77528090124847" lon="-107.98067626283552"><ele>1798.4999999999998</ele><time>2026-04-19T16:41:43.001Z</time></trkpt><trkpt lat="36.775325907213556" lon="-107.98058664456457"><ele>1798.0</ele><time>2026-04-19T16:41:44.001Z</time></trkpt><trkpt lat="36.775378037216925" lon="-107.98046735495461"><ele>1797.5</ele><time>2026-04-19T16:41:45.001Z</time></trkpt><trkpt lat="36.77540309203736" lon="-107.98037624002436"><ele>1797.0</ele><time>2026-04-19T16:41:46.001Z</time></trkpt><trkpt lat="36.77544107577899" lon="-107.98030936219911"><ele>1796.4999999999998</ele><time>2026-04-19T16:41:48.001Z</time></trkpt><trkpt lat="36.775478646042274" lon="-107.98023384528132"><ele>1796.0</ele><time>2026-04-19T16:42:12.001Z</time></trkpt><trkpt lat="36.77551787349167" lon="-107.9800738333444"><ele>1796.6</ele><time>2026-04-19T16:42:14.001Z</time></trkpt><trkpt lat="36.775585259305394" lon="-107.9799773809434"><ele>1797.1999999999998</ele><time>2026-04-19T16:42:15.001Z</time></trkpt><trkpt lat="36.77567298308051" lon="-107.97986353879465"><ele>1797.8000000000002</ele><time>2026-04-19T16:42:16.001Z</time></trkpt><trkpt lat="36.77573537807432" lon="-107.97976674374773"><ele>1798.4</ele><time>2026-04-19T16:42:17.001Z</time></trkpt><trkpt lat="36.77574661229076" lon="-107.97968396588507"><ele>1799.0</ele><time>2026-04-19T16:42:18.001Z</time></trkpt><trkpt lat="36.775859183094106" lon="-107.97953893928253"><ele>1799.0</ele><time>2026-04-19T16:42:20.001Z</time></trkpt><trkpt lat="36.77596031122516" lon="-107.97945198175005"><ele>1799.0</ele><time>2026-04-19T16:42:21.001Z</time></trkpt><trkpt lat="36.77607810113748" lon="-107.9793545746298"><ele>1799.0</ele><time>2026-04-19T16:42:22Z</time></trkpt><trkpt lat="36.77620360497692" lon="-107.97927517677094"><ele>1799.0</ele><time>2026-04-19T16:42:23Z</time></trkpt><trkpt lat="36.77632185597603" lon="-107.97915463700878"><ele>1801.6666666666665</ele><time>2026-04-19T16:42:24Z</time></trkpt><trkpt lat="36.776448566706144" lon="-107.97903217284336"><ele>1804.3333333333335</ele><time>2026-04-19T16:42:25Z</time></trkpt><trkpt lat="36.776568850064145" lon="-107.97892217054519"><ele>1807.0</ele><time>2026-04-19T16:42:26Z</time></trkpt><trkpt lat="36.77668531245068" lon="-107.9788133931371"><ele>1807.0</ele><time>2026-04-19T16:42:27Z</time></trkpt><trkpt lat="36.7767762669676" lon="-107.97873031473434"><ele>1807.0</ele><time>2026-04-19T16:42:28Z</time></trkpt><trkpt lat="36.77687785341317" lon="-107.97864010266049"><ele>1807.0</ele><time>2026-04-19T16:42:29Z</time></trkpt><trkpt lat="36.776975661615566" lon="-107.97855278532344"><ele>1807.0</ele><time>2026-04-19T16:42:30Z</time></trkpt><trkpt lat="36.77705542860403" lon="-107.97849033652794"><ele>1806.6666666666667</ele><time>2026-04-19T16:42:31Z</time></trkpt><trkpt lat="36.77711838900772" lon="-107.9784331311498"><ele>1806.3333333333335</ele><time>2026-04-19T16:42:32Z</time></trkpt><trkpt lat="36.777160599944644" lon="-107.97836271752493"><ele>1806.0</ele><time>2026-04-19T16:42:33Z</time></trkpt><trkpt lat="36.77722058652664" lon="-107.97831730206535"><ele>1805.6666666666665</ele><time>2026-04-19T16:42:34Z</time></trkpt><trkpt lat="36.77728528036461" lon="-107.97826270165791"><ele>1805.3333333333333</ele><time>2026-04-19T16:42:35Z</time></trkpt><trkpt lat="36.77735332943525" lon="-107.97819835511397"><ele>1805.0</ele><time>2026-04-19T16:42:36Z</time></trkpt><trkpt lat="36.77742670387816" lon="-107.97813367395014"><ele>1809.0</ele><time>2026-04-19T16:42:38Z</time></trkpt><trkpt lat="36.77725788632832" lon="-107.9776660657024"><ele>1813.0</ele><time>2026-04-19T16:42:40Z</time></trkpt><trkpt lat="36.77721628523699" lon="-107.9775463866805"><ele>1814.4</ele><time>2026-04-19T16:42:41Z</time></trkpt><trkpt lat="36.77718572084999" lon="-107.97746926858859"><ele>1815.8000000000002</ele><time>2026-04-19T16:42:42Z</time></trkpt><trkpt lat="36.77719893337755" lon="-107.97737161105911"><ele>1817.2</ele><time>2026-04-19T16:42:43Z</time></trkpt><trkpt lat="36.77722470286733" lon="-107.97721726899404"><ele>1818.6</ele><time>2026-04-19T16:42:44Z</time></trkpt><trkpt lat="36.777202291945095" lon="-107.97711791377128"><ele>1820.0</ele><time>2026-04-19T16:42:45Z</time></trkpt><trkpt lat="36.77720113246464" lon="-107.97700187365461"><ele>1820.0</ele><time>2026-04-19T16:42:46Z</time></trkpt><trkpt lat="36.77722539362113" lon="-107.97687893583442"><ele>1820.0</ele><time>2026-04-19T16:42:47Z</time></trkpt><trkpt lat="36.77710771576001" lon="-107.9767877431234"><ele>1820.0</ele><time>2026-04-19T16:42:49Z</time></trkpt><trkpt lat="36.777031893829374" lon="-107.97667304404082"><ele>1820.0</ele><time>2026-04-19T16:42:50Z</time></trkpt><trkpt lat="36.777000016431984" lon="-107.97658085930816"><ele>1820.0</ele><time>2026-04-19T16:42:51Z</time></trkpt><trkpt lat="36.77694935997641" lon="-107.97645843778162"><ele>1820.6</ele><time>2026-04-19T16:42:52Z</time></trkpt><trkpt lat="36.77688053356239" lon="-107.97630655624017"><ele>1821.2</ele><time>2026-04-19T16:42:53Z</time></trkpt><trkpt lat="36.776828432574156" lon="-107.97617609698037"><ele>1821.8000000000002</ele><time>2026-04-19T16:42:54.001Z</time></trkpt><trkpt lat="36.7767832798609" lon="-107.97608351483294"><ele>1822.4</ele><time>2026-04-19T16:42:55.001Z</time></trkpt><trkpt lat="36.77674738538496" lon="-107.97597967972989"><ele>1823.0</ele><time>2026-04-19T16:42:56.001Z</time></trkpt><trkpt lat="36.77673713858188" lon="-107.97585260274111"><ele>1824.8000000000002</ele><time>2026-04-19T16:42:57.001Z</time></trkpt><trkpt lat="36.776724681060955" lon="-107.97573778024868"><ele>1826.6000000000001</ele><time>2026-04-19T16:42:58.001Z</time></trkpt><trkpt lat="36.776682034995574" lon="-107.97563281103905"><ele>1828.3999999999999</ele><time>2026-04-19T16:42:59.001Z</time></trkpt><trkpt lat="36.776623315686706" lon="-107.97551475646618"><ele>1830.1999999999998</ele><time>2026-04-19T16:43:00.001Z</time></trkpt><trkpt lat="36.77658676487355" lon="-107.97542839095807"><ele>1832.0</ele><time>2026-04-19T16:43:01.001Z</time></trkpt><trkpt lat="36.77658248129944" lon="-107.9753309328032"><ele>1832.0</ele><time>2026-04-19T16:43:02.001Z</time></trkpt><trkpt lat="36.77659917523571" lon="-107.97524418275187"><ele>1831.9999999999998</ele><time>2026-04-19T16:43:03.001Z</time></trkpt><trkpt lat="36.77662026454339" lon="-107.97511759086233"><ele>1831.9999999999998</ele><time>2026-04-19T16:43:04.001Z</time></trkpt><trkpt lat="36.77661434203566" lon="-107.97493598013645"><ele>1832.0</ele><time>2026-04-19T16:43:05.001Z</time></trkpt><trkpt lat="36.77661629692055" lon="-107.9748092034011"><ele>1832.0</ele><time>2026-04-19T16:43:06.001Z</time></trkpt><trkpt lat="36.77662538746407" lon="-107.97470629182392"><ele>1831.8</ele><time>2026-04-19T16:43:07.001Z</time></trkpt><trkpt lat="36.776599892935664" lon="-107.97463353314109"><ele>1831.6</ele><time>2026-04-19T16:43:08.001Z</time></trkpt><trkpt lat="36.776538726318414" lon="-107.97455106625038"><ele>1831.3999999999999</ele><time>2026-04-19T16:43:09.001Z</time></trkpt><trkpt lat="36.77648147215585" lon="-107.9744535719925"><ele>1831.1999999999998</ele><time>2026-04-19T16:43:10.001Z</time></trkpt><trkpt lat="36.77650324938789" lon="-107.97430205827384"><ele>1831.0</ele><time>2026-04-19T16:43:12.001Z</time></trkpt><trkpt lat="36.77651070555957" lon="-107.97415890296847"><ele>1830.6</ele><time>2026-04-19T16:43:13.001Z</time></trkpt><trkpt lat="36.776477248979376" lon="-107.97403176026158"><ele>1830.1999999999998</ele><time>2026-04-19T16:43:14.001Z</time></trkpt><trkpt lat="36.77645444513654" lon="-107.97394908151665"><ele>1829.8000000000002</ele><time>2026-04-19T16:43:15.001Z</time></trkpt><trkpt lat="36.77647221087596" lon="-107.97384977077125"><ele>1829.4</ele><time>2026-04-19T16:43:18.001Z</time></trkpt><trkpt lat="36.77659290143164" lon="-107.9738231940808"><ele>1829.0</ele><time>2026-04-19T16:43:20.001Z</time></trkpt><trkpt lat="36.776689895563095" lon="-107.97381649023605"><ele>1829.0</ele><time>2026-04-19T16:43:21.001Z</time></trkpt><trkpt lat="36.77678187029335" lon="-107.97382387153067"><ele>1829.0</ele><time>2026-04-19T16:43:22.001Z</time></trkpt><trkpt lat="36.776891126946225" lon="-107.97382012610478"><ele>1829.0</ele><time>2026-04-19T16:43:23.001Z</time></trkpt><trkpt lat="36.77701627408605" lon="-107.97380428096133"><ele>1829.0</ele><time>2026-04-19T16:43:24.001Z</time></trkpt><trkpt lat="36.777131033351075" lon="-107.97379634516786"><ele>1829.0</ele><time>2026-04-19T16:43:25.001Z</time></trkpt><trkpt lat="36.777240031536415" lon="-107.97379855793453"><ele>1829.8000000000002</ele><time>2026-04-19T16:43:26.001Z</time></trkpt><trkpt lat="36.77735230442716" lon="-107.97379111330861"><ele>1830.6000000000001</ele><time>2026-04-19T16:43:27.001Z</time></trkpt><trkpt lat="36.777449501902424" lon="-107.97376965859692"><ele>1831.4</ele><time>2026-04-19T16:43:28.001Z</time></trkpt><trkpt lat="36.77752035699446" lon="-107.97372010925655"><ele>1832.2</ele><time>2026-04-19T16:43:29.001Z</time></trkpt><trkpt lat="36.77758299592219" lon="-107.97361947131151"><ele>1833.0</ele><time>2026-04-19T16:43:30.001Z</time></trkpt><trkpt lat="36.777630199800114" lon="-107.97351784185553"><ele>1833.0</ele><time>2026-04-19T16:43:31.001Z</time></trkpt><trkpt lat="36.777668642823514" lon="-107.97343478730296"><ele>1833.0000000000002</ele><time>2026-04-19T16:43:32.001Z</time></trkpt><trkpt lat="36.77773436702089" lon="-107.9733508272706"><ele>1833.0000000000002</ele><time>2026-04-19T16:43:33.001Z</time></trkpt><trkpt lat="36.77782565195281" lon="-107.97325610806779"><ele>1833.0</ele><time>2026-04-19T16:43:34.001Z</time></trkpt><trkpt lat="36.77790095921031" lon="-107.9731759976774"><ele>1833.0</ele><time>2026-04-19T16:43:35.001Z</time></trkpt><trkpt lat="36.77797335728241" lon="-107.97308283471882"><ele>1832.8000000000002</ele><time>2026-04-19T16:43:36.001Z</time></trkpt><trkpt lat="36.77801774058968" lon="-107.97298289882907"><ele>1832.6000000000001</ele><time>2026-04-19T16:43:37.001Z</time></trkpt><trkpt lat="36.77806916869074" lon="-107.97289487747844"><ele>1832.3999999999999</ele><time>2026-04-19T16:43:38.001Z</time></trkpt><trkpt lat="36.778143219923614" lon="-107.97282037393227"><ele>1832.1999999999998</ele><time>2026-04-19T16:43:39.001Z</time></trkpt><trkpt lat="36.77820907642436" lon="-107.97273214361266"><ele>1832.0</ele><time>2026-04-19T16:43:40.001Z</time></trkpt><trkpt lat="36.778274990184535" lon="-107.97265658513467"><ele>1832.0</ele><time>2026-04-19T16:43:41.001Z</time></trkpt><trkpt lat="36.77832797087892" lon="-107.9725839585044"><ele>1831.9999999999998</ele><time>2026-04-19T16:43:42.001Z</time></trkpt><trkpt lat="36.77835610799837" lon="-107.9724863198993"><ele>1831.9999999999998</ele><time>2026-04-19T16:43:43.001Z</time></trkpt><trkpt lat="36.778378380392574" lon="-107.97239450306749"><ele>1832.0</ele><time>2026-04-19T16:43:44.001Z</time></trkpt><trkpt lat="36.77850382182813" lon="-107.97231214224058"><ele>1832.0</ele><time>2026-04-19T16:43:46.001Z</time></trkpt><trkpt lat="36.77858095840402" lon="-107.97226074247601"><ele>1830.6</ele><time>2026-04-19T16:43:47.001Z</time></trkpt><trkpt lat="36.77861632368799" lon="-107.97218317495101"><ele>1829.1999999999998</ele><time>2026-04-19T16:43:48.001Z</time></trkpt><trkpt lat="36.77865531910505" lon="-107.97205389372236"><ele>1827.8</ele><time>2026-04-19T16:43:49.001Z</time></trkpt><trkpt lat="36.7787042754101" lon="-107.97197836794308"><ele>1826.4</ele><time>2026-04-19T16:43:50.001Z</time></trkpt><trkpt lat="36.778838189764" lon="-107.97189424991572"><ele>1825.0</ele><time>2026-04-19T16:43:52.001Z</time></trkpt><trkpt lat="36.77893357104838" lon="-107.97182356572348"><ele>1825.0000000000002</ele><time>2026-04-19T16:43:53.001Z</time></trkpt><trkpt lat="36.77899007036244" lon="-107.97174278335785"><ele>1825.0</ele><time>2026-04-19T16:43:54.001Z</time></trkpt><trkpt lat="36.77901985030868" lon="-107.97165836148088"><ele>1825.0</ele><time>2026-04-19T16:43:55.001Z</time></trkpt><trkpt lat="36.77903720643929" lon="-107.97156276041865"><ele>1825.0</ele><time>2026-04-19T16:43:56.001Z</time></trkpt><trkpt lat="36.77909039565769" lon="-107.97150329272817"><ele>1825.0000000000002</ele><time>2026-04-19T16:43:57.001Z</time></trkpt><trkpt lat="36.77918837163139" lon="-107.97143956868898"><ele>1825.0</ele><time>2026-04-19T16:43:58.001Z</time></trkpt><trkpt lat="36.77928666537001" lon="-107.97135741038134"><ele>1825.8</ele><time>2026-04-19T16:43:59.001Z</time></trkpt><trkpt lat="36.77937072026784" lon="-107.97128475298199"><ele>1826.6</ele><time>2026-04-19T16:44:00.001Z</time></trkpt><trkpt lat="36.779436042007255" lon="-107.97123762528467"><ele>1827.4</ele><time>2026-04-19T16:44:01.001Z</time></trkpt><trkpt lat="36.77954304051075" lon="-107.97118465316301"><ele>1828.2</ele><time>2026-04-19T16:44:03.001Z</time></trkpt><trkpt lat="36.77967792097941" lon="-107.97127334565782"><ele>1829.0</ele><time>2026-04-19T16:44:05.001Z</time></trkpt><trkpt lat="36.77977509240891" lon="-107.97130926296995"><ele>1829.0</ele><time>2026-04-19T16:44:06.001Z</time></trkpt><trkpt lat="36.77988937582624" lon="-107.9712906684437"><ele>1829.0</ele><time>2026-04-19T16:44:07.001Z</time></trkpt><trkpt lat="36.7799908751008" lon="-107.97125466538132"><ele>1829.0</ele><time>2026-04-19T16:44:08.001Z</time></trkpt><trkpt lat="36.78006724513592" lon="-107.97125198062848"><ele>1829.0</ele><time>2026-04-19T16:44:09.001Z</time></trkpt><trkpt lat="36.780149889775544" lon="-107.97128681011911"><ele>1829.0</ele><time>2026-04-19T16:44:10.001Z</time></trkpt><trkpt lat="36.78026938273215" lon="-107.97131478684047"><ele>1830.2</ele><time>2026-04-19T16:44:11.001Z</time></trkpt><trkpt lat="36.78036812680654" lon="-107.971322934444"><ele>1831.4</ele><time>2026-04-19T16:44:12.001Z</time></trkpt><trkpt lat="36.780462525584824" lon="-107.97130895521114"><ele>1832.6</ele><time>2026-04-19T16:44:13.001Z</time></trkpt><trkpt lat="36.780545900758746" lon="-107.97124936144188"><ele>1833.8</ele><time>2026-04-19T16:44:14.001Z</time></trkpt><trkpt lat="36.78059909309578" lon="-107.97117304217244"><ele>1835.0</ele><time>2026-04-19T16:44:15.001Z</time></trkpt><trkpt lat="36.78066055383804" lon="-107.97110426433298"><ele>1834.9999999999998</ele><time>2026-04-19T16:44:16.001Z</time></trkpt><trkpt lat="36.78073622417521" lon="-107.97105423012373"><ele>1835.0</ele><time>2026-04-19T16:44:17.001Z</time></trkpt><trkpt lat="36.78081353984482" lon="-107.97101912711395"><ele>1835.0</ele><time>2026-04-19T16:44:18.001Z</time></trkpt><trkpt lat="36.780869035630616" lon="-107.97095478230317"><ele>1835.0</ele><time>2026-04-19T16:44:19.001Z</time></trkpt><trkpt lat="36.78093333462385" lon="-107.97090127727769"><ele>1834.9999999999998</ele><time>2026-04-19T16:44:20.001Z</time></trkpt><trkpt lat="36.78100396292178" lon="-107.97085009356725"><ele>1835.0</ele><time>2026-04-19T16:44:21.001Z</time></trkpt><trkpt lat="36.78105830884158" lon="-107.97078608261334"><ele>1836.3333333333333</ele><time>2026-04-19T16:44:22.001Z</time></trkpt><trkpt lat="36.781117502210016" lon="-107.97074290646323"><ele>1837.6666666666665</ele><time>2026-04-19T16:44:23.001Z</time></trkpt><trkpt lat="36.781172071618336" lon="-107.97069974471547"><ele>1839.0</ele><time>2026-04-19T16:44:24.001Z</time></trkpt><trkpt lat="36.78125956514528" lon="-107.97062124271658"><ele>1840.3333333333335</ele><time>2026-04-19T16:44:26.001Z</time></trkpt><trkpt lat="36.78127066416456" lon="-107.9705369229207"><ele>1841.6666666666667</ele><time>2026-04-19T16:44:27.001Z</time></trkpt><trkpt lat="36.78126145918945" lon="-107.97044352628207"><ele>1843.0</ele><time>2026-04-19T16:44:28Z</time></trkpt><trkpt lat="36.78124741728146" lon="-107.97034550323681"><ele>1843.0000000000002</ele><time>2026-04-19T16:44:29Z</time></trkpt><trkpt lat="36.78122469939044" lon="-107.97026580593361"><ele>1843.0</ele><time>2026-04-19T16:44:30Z</time></trkpt><trkpt lat="36.7811937265224" lon="-107.97018375128621"><ele>1843.0</ele><time>2026-04-19T16:44:32Z</time></trkpt><trkpt lat="36.78112649351396" lon="-107.9700914394559"><ele>1843.0</ele><time>2026-04-19T16:47:13.001Z</time></trkpt><trkpt lat="36.78107322420558" lon="-107.97001628122229"><ele>1843.0000000000002</ele><time>2026-04-19T16:47:14.001Z</time></trkpt><trkpt lat="36.78102206955808" lon="-107.96992501288865"><ele>1843.0</ele><time>2026-04-19T16:47:15.001Z</time></trkpt><trkpt lat="36.78097331322594" lon="-107.96982463448242"><ele>1842.2</ele><time>2026-04-19T16:47:16.001Z</time></trkpt><trkpt lat="36.78093363352201" lon="-107.96973751500826"><ele>1841.4</ele><time>2026-04-19T16:47:17.001Z</time></trkpt><trkpt lat="36.780887857296726" lon="-107.96965811593509"><ele>1840.6000000000001</ele><time>2026-04-19T16:47:18.001Z</time></trkpt><trkpt lat="36.78083599100945" lon="-107.96957979318663"><ele>1839.8000000000002</ele><time>2026-04-19T16:47:19.001Z</time></trkpt><trkpt lat="36.78077386928845" lon="-107.96942686814796"><ele>1839.0</ele><time>2026-04-19T16:47:21.001Z</time></trkpt><trkpt lat="36.780749844619365" lon="-107.96932188906062"><ele>1839.0</ele><time>2026-04-19T16:47:22.001Z</time></trkpt><trkpt lat="36.78073443982051" lon="-107.96922609894807"><ele>1839.0</ele><time>2026-04-19T16:47:23.001Z</time></trkpt><trkpt lat="36.78069335658394" lon="-107.96914624734067"><ele>1839.0</ele><time>2026-04-19T16:47:24.001Z</time></trkpt><trkpt lat="36.7806424663714" lon="-107.96907469016055"><ele>1839.0</ele><time>2026-04-19T16:47:25.001Z</time></trkpt><trkpt lat="36.78064312851312" lon="-107.9689717206315"><ele>1839.0</ele><time>2026-04-19T16:47:27.001Z</time></trkpt><trkpt lat="36.78064925832495" lon="-107.96888435138683"><ele>1839.0</ele><time>2026-04-19T16:47:28.001Z</time></trkpt><trkpt lat="36.78062677462797" lon="-107.9687833866246"><ele>1838.2</ele><time>2026-04-19T16:47:29.001Z</time></trkpt><trkpt lat="36.78057555801338" lon="-107.96869244155172"><ele>1837.4</ele><time>2026-04-19T16:47:30.001Z</time></trkpt><trkpt lat="36.780524821731206" lon="-107.96861725142077"><ele>1836.6</ele><time>2026-04-19T16:47:31.001Z</time></trkpt><trkpt lat="36.78044976819332" lon="-107.96854456007077"><ele>1835.8</ele><time>2026-04-19T16:47:33.001Z</time></trkpt><trkpt lat="36.78032878695525" lon="-107.96847767251964"><ele>1835.0</ele><time>2026-04-19T16:47:35.001Z</time></trkpt><trkpt lat="36.78026091220147" lon="-107.96843418827417"><ele>1833.8</ele><time>2026-04-19T16:47:36.001Z</time></trkpt><trkpt lat="36.78016298268144" lon="-107.96837291963138"><ele>1832.6</ele><time>2026-04-19T16:47:38.001Z</time></trkpt><trkpt lat="36.78008891319899" lon="-107.96836059235878"><ele>1831.4</ele><time>2026-04-19T16:47:39.001Z</time></trkpt><trkpt lat="36.7800218658237" lon="-107.96835682991406"><ele>1830.2</ele><time>2026-04-19T16:47:40.001Z</time></trkpt><trkpt lat="36.77992459803914" lon="-107.96832356407975"><ele>1829.0</ele><time>2026-04-19T16:47:42.001Z</time></trkpt><trkpt lat="36.77979602304762" lon="-107.96831848434637"><ele>1828.4</ele><time>2026-04-19T16:47:44.001Z</time></trkpt><trkpt lat="36.77967596863177" lon="-107.96833558830073"><ele>1827.8000000000002</ele><time>2026-04-19T16:47:46.001Z</time></trkpt><trkpt lat="36.779602691784056" lon="-107.96832607131152"><ele>1827.1999999999998</ele><time>2026-04-19T16:47:47.001Z</time></trkpt><trkpt lat="36.779473031986946" lon="-107.96829961343111"><ele>1826.6</ele><time>2026-04-19T16:47:49.001Z</time></trkpt><trkpt lat="36.77935565590771" lon="-107.96828819571061"><ele>1826.0</ele><time>2026-04-19T16:47:50.001Z</time></trkpt><trkpt lat="36.77921724353499" lon="-107.96825330530078"><ele>1824.25</ele><time>2026-04-19T16:47:51.001Z</time></trkpt><trkpt lat="36.7791018709074" lon="-107.96818947628721"><ele>1822.5</ele><time>2026-04-19T16:47:52.001Z</time></trkpt><trkpt lat="36.77898316978078" lon="-107.96814090865816"><ele>1820.75</ele><time>2026-04-19T16:47:53.001Z</time></trkpt><trkpt lat="36.77885838986652" lon="-107.96810529957585"><ele>1819.0</ele><time>2026-04-19T16:47:54.001Z</time></trkpt><trkpt lat="36.77876462843319" lon="-107.96807558847203"><ele>1819.0000000000002</ele><time>2026-04-19T16:47:55.001Z</time></trkpt><trkpt lat="36.778697368387405" lon="-107.96804669065642"><ele>1819.0</ele><time>2026-04-19T16:47:56.001Z</time></trkpt><trkpt lat="36.778647347027935" lon="-107.96799090499678"><ele>1819.0</ele><time>2026-04-19T16:47:57.001Z</time></trkpt><trkpt lat="36.77860451237809" lon="-107.96789157566516"><ele>1819.0</ele><time>2026-04-19T16:47:58.001Z</time></trkpt><trkpt lat="36.77856674368436" lon="-107.96781043474732"><ele>1819.0000000000002</ele><time>2026-04-19T16:47:59.001Z</time></trkpt><trkpt lat="36.7784617241004" lon="-107.96774504275628"><ele>1819.0</ele><time>2026-04-19T16:48:01.001Z</time></trkpt><trkpt lat="36.778387780648025" lon="-107.96770786104977"><ele>1818.3333333333335</ele><time>2026-04-19T16:48:02.001Z</time></trkpt><trkpt lat="36.77831990078436" lon="-107.96769844044783"><ele>1817.6666666666667</ele><time>2026-04-19T16:48:03.001Z</time></trkpt><trkpt lat="36.778239536035095" lon="-107.96774272805153"><ele>1817.0</ele><time>2026-04-19T16:48:04.001Z</time></trkpt><trkpt lat="36.778157919482574" lon="-107.96775795358393"><ele>1816.3333333333335</ele><time>2026-04-19T16:48:05.001Z</time></trkpt><trkpt lat="36.77806832837582" lon="-107.96773660551183"><ele>1815.6666666666667</ele><time>2026-04-19T16:48:06.001Z</time></trkpt><trkpt lat="36.77797768096527" lon="-107.96771546599554"><ele>1815.0</ele><time>2026-04-19T16:48:07.001Z</time></trkpt><trkpt lat="36.77790487839352" lon="-107.96771245701436"><ele>1815.0</ele><time>2026-04-19T16:48:08.001Z</time></trkpt><trkpt lat="36.77781458201547" lon="-107.96767606155959"><ele>1815.0</ele><time>2026-04-19T16:48:10.001Z</time></trkpt><trkpt lat="36.777806621719485" lon="-107.96751121072681"><ele>1815.0</ele><time>2026-04-19T16:48:12.001Z</time></trkpt><trkpt lat="36.777756168645936" lon="-107.96743675692845"><ele>1815.0</ele><time>2026-04-19T16:48:13.001Z</time></trkpt><trkpt lat="36.77769269698198" lon="-107.96741844575303"><ele>1815.0</ele><time>2026-04-19T16:48:14.001Z</time></trkpt><trkpt lat="36.77756155285002" lon="-107.96740867371501"><ele>1814.2</ele><time>2026-04-19T16:48:16.001Z</time></trkpt><trkpt lat="36.77748902700678" lon="-107.96731482643663"><ele>1813.4</ele><time>2026-04-19T16:48:17.001Z</time></trkpt><trkpt lat="36.777452109028225" lon="-107.96722943164265"><ele>1812.6</ele><time>2026-04-19T16:48:18.001Z</time></trkpt><trkpt lat="36.77742704317513" lon="-107.96709213199694"><ele>1811.8</ele><time>2026-04-19T16:48:19.001Z</time></trkpt><trkpt lat="36.77738908749603" lon="-107.96696529416577"><ele>1811.0</ele><time>2026-04-19T16:48:20.001Z</time></trkpt><trkpt lat="36.777355072394414" lon="-107.96688965481934"><ele>1811.0</ele><time>2026-04-19T16:48:21.001Z</time></trkpt><trkpt lat="36.77724783238099" lon="-107.96684908647252"><ele>1811.0</ele><time>2026-04-19T16:48:23.001Z</time></trkpt><trkpt lat="36.777161508955324" lon="-107.96686255283123"><ele>1811.0</ele><time>2026-04-19T16:48:24.001Z</time></trkpt><trkpt lat="36.777072144419535" lon="-107.9668626095404"><ele>1811.0</ele><time>2026-04-19T16:48:25.001Z</time></trkpt><trkpt lat="36.776996336243194" lon="-107.96684109041995"><ele>1811.0</ele><time>2026-04-19T16:48:26.001Z</time></trkpt><trkpt lat="36.77690036960294" lon="-107.96677580498736"><ele>1809.6</ele><time>2026-04-19T16:48:28.001Z</time></trkpt><trkpt lat="36.77683364087989" lon="-107.96666504562526"><ele>1808.1999999999998</ele><time>2026-04-19T16:48:29.001Z</time></trkpt><trkpt lat="36.77676470839228" lon="-107.96660292846673"><ele>1806.8000000000002</ele><time>2026-04-19T16:48:30.001Z</time></trkpt><trkpt lat="36.77662857886264" lon="-107.96663829793641"><ele>1805.4</ele><time>2026-04-19T16:48:32.001Z</time></trkpt><trkpt lat="36.776542773610025" lon="-107.96659870994426"><ele>1804.0</ele><time>2026-04-19T16:48:33.001Z</time></trkpt><trkpt lat="36.77644830489936" lon="-107.9664880180201"><ele>1804.0</ele><time>2026-04-19T16:48:34.001Z</time></trkpt><trkpt lat="36.77636071437136" lon="-107.96642801613513"><ele>1804.0</ele><time>2026-04-19T16:48:35.001Z</time></trkpt><trkpt lat="36.77631998162666" lon="-107.96632767269912"><ele>1804.0</ele><time>2026-04-19T16:48:37.001Z</time></trkpt><trkpt lat="36.7763076603983" lon="-107.96622509627151"><ele>1804.0</ele><time>2026-04-19T16:48:38.001Z</time></trkpt><trkpt lat="36.77624105018146" lon="-107.96612347759354"><ele>1804.0</ele><time>2026-04-19T16:48:39.001Z</time></trkpt><trkpt lat="36.776142953208016" lon="-107.96603933171532"><ele>1803.25</ele><time>2026-04-19T16:48:40Z</time></trkpt><trkpt lat="36.776015939921066" lon="-107.96596940127147"><ele>1802.5</ele><time>2026-04-19T16:48:41Z</time></trkpt><trkpt lat="36.77590731147926" lon="-107.96589144812998"><ele>1801.75</ele><time>2026-04-19T16:48:42Z</time></trkpt><trkpt lat="36.77583443620199" lon="-107.96580842665064"><ele>1801.0</ele><time>2026-04-19T16:48:43Z</time></trkpt><trkpt lat="36.77576368033117" lon="-107.96568458071867"><ele>1800.6</ele><time>2026-04-19T16:48:44Z</time></trkpt><trkpt lat="36.775701500366985" lon="-107.96553404479776"><ele>1800.1999999999998</ele><time>2026-04-19T16:48:45Z</time></trkpt><trkpt lat="36.775671750576535" lon="-107.96539862087839"><ele>1799.8000000000002</ele><time>2026-04-19T16:48:46Z</time></trkpt><trkpt lat="36.775656668466674" lon="-107.96527511809437"><ele>1799.4</ele><time>2026-04-19T16:48:47Z</time></trkpt><trkpt lat="36.77565442261225" lon="-107.96517734811736"><ele>1799.0</ele><time>2026-04-19T16:48:48Z</time></trkpt><trkpt lat="36.77567796639673" lon="-107.96505110564088"><ele>1799.0</ele><time>2026-04-19T16:48:50Z</time></trkpt><trkpt lat="36.77573827739533" lon="-107.96497910390043"><ele>1799.0</ele><time>2026-04-19T16:48:51Z</time></trkpt><trkpt lat="36.775819708659654" lon="-107.96489720010598"><ele>1799.0</ele><time>2026-04-19T16:48:52Z</time></trkpt><trkpt lat="36.77591118148842" lon="-107.96481058207318"><ele>1799.0</ele><time>2026-04-19T16:48:53Z</time></trkpt><trkpt lat="36.77600743876582" lon="-107.96473020807352"><ele>1799.0</ele><time>2026-04-19T16:48:54Z</time></trkpt><trkpt lat="36.77611601819628" lon="-107.96464690456509"><ele>1798.9999999999998</ele><time>2026-04-19T16:48:55Z</time></trkpt><trkpt lat="36.77619012101007" lon="-107.96456805976827"><ele>1799.0</ele><time>2026-04-19T16:48:56Z</time></trkpt><trkpt lat="36.77619027272123" lon="-107.96448875237115"><ele>1799.0</ele><time>2026-04-19T16:48:57Z</time></trkpt><trkpt lat="36.77615398887715" lon="-107.96436640835378"><ele>1799.0</ele><time>2026-04-19T16:48:58Z</time></trkpt><trkpt lat="36.77614425876053" lon="-107.96424378113598"><ele>1798.9999999999998</ele><time>2026-04-19T16:48:59Z</time></trkpt><trkpt lat="36.77620277258761" lon="-107.96418075389666"><ele>1799.0</ele><time>2026-04-19T16:49:00Z</time></trkpt><trkpt lat="36.77625126540462" lon="-107.96412242800602"><ele>1799.3333333333333</ele><time>2026-04-19T16:49:01Z</time></trkpt><trkpt lat="36.77630224149616" lon="-107.9640356515621"><ele>1799.6666666666665</ele><time>2026-04-19T16:49:02Z</time></trkpt><trkpt lat="36.77637602440566" lon="-107.9639596689779"><ele>1800.0</ele><time>2026-04-19T16:49:03Z</time></trkpt><trkpt lat="36.7764420604836" lon="-107.96387924220292"><ele>1800.3333333333335</ele><time>2026-04-19T16:49:04Z</time></trkpt><trkpt lat="36.776493317377955" lon="-107.96380405958614"><ele>1800.6666666666667</ele><time>2026-04-19T16:49:05Z</time></trkpt><trkpt lat="36.77653929161359" lon="-107.96373724466072"><ele>1801.0</ele><time>2026-04-19T16:49:06Z</time></trkpt><trkpt lat="36.7765725478576" lon="-107.9636645982213"><ele>1801.0000000000002</ele><time>2026-04-19T16:49:07Z</time></trkpt><trkpt lat="36.776619825270906" lon="-107.96357659818294"><ele>1801.0</ele><time>2026-04-19T16:49:08Z</time></trkpt><trkpt lat="36.776658058686294" lon="-107.96347499104807"><ele>1801.0</ele><time>2026-04-19T16:49:09Z</time></trkpt><trkpt lat="36.7766610822119" lon="-107.96337338040772"><ele>1801.0</ele><time>2026-04-19T16:49:10Z</time></trkpt><trkpt lat="36.776664339762206" lon="-107.96326074108701"><ele>1801.0000000000002</ele><time>2026-04-19T16:49:11Z</time></trkpt><trkpt lat="36.77666076188826" lon="-107.96314505928399"><ele>1801.0</ele><time>2026-04-19T16:49:12Z</time></trkpt><trkpt lat="36.77665072483987" lon="-107.96302254303086"><ele>1801.8</ele><time>2026-04-19T16:49:13Z</time></trkpt><trkpt lat="36.776663044112176" lon="-107.96282309399588"><ele>1802.6</ele><time>2026-04-19T16:49:15Z</time></trkpt><trkpt lat="36.77670287007771" lon="-107.96270399073876"><ele>1803.4</ele><time>2026-04-19T16:49:16Z</time></trkpt><trkpt lat="36.776736031999356" lon="-107.96259891581809"><ele>1804.2</ele><time>2026-04-19T16:49:17Z</time></trkpt><trkpt lat="36.776739722401416" lon="-107.96248050048622"><ele>1805.0</ele><time>2026-04-19T16:49:18Z</time></trkpt><trkpt lat="36.77671263390324" lon="-107.96234382430599"><ele>1805.0</ele><time>2026-04-19T16:49:19.001Z</time></trkpt><trkpt lat="36.77668026802984" lon="-107.96223813739651"><ele>1805.0</ele><time>2026-04-19T16:49:20.001Z</time></trkpt><trkpt lat="36.77665965312034" lon="-107.96213579749552"><ele>1805.0</ele><time>2026-04-19T16:49:21.001Z</time></trkpt><trkpt lat="36.77663139342683" lon="-107.96197774419"><ele>1805.0</ele><time>2026-04-19T16:49:22.001Z</time></trkpt><trkpt lat="36.77660828016014" lon="-107.96183919740609"><ele>1805.0</ele><time>2026-04-19T16:49:23.001Z</time></trkpt><trkpt lat="36.77659286405714" lon="-107.96174339535195"><ele>1803.8</ele><time>2026-04-19T16:49:24.001Z</time></trkpt><trkpt lat="36.776559582125365" lon="-107.96167580668845"><ele>1802.6</ele><time>2026-04-19T16:49:25.001Z</time></trkpt><trkpt lat="36.776489704972995" lon="-107.9615863776568"><ele>1801.4</ele><time>2026-04-19T16:49:26.001Z</time></trkpt><trkpt lat="36.77643102645045" lon="-107.96148249884044"><ele>1800.2</ele><time>2026-04-19T16:49:27.001Z</time></trkpt><trkpt lat="36.776436711898945" lon="-107.96135341608068"><ele>1799.0</ele><time>2026-04-19T16:49:29.001Z</time></trkpt><trkpt lat="36.776503550522555" lon="-107.9612792015968"><ele>1799.0</ele><time>2026-04-19T16:49:30.001Z</time></trkpt><trkpt lat="36.77656778602357" lon="-107.96119398824786"><ele>1799.0</ele><time>2026-04-19T16:49:31.001Z</time></trkpt><trkpt lat="36.776603196290985" lon="-107.96112279036109"><ele>1799.0</ele><time>2026-04-19T16:49:32.001Z</time></trkpt><trkpt lat="36.77654054564157" lon="-107.96094637427295"><ele>1799.0</ele><time>2026-04-19T16:49:34.001Z</time></trkpt><trkpt lat="36.77646374170543" lon="-107.96081520888676"><ele>1799.0</ele><time>2026-04-19T16:49:35.001Z</time></trkpt><trkpt lat="36.77642244714563" lon="-107.96072881937991"><ele>1798.3333333333333</ele><time>2026-04-19T16:49:36.001Z</time></trkpt><trkpt lat="36.77637550353395" lon="-107.9606709706988"><ele>1797.6666666666665</ele><time>2026-04-19T16:49:37.001Z</time></trkpt><trkpt lat="36.776305173398704" lon="-107.96060191745465"><ele>1797.0</ele><time>2026-04-19T16:49:38.001Z</time></trkpt><trkpt lat="36.77623932020347" lon="-107.96052529690257"><ele>1796.3333333333335</ele><time>2026-04-19T16:49:39.001Z</time></trkpt><trkpt lat="36.77620795746674" lon="-107.96043890791884"><ele>1795.6666666666667</ele><time>2026-04-19T16:49:40.001Z</time></trkpt><trkpt lat="36.77619244555499" lon="-107.96034192856504"><ele>1795.0</ele><time>2026-04-19T16:49:41.001Z</time></trkpt><trkpt lat="36.77619928676716" lon="-107.96024569439079"><ele>1795.0</ele><time>2026-04-19T16:49:42.001Z</time></trkpt><trkpt lat="36.77619462450242" lon="-107.96014258837374"><ele>1795.0</ele><time>2026-04-19T16:49:43.001Z</time></trkpt><trkpt lat="36.776162570383335" lon="-107.9600647578697"><ele>1795.0</ele><time>2026-04-19T16:49:44.001Z</time></trkpt><trkpt lat="36.776261300649495" lon="-107.96001759047832"><ele>1795.0</ele><time>2026-04-19T16:49:47.001Z</time></trkpt><trkpt lat="36.77635016106036" lon="-107.96001542308534"><ele>1795.0</ele><time>2026-04-19T16:49:48.001Z</time></trkpt><trkpt lat="36.77645575027464" lon="-107.95998432636546"><ele>1795.0</ele><time>2026-04-19T16:49:49.001Z</time></trkpt><trkpt lat="36.77654180777105" lon="-107.95993036179081"><ele>1795.0</ele><time>2026-04-19T16:49:50.001Z</time></trkpt><trkpt lat="36.77661727294085" lon="-107.95992996202621"><ele>1795.0</ele><time>2026-04-19T16:49:51.001Z</time></trkpt><trkpt lat="36.776713720054296" lon="-107.95998549234916"><ele>1795.0</ele><time>2026-04-19T16:49:52.001Z</time></trkpt><trkpt lat="36.77682281594389" lon="-107.96006021528041"><ele>1795.0</ele><time>2026-04-19T16:49:53.001Z</time></trkpt><trkpt lat="36.77691192636238" lon="-107.9601358932107"><ele>1795.1666666666667</ele><time>2026-04-19T16:49:54.001Z</time></trkpt><trkpt lat="36.77698583162429" lon="-107.96018432635026"><ele>1795.3333333333335</ele><time>2026-04-19T16:49:55.001Z</time></trkpt><trkpt lat="36.777052298749986" lon="-107.96016586400881"><ele>1795.5</ele><time>2026-04-19T16:49:56.001Z</time></trkpt><trkpt lat="36.77714052044653" lon="-107.96012603472204"><ele>1795.6666666666665</ele><time>2026-04-19T16:49:57.001Z</time></trkpt><trkpt lat="36.77720462896681" lon="-107.9601276654438"><ele>1795.8333333333333</ele><time>2026-04-19T16:49:58.001Z</time></trkpt><trkpt lat="36.7772250712722" lon="-107.96020547269416"><ele>1796.0</ele><time>2026-04-19T16:49:59.001Z</time></trkpt><trkpt lat="36.77728764392784" lon="-107.96028478165107"><ele>1796.0</ele><time>2026-04-19T16:50:00.001Z</time></trkpt><trkpt lat="36.77733706037506" lon="-107.96038353493014"><ele>1796.0</ele><time>2026-04-19T16:50:01.001Z</time></trkpt><trkpt lat="36.77736232266807" lon="-107.96049816961485"><ele>1796.0</ele><time>2026-04-19T16:50:02.001Z</time></trkpt><trkpt lat="36.777367916349746" lon="-107.96062452823318"><ele>1796.0</ele><time>2026-04-19T16:50:03.001Z</time></trkpt><trkpt lat="36.777369759272204" lon="-107.96072270127017"><ele>1796.0</ele><time>2026-04-19T16:50:04.001Z</time></trkpt><trkpt lat="36.777492526226176" lon="-107.96071978176295"><ele>1795.9999999999998</ele><time>2026-04-19T16:50:07.001Z</time></trkpt><trkpt lat="36.77757005366424" lon="-107.96070827880573"><ele>1796.0</ele><time>2026-04-19T16:50:08.001Z</time></trkpt><trkpt lat="36.77766054240472" lon="-107.96072668889204"><ele>1796.0</ele><time>2026-04-19T16:50:09.001Z</time></trkpt><trkpt lat="36.77776475392549" lon="-107.96068442833068"><ele>1796.0</ele><time>2026-04-19T16:50:11.001Z</time></trkpt><trkpt lat="36.777843710386136" lon="-107.96062369318244"><ele>1795.9999999999998</ele><time>2026-04-19T16:50:12.001Z</time></trkpt><trkpt lat="36.77791255979532" lon="-107.96064329844697"><ele>1796.0</ele><time>2026-04-19T16:50:13.001Z</time></trkpt><trkpt lat="36.7779985146147" lon="-107.96068907059752"><ele>1796.1999999999998</ele><time>2026-04-19T16:50:14.001Z</time></trkpt><trkpt lat="36.778098463611066" lon="-107.96072668037868"><ele>1796.3999999999999</ele><time>2026-04-19T16:50:15.001Z</time></trkpt><trkpt lat="36.7781979653315" lon="-107.96070996460011"><ele>1796.6</ele><time>2026-04-19T16:50:16.001Z</time></trkpt><trkpt lat="36.778284264983846" lon="-107.96074245310473"><ele>1796.8</ele><time>2026-04-19T16:50:18.001Z</time></trkpt><trkpt lat="36.778399135044346" lon="-107.96079455295428"><ele>1797.0</ele><time>2026-04-19T16:50:20.001Z</time></trkpt><trkpt lat="36.778477077060565" lon="-107.96082871317628"><ele>1797.3333333333333</ele><time>2026-04-19T16:50:21.001Z</time></trkpt><trkpt lat="36.778558631267884" lon="-107.96085861743668"><ele>1797.6666666666665</ele><time>2026-04-19T16:50:22.001Z</time></trkpt><trkpt lat="36.77865170834487" lon="-107.9608826607029"><ele>1798.0</ele><time>2026-04-19T16:50:23.001Z</time></trkpt><trkpt lat="36.77872951604812" lon="-107.96088353956922"><ele>1798.3333333333333</ele><time>2026-04-19T16:50:24.001Z</time></trkpt><trkpt lat="36.778807617770845" lon="-107.9609014742429"><ele>1798.6666666666665</ele><time>2026-04-19T16:50:25.001Z</time></trkpt><trkpt lat="36.778885851869205" lon="-107.96095552055544"><ele>1799.0</ele><time>2026-04-19T16:50:26.001Z</time></trkpt><trkpt lat="36.7789913309044" lon="-107.96105276377695"><ele>1799.5</ele><time>2026-04-19T16:50:27.001Z</time></trkpt><trkpt lat="36.77911912202888" lon="-107.9611200285077"><ele>1800.0</ele><time>2026-04-19T16:50:28.001Z</time></trkpt><trkpt lat="36.779220750116664" lon="-107.96116481965879"><ele>1800.5</ele><time>2026-04-19T16:50:29.001Z</time></trkpt><trkpt lat="36.77931749168622" lon="-107.96122062753754"><ele>1801.0</ele><time>2026-04-19T16:50:30.001Z</time></trkpt><trkpt lat="36.7794271709994" lon="-107.96129348705304"><ele>1801.0</ele><time>2026-04-19T16:50:31.001Z</time></trkpt><trkpt lat="36.77955608534636" lon="-107.96136606587709"><ele>1801.0</ele><time>2026-04-19T16:50:32.001Z</time></trkpt><trkpt lat="36.779668038837976" lon="-107.96142342035836"><ele>1801.0</ele><time>2026-04-19T16:50:33.001Z</time></trkpt><trkpt lat="36.77976291172869" lon="-107.96146880971564"><ele>1801.0</ele><time>2026-04-19T16:50:34.001Z</time></trkpt><trkpt lat="36.77986960850872" lon="-107.96148928346238"><ele>1801.0</ele><time>2026-04-19T16:50:35.001Z</time></trkpt><trkpt lat="36.77999129946633" lon="-107.96149597081425"><ele>1801.0</ele><time>2026-04-19T16:50:36.001Z</time></trkpt><trkpt lat="36.78013248246363" lon="-107.96150391189703"><ele>1801.0</ele><time>2026-04-19T16:50:37.001Z</time></trkpt><trkpt lat="36.780295387758464" lon="-107.96150415994802"><ele>1801.0</ele><time>2026-04-19T16:50:38.001Z</time></trkpt><trkpt lat="36.78047231550142" lon="-107.96149430448712"><ele>1801.5</ele><time>2026-04-19T16:50:39.001Z</time></trkpt><trkpt lat="36.78062677544261" lon="-107.96148609431033"><ele>1802.0</ele><time>2026-04-19T16:50:40.001Z</time></trkpt><trkpt lat="36.7807696413227" lon="-107.96147051814985"><ele>1802.5</ele><time>2026-04-19T16:50:41.001Z</time></trkpt><trkpt lat="36.78091090458042" lon="-107.96145354037954"><ele>1803.0</ele><time>2026-04-19T16:50:42.001Z</time></trkpt><trkpt lat="36.7810293719323" lon="-107.96145525387897"><ele>1803.8000000000002</ele><time>2026-04-19T16:50:43.001Z</time></trkpt><trkpt lat="36.78113464757124" lon="-107.96145698060963"><ele>1804.6000000000001</ele><time>2026-04-19T16:50:44.001Z</time></trkpt><trkpt lat="36.781231298222295" lon="-107.96145975574761"><ele>1805.3999999999999</ele><time>2026-04-19T16:50:45.001Z</time></trkpt><trkpt lat="36.78133961574376" lon="-107.96145071883748"><ele>1806.1999999999998</ele><time>2026-04-19T16:50:46Z</time></trkpt><trkpt lat="36.78146718258339" lon="-107.96142059943172"><ele>1807.0</ele><time>2026-04-19T16:50:47Z</time></trkpt><trkpt lat="36.78158795890447" lon="-107.9613784734998"><ele>1807.0</ele><time>2026-04-19T16:50:48Z</time></trkpt><trkpt lat="36.781675404372436" lon="-107.96133984920081"><ele>1806.9999999999998</ele><time>2026-04-19T16:50:49Z</time></trkpt><trkpt lat="36.78174524972704" lon="-107.96129560427333"><ele>1806.9999999999998</ele><time>2026-04-19T16:50:50Z</time></trkpt><trkpt lat="36.781776356132916" lon="-107.96120257537714"><ele>1807.0</ele><time>2026-04-19T16:50:51Z</time></trkpt><trkpt lat="36.78179410637875" lon="-107.96108818047033"><ele>1807.0</ele><time>2026-04-19T16:50:52Z</time></trkpt><trkpt lat="36.78182013515379" lon="-107.96095023179707"><ele>1807.1999999999998</ele><time>2026-04-19T16:50:53Z</time></trkpt><trkpt lat="36.78188763546748" lon="-107.96081983777634"><ele>1807.3999999999999</ele><time>2026-04-19T16:50:54Z</time></trkpt><trkpt lat="36.78194533498684" lon="-107.96073855262588"><ele>1807.6000000000001</ele><time>2026-04-19T16:50:55Z</time></trkpt><trkpt lat="36.78202474442071" lon="-107.96066371748489"><ele>1807.8000000000002</ele><time>2026-04-19T16:50:56Z</time></trkpt><trkpt lat="36.78212222594632" lon="-107.96056950797552"><ele>1808.0</ele><time>2026-04-19T16:50:57Z</time></trkpt><trkpt lat="36.78222919251804" lon="-107.96044957290127"><ele>1808.0</ele><time>2026-04-19T16:50:58Z</time></trkpt><trkpt lat="36.782318123508595" lon="-107.96034062465466"><ele>1808.0000000000002</ele><time>2026-04-19T16:50:59Z</time></trkpt><trkpt lat="36.78238578831315" lon="-107.96024684359418"><ele>1808.0000000000002</ele><time>2026-04-19T16:51:00Z</time></trkpt><trkpt lat="36.78245819562101" lon="-107.96016207144162"><ele>1808.0</ele><time>2026-04-19T16:51:01Z</time></trkpt><trkpt lat="36.78253579695669" lon="-107.96006505585687"><ele>1808.0</ele><time>2026-04-19T16:51:02Z</time></trkpt><trkpt lat="36.782618504097435" lon="-107.95998547273895"><ele>1809.8000000000002</ele><time>2026-04-19T16:51:03Z</time></trkpt><trkpt lat="36.78269013218545" lon="-107.95990761829185"><ele>1811.6000000000001</ele><time>2026-04-19T16:51:04Z</time></trkpt><trkpt lat="36.782738296360975" lon="-107.9598371276434"><ele>1813.3999999999999</ele><time>2026-04-19T16:51:05Z</time></trkpt><trkpt lat="36.78276745974551" lon="-107.9597127087207"><ele>1815.1999999999998</ele><time>2026-04-19T16:51:06Z</time></trkpt><trkpt lat="36.78281106017833" lon="-107.95953858858185"><ele>1817.0</ele><time>2026-04-19T16:51:07Z</time></trkpt><trkpt lat="36.782855850626724" lon="-107.95939799582857"><ele>1816.9999999999998</ele><time>2026-04-19T16:51:08Z</time></trkpt><trkpt lat="36.78289766898192" lon="-107.9593192020581"><ele>1817.0</ele><time>2026-04-19T16:51:09Z</time></trkpt><trkpt lat="36.78295471287199" lon="-107.95926354971603"><ele>1817.0</ele><time>2026-04-19T16:51:10Z</time></trkpt><trkpt lat="36.78300832782642" lon="-107.95918732951421"><ele>1817.0</ele><time>2026-04-19T16:51:11Z</time></trkpt><trkpt lat="36.78302365063512" lon="-107.95909343903818"><ele>1816.9999999999998</ele><time>2026-04-19T16:51:12Z</time></trkpt><trkpt lat="36.78299870652865" lon="-107.95901511577415"><ele>1817.0</ele><time>2026-04-19T16:51:13Z</time></trkpt><trkpt lat="36.783028435584995" lon="-107.95887427851498"><ele>1817.3333333333333</ele><time>2026-04-19T16:51:15Z</time></trkpt><trkpt lat="36.78298823723248" lon="-107.9588034102429"><ele>1817.6666666666665</ele><time>2026-04-19T16:51:16Z</time></trkpt><trkpt lat="36.78289587446924" lon="-107.95874468587459"><ele>1818.0</ele><time>2026-04-19T16:51:17Z</time></trkpt><trkpt lat="36.782838609191" lon="-107.95868619785193"><ele>1818.3333333333335</ele><time>2026-04-19T16:51:18Z</time></trkpt><trkpt lat="36.78280905492236" lon="-107.95860293975068"><ele>1818.6666666666667</ele><time>2026-04-19T16:51:19Z</time></trkpt><trkpt lat="36.7827686496385" lon="-107.9585118071827"><ele>1819.0</ele><time>2026-04-19T16:51:20Z</time></trkpt><trkpt lat="36.78270222182692" lon="-107.95845499836705"><ele>1819.4</ele><time>2026-04-19T16:51:21Z</time></trkpt><trkpt lat="36.78268523626675" lon="-107.95834842846672"><ele>1819.8000000000002</ele><time>2026-04-19T16:51:22Z</time></trkpt><trkpt lat="36.78268317581202" lon="-107.95820647413169"><ele>1820.1999999999998</ele><time>2026-04-19T16:51:23Z</time></trkpt><trkpt lat="36.78268504824673" lon="-107.95804119504848"><ele>1820.6</ele><time>2026-04-19T16:51:24Z</time></trkpt><trkpt lat="36.782692883957175" lon="-107.95794333793168"><ele>1821.0</ele><time>2026-04-19T16:51:25.001Z</time></trkpt><trkpt lat="36.78273333524337" lon="-107.95782695272474"><ele>1821.0</ele><time>2026-04-19T16:51:27.001Z</time></trkpt><trkpt lat="36.782787556446664" lon="-107.95767339690268"><ele>1821.0</ele><time>2026-04-19T16:51:29.001Z</time></trkpt><trkpt lat="36.7828399528794" lon="-107.95758826639357"><ele>1821.0</ele><time>2026-04-19T16:51:30.001Z</time></trkpt><trkpt lat="36.782934141186274" lon="-107.95752424077568"><ele>1821.0</ele><time>2026-04-19T16:51:31.001Z</time></trkpt><trkpt lat="36.78303084526105" lon="-107.95743575931793"><ele>1821.0</ele><time>2026-04-19T16:51:32.001Z</time></trkpt><trkpt lat="36.78308260724981" lon="-107.95727187350893"><ele>1821.0</ele><time>2026-04-19T16:51:34.001Z</time></trkpt><trkpt lat="36.783139422415616" lon="-107.95715669940195"><ele>1821.0</ele><time>2026-04-19T16:51:35.001Z</time></trkpt><trkpt lat="36.78320726260508" lon="-107.9571116413536"><ele>1821.0</ele><time>2026-04-19T16:51:36.001Z</time></trkpt><trkpt lat="36.78327916596123" lon="-107.95713160759682"><ele>1821.0</ele><time>2026-04-19T16:51:37.001Z</time></trkpt><trkpt lat="36.78339079878875" lon="-107.95720921392724"><ele>1821.0</ele><time>2026-04-19T16:51:38.001Z</time></trkpt><trkpt lat="36.783505976409394" lon="-107.95728269346715"><ele>1822.4</ele><time>2026-04-19T16:51:39.001Z</time></trkpt><trkpt lat="36.78363245611617" lon="-107.95732872251628"><ele>1823.8</ele><time>2026-04-19T16:51:40.001Z</time></trkpt><trkpt lat="36.783754870749256" lon="-107.95735221277904"><ele>1825.2000000000003</ele><time>2026-04-19T16:51:41.001Z</time></trkpt><trkpt lat="36.78386169264995" lon="-107.95738888718482"><ele>1826.6000000000001</ele><time>2026-04-19T16:51:42.001Z</time></trkpt><trkpt lat="36.783930682478186" lon="-107.95742711358562"><ele>1828.0</ele><time>2026-04-19T16:51:43.001Z</time></trkpt><trkpt lat="36.784015721850906" lon="-107.95750278596745"><ele>1828.0000000000002</ele><time>2026-04-19T16:51:44.001Z</time></trkpt><trkpt lat="36.78411038038128" lon="-107.9575462346402"><ele>1828.0</ele><time>2026-04-19T16:51:45.001Z</time></trkpt><trkpt lat="36.784183559453105" lon="-107.95751857378322"><ele>1828.0</ele><time>2026-04-19T16:51:46.001Z</time></trkpt><trkpt lat="36.78426004489484" lon="-107.95747562187675"><ele>1828.0</ele><time>2026-04-19T16:51:47.001Z</time></trkpt><trkpt lat="36.78433432367089" lon="-107.95747688276214"><ele>1828.0000000000002</ele><time>2026-04-19T16:51:48.001Z</time></trkpt><trkpt lat="36.78440233015896" lon="-107.95750939548013"><ele>1828.0</ele><time>2026-04-19T16:51:49.001Z</time></trkpt><trkpt lat="36.78448990198359" lon="-107.95737487803838"><ele>1829.1666666666667</ele><time>2026-04-19T16:51:51.001Z</time></trkpt><trkpt lat="36.78450022634997" lon="-107.95725625306308"><ele>1830.3333333333335</ele><time>2026-04-19T16:51:52.001Z</time></trkpt><trkpt lat="36.78447701846632" lon="-107.9571580285303"><ele>1831.5</ele><time>2026-04-19T16:51:53.001Z</time></trkpt><trkpt lat="36.784422614528594" lon="-107.95710974876992"><ele>1832.6666666666665</ele><time>2026-04-19T16:51:54.001Z</time></trkpt><trkpt lat="36.784448802569585" lon="-107.95700387525399"><ele>1833.8333333333333</ele><time>2026-04-19T16:51:56.001Z</time></trkpt><trkpt lat="36.78451495978966" lon="-107.95695354853451"><ele>1835.0</ele><time>2026-04-19T16:51:57.001Z</time></trkpt><trkpt lat="36.784576647501986" lon="-107.95688901852564"><ele>1834.9999999999998</ele><time>2026-04-19T16:51:58.001Z</time></trkpt><trkpt lat="36.78463760794433" lon="-107.95683034376292"><ele>1835.0</ele><time>2026-04-19T16:51:59.001Z</time></trkpt><trkpt lat="36.78468373661551" lon="-107.95674943030147"><ele>1835.0</ele><time>2026-04-19T16:52:00.001Z</time></trkpt><trkpt lat="36.78475496004399" lon="-107.95669878318893"><ele>1835.0</ele><time>2026-04-19T16:52:01.001Z</time></trkpt><trkpt lat="36.784799041313114" lon="-107.95661235900279"><ele>1834.9999999999998</ele><time>2026-04-19T16:52:02.001Z</time></trkpt><trkpt lat="36.78479637929642" lon="-107.95653059860902"><ele>1835.0</ele><time>2026-04-19T16:52:03.001Z</time></trkpt><trkpt lat="36.78474538444192" lon="-107.95645994508374"><ele>1834.9999999999998</ele><time>2026-04-19T16:52:04.001Z</time></trkpt><trkpt lat="36.784671732917715" lon="-107.95641431852913"><ele>1835.0</ele><time>2026-04-19T16:52:05.001Z</time></trkpt><trkpt lat="36.784582904044385" lon="-107.95637913486449"><ele>1835.0</ele><time>2026-04-19T16:52:06.001Z</time></trkpt><trkpt lat="36.78450550882871" lon="-107.95636236812351"><ele>1835.0</ele><time>2026-04-19T16:52:07.001Z</time></trkpt><trkpt lat="36.78444126003995" lon="-107.95635080623497"><ele>1834.9999999999998</ele><time>2026-04-19T16:52:08.001Z</time></trkpt><trkpt lat="36.78436466458278" lon="-107.95632842469615"><ele>1835.0</ele><time>2026-04-19T16:52:09.001Z</time></trkpt><trkpt lat="36.78425539550544" lon="-107.95622921264824"><ele>1834.9999999999998</ele><time>2026-04-19T16:52:11.001Z</time></trkpt><trkpt lat="36.78418375804048" lon="-107.95617482290206"><ele>1835.0</ele><time>2026-04-19T16:52:12.001Z</time></trkpt><trkpt lat="36.78412629922798" lon="-107.95611472395203"><ele>1835.0</ele><time>2026-04-19T16:52:14.001Z</time></trkpt><trkpt lat="36.78406052080986" lon="-107.95605686659177"><ele>1835.0</ele><time>2026-04-19T16:52:26.001Z</time></trkpt><trkpt lat="36.783990972993095" lon="-107.95601164363953"><ele>1834.9999999999998</ele><time>2026-04-19T16:52:30.001Z</time></trkpt><trkpt lat="36.783956473582194" lon="-107.95593415663677"><ele>1835.0</ele><time>2026-04-19T16:52:32.001Z</time></trkpt><trkpt lat="36.783920942304974" lon="-107.95585276846562"><ele>1835.0</ele><time>2026-04-19T16:52:33.001Z</time></trkpt><trkpt lat="36.78389633954068" lon="-107.95573851452377"><ele>1835.0</ele><time>2026-04-19T16:52:35.001Z</time></trkpt><trkpt lat="36.783843004442325" lon="-107.95563558664588"><ele>1835.0</ele><time>2026-04-19T16:52:37.001Z</time></trkpt><trkpt lat="36.78377032952682" lon="-107.95560421528916"><ele>1835.0</ele><time>2026-04-19T16:52:38.001Z</time></trkpt><trkpt lat="36.783714720957654" lon="-107.9555647348326"><ele>1835.0</ele><time>2026-04-19T16:52:39.001Z</time></trkpt><trkpt lat="36.783644745510344" lon="-107.95544717227654"><ele>1834.9999999999998</ele><time>2026-04-19T16:52:41.001Z</time></trkpt><trkpt lat="36.783629781082354" lon="-107.95534544068455"><ele>1835.0</ele><time>2026-04-19T16:52:42.001Z</time></trkpt><trkpt lat="36.783617360002665" lon="-107.95524794743963"><ele>1835.0</ele><time>2026-04-19T16:52:43.001Z</time></trkpt><trkpt lat="36.78360385733693" lon="-107.95515541618369"><ele>1835.0</ele><time>2026-04-19T16:52:44.001Z</time></trkpt><trkpt lat="36.78359219123182" lon="-107.95507455803552"><ele>1834.9999999999998</ele><time>2026-04-19T16:52:45.001Z</time></trkpt><trkpt lat="36.78354435023741" lon="-107.95496532066937"><ele>1835.0</ele><time>2026-04-19T16:52:47.001Z</time></trkpt><trkpt lat="36.78348728881937" lon="-107.95492615128042"><ele>1833.8333333333333</ele><time>2026-04-19T16:52:48.001Z</time></trkpt><trkpt lat="36.783422002718325" lon="-107.9548826053733"><ele>1832.6666666666665</ele><time>2026-04-19T16:52:49.001Z</time></trkpt><trkpt lat="36.78337526662688" lon="-107.9548290665699"><ele>1831.5</ele><time>2026-04-19T16:52:50.001Z</time></trkpt><trkpt lat="36.78324667347501" lon="-107.95478070828236"><ele>1830.3333333333335</ele><time>2026-04-19T16:52:52Z</time></trkpt><trkpt lat="36.78317977675592" lon="-107.95479953015862"><ele>1829.1666666666667</ele><time>2026-04-19T16:52:53Z</time></trkpt><trkpt lat="36.78312097870045" lon="-107.95483748508974"><ele>1828.0</ele><time>2026-04-19T16:52:54Z</time></trkpt><trkpt lat="36.78304550547683" lon="-107.9548610496868"><ele>1828.0</ele><time>2026-04-19T16:52:56Z</time></trkpt><trkpt lat="36.78298194179711" lon="-107.95480922153149"><ele>1828.0000000000002</ele><time>2026-04-19T16:52:58Z</time></trkpt><trkpt lat="36.782951303190664" lon="-107.9546504859541"><ele>1828.0000000000002</ele><time>2026-04-19T16:53:00Z</time></trkpt><trkpt lat="36.782922702612545" lon="-107.95456436553198"><ele>1828.0</ele><time>2026-04-19T16:53:01Z</time></trkpt><trkpt lat="36.78285746356624" lon="-107.95450809620947"><ele>1828.0</ele><time>2026-04-19T16:53:02Z</time></trkpt><trkpt lat="36.782770672055705" lon="-107.95448076710042"><ele>1828.0</ele><time>2026-04-19T16:53:03Z</time></trkpt><trkpt lat="36.78268459882122" lon="-107.9544544261504"><ele>1828.0000000000002</ele><time>2026-04-19T16:53:04Z</time></trkpt><trkpt lat="36.782636619926684" lon="-107.95434543808254"><ele>1828.0000000000002</ele><time>2026-04-19T16:53:06Z</time></trkpt><trkpt lat="36.78264124445823" lon="-107.9542034094467"><ele>1828.0</ele><time>2026-04-19T16:53:07Z</time></trkpt><trkpt lat="36.78264532784353" lon="-107.95405756954153"><ele>1828.0</ele><time>2026-04-19T16:53:08Z</time></trkpt><trkpt lat="36.78263987413723" lon="-107.95396447072004"><ele>1827.6666666666667</ele><time>2026-04-19T16:53:09Z</time></trkpt><trkpt lat="36.78265351740335" lon="-107.95387276715273"><ele>1827.3333333333335</ele><time>2026-04-19T16:53:10Z</time></trkpt><trkpt lat="36.78269815939593" lon="-107.95376505729958"><ele>1827.0</ele><time>2026-04-19T16:53:11Z</time></trkpt><trkpt lat="36.78274863061489" lon="-107.95371275902068"><ele>1826.6666666666665</ele><time>2026-04-19T16:53:12Z</time></trkpt><trkpt lat="36.782828555784974" lon="-107.95367564841237"><ele>1826.3333333333333</ele><time>2026-04-19T16:53:13Z</time></trkpt><trkpt lat="36.78292265030398" lon="-107.9536552161987"><ele>1826.0</ele><time>2026-04-19T16:53:14Z</time></trkpt><trkpt lat="36.7830348217071" lon="-107.95365600158148"><ele>1826.0</ele><time>2026-04-19T16:53:15Z</time></trkpt><trkpt lat="36.783155617117764" lon="-107.95368250953722"><ele>1826.0</ele><time>2026-04-19T16:53:16Z</time></trkpt><trkpt lat="36.783255180335516" lon="-107.95367674047291"><ele>1826.0</ele><time>2026-04-19T16:53:17Z</time></trkpt><trkpt lat="36.78336002147297" lon="-107.95364587817184"><ele>1826.0</ele><time>2026-04-19T16:53:18Z</time></trkpt><trkpt lat="36.783482363929735" lon="-107.95358824210793"><ele>1826.1999999999998</ele><time>2026-04-19T16:53:19Z</time></trkpt><trkpt lat="36.7836075922227" lon="-107.9535377279725"><ele>1826.3999999999999</ele><time>2026-04-19T16:53:20Z</time></trkpt><trkpt lat="36.78369706893685" lon="-107.95349796078968"><ele>1826.6</ele><time>2026-04-19T16:53:21Z</time></trkpt><trkpt lat="36.78379442437133" lon="-107.95349576873359"><ele>1826.8</ele><time>2026-04-19T16:53:22Z</time></trkpt><trkpt lat="36.783878975045674" lon="-107.95348048578907"><ele>1827.0</ele><time>2026-04-19T16:53:23Z</time></trkpt><trkpt lat="36.78394031769802" lon="-107.95335745836377"><ele>1827.0</ele><time>2026-04-19T16:53:24Z</time></trkpt><trkpt lat="36.78403659865084" lon="-107.95325535724753"><ele>1827.0</ele><time>2026-04-19T16:53:25Z</time></trkpt><trkpt lat="36.7841286539667" lon="-107.95321073399164"><ele>1827.0</ele><time>2026-04-19T16:53:26Z</time></trkpt><trkpt lat="36.78425005946671" lon="-107.95316910680694"><ele>1827.0</ele><time>2026-04-19T16:53:27Z</time></trkpt><trkpt lat="36.78439166839075" lon="-107.95308870916712"><ele>1827.6</ele><time>2026-04-19T16:53:28Z</time></trkpt><trkpt lat="36.78450993270169" lon="-107.95302206006038"><ele>1828.1999999999998</ele><time>2026-04-19T16:53:29Z</time></trkpt><trkpt lat="36.784595715384306" lon="-107.9529911500554"><ele>1828.8</ele><time>2026-04-19T16:53:30.001Z</time></trkpt><trkpt lat="36.78468837494098" lon="-107.95297337287869"><ele>1829.4</ele><time>2026-04-19T16:53:31.001Z</time></trkpt><trkpt lat="36.784822347086966" lon="-107.95295193940885"><ele>1830.0</ele><time>2026-04-19T16:53:32.001Z</time></trkpt><trkpt lat="36.7849403152512" lon="-107.95289818907435"><ele>1830.0</ele><time>2026-04-19T16:53:33.001Z</time></trkpt><trkpt lat="36.785026513307066" lon="-107.95284494853256"><ele>1830.0</ele><time>2026-04-19T16:53:34.001Z</time></trkpt><trkpt lat="36.78509267610033" lon="-107.95276798952602"><ele>1830.0</ele><time>2026-04-19T16:53:35.001Z</time></trkpt><trkpt lat="36.78513832863489" lon="-107.95271205183575"><ele>1830.0</ele><time>2026-04-19T16:53:36.001Z</time></trkpt><trkpt lat="36.78524867248958" lon="-107.95268821308984"><ele>1830.0</ele><time>2026-04-19T16:53:38.001Z</time></trkpt><trkpt lat="36.785313685796496" lon="-107.95264674004302"><ele>1830.0</ele><time>2026-04-19T16:53:40.001Z</time></trkpt><trkpt lat="36.78540127706098" lon="-107.95264022678394"><ele>1830.6</ele><time>2026-04-19T16:53:41.001Z</time></trkpt><trkpt lat="36.785496120382795" lon="-107.9526264860362"><ele>1831.2</ele><time>2026-04-19T16:53:42.001Z</time></trkpt><trkpt lat="36.78558489056395" lon="-107.9525897917348"><ele>1831.8000000000002</ele><time>2026-04-19T16:53:43.001Z</time></trkpt><trkpt lat="36.78567210265837" lon="-107.95256776387825"><ele>1832.4</ele><time>2026-04-19T16:53:44.001Z</time></trkpt><trkpt lat="36.785778124536996" lon="-107.95255170159754"><ele>1833.0</ele><time>2026-04-19T16:53:45.001Z</time></trkpt><trkpt lat="36.785874638000166" lon="-107.95252517547144"><ele>1833.0</ele><time>2026-04-19T16:53:46.001Z</time></trkpt><trkpt lat="36.78592948827656" lon="-107.95247154678101"><ele>1833.0000000000002</ele><time>2026-04-19T16:53:47.001Z</time></trkpt><trkpt lat="36.78597874015486" lon="-107.95238212587878"><ele>1833.0000000000002</ele><time>2026-04-19T16:53:48.001Z</time></trkpt><trkpt lat="36.78604920616137" lon="-107.95228423179533"><ele>1833.0</ele><time>2026-04-19T16:53:49.001Z</time></trkpt><trkpt lat="36.78614359678291" lon="-107.9521918777503"><ele>1833.0</ele><time>2026-04-19T16:53:50.001Z</time></trkpt><trkpt lat="36.78623713160217" lon="-107.95207917642186"><ele>1834.4</ele><time>2026-04-19T16:53:51.001Z</time></trkpt><trkpt lat="36.78630915319902" lon="-107.95194905031707"><ele>1835.8000000000002</ele><time>2026-04-19T16:53:52.001Z</time></trkpt><trkpt lat="36.78637404501729" lon="-107.95187926575089"><ele>1837.2</ele><time>2026-04-19T16:53:53.001Z</time></trkpt><trkpt lat="36.78645001806547" lon="-107.95184420730266"><ele>1838.6</ele><time>2026-04-19T16:53:54.001Z</time></trkpt><trkpt lat="36.78653766369762" lon="-107.95180736749128"><ele>1840.0</ele><time>2026-04-19T16:53:55.001Z</time></trkpt><trkpt lat="36.78660681941978" lon="-107.95172879810391"><ele>1840.1666666666667</ele><time>2026-04-19T16:53:56.001Z</time></trkpt><trkpt lat="36.78661842480375" lon="-107.95160889932339"><ele>1840.3333333333335</ele><time>2026-04-19T16:53:57.001Z</time></trkpt><trkpt lat="36.7866387191602" lon="-107.95148857519614"><ele>1840.5</ele><time>2026-04-19T16:53:58.001Z</time></trkpt><trkpt lat="36.78667256718043" lon="-107.9514106673214"><ele>1840.6666666666665</ele><time>2026-04-19T16:53:59.001Z</time></trkpt><trkpt lat="36.78672352946001" lon="-107.95132001067913"><ele>1840.8333333333333</ele><time>2026-04-19T16:54:00.001Z</time></trkpt><trkpt lat="36.78678382227872" lon="-107.95123948660756"><ele>1841.0</ele><time>2026-04-19T16:54:01.001Z</time></trkpt><trkpt lat="36.78681752606731" lon="-107.95115160704978"><ele>1840.9999999999998</ele><time>2026-04-19T16:54:02.001Z</time></trkpt><trkpt lat="36.78683148424511" lon="-107.95107349054419"><ele>1841.0</ele><time>2026-04-19T16:54:03.001Z</time></trkpt><trkpt lat="36.7868458789405" lon="-107.95098282324894"><ele>1841.0</ele><time>2026-04-19T16:54:04.001Z</time></trkpt><trkpt lat="36.78685818388238" lon="-107.95087312398951"><ele>1841.0</ele><time>2026-04-19T16:54:05.001Z</time></trkpt><trkpt lat="36.78685111595841" lon="-107.95077167792108"><ele>1840.9999999999998</ele><time>2026-04-19T16:54:06.001Z</time></trkpt><trkpt lat="36.786837412304976" lon="-107.95065697075589"><ele>1841.0</ele><time>2026-04-19T16:54:07.001Z</time></trkpt><trkpt lat="36.78683051644594" lon="-107.95056523414608"><ele>1840.9999999999998</ele><time>2026-04-19T16:54:08.001Z</time></trkpt><trkpt lat="36.78683315373385" lon="-107.95047790025635"><ele>1841.0</ele><time>2026-04-19T16:54:09.001Z</time></trkpt><trkpt lat="36.78683644629873" lon="-107.95039536458009"><ele>1841.0</ele><time>2026-04-19T16:54:10.001Z</time></trkpt><trkpt lat="36.786820216029305" lon="-107.95026057922041"><ele>1841.0</ele><time>2026-04-19T16:54:12.001Z</time></trkpt><trkpt lat="36.78679727733689" lon="-107.95018255448272"><ele>1840.9999999999998</ele><time>2026-04-19T16:57:16Z</time></trkpt><trkpt lat="36.78675102024887" lon="-107.95008943223118"><ele>1841.0</ele><time>2026-04-19T16:57:18Z</time></trkpt><trkpt lat="36.78675771731161" lon="-107.9499825897445"><ele>1840.9999999999998</ele><time>2026-04-19T16:57:20Z</time></trkpt><trkpt lat="36.78672857520647" lon="-107.94982876743836"><ele>1841.0</ele><time>2026-04-19T16:57:22Z</time></trkpt><trkpt lat="36.78669526229412" lon="-107.94972046932125"><ele>1841.0</ele><time>2026-04-19T16:57:24Z</time></trkpt><trkpt lat="36.78670760040958" lon="-107.9496386999219"><ele>1841.0</ele><time>2026-04-19T16:57:26Z</time></trkpt><trkpt lat="36.78671063892641" lon="-107.94955248048119"><ele>1840.9999999999998</ele><time>2026-04-19T16:57:27Z</time></trkpt><trkpt lat="36.786717891560485" lon="-107.94946608434601"><ele>1841.0</ele><time>2026-04-19T16:57:28Z</time></trkpt><trkpt lat="36.78682201980872" lon="-107.94935096802652"><ele>1841.1666666666665</ele><time>2026-04-19T16:57:30Z</time></trkpt><trkpt lat="36.78688766438587" lon="-107.94932151812327"><ele>1841.3333333333333</ele><time>2026-04-19T16:57:31Z</time></trkpt><trkpt lat="36.78697514985409" lon="-107.9493170413276"><ele>1841.5</ele><time>2026-04-19T16:57:32Z</time></trkpt><trkpt lat="36.78709130081394" lon="-107.94929542540768"><ele>1841.6666666666665</ele><time>2026-04-19T16:57:33Z</time></trkpt><trkpt lat="36.78718049425072" lon="-107.9492774582444"><ele>1841.8333333333333</ele><time>2026-04-19T16:57:34Z</time></trkpt><trkpt lat="36.787251800626315" lon="-107.9492478614486"><ele>1842.0</ele><time>2026-04-19T16:57:35Z</time></trkpt><trkpt lat="36.78732482506655" lon="-107.94917617354915"><ele>1842.0</ele><time>2026-04-19T16:57:36Z</time></trkpt><trkpt lat="36.78740141167446" lon="-107.94908504916063"><ele>1842.0</ele><time>2026-04-19T16:57:37Z</time></trkpt><trkpt lat="36.7874602855116" lon="-107.94901029920864"><ele>1842.0</ele><time>2026-04-19T16:57:38Z</time></trkpt><trkpt lat="36.78751260321248" lon="-107.94895345803829"><ele>1842.0</ele><time>2026-04-19T16:57:39Z</time></trkpt><trkpt lat="36.78757625186332" lon="-107.9489265701863"><ele>1842.0</ele><time>2026-04-19T16:57:40Z</time></trkpt><trkpt lat="36.787660359176556" lon="-107.94893977429199"><ele>1842.0</ele><time>2026-04-19T16:57:41Z</time></trkpt><trkpt lat="36.787772327426225" lon="-107.9490184636345"><ele>1843.0</ele><time>2026-04-19T16:57:42Z</time></trkpt><trkpt lat="36.78790557875782" lon="-107.94908152328634"><ele>1843.9999999999998</ele><time>2026-04-19T16:57:43Z</time></trkpt><trkpt lat="36.78801997253255" lon="-107.94913347931127"><ele>1844.9999999999998</ele><time>2026-04-19T16:57:44Z</time></trkpt><trkpt lat="36.788089014618045" lon="-107.94918025914642"><ele>1846.0</ele><time>2026-04-19T16:57:45.001Z</time></trkpt><trkpt lat="36.78818222202172" lon="-107.94915424357882"><ele>1847.0</ele><time>2026-04-19T16:57:47.001Z</time></trkpt><trkpt lat="36.788253468264486" lon="-107.94910509826887"><ele>1846.9999999999998</ele><time>2026-04-19T16:57:49.001Z</time></trkpt><trkpt lat="36.788297361402996" lon="-107.94902828970906"><ele>1847.0</ele><time>2026-04-19T16:57:50.001Z</time></trkpt><trkpt lat="36.78836879815827" lon="-107.94897843197556"><ele>1847.0</ele><time>2026-04-19T16:57:51.001Z</time></trkpt><trkpt lat="36.78844732556555" lon="-107.94901676004635"><ele>1847.0</ele><time>2026-04-19T16:57:52.001Z</time></trkpt><trkpt lat="36.788529531410006" lon="-107.9490153269294"><ele>1846.9999999999998</ele><time>2026-04-19T16:57:53.001Z</time></trkpt><trkpt lat="36.788592749592816" lon="-107.94895172570146"><ele>1847.0</ele><time>2026-04-19T16:57:54.001Z</time></trkpt><trkpt lat="36.78865438714224" lon="-107.94886830127375"><ele>1848.1999999999998</ele><time>2026-04-19T16:57:55.001Z</time></trkpt><trkpt lat="36.788744459390564" lon="-107.94879212169103"><ele>1849.3999999999999</ele><time>2026-04-19T16:57:56.001Z</time></trkpt><trkpt lat="36.78881274757591" lon="-107.94872117637242"><ele>1850.6000000000001</ele><time>2026-04-19T16:57:57.001Z</time></trkpt><trkpt lat="36.78886955482833" lon="-107.9486302662516"><ele>1851.8000000000002</ele><time>2026-04-19T16:57:58.001Z</time></trkpt><trkpt lat="36.788912799487136" lon="-107.94851657663978"><ele>1853.0</ele><time>2026-04-19T16:57:59.001Z</time></trkpt><trkpt lat="36.788933442001195" lon="-107.94843965239941"><ele>1853.142857142857</ele><time>2026-04-19T16:58:00.001Z</time></trkpt><trkpt lat="36.788960582781044" lon="-107.94836686629417"><ele>1853.2857142857142</ele><time>2026-04-19T16:58:01.001Z</time></trkpt><trkpt lat="36.78902346174328" lon="-107.9483025503093"><ele>1853.4285714285713</ele><time>2026-04-19T16:58:02.001Z</time></trkpt><trkpt lat="36.789105829177835" lon="-107.94826479996159"><ele>1853.5714285714284</ele><time>2026-04-19T16:58:03.001Z</time></trkpt><trkpt lat="36.78917371420301" lon="-107.94826317161777"><ele>1853.7142857142858</ele><time>2026-04-19T16:58:04.001Z</time></trkpt><trkpt lat="36.78924435704151" lon="-107.9482715982509"><ele>1853.8571428571427</ele><time>2026-04-19T16:58:05.001Z</time></trkpt><trkpt lat="36.78932015950243" lon="-107.94827180472224"><ele>1853.9999999999998</ele><time>2026-04-19T16:58:06.001Z</time></trkpt><trkpt lat="36.78939846694198" lon="-107.94823817375347"><ele>1854.6666666666667</ele><time>2026-04-19T16:58:07.001Z</time></trkpt><trkpt lat="36.789472081925766" lon="-107.94816066325168"><ele>1855.3333333333335</ele><time>2026-04-19T16:58:08.001Z</time></trkpt><trkpt lat="36.78953859497495" lon="-107.94806235999897"><ele>1856.0</ele><time>2026-04-19T16:58:09.001Z</time></trkpt><trkpt lat="36.789604219077845" lon="-107.94799264638847"><ele>1856.6666666666667</ele><time>2026-04-19T16:58:10.001Z</time></trkpt><trkpt lat="36.78966081857013" lon="-107.94794854448801"><ele>1857.3333333333335</ele><time>2026-04-19T16:58:11.001Z</time></trkpt><trkpt lat="36.78972406410322" lon="-107.9478765086549"><ele>1858.0</ele><time>2026-04-19T16:58:12.001Z</time></trkpt><trkpt lat="36.78979654515114" lon="-107.94779663229345"><ele>1858.0</ele><time>2026-04-19T16:58:13.001Z</time></trkpt><trkpt lat="36.789870015244496" lon="-107.94772503351064"><ele>1858.0000000000002</ele><time>2026-04-19T16:58:14.001Z</time></trkpt><trkpt lat="36.789942573490116" lon="-107.94764639226393"><ele>1858.0000000000002</ele><time>2026-04-19T16:58:15.001Z</time></trkpt><trkpt lat="36.79000530951797" lon="-107.947570412338"><ele>1858.0</ele><time>2026-04-19T16:58:16.001Z</time></trkpt><trkpt lat="36.79006367991875" lon="-107.94744943856402"><ele>1858.0</ele><time>2026-04-19T16:58:18.001Z</time></trkpt><trkpt lat="36.790050668011936" lon="-107.94732794632888"><ele>1858.5</ele><time>2026-04-19T16:58:20.001Z</time></trkpt><trkpt lat="36.789932857511296" lon="-107.94728230452132"><ele>1859.0</ele><time>2026-04-19T16:58:22.001Z</time></trkpt><trkpt lat="36.789823026272536" lon="-107.94718012732575"><ele>1859.5</ele><time>2026-04-19T16:58:25.001Z</time></trkpt><trkpt lat="36.78972430376444" lon="-107.94708244041843"><ele>1860.0</ele><time>2026-04-19T16:58:26.001Z</time></trkpt><trkpt lat="36.789633348664424" lon="-107.94700536169228"><ele>1860.0</ele><time>2026-04-19T16:58:27.001Z</time></trkpt><trkpt lat="36.789557258061855" lon="-107.94694799878594"><ele>1860.0</ele><time>2026-04-19T16:58:28.001Z</time></trkpt><trkpt lat="36.789486440669016" lon="-107.94688333370992"><ele>1860.0</ele><time>2026-04-19T16:58:29.001Z</time></trkpt><trkpt lat="36.789401778044265" lon="-107.94681319767233"><ele>1860.0</ele><time>2026-04-19T16:58:30.001Z</time></trkpt><trkpt lat="36.78932409954901" lon="-107.94674753297332"><ele>1860.0</ele><time>2026-04-19T16:58:31.001Z</time></trkpt><trkpt lat="36.78925649309249" lon="-107.94670437296215"><ele>1860.0</ele><time>2026-04-19T16:58:32.001Z</time></trkpt><trkpt lat="36.789167314711584" lon="-107.94659398218157"><ele>1858.2</ele><time>2026-04-19T16:58:34.001Z</time></trkpt><trkpt lat="36.78916085114838" lon="-107.94647238757646"><ele>1856.4</ele><time>2026-04-19T16:58:35.001Z</time></trkpt><trkpt lat="36.7891427021857" lon="-107.94634560405326"><ele>1854.6</ele><time>2026-04-19T16:58:36.001Z</time></trkpt><trkpt lat="36.78908069900579" lon="-107.94625804383635"><ele>1852.8</ele><time>2026-04-19T16:58:37.001Z</time></trkpt><trkpt lat="36.788983276746" lon="-107.94614186510594"><ele>1851.0</ele><time>2026-04-19T16:58:38.001Z</time></trkpt><trkpt lat="36.78891295091684" lon="-107.94598821885332"><ele>1851.0</ele><time>2026-04-19T16:58:39.001Z</time></trkpt><trkpt lat="36.78887909263591" lon="-107.94588659438202"><ele>1851.0</ele><time>2026-04-19T16:58:40.001Z</time></trkpt><trkpt lat="36.788842210715174" lon="-107.94579503526676"><ele>1851.0</ele><time>2026-04-19T16:58:41.001Z</time></trkpt><trkpt lat="36.78878492378203" lon="-107.94573119487505"><ele>1851.0</ele><time>2026-04-19T16:58:42.001Z</time></trkpt><trkpt lat="36.788711649784084" lon="-107.9456930636763"><ele>1851.0</ele><time>2026-04-19T16:58:43.001Z</time></trkpt><trkpt lat="36.78866477917599" lon="-107.94556124469723"><ele>1851.0</ele><time>2026-04-19T16:58:45.001Z</time></trkpt><trkpt lat="36.78863458637774" lon="-107.9454565517867"><ele>1850.5</ele><time>2026-04-19T16:58:46.001Z</time></trkpt><trkpt lat="36.788577661055456" lon="-107.94530421390049"><ele>1850.0</ele><time>2026-04-19T16:58:47.001Z</time></trkpt><trkpt lat="36.7885296384892" lon="-107.9451570310552"><ele>1849.5</ele><time>2026-04-19T16:58:48.001Z</time></trkpt><trkpt lat="36.788487142657544" lon="-107.94498136291809"><ele>1849.0</ele><time>2026-04-19T16:58:49.001Z</time></trkpt><trkpt lat="36.788438204947276" lon="-107.94485442837622"><ele>1848.8333333333335</ele><time>2026-04-19T16:58:50.001Z</time></trkpt><trkpt lat="36.788387983217895" lon="-107.94478736258651"><ele>1848.6666666666667</ele><time>2026-04-19T16:58:51.001Z</time></trkpt><trkpt lat="36.788306728306644" lon="-107.94475163024373"><ele>1848.5</ele><time>2026-04-19T16:58:52.001Z</time></trkpt><trkpt lat="36.78823434593667" lon="-107.94469527445499"><ele>1848.3333333333335</ele><time>2026-04-19T16:58:53.001Z</time></trkpt><trkpt lat="36.788228228335" lon="-107.94460782612511"><ele>1848.1666666666667</ele><time>2026-04-19T16:58:54.001Z</time></trkpt><trkpt lat="36.78823972822582" lon="-107.94448781986927"><ele>1848.0</ele><time>2026-04-19T16:58:55.001Z</time></trkpt><trkpt lat="36.788234719058465" lon="-107.94436429813355"><ele>1848.0</ele><time>2026-04-19T16:58:56.001Z</time></trkpt><trkpt lat="36.78821533002819" lon="-107.94424804954784"><ele>1848.0000000000002</ele><time>2026-04-19T16:58:57.001Z</time></trkpt><trkpt lat="36.78819708296113" lon="-107.9441004827717"><ele>1848.0000000000002</ele><time>2026-04-19T16:58:58.001Z</time></trkpt><trkpt lat="36.78818419468211" lon="-107.94394523762818"><ele>1848.0</ele><time>2026-04-19T16:58:59.001Z</time></trkpt><trkpt lat="36.78818506887685" lon="-107.94382742921405"><ele>1848.0</ele><time>2026-04-19T16:59:00.001Z</time></trkpt><trkpt lat="36.78815848604278" lon="-107.94373895292028"><ele>1848.6666666666667</ele><time>2026-04-19T16:59:01.001Z</time></trkpt><trkpt lat="36.78811231090449" lon="-107.94365899211287"><ele>1849.3333333333335</ele><time>2026-04-19T16:59:02.001Z</time></trkpt><trkpt lat="36.78805766348121" lon="-107.94360443319843"><ele>1850.0</ele><time>2026-04-19T16:59:03.001Z</time></trkpt><trkpt lat="36.7879870122022" lon="-107.94354766882563"><ele>1850.6666666666667</ele><time>2026-04-19T16:59:04.001Z</time></trkpt><trkpt lat="36.787937070783045" lon="-107.94349616699306"><ele>1851.3333333333335</ele><time>2026-04-19T16:59:05.001Z</time></trkpt><trkpt lat="36.78794279938057" lon="-107.94338972635884"><ele>1852.0</ele><time>2026-04-19T16:59:08.001Z</time></trkpt><trkpt lat="36.78797724438239" lon="-107.94330583798767"><ele>1852.5000000000002</ele><time>2026-04-19T16:59:09.001Z</time></trkpt><trkpt lat="36.78803081437576" lon="-107.9432138762094"><ele>1853.0</ele><time>2026-04-19T16:59:10Z</time></trkpt><trkpt lat="36.78809304842787" lon="-107.94313057991582"><ele>1853.5</ele><time>2026-04-19T16:59:11Z</time></trkpt><trkpt lat="36.78814379340979" lon="-107.94306653295158"><ele>1854.0</ele><time>2026-04-19T16:59:12Z</time></trkpt><trkpt lat="36.78818734722367" lon="-107.94297366424641"><ele>1854.5000000000002</ele><time>2026-04-19T16:59:13Z</time></trkpt><trkpt lat="36.78820781998154" lon="-107.94284987595897"><ele>1855.0</ele><time>2026-04-19T16:59:14Z</time></trkpt><trkpt lat="36.788218661195174" lon="-107.94272366969845"><ele>1855.0</ele><time>2026-04-19T16:59:15Z</time></trkpt><trkpt lat="36.788208191426406" lon="-107.94257064531197"><ele>1855.0</ele><time>2026-04-19T16:59:17Z</time></trkpt><trkpt lat="36.788208442362254" lon="-107.94247575580245"><ele>1855.0</ele><time>2026-04-19T16:59:18Z</time></trkpt><trkpt lat="36.78817885022085" lon="-107.94239152056342"><ele>1855.0</ele><time>2026-04-19T16:59:19Z</time></trkpt><trkpt lat="36.788153385855175" lon="-107.94228126815467"><ele>1855.0</ele><time>2026-04-19T16:59:21Z</time></trkpt><trkpt lat="36.7881956044702" lon="-107.94216459285029"><ele>1856.2</ele><time>2026-04-19T16:59:23Z</time></trkpt><trkpt lat="36.788206134943096" lon="-107.942070823063"><ele>1857.4</ele><time>2026-04-19T16:59:24Z</time></trkpt><trkpt lat="36.788231063729" lon="-107.94195620239947"><ele>1858.6</ele><time>2026-04-19T16:59:26Z</time></trkpt><trkpt lat="36.788343962060736" lon="-107.94185223448831"><ele>1859.8</ele><time>2026-04-19T16:59:28Z</time></trkpt><trkpt lat="36.78841291472445" lon="-107.94179999279051"><ele>1861.0</ele><time>2026-04-19T16:59:29Z</time></trkpt><trkpt lat="36.78847223967144" lon="-107.94174580247771"><ele>1862.0</ele><time>2026-04-19T16:59:30Z</time></trkpt><trkpt lat="36.788507534100106" lon="-107.94158186739958"><ele>1863.0</ele><time>2026-04-19T16:59:32Z</time></trkpt><trkpt lat="36.78853597028008" lon="-107.94150895068708"><ele>1864.0</ele><time>2026-04-19T16:59:33Z</time></trkpt><trkpt lat="36.78855578376387" lon="-107.94143234752174"><ele>1865.0</ele><time>2026-04-19T16:59:34Z</time></trkpt><trkpt lat="36.78861749093243" lon="-107.9413206788031"><ele>1866.0</ele><time>2026-04-19T16:59:36Z</time></trkpt><trkpt lat="36.788669600284855" lon="-107.94122059399089"><ele>1866.0</ele><time>2026-04-19T16:59:38Z</time></trkpt><trkpt lat="36.788752703935586" lon="-107.94109602700149"><ele>1866.0</ele><time>2026-04-19T16:59:40Z</time></trkpt><trkpt lat="36.78878690497259" lon="-107.94101475463182"><ele>1866.0</ele><time>2026-04-19T16:59:41Z</time></trkpt><trkpt lat="36.788812031282305" lon="-107.94085652704557"><ele>1866.0</ele><time>2026-04-19T16:59:43Z</time></trkpt><trkpt lat="36.788842363759926" lon="-107.94068731906383"><ele>1867.5</ele><time>2026-04-19T16:59:45Z</time></trkpt><trkpt lat="36.788869037587574" lon="-107.94058298669135"><ele>1869.0</ele><time>2026-04-19T16:59:46Z</time></trkpt><trkpt lat="36.78888740363779" lon="-107.94040312986789"><ele>1870.5</ele><time>2026-04-19T16:59:48Z</time></trkpt><trkpt lat="36.788926619424295" lon="-107.94029232437536"><ele>1872.0</ele><time>2026-04-19T16:59:49Z</time></trkpt><trkpt lat="36.78897352293456" lon="-107.94014388979546"><ele>1873.3999999999999</ele><time>2026-04-19T16:59:50.001Z</time></trkpt><trkpt lat="36.78898261903944" lon="-107.9399809021564"><ele>1874.7999999999997</ele><time>2026-04-19T16:59:51.001Z</time></trkpt><trkpt lat="36.78898211797593" lon="-107.93981172193693"><ele>1876.2</ele><time>2026-04-19T16:59:52.001Z</time></trkpt><trkpt lat="36.78898261964719" lon="-107.93968231425761"><ele>1877.6</ele><time>2026-04-19T16:59:53.001Z</time></trkpt><trkpt lat="36.7889796118869" lon="-107.9395839388551"><ele>1879.0</ele><time>2026-04-19T16:59:54.001Z</time></trkpt><trkpt lat="36.788969822027966" lon="-107.93946367753924"><ele>1879.0000000000002</ele><time>2026-04-19T16:59:56.001Z</time></trkpt><trkpt lat="36.78894529191129" lon="-107.93938282607795"><ele>1879.0</ele><time>2026-04-19T17:00:05.001Z</time></trkpt><trkpt lat="36.78889614744462" lon="-107.93933322873549"><ele>1879.0</ele><time>2026-04-19T17:00:06.001Z</time></trkpt><trkpt lat="36.788828746397236" lon="-107.93930729561593"><ele>1879.0</ele><time>2026-04-19T17:00:07.001Z</time></trkpt><trkpt lat="36.788736877720524" lon="-107.93928473661725"><ele>1879.0000000000002</ele><time>2026-04-19T17:00:08.001Z</time></trkpt><trkpt lat="36.78862571881928" lon="-107.93924951723348"><ele>1879.0</ele><time>2026-04-19T17:00:09.001Z</time></trkpt><trkpt lat="36.78851233824001" lon="-107.9392056438289"><ele>1879.6</ele><time>2026-04-19T17:00:10.001Z</time></trkpt><trkpt lat="36.78840072323819" lon="-107.9391609332864"><ele>1880.2</ele><time>2026-04-19T17:00:11.001Z</time></trkpt><trkpt lat="36.78832550129238" lon="-107.93911007644012"><ele>1880.7999999999997</ele><time>2026-04-19T17:00:12.001Z</time></trkpt><trkpt lat="36.78824051674205" lon="-107.93904441054576"><ele>1881.3999999999999</ele><time>2026-04-19T17:00:13.001Z</time></trkpt><trkpt lat="36.788172707413686" lon="-107.9390189017105"><ele>1882.0</ele><time>2026-04-19T17:00:14.001Z</time></trkpt><trkpt lat="36.78809546360447" lon="-107.93903694503608"><ele>1882.0</ele><time>2026-04-19T17:00:15.001Z</time></trkpt><trkpt lat="36.787983338024375" lon="-107.9390386061574"><ele>1881.9999999999998</ele><time>2026-04-19T17:00:16.001Z</time></trkpt><trkpt lat="36.78787164439505" lon="-107.93901649741285"><ele>1881.9999999999998</ele><time>2026-04-19T17:00:17.001Z</time></trkpt><trkpt lat="36.78777422399721" lon="-107.93896002354349"><ele>1882.0</ele><time>2026-04-19T17:00:18.001Z</time></trkpt><trkpt lat="36.787681903513786" lon="-107.93890774164372"><ele>1882.0</ele><time>2026-04-19T17:00:19.001Z</time></trkpt><trkpt lat="36.787601077854816" lon="-107.93888883689476"><ele>1881.6</ele><time>2026-04-19T17:00:20.001Z</time></trkpt><trkpt lat="36.78751760328379" lon="-107.93891863981166"><ele>1881.1999999999998</ele><time>2026-04-19T17:00:21.001Z</time></trkpt><trkpt lat="36.78743248910099" lon="-107.9389421028243"><ele>1880.8</ele><time>2026-04-19T17:00:22.001Z</time></trkpt><trkpt lat="36.78733741021425" lon="-107.93890270644086"><ele>1880.4</ele><time>2026-04-19T17:00:23.001Z</time></trkpt><trkpt lat="36.787243998170325" lon="-107.93885809902613"><ele>1880.0</ele><time>2026-04-19T17:00:24.001Z</time></trkpt><trkpt lat="36.787161140429255" lon="-107.9388599958949"><ele>1879.9999999999998</ele><time>2026-04-19T17:00:25.001Z</time></trkpt><trkpt lat="36.78709823970431" lon="-107.93889971823641"><ele>1880.0</ele><time>2026-04-19T17:00:26.001Z</time></trkpt><trkpt lat="36.787052305075605" lon="-107.93896982379255"><ele>1880.0</ele><time>2026-04-19T17:00:27.001Z</time></trkpt><trkpt lat="36.78702027784086" lon="-107.9390673165795"><ele>1880.0</ele><time>2026-04-19T17:00:28.001Z</time></trkpt><trkpt lat="36.786968019920124" lon="-107.93915316391409"><ele>1879.9999999999998</ele><time>2026-04-19T17:00:29.001Z</time></trkpt><trkpt lat="36.78690529638655" lon="-107.93923598731078"><ele>1880.0</ele><time>2026-04-19T17:00:30.001Z</time></trkpt><trkpt lat="36.78677987077101" lon="-107.93932716958805"><ele>1878.4999999999998</ele><time>2026-04-19T17:00:32.001Z</time></trkpt><trkpt lat="36.786694242825526" lon="-107.93938667141933"><ele>1877.0</ele><time>2026-04-19T17:00:33.001Z</time></trkpt><trkpt lat="36.786631921683984" lon="-107.93944881028568"><ele>1875.5</ele><time>2026-04-19T17:00:34.001Z</time></trkpt><trkpt lat="36.7865799706534" lon="-107.93951232336312"><ele>1874.0</ele><time>2026-04-19T17:00:35.001Z</time></trkpt><trkpt lat="36.78651456541002" lon="-107.93958494576742"><ele>1872.4999999999998</ele><time>2026-04-19T17:00:36.001Z</time></trkpt><trkpt lat="36.786466005372155" lon="-107.93964479180957"><ele>1871.0</ele><time>2026-04-19T17:00:37.001Z</time></trkpt><trkpt lat="36.786389051402644" lon="-107.93965545906057"><ele>1870.9999999999998</ele><time>2026-04-19T17:00:39.001Z</time></trkpt><trkpt lat="36.786308922825185" lon="-107.93959923506469"><ele>1871.0</ele><time>2026-04-19T17:00:40.001Z</time></trkpt><trkpt lat="36.786227964220586" lon="-107.93955635110514"><ele>1871.0</ele><time>2026-04-19T17:00:41.001Z</time></trkpt><trkpt lat="36.78615979369428" lon="-107.93955111598389"><ele>1871.0</ele><time>2026-04-19T17:00:42.001Z</time></trkpt><trkpt lat="36.78607754695156" lon="-107.93957264530503"><ele>1870.9999999999998</ele><time>2026-04-19T17:00:43.001Z</time></trkpt><trkpt lat="36.78598143918443" lon="-107.9396112068017"><ele>1871.0</ele><time>2026-04-19T17:00:44.001Z</time></trkpt><trkpt lat="36.78588785485783" lon="-107.93964829748366"><ele>1871.4</ele><time>2026-04-19T17:00:45.001Z</time></trkpt><trkpt lat="36.78579013171326" lon="-107.93966639615223"><ele>1871.8</ele><time>2026-04-19T17:00:46.001Z</time></trkpt><trkpt lat="36.78569038726057" lon="-107.939698310035"><ele>1872.2000000000003</ele><time>2026-04-19T17:00:47.001Z</time></trkpt><trkpt lat="36.78561238176517" lon="-107.93974968531178"><ele>1872.6000000000001</ele><time>2026-04-19T17:00:48.001Z</time></trkpt><trkpt lat="36.78552871114228" lon="-107.9398220879656"><ele>1873.0</ele><time>2026-04-19T17:00:49.001Z</time></trkpt><trkpt lat="36.785447427004286" lon="-107.93986690028525"><ele>1873.0</ele><time>2026-04-19T17:00:50.001Z</time></trkpt><trkpt lat="36.78536355235382" lon="-107.93989819970122"><ele>1873.0000000000002</ele><time>2026-04-19T17:00:51.001Z</time></trkpt><trkpt lat="36.78528709459978" lon="-107.93992135077606"><ele>1873.0000000000002</ele><time>2026-04-19T17:00:52.001Z</time></trkpt><trkpt lat="36.785164305683395" lon="-107.93993463433543"><ele>1873.0</ele><time>2026-04-19T17:00:54.001Z</time></trkpt><trkpt lat="36.785086146436285" lon="-107.93991202420298"><ele>1873.0</ele><time>2026-04-19T17:00:55.001Z</time></trkpt><trkpt lat="36.78500453500314" lon="-107.9399017417716"><ele>1872.5000000000002</ele><time>2026-04-19T17:00:56.001Z</time></trkpt><trkpt lat="36.784915886157556" lon="-107.9399513262189"><ele>1872.0</ele><time>2026-04-19T17:00:57.001Z</time></trkpt><trkpt lat="36.784844205865234" lon="-107.94003132742873"><ele>1871.5</ele><time>2026-04-19T17:00:58.001Z</time></trkpt><trkpt lat="36.78477748693679" lon="-107.94010441717732"><ele>1871.0</ele><time>2026-04-19T17:00:59.001Z</time></trkpt><trkpt lat="36.784716845566" lon="-107.94016411235279"><ele>1870.5000000000002</ele><time>2026-04-19T17:01:00.001Z</time></trkpt><trkpt lat="36.784632747820986" lon="-107.9401938772201"><ele>1870.0</ele><time>2026-04-19T17:01:01.001Z</time></trkpt><trkpt lat="36.78455143239713" lon="-107.94020112621715"><ele>1868.6</ele><time>2026-04-19T17:01:02.001Z</time></trkpt><trkpt lat="36.784470202295" lon="-107.94024528689805"><ele>1867.2</ele><time>2026-04-19T17:01:03.001Z</time></trkpt><trkpt lat="36.78438474131024" lon="-107.94026636663699"><ele>1865.8000000000002</ele><time>2026-04-19T17:01:04.001Z</time></trkpt><trkpt lat="36.78431147890022" lon="-107.94023222776808"><ele>1864.4</ele><time>2026-04-19T17:01:05.001Z</time></trkpt><trkpt lat="36.78421513758856" lon="-107.94019823249651"><ele>1863.0</ele><time>2026-04-19T17:01:06.001Z</time></trkpt><trkpt lat="36.7841056824547" lon="-107.94016272982678"><ele>1863.0</ele><time>2026-04-19T17:01:07.001Z</time></trkpt><trkpt lat="36.78402337252632" lon="-107.94015909637187"><ele>1863.0</ele><time>2026-04-19T17:01:08.001Z</time></trkpt><trkpt lat="36.783947998763075" lon="-107.94018495881711"><ele>1863.0</ele><time>2026-04-19T17:01:09.001Z</time></trkpt><trkpt lat="36.783859395258446" lon="-107.94021907033213"><ele>1863.0</ele><time>2026-04-19T17:01:10.001Z</time></trkpt><trkpt lat="36.78376921336754" lon="-107.9402152066879"><ele>1863.0</ele><time>2026-04-19T17:01:11.001Z</time></trkpt><trkpt lat="36.78369821403495" lon="-107.94021223138864"><ele>1863.0</ele><time>2026-04-19T17:01:12.001Z</time></trkpt><trkpt lat="36.783633217318155" lon="-107.94020699310194"><ele>1863.0</ele><time>2026-04-19T17:01:13.001Z</time></trkpt><trkpt lat="36.78354526642653" lon="-107.94022118165537"><ele>1863.0</ele><time>2026-04-19T17:01:14.001Z</time></trkpt><trkpt lat="36.78346979421688" lon="-107.94024363646302"><ele>1863.0</ele><time>2026-04-19T17:01:15.001Z</time></trkpt><trkpt lat="36.7834066895589" lon="-107.94025185682433"><ele>1863.0</ele><time>2026-04-19T17:01:16Z</time></trkpt><trkpt lat="36.78332310216162" lon="-107.94027557692333"><ele>1863.0</ele><time>2026-04-19T17:01:17Z</time></trkpt><trkpt lat="36.7832408451768" lon="-107.94030834598188"><ele>1863.0</ele><time>2026-04-19T17:01:18Z</time></trkpt><trkpt lat="36.78316527583149" lon="-107.9403265179598"><ele>1862.0</ele><time>2026-04-19T17:01:19Z</time></trkpt><trkpt lat="36.783093905720165" lon="-107.94032501367344"><ele>1861.0</ele><time>2026-04-19T17:01:20Z</time></trkpt><trkpt lat="36.78302680084484" lon="-107.9403016521766"><ele>1860.0</ele><time>2026-04-19T17:01:21Z</time></trkpt><trkpt lat="36.78295857255954" lon="-107.94025738005851"><ele>1859.0</ele><time>2026-04-19T17:01:22Z</time></trkpt><trkpt lat="36.78289042071423" lon="-107.94020719254051"><ele>1858.0</ele><time>2026-04-19T17:01:23Z</time></trkpt><trkpt lat="36.78281106089287" lon="-107.94019683220849"><ele>1857.0</ele><time>2026-04-19T17:01:24Z</time></trkpt><trkpt lat="36.782728410557446" lon="-107.94023296285293"><ele>1856.1666666666667</ele><time>2026-04-19T17:01:25Z</time></trkpt><trkpt lat="36.78266298540486" lon="-107.94028538297292"><ele>1855.3333333333335</ele><time>2026-04-19T17:01:26Z</time></trkpt><trkpt lat="36.78262282006753" lon="-107.94035255883927"><ele>1854.5</ele><time>2026-04-19T17:01:27Z</time></trkpt><trkpt lat="36.78258382357031" lon="-107.9404480788393"><ele>1853.6666666666667</ele><time>2026-04-19T17:01:28Z</time></trkpt><trkpt lat="36.7825331379816" lon="-107.94051746486556"><ele>1852.8333333333335</ele><time>2026-04-19T17:01:29Z</time></trkpt><trkpt lat="36.78243299993044" lon="-107.94057539198064"><ele>1852.0</ele><time>2026-04-19T17:01:31Z</time></trkpt><trkpt lat="36.78241933974277" lon="-107.94065326207851"><ele>1852.0</ele><time>2026-04-19T17:01:32Z</time></trkpt><trkpt lat="36.78230837431145" lon="-107.94070457410706"><ele>1852.0</ele><time>2026-04-19T17:01:34Z</time></trkpt><trkpt lat="36.782206131107856" lon="-107.94067805218305"><ele>1852.0</ele><time>2026-04-19T17:01:35Z</time></trkpt><trkpt lat="36.78210337034478" lon="-107.94067487093305"><ele>1852.0</ele><time>2026-04-19T17:01:36Z</time></trkpt><trkpt lat="36.781993445637376" lon="-107.94076210090769"><ele>1852.0000000000002</ele><time>2026-04-19T17:01:38Z</time></trkpt><trkpt lat="36.78192194916038" lon="-107.94081074200783"><ele>1852.0</ele><time>2026-04-19T17:01:39Z</time></trkpt><trkpt lat="36.78185449837371" lon="-107.94083305428634"><ele>1852.0</ele><time>2026-04-19T17:01:40Z</time></trkpt><trkpt lat="36.781787237736985" lon="-107.94088282264984"><ele>1852.0</ele><time>2026-04-19T17:01:41Z</time></trkpt><trkpt lat="36.78170380841709" lon="-107.94096517542343"><ele>1852.0000000000002</ele><time>2026-04-19T17:01:42Z</time></trkpt><trkpt lat="36.78160988062181" lon="-107.94102267867387"><ele>1852.0</ele><time>2026-04-19T17:01:43Z</time></trkpt><trkpt lat="36.781512766998176" lon="-107.9410594316593"><ele>1851.1999999999998</ele><time>2026-04-19T17:01:44Z</time></trkpt><trkpt lat="36.7814294110946" lon="-107.9410941910113"><ele>1850.3999999999999</ele><time>2026-04-19T17:01:45Z</time></trkpt><trkpt lat="36.781353707705314" lon="-107.94115149911272"><ele>1849.6000000000001</ele><time>2026-04-19T17:01:46Z</time></trkpt><trkpt lat="36.78130067825033" lon="-107.94120419240168"><ele>1848.8000000000002</ele><time>2026-04-19T17:01:47Z</time></trkpt><trkpt lat="36.781167804040386" lon="-107.9411240297942"><ele>1848.0</ele><time>2026-04-19T17:01:49Z</time></trkpt><trkpt lat="36.78107569006594" lon="-107.9410324816508"><ele>1848.2</ele><time>2026-04-19T17:01:50Z</time></trkpt><trkpt lat="36.781012708021116" lon="-107.94095154084398"><ele>1848.4</ele><time>2026-04-19T17:01:51Z</time></trkpt><trkpt lat="36.78097767617992" lon="-107.94085114463037"><ele>1848.6000000000001</ele><time>2026-04-19T17:01:52Z</time></trkpt><trkpt lat="36.78094871524802" lon="-107.9407318601463"><ele>1848.8000000000002</ele><time>2026-04-19T17:01:53Z</time></trkpt><trkpt lat="36.7809114936979" lon="-107.94059786653169"><ele>1849.0</ele><time>2026-04-19T17:01:54Z</time></trkpt><trkpt lat="36.78085337033216" lon="-107.94049823306044"><ele>1849.0</ele><time>2026-04-19T17:01:55Z</time></trkpt><trkpt lat="36.78078149318082" lon="-107.94043781579583"><ele>1849.0</ele><time>2026-04-19T17:01:56Z</time></trkpt><trkpt lat="36.78066981632725" lon="-107.940371873149"><ele>1849.0</ele><time>2026-04-19T17:01:57.001Z</time></trkpt><trkpt lat="36.780546114788365" lon="-107.94030546727727"><ele>1849.0</ele><time>2026-04-19T17:01:58.001Z</time></trkpt><trkpt lat="36.780470045658916" lon="-107.9402570694592"><ele>1849.0</ele><time>2026-04-19T17:01:59.001Z</time></trkpt><trkpt lat="36.78040518218139" lon="-107.94022903505095"><ele>1849.0000000000002</ele><time>2026-04-19T17:02:00.001Z</time></trkpt><trkpt lat="36.78031805725486" lon="-107.94019967137092"><ele>1849.0</ele><time>2026-04-19T17:02:01.001Z</time></trkpt><trkpt lat="36.78024510752427" lon="-107.94017687419567"><ele>1849.0</ele><time>2026-04-19T17:02:02.001Z</time></trkpt><trkpt lat="36.78017287199315" lon="-107.94016289834359"><ele>1849.0</ele><time>2026-04-19T17:02:03.001Z</time></trkpt><trkpt lat="36.78009215002563" lon="-107.94014044337762"><ele>1849.0000000000002</ele><time>2026-04-19T17:02:04.001Z</time></trkpt><trkpt lat="36.78002293069286" lon="-107.94006387950739"><ele>1849.0</ele><time>2026-04-19T17:02:05.001Z</time></trkpt><trkpt lat="36.779960566424016" lon="-107.93995448215107"><ele>1847.4</ele><time>2026-04-19T17:02:06.001Z</time></trkpt><trkpt lat="36.779857790608766" lon="-107.93992370405924"><ele>1845.8000000000002</ele><time>2026-04-19T17:02:08.001Z</time></trkpt><trkpt lat="36.77976983772075" lon="-107.93995612486157"><ele>1844.1999999999998</ele><time>2026-04-19T17:02:09.001Z</time></trkpt><trkpt lat="36.779684709246865" lon="-107.93996221130425"><ele>1842.6</ele><time>2026-04-19T17:02:10.001Z</time></trkpt><trkpt lat="36.779582796086245" lon="-107.93993826342609"><ele>1841.0</ele><time>2026-04-19T17:02:11.001Z</time></trkpt><trkpt lat="36.77950643137111" lon="-107.93991712132868"><ele>1840.9999999999998</ele><time>2026-04-19T17:02:12.001Z</time></trkpt><trkpt lat="36.77945332649341" lon="-107.93982340946773"><ele>1841.0</ele><time>2026-04-19T17:02:14.001Z</time></trkpt><trkpt lat="36.779414538836605" lon="-107.93973548918385"><ele>1841.0</ele><time>2026-04-19T17:02:15.001Z</time></trkpt><trkpt lat="36.77946234715095" lon="-107.93962040179014"><ele>1841.0</ele><time>2026-04-19T17:02:17.001Z</time></trkpt><trkpt lat="36.779481413882586" lon="-107.93951646728141"><ele>1840.9999999999998</ele><time>2026-04-19T17:02:18.001Z</time></trkpt><trkpt lat="36.77945409401248" lon="-107.93942114438101"><ele>1841.0</ele><time>2026-04-19T17:02:19.001Z</time></trkpt><trkpt lat="36.779403940515664" lon="-107.93934738542113"><ele>1839.6</ele><time>2026-04-19T17:02:20.001Z</time></trkpt><trkpt lat="36.77931156879058" lon="-107.93927986075107"><ele>1838.1999999999998</ele><time>2026-04-19T17:02:22.001Z</time></trkpt><trkpt lat="36.77922504966078" lon="-107.93923089881362"><ele>1836.8000000000002</ele><time>2026-04-19T17:02:23.001Z</time></trkpt><trkpt lat="36.779129170634356" lon="-107.93921778948986"><ele>1835.4</ele><time>2026-04-19T17:02:25.001Z</time></trkpt><trkpt lat="36.779053461468614" lon="-107.93925502649458"><ele>1834.0</ele><time>2026-04-19T17:02:26.001Z</time></trkpt><trkpt lat="36.77896124861523" lon="-107.93933266905483"><ele>1834.0000000000002</ele><time>2026-04-19T17:02:27.001Z</time></trkpt><trkpt lat="36.77890554905066" lon="-107.9394159414831"><ele>1834.0</ele><time>2026-04-19T17:02:28.001Z</time></trkpt><trkpt lat="36.77880100648712" lon="-107.93950398647279"><ele>1834.0</ele><time>2026-04-19T17:02:30.001Z</time></trkpt><trkpt lat="36.77872168060097" lon="-107.93954635531169"><ele>1834.0</ele><time>2026-04-19T17:02:31.001Z</time></trkpt><trkpt lat="36.77866376257146" lon="-107.93958540707187"><ele>1834.0000000000002</ele><time>2026-04-19T17:02:32.001Z</time></trkpt><trkpt lat="36.778590847808495" lon="-107.93963070979686"><ele>1834.0</ele><time>2026-04-19T17:02:34.001Z</time></trkpt><trkpt lat="36.77853684906233" lon="-107.93967140513926"><ele>1832.8000000000002</ele><time>2026-04-19T17:02:35.001Z</time></trkpt><trkpt lat="36.778450181458204" lon="-107.93963002926934"><ele>1831.6000000000001</ele><time>2026-04-19T17:02:37.001Z</time></trkpt><trkpt lat="36.7783400314013" lon="-107.93959395208802"><ele>1830.4</ele><time>2026-04-19T17:02:38.001Z</time></trkpt><trkpt lat="36.77827641215706" lon="-107.93954770292991"><ele>1829.2</ele><time>2026-04-19T17:02:39.001Z</time></trkpt><trkpt lat="36.77819974975949" lon="-107.93949231147246"><ele>1828.0</ele><time>2026-04-19T17:02:40.001Z</time></trkpt><trkpt lat="36.778109353533935" lon="-107.93945856509194"><ele>1828.0</ele><time>2026-04-19T17:02:41.001Z</time></trkpt><trkpt lat="36.77800992196511" lon="-107.93940828891446"><ele>1828.0000000000002</ele><time>2026-04-19T17:02:43.001Z</time></trkpt><trkpt lat="36.77789422641987" lon="-107.93930806865777"><ele>1828.0000000000002</ele><time>2026-04-19T17:02:45.001Z</time></trkpt><trkpt lat="36.777816649612625" lon="-107.93925422451463"><ele>1828.0</ele><time>2026-04-19T17:02:46.001Z</time></trkpt><trkpt lat="36.77774812693098" lon="-107.93919075804372"><ele>1828.0</ele><time>2026-04-19T17:02:47.001Z</time></trkpt><trkpt lat="36.777665322080715" lon="-107.93911870351369"><ele>1827.4</ele><time>2026-04-19T17:02:48.001Z</time></trkpt><trkpt lat="36.777588742642685" lon="-107.93905651470831"><ele>1826.8000000000002</ele><time>2026-04-19T17:02:49.001Z</time></trkpt><trkpt lat="36.77753376862437" lon="-107.93896794879737"><ele>1826.2</ele><time>2026-04-19T17:02:50.001Z</time></trkpt><trkpt lat="36.77745304183799" lon="-107.93889917779235"><ele>1825.6</ele><time>2026-04-19T17:02:51.001Z</time></trkpt><trkpt lat="36.77738918555526" lon="-107.93887666231154"><ele>1825.0</ele><time>2026-04-19T17:02:52.001Z</time></trkpt><trkpt lat="36.777258033065394" lon="-107.93883780177644"><ele>1825.0</ele><time>2026-04-19T17:02:54.001Z</time></trkpt><trkpt lat="36.777157643511906" lon="-107.9387654949136"><ele>1825.0</ele><time>2026-04-19T17:02:55.001Z</time></trkpt><trkpt lat="36.777090211842584" lon="-107.93868627579769"><ele>1825.0</ele><time>2026-04-19T17:02:56.001Z</time></trkpt><trkpt lat="36.77699121017128" lon="-107.9386901278161"><ele>1825.0</ele><time>2026-04-19T17:02:58.001Z</time></trkpt><trkpt lat="36.77691923029021" lon="-107.9387559919117"><ele>1825.0</ele><time>2026-04-19T17:02:59.001Z</time></trkpt><trkpt lat="36.7768132756567" lon="-107.93879956504344"><ele>1824.4</ele><time>2026-04-19T17:03:00.001Z</time></trkpt><trkpt lat="36.776712711962276" lon="-107.93880489275871"><ele>1823.8</ele><time>2026-04-19T17:03:01.001Z</time></trkpt><trkpt lat="36.77662434767126" lon="-107.93880461273707"><ele>1823.1999999999998</ele><time>2026-04-19T17:03:02.001Z</time></trkpt><trkpt lat="36.77650657078601" lon="-107.93882960830167"><ele>1822.6</ele><time>2026-04-19T17:03:03.001Z</time></trkpt><trkpt lat="36.77640418378427" lon="-107.93882978591625"><ele>1822.0</ele><time>2026-04-19T17:03:04.001Z</time></trkpt><trkpt lat="36.776281532748264" lon="-107.93877639391143"><ele>1822.0</ele><time>2026-04-19T17:03:05.001Z</time></trkpt><trkpt lat="36.776176348665665" lon="-107.93873492727803"><ele>1821.9999999999998</ele><time>2026-04-19T17:03:06.001Z</time></trkpt><trkpt lat="36.77608156024152" lon="-107.93872710074196"><ele>1821.9999999999998</ele><time>2026-04-19T17:03:07.001Z</time></trkpt><trkpt lat="36.77597310907208" lon="-107.9387452757156"><ele>1822.0</ele><time>2026-04-19T17:03:08.001Z</time></trkpt><trkpt lat="36.77585136302283" lon="-107.93874217427468"><ele>1822.0</ele><time>2026-04-19T17:03:09.001Z</time></trkpt><trkpt lat="36.77576116527879" lon="-107.9387294477871"><ele>1821.1666666666667</ele><time>2026-04-19T17:03:10.001Z</time></trkpt><trkpt lat="36.77568959064306" lon="-107.93871888093"><ele>1820.3333333333335</ele><time>2026-04-19T17:03:11.001Z</time></trkpt><trkpt lat="36.77562471417968" lon="-107.93869148387115"><ele>1819.5</ele><time>2026-04-19T17:03:12.001Z</time></trkpt><trkpt lat="36.77554547044571" lon="-107.93867412657092"><ele>1818.6666666666665</ele><time>2026-04-19T17:03:13.001Z</time></trkpt><trkpt lat="36.77546554504409" lon="-107.93873162861635"><ele>1817.8333333333333</ele><time>2026-04-19T17:03:14.001Z</time></trkpt><trkpt lat="36.7753840317469" lon="-107.93876107295934"><ele>1817.0</ele><time>2026-04-19T17:03:15.001Z</time></trkpt><trkpt lat="36.775289622345056" lon="-107.93877082470597"><ele>1816.0</ele><time>2026-04-19T17:03:16.001Z</time></trkpt><trkpt lat="36.775174648641894" lon="-107.93880322215267"><ele>1814.9999999999998</ele><time>2026-04-19T17:03:17.001Z</time></trkpt><trkpt lat="36.77507903013307" lon="-107.93883350405527"><ele>1813.9999999999998</ele><time>2026-04-19T17:03:18.001Z</time></trkpt><trkpt lat="36.77500494861281" lon="-107.93884905029519"><ele>1813.0</ele><time>2026-04-19T17:03:19.001Z</time></trkpt><trkpt lat="36.77491959751783" lon="-107.93891613231663"><ele>1812.0</ele><time>2026-04-19T17:03:21.001Z</time></trkpt><trkpt lat="36.774854066272106" lon="-107.93890137187533"><ele>1812.0</ele><time>2026-04-19T17:03:24Z</time></trkpt><trkpt lat="36.774819442397465" lon="-107.93881520335462"><ele>1811.9999999999998</ele><time>2026-04-19T17:03:27Z</time></trkpt><trkpt lat="36.774736863195336" lon="-107.93864644824944"><ele>1811.9999999999998</ele><time>2026-04-19T17:03:29Z</time></trkpt><trkpt lat="36.77471842766285" lon="-107.93856204968456"><ele>1812.0</ele><time>2026-04-19T17:03:30Z</time></trkpt><trkpt lat="36.77471625700173" lon="-107.93843078090258"><ele>1812.0</ele><time>2026-04-19T17:03:31Z</time></trkpt><trkpt lat="36.77472848657532" lon="-107.93831715789536"><ele>1812.3999999999999</ele><time>2026-04-19T17:03:32Z</time></trkpt><trkpt lat="36.77475788315082" lon="-107.93820281387099"><ele>1812.7999999999997</ele><time>2026-04-19T17:03:33Z</time></trkpt><trkpt lat="36.774813843634256" lon="-107.93809083842514"><ele>1813.2</ele><time>2026-04-19T17:03:34Z</time></trkpt><trkpt lat="36.774876382099784" lon="-107.9379826449544"><ele>1813.6</ele><time>2026-04-19T17:03:35Z</time></trkpt><trkpt lat="36.77492460656512" lon="-107.93789569305177"><ele>1814.0</ele><time>2026-04-19T17:03:36Z</time></trkpt><trkpt lat="36.77498663633981" lon="-107.93784022793041"><ele>1813.9999999999998</ele><time>2026-04-19T17:03:37Z</time></trkpt><trkpt lat="36.77504495975045" lon="-107.93777744694975"><ele>1814.0</ele><time>2026-04-19T17:03:38Z</time></trkpt><trkpt lat="36.77511151418695" lon="-107.93770734466683"><ele>1814.0</ele><time>2026-04-19T17:03:39Z</time></trkpt><trkpt lat="36.775178401989706" lon="-107.93765325699121"><ele>1814.0</ele><time>2026-04-19T17:03:40Z</time></trkpt><trkpt lat="36.77524312873829" lon="-107.93761674440313"><ele>1813.9999999999998</ele><time>2026-04-19T17:03:41Z</time></trkpt><trkpt lat="36.77530990430503" lon="-107.93758816579987"><ele>1814.0</ele><time>2026-04-19T17:03:42Z</time></trkpt><trkpt lat="36.77537612967161" lon="-107.93757919657274"><ele>1814.4</ele><time>2026-04-19T17:03:43Z</time></trkpt><trkpt lat="36.775457723768916" lon="-107.93763311368542"><ele>1814.8000000000002</ele><time>2026-04-19T17:03:44Z</time></trkpt><trkpt lat="36.77552108080349" lon="-107.93766169066554"><ele>1815.1999999999998</ele><time>2026-04-19T17:03:45Z</time></trkpt><trkpt lat="36.77546727820899" lon="-107.93779543313687"><ele>1815.6</ele><time>2026-04-19T17:03:47Z</time></trkpt><trkpt lat="36.77551622451028" lon="-107.937939353049"><ele>1816.0</ele><time>2026-04-19T17:04:02Z</time></trkpt><trkpt lat="36.77558542082304" lon="-107.93793835232866"><ele>1816.0</ele><time>2026-04-19T17:04:03Z</time></trkpt><trkpt lat="36.7756570866933" lon="-107.93794098461204"><ele>1816.0</ele><time>2026-04-19T17:04:04.001Z</time></trkpt><trkpt lat="36.77574531450858" lon="-107.9379262294794"><ele>1816.0</ele><time>2026-04-19T17:04:05.001Z</time></trkpt><trkpt lat="36.775844012519755" lon="-107.93790033587364"><ele>1816.0</ele><time>2026-04-19T17:04:06.001Z</time></trkpt><trkpt lat="36.77595219196648" lon="-107.93787560407455"><ele>1816.0</ele><time>2026-04-19T17:04:07.001Z</time></trkpt><trkpt lat="36.77605502450888" lon="-107.93784374911966"><ele>1816.6</ele><time>2026-04-19T17:04:08.001Z</time></trkpt><trkpt lat="36.776139167830344" lon="-107.93781704233398"><ele>1817.1999999999998</ele><time>2026-04-19T17:04:09.001Z</time></trkpt><trkpt lat="36.77622320858007" lon="-107.9377770935935"><ele>1817.8000000000002</ele><time>2026-04-19T17:04:10.001Z</time></trkpt><trkpt lat="36.77632431540516" lon="-107.93770918841948"><ele>1818.4</ele><time>2026-04-19T17:04:11.001Z</time></trkpt><trkpt lat="36.77644776620067" lon="-107.93760696564739"><ele>1819.0</ele><time>2026-04-19T17:04:12.001Z</time></trkpt><trkpt lat="36.776556860310855" lon="-107.93752847750577"><ele>1819.2</ele><time>2026-04-19T17:04:13.001Z</time></trkpt><trkpt lat="36.77665895732994" lon="-107.93748108715793"><ele>1819.4</ele><time>2026-04-19T17:04:14.001Z</time></trkpt><trkpt lat="36.77675725310882" lon="-107.93746174861266"><ele>1819.6</ele><time>2026-04-19T17:04:15.001Z</time></trkpt><trkpt lat="36.7768489477348" lon="-107.93744162012047"><ele>1819.8</ele><time>2026-04-19T17:04:16.001Z</time></trkpt><trkpt lat="36.776908955969475" lon="-107.93740617344193"><ele>1820.0</ele><time>2026-04-19T17:04:17.001Z</time></trkpt><trkpt lat="36.77696226223707" lon="-107.93729720607418"><ele>1820.6</ele><time>2026-04-19T17:04:19.001Z</time></trkpt><trkpt lat="36.77698997353172" lon="-107.93719567384782"><ele>1821.2</ele><time>2026-04-19T17:04:21.001Z</time></trkpt><trkpt lat="36.77700778004031" lon="-107.93705796976262"><ele>1821.8000000000002</ele><time>2026-04-19T17:04:23.001Z</time></trkpt><trkpt lat="36.777027296805464" lon="-107.93694611162175"><ele>1822.4</ele><time>2026-04-19T17:04:24.001Z</time></trkpt><trkpt lat="36.77705051866404" lon="-107.93680816272668"><ele>1823.0</ele><time>2026-04-19T17:04:25.001Z</time></trkpt><trkpt lat="36.777078160872044" lon="-107.93666870201412"><ele>1823.0</ele><time>2026-04-19T17:04:26.001Z</time></trkpt><trkpt lat="36.77711358125003" lon="-107.9365140886243"><ele>1823.0</ele><time>2026-04-19T17:04:27.001Z</time></trkpt><trkpt lat="36.77715658601378" lon="-107.93633672326722"><ele>1823.0</ele><time>2026-04-19T17:04:28.001Z</time></trkpt><trkpt lat="36.77720992317993" lon="-107.9361487837002"><ele>1823.0</ele><time>2026-04-19T17:04:29.001Z</time></trkpt><trkpt lat="36.77726922916084" lon="-107.93598926048767"><ele>1823.25</ele><time>2026-04-19T17:04:30.001Z</time></trkpt><trkpt lat="36.77734813525108" lon="-107.93585660873619"><ele>1823.5</ele><time>2026-04-19T17:04:31.001Z</time></trkpt><trkpt lat="36.77745269115826" lon="-107.93572010848402"><ele>1823.75</ele><time>2026-04-19T17:04:32.001Z</time></trkpt><trkpt lat="36.77753000190837" lon="-107.935588524637"><ele>1824.0</ele><time>2026-04-19T17:04:33.001Z</time></trkpt><trkpt lat="36.7775747229586" lon="-107.93545648291007"><ele>1824.0</ele><time>2026-04-19T17:04:34.001Z</time></trkpt><trkpt lat="36.777615288255575" lon="-107.93529820717023"><ele>1824.0</ele><time>2026-04-19T17:04:35.001Z</time></trkpt><trkpt lat="36.77766472420617" lon="-107.93516066721723"><ele>1824.0</ele><time>2026-04-19T17:04:36.001Z</time></trkpt><trkpt lat="36.77769716922053" lon="-107.93506319551813"><ele>1824.0</ele><time>2026-04-19T17:04:37.001Z</time></trkpt><trkpt lat="36.77775894240886" lon="-107.93495986380684"><ele>1824.0</ele><time>2026-04-19T17:04:39.001Z</time></trkpt><trkpt lat="36.77781811573169" lon="-107.93491552868468"><ele>1824.25</ele><time>2026-04-19T17:04:40.001Z</time></trkpt><trkpt lat="36.77790603827817" lon="-107.93487750178905"><ele>1824.5</ele><time>2026-04-19T17:04:41.001Z</time></trkpt><trkpt lat="36.77802181909448" lon="-107.9348090673591"><ele>1824.75</ele><time>2026-04-19T17:04:42.001Z</time></trkpt><trkpt lat="36.778142667914366" lon="-107.93473868946327"><ele>1825.0</ele><time>2026-04-19T17:04:43.001Z</time></trkpt><trkpt lat="36.77824029116185" lon="-107.93467443377101"><ele>1825.0</ele><time>2026-04-19T17:04:44.001Z</time></trkpt><trkpt lat="36.778316118532615" lon="-107.93456302007013"><ele>1825.0</ele><time>2026-04-19T17:04:45.001Z</time></trkpt><trkpt lat="36.77840799236658" lon="-107.9343986251555"><ele>1825.0</ele><time>2026-04-19T17:04:46.001Z</time></trkpt><trkpt lat="36.77851147212865" lon="-107.93422847493088"><ele>1825.0</ele><time>2026-04-19T17:04:47.001Z</time></trkpt><trkpt lat="36.778627840849474" lon="-107.93406173922976"><ele>1826.0</ele><time>2026-04-19T17:04:48.001Z</time></trkpt><trkpt lat="36.77874843480907" lon="-107.93388185043413"><ele>1827.0</ele><time>2026-04-19T17:04:49.001Z</time></trkpt><trkpt lat="36.77885818842638" lon="-107.9337071712095"><ele>1828.0</ele><time>2026-04-19T17:04:50.001Z</time></trkpt><trkpt lat="36.77895103975842" lon="-107.93355035112961"><ele>1828.0</ele><time>2026-04-19T17:04:51.001Z</time></trkpt><trkpt lat="36.779038867995425" lon="-107.93340211247981"><ele>1828.0000000000002</ele><time>2026-04-19T17:04:52.001Z</time></trkpt><trkpt lat="36.779097670401384" lon="-107.93328814608982"><ele>1828.0000000000002</ele><time>2026-04-19T17:04:53.001Z</time></trkpt><trkpt lat="36.77914310243288" lon="-107.9332122966197"><ele>1828.0</ele><time>2026-04-19T17:04:54.001Z</time></trkpt><trkpt lat="36.77920114171532" lon="-107.93315962498151"><ele>1828.0</ele><time>2026-04-19T17:04:55.001Z</time></trkpt><trkpt lat="36.77928594994093" lon="-107.93310653843803"><ele>1829.5</ele><time>2026-04-19T17:04:56.001Z</time></trkpt><trkpt lat="36.77938043207815" lon="-107.93308569957225"><ele>1831.0</ele><time>2026-04-19T17:04:57.001Z</time></trkpt><trkpt lat="36.779477921389294" lon="-107.93309944095266"><ele>1832.5</ele><time>2026-04-19T17:04:58.001Z</time></trkpt><trkpt lat="36.77960791541587" lon="-107.93314229615953"><ele>1834.0</ele><time>2026-04-19T17:04:59.001Z</time></trkpt><trkpt lat="36.779752102428056" lon="-107.93317244150485"><ele>1834.0</ele><time>2026-04-19T17:05:00.001Z</time></trkpt><trkpt lat="36.779889910400264" lon="-107.93318690524846"><ele>1834.0</ele><time>2026-04-19T17:05:01.001Z</time></trkpt><trkpt lat="36.780014826425116" lon="-107.93319274461547"><ele>1834.0</ele><time>2026-04-19T17:05:02.001Z</time></trkpt><trkpt lat="36.780156881922416" lon="-107.93317559460239"><ele>1834.0</ele><time>2026-04-19T17:05:03.001Z</time></trkpt><trkpt lat="36.780313863035666" lon="-107.93313328948399"><ele>1835.6666666666667</ele><time>2026-04-19T17:05:04.001Z</time></trkpt><trkpt lat="36.780478740090174" lon="-107.93309054951553"><ele>1837.3333333333335</ele><time>2026-04-19T17:05:05.001Z</time></trkpt><trkpt lat="36.78065129952798" lon="-107.93305808710551"><ele>1839.0</ele><time>2026-04-19T17:05:06.001Z</time></trkpt><trkpt lat="36.780793045802575" lon="-107.93304397308364"><ele>1839.0</ele><time>2026-04-19T17:05:07.001Z</time></trkpt><trkpt lat="36.78092680887833" lon="-107.93306176846053"><ele>1839.0</ele><time>2026-04-19T17:05:08.001Z</time></trkpt><trkpt lat="36.781062042790495" lon="-107.93307752306315"><ele>1839.0</ele><time>2026-04-19T17:05:09.001Z</time></trkpt><trkpt lat="36.781182647809544" lon="-107.93306130814578"><ele>1839.0</ele><time>2026-04-19T17:05:10.001Z</time></trkpt><trkpt lat="36.78129205724125" lon="-107.93301388159189"><ele>1839.2</ele><time>2026-04-19T17:05:11.001Z</time></trkpt><trkpt lat="36.78139539197961" lon="-107.93294141110947"><ele>1839.4</ele><time>2026-04-19T17:05:12.001Z</time></trkpt><trkpt lat="36.78149952078065" lon="-107.93286024966444"><ele>1839.6</ele><time>2026-04-19T17:05:13.001Z</time></trkpt><trkpt lat="36.78158865068149" lon="-107.93278177927453"><ele>1839.8</ele><time>2026-04-19T17:05:14.001Z</time></trkpt><trkpt lat="36.7816589212374" lon="-107.93271956054674"><ele>1840.0</ele><time>2026-04-19T17:05:15.001Z</time></trkpt><trkpt lat="36.78172065817712" lon="-107.93268395720608"><ele>1840.0</ele><time>2026-04-19T17:05:16.001Z</time></trkpt><trkpt lat="36.781804226083395" lon="-107.93267904025144"><ele>1840.0</ele><time>2026-04-19T17:05:17.001Z</time></trkpt><trkpt lat="36.781913779905814" lon="-107.93264214876037"><ele>1840.0</ele><time>2026-04-19T17:05:18.001Z</time></trkpt><trkpt lat="36.78202396556067" lon="-107.93257361442677"><ele>1840.0</ele><time>2026-04-19T17:05:19.001Z</time></trkpt><trkpt lat="36.78211126215665" lon="-107.93253210958912"><ele>1840.0</ele><time>2026-04-19T17:05:20.001Z</time></trkpt><trkpt lat="36.78221895199568" lon="-107.932530331113"><ele>1840.3333333333335</ele><time>2026-04-19T17:05:21.001Z</time></trkpt><trkpt lat="36.7823547471833" lon="-107.93255156702047"><ele>1840.6666666666665</ele><time>2026-04-19T17:05:22.001Z</time></trkpt><trkpt lat="36.782503969754835" lon="-107.93259704039812"><ele>1841.0</ele><time>2026-04-19T17:05:23.001Z</time></trkpt><trkpt lat="36.78266418397678" lon="-107.93263943140862"><ele>1841.75</ele><time>2026-04-19T17:05:24.001Z</time></trkpt><trkpt lat="36.78282454746944" lon="-107.93265505949422"><ele>1842.5</ele><time>2026-04-19T17:05:25.001Z</time></trkpt><trkpt lat="36.78296063738204" lon="-107.93266910391267"><ele>1843.25</ele><time>2026-04-19T17:05:26.001Z</time></trkpt><trkpt lat="36.78305734115938" lon="-107.93269287617868"><ele>1844.0</ele><time>2026-04-19T17:05:27.001Z</time></trkpt><trkpt lat="36.783145049494856" lon="-107.93272762248134"><ele>1844.0</ele><time>2026-04-19T17:05:28Z</time></trkpt><trkpt lat="36.78323883262121" lon="-107.9327847728435"><ele>1844.0</ele><time>2026-04-19T17:05:29Z</time></trkpt><trkpt lat="36.78333767261688" lon="-107.93285317214615"><ele>1844.0</ele><time>2026-04-19T17:05:30Z</time></trkpt><trkpt lat="36.78345461071377" lon="-107.93292552155366"><ele>1844.0</ele><time>2026-04-19T17:05:31Z</time></trkpt><trkpt lat="36.78358887112033" lon="-107.93300906322001"><ele>1844.6666666666665</ele><time>2026-04-19T17:05:32Z</time></trkpt><trkpt lat="36.78373876584597" lon="-107.93309708521386"><ele>1845.3333333333335</ele><time>2026-04-19T17:05:33Z</time></trkpt><trkpt lat="36.78387961336388" lon="-107.93319314022833"><ele>1846.0</ele><time>2026-04-19T17:05:34Z</time></trkpt><trkpt lat="36.78400173841653" lon="-107.93330345487573"><ele>1847.6666666666667</ele><time>2026-04-19T17:05:35Z</time></trkpt><trkpt lat="36.78413717375705" lon="-107.93343708770767"><ele>1849.3333333333335</ele><time>2026-04-19T17:05:36Z</time></trkpt><trkpt lat="36.78427766304748" lon="-107.93356132211512"><ele>1851.0</ele><time>2026-04-19T17:05:37Z</time></trkpt><trkpt lat="36.78440801196387" lon="-107.93367091135343"><ele>1851.0</ele><time>2026-04-19T17:05:38Z</time></trkpt><trkpt lat="36.78454202089507" lon="-107.93374826327208"><ele>1851.0</ele><time>2026-04-19T17:05:39Z</time></trkpt><trkpt lat="36.7846917648848" lon="-107.93379852357127"><ele>1851.0</ele><time>2026-04-19T17:05:40Z</time></trkpt><trkpt lat="36.784836165114804" lon="-107.93383260730431"><ele>1851.0</ele><time>2026-04-19T17:05:41Z</time></trkpt><trkpt lat="36.78494269021973" lon="-107.9338481918195"><ele>1851.0</ele><time>2026-04-19T17:05:42Z</time></trkpt><trkpt lat="36.78500862164694" lon="-107.93386942449938"><ele>1851.0</ele><time>2026-04-19T17:05:43Z</time></trkpt><trkpt lat="36.78513714428724" lon="-107.93375615359811"><ele>1851.0</ele><time>2026-04-19T17:05:45Z</time></trkpt><trkpt lat="36.7852342708235" lon="-107.93367158341346"><ele>1851.75</ele><time>2026-04-19T17:05:46Z</time></trkpt><trkpt lat="36.78534720242794" lon="-107.93359554132776"><ele>1852.5</ele><time>2026-04-19T17:05:47Z</time></trkpt><trkpt lat="36.78546460316553" lon="-107.93354379443986"><ele>1853.25</ele><time>2026-04-19T17:05:48Z</time></trkpt><trkpt lat="36.78557461287762" lon="-107.93353877919034"><ele>1854.0</ele><time>2026-04-19T17:05:49Z</time></trkpt><trkpt lat="36.78570606390583" lon="-107.93354101734032"><ele>1854.0</ele><time>2026-04-19T17:05:50Z</time></trkpt><trkpt lat="36.78586678029362" lon="-107.93353493998042"><ele>1854.0</ele><time>2026-04-19T17:05:51Z</time></trkpt><trkpt lat="36.78598913898044" lon="-107.93347820596192"><ele>1854.0</ele><time>2026-04-19T17:05:52Z</time></trkpt><trkpt lat="36.78609294028787" lon="-107.93340814352389"><ele>1854.0</ele><time>2026-04-19T17:05:53Z</time></trkpt><trkpt lat="36.78617600135807" lon="-107.93336934798532"><ele>1854.5</ele><time>2026-04-19T17:05:54Z</time></trkpt><trkpt lat="36.78625864890043" lon="-107.93337777060538"><ele>1855.0</ele><time>2026-04-19T17:05:55Z</time></trkpt><trkpt lat="36.78636711551518" lon="-107.93342241034502"><ele>1855.5</ele><time>2026-04-19T17:05:56Z</time></trkpt><trkpt lat="36.78648960878342" lon="-107.93347342413158"><ele>1856.0</ele><time>2026-04-19T17:05:57Z</time></trkpt><trkpt lat="36.78662220099242" lon="-107.9335277569808"><ele>1856.0</ele><time>2026-04-19T17:05:58Z</time></trkpt><trkpt lat="36.7867489299709" lon="-107.93360139425177"><ele>1856.0</ele><time>2026-04-19T17:05:59Z</time></trkpt><trkpt lat="36.78688488292042" lon="-107.93370019983699"><ele>1856.0</ele><time>2026-04-19T17:06:00Z</time></trkpt><trkpt lat="36.78702921289284" lon="-107.93382185538857"><ele>1857.3333333333333</ele><time>2026-04-19T17:06:01Z</time></trkpt><trkpt lat="36.78717558397697" lon="-107.93396285445351"><ele>1858.6666666666665</ele><time>2026-04-19T17:06:02Z</time></trkpt><trkpt lat="36.78731308255519" lon="-107.93412519980346"><ele>1860.0</ele><time>2026-04-19T17:06:03Z</time></trkpt><trkpt lat="36.78744765777651" lon="-107.93428085184564"><ele>1860.6666666666665</ele><time>2026-04-19T17:06:04Z</time></trkpt><trkpt lat="36.78758495760002" lon="-107.93441207864183"><ele>1861.3333333333333</ele><time>2026-04-19T17:06:05Z</time></trkpt><trkpt lat="36.78772622332057" lon="-107.9345329167101"><ele>1862.0</ele><time>2026-04-19T17:06:06Z</time></trkpt><trkpt lat="36.78787891105241" lon="-107.93465717678676"><ele>1862.0</ele><time>2026-04-19T17:06:07Z</time></trkpt><trkpt lat="36.788034687326345" lon="-107.9347761445649"><ele>1862.0</ele><time>2026-04-19T17:06:08Z</time></trkpt><trkpt lat="36.788179739341984" lon="-107.93487190663728"><ele>1862.0</ele><time>2026-04-19T17:06:09Z</time></trkpt><trkpt lat="36.78829480024118" lon="-107.93493738689419"><ele>1862.0</ele><time>2026-04-19T17:06:10.001Z</time></trkpt><trkpt lat="36.78839103125765" lon="-107.93498137344977"><ele>1861.9999999999998</ele><time>2026-04-19T17:06:11.001Z</time></trkpt><trkpt lat="36.788467937798075" lon="-107.93499377971462"><ele>1861.9999999999998</ele><time>2026-04-19T17:06:12.001Z</time></trkpt><trkpt lat="36.788557015414966" lon="-107.9349783600024"><ele>1862.0</ele><time>2026-04-19T17:06:13.001Z</time></trkpt><trkpt lat="36.78862227990908" lon="-107.93498205493071"><ele>1862.0</ele><time>2026-04-19T17:06:14.001Z</time></trkpt><trkpt lat="36.788717126132276" lon="-107.93506860464238"><ele>1862.6</ele><time>2026-04-19T17:06:16.001Z</time></trkpt><trkpt lat="36.788800960067896" lon="-107.93505198221062"><ele>1863.1999999999998</ele><time>2026-04-19T17:06:17.001Z</time></trkpt><trkpt lat="36.788911448428294" lon="-107.93500566143655"><ele>1863.8</ele><time>2026-04-19T17:06:18.001Z</time></trkpt><trkpt lat="36.789030292206284" lon="-107.93499183740128"><ele>1864.4</ele><time>2026-04-19T17:06:19.001Z</time></trkpt><trkpt lat="36.78915132925845" lon="-107.93499289667871"><ele>1865.0</ele><time>2026-04-19T17:06:20.001Z</time></trkpt><trkpt lat="36.789261450458405" lon="-107.93502044219069"><ele>1865.4</ele><time>2026-04-19T17:06:21.001Z</time></trkpt><trkpt lat="36.789388626437635" lon="-107.935075318131"><ele>1865.8</ele><time>2026-04-19T17:06:22.001Z</time></trkpt><trkpt lat="36.789523144639865" lon="-107.93512658165645"><ele>1866.1999999999998</ele><time>2026-04-19T17:06:23.001Z</time></trkpt><trkpt lat="36.78961502353344" lon="-107.93515995687477"><ele>1866.6</ele><time>2026-04-19T17:06:24.001Z</time></trkpt><trkpt lat="36.78968247907446" lon="-107.93517316902623"><ele>1867.0</ele><time>2026-04-19T17:06:25.001Z</time></trkpt><trkpt lat="36.78975980226651" lon="-107.93516639944752"><ele>1867.0</ele><time>2026-04-19T17:06:26.001Z</time></trkpt><trkpt lat="36.78982302872489" lon="-107.93519523779773"><ele>1866.9999999999998</ele><time>2026-04-19T17:06:27.001Z</time></trkpt><trkpt lat="36.78990668949485" lon="-107.93526191974837"><ele>1866.9999999999998</ele><time>2026-04-19T17:06:28.001Z</time></trkpt><trkpt lat="36.78999139842414" lon="-107.93532935482646"><ele>1867.0</ele><time>2026-04-19T17:06:29.001Z</time></trkpt><trkpt lat="36.79007887935013" lon="-107.93539712037506"><ele>1867.0</ele><time>2026-04-19T17:06:30.001Z</time></trkpt><trkpt lat="36.790158934222255" lon="-107.9354496585322"><ele>1868.0</ele><time>2026-04-19T17:06:31.001Z</time></trkpt><trkpt lat="36.79024414100866" lon="-107.9354414795271"><ele>1868.9999999999998</ele><time>2026-04-19T17:06:33.001Z</time></trkpt><trkpt lat="36.79031729966025" lon="-107.93539749129219"><ele>1869.9999999999998</ele><time>2026-04-19T17:06:34.001Z</time></trkpt><trkpt lat="36.79039726978559" lon="-107.93533924384546"><ele>1871.0</ele><time>2026-04-19T17:06:35.001Z</time></trkpt><trkpt lat="36.7904898976995" lon="-107.93527242526422"><ele>1872.0</ele><time>2026-04-19T17:06:36.001Z</time></trkpt><trkpt lat="36.79058647363951" lon="-107.93521763285284"><ele>1872.0</ele><time>2026-04-19T17:06:37.001Z</time></trkpt><trkpt lat="36.79068628855349" lon="-107.93520633237809"><ele>1872.0</ele><time>2026-04-19T17:06:38.001Z</time></trkpt><trkpt lat="36.790791455642065" lon="-107.93523792373408"><ele>1872.0</ele><time>2026-04-19T17:06:39.001Z</time></trkpt><trkpt lat="36.79091483235407" lon="-107.93525440243872"><ele>1872.0</ele><time>2026-04-19T17:06:40.001Z</time></trkpt><trkpt lat="36.79104644343354" lon="-107.93523865543237"><ele>1874.0</ele><time>2026-04-19T17:06:41.001Z</time></trkpt><trkpt lat="36.79119171243153" lon="-107.93520155658183"><ele>1876.0</ele><time>2026-04-19T17:06:42.001Z</time></trkpt><trkpt lat="36.791349453967186" lon="-107.93515697504078"><ele>1878.0</ele><time>2026-04-19T17:06:43.001Z</time></trkpt><trkpt lat="36.79151498375028" lon="-107.93509943756003"><ele>1877.5</ele><time>2026-04-19T17:06:44.001Z</time></trkpt><trkpt lat="36.79166114054817" lon="-107.93504665130821"><ele>1877.0</ele><time>2026-04-19T17:06:45.001Z</time></trkpt><trkpt lat="36.79179399678418" lon="-107.93500685151334"><ele>1876.5</ele><time>2026-04-19T17:06:46.001Z</time></trkpt><trkpt lat="36.79190902700779" lon="-107.9349888469844"><ele>1876.0</ele><time>2026-04-19T17:06:47.001Z</time></trkpt><trkpt lat="36.791979843780204" lon="-107.93496048179473"><ele>1877.25</ele><time>2026-04-19T17:06:48.001Z</time></trkpt><trkpt lat="36.79205767265896" lon="-107.93483961523718"><ele>1878.5</ele><time>2026-04-19T17:06:50.001Z</time></trkpt><trkpt lat="36.79212206865749" lon="-107.93470699620963"><ele>1879.75</ele><time>2026-04-19T17:06:51.001Z</time></trkpt><trkpt lat="36.79222710824927" lon="-107.93462646243451"><ele>1881.0</ele><time>2026-04-19T17:06:52.001Z</time></trkpt><trkpt lat="36.79229226273824" lon="-107.93453518629"><ele>1881.0</ele><time>2026-04-19T17:06:53.001Z</time></trkpt><trkpt lat="36.79233157762922" lon="-107.93445378032537"><ele>1881.0</ele><time>2026-04-19T17:06:54.001Z</time></trkpt><trkpt lat="36.79242080159153" lon="-107.93442818441441"><ele>1881.0</ele><time>2026-04-19T17:06:55.001Z</time></trkpt><trkpt lat="36.79250248199871" lon="-107.9343617862928"><ele>1881.0</ele><time>2026-04-19T17:06:56.001Z</time></trkpt><trkpt lat="36.79255547995353" lon="-107.93430610603966"><ele>1881.0</ele><time>2026-04-19T17:06:57.001Z</time></trkpt><trkpt lat="36.79263171004987" lon="-107.93427195149977"><ele>1881.0</ele><time>2026-04-19T17:06:58.001Z</time></trkpt><trkpt lat="36.79276041483753" lon="-107.93426512656936"><ele>1881.25</ele><time>2026-04-19T17:06:59.001Z</time></trkpt><trkpt lat="36.79289899087092" lon="-107.93425434603012"><ele>1881.5</ele><time>2026-04-19T17:07:00.001Z</time></trkpt><trkpt lat="36.792995432895026" lon="-107.93420391818708"><ele>1881.75</ele><time>2026-04-19T17:07:01.001Z</time></trkpt><trkpt lat="36.79305699635555" lon="-107.93413555726103"><ele>1882.0</ele><time>2026-04-19T17:07:02.001Z</time></trkpt><trkpt lat="36.79317901168583" lon="-107.9341653796202"><ele>1882.8</ele><time>2026-04-19T17:07:04.001Z</time></trkpt><trkpt lat="36.79327172231501" lon="-107.93423903245825"><ele>1883.6</ele><time>2026-04-19T17:07:05.001Z</time></trkpt><trkpt lat="36.79336482181552" lon="-107.93431524753892"><ele>1884.3999999999999</ele><time>2026-04-19T17:07:06.001Z</time></trkpt><trkpt lat="36.79345291716097" lon="-107.93433429333754"><ele>1885.1999999999998</ele><time>2026-04-19T17:07:07.001Z</time></trkpt><trkpt lat="36.79353712627834" lon="-107.93429298452483"><ele>1886.0</ele><time>2026-04-19T17:07:08.001Z</time></trkpt><trkpt lat="36.79365536772607" lon="-107.93423603469931"><ele>1885.8</ele><time>2026-04-19T17:07:09.001Z</time></trkpt><trkpt lat="36.79376490624794" lon="-107.93420763066024"><ele>1885.6</ele><time>2026-04-19T17:07:10.001Z</time></trkpt><trkpt lat="36.79384789221132" lon="-107.93421091467444"><ele>1885.4</ele><time>2026-04-19T17:07:11.001Z</time></trkpt><trkpt lat="36.793949701967406" lon="-107.9342177453015"><ele>1885.2</ele><time>2026-04-19T17:07:12.001Z</time></trkpt><trkpt lat="36.794077561048034" lon="-107.93419303971292"><ele>1885.0</ele><time>2026-04-19T17:07:13.001Z</time></trkpt><trkpt lat="36.794213378052866" lon="-107.93415744242823"><ele>1886.0</ele><time>2026-04-19T17:07:14.001Z</time></trkpt><trkpt lat="36.79434275823528" lon="-107.93416969353159"><ele>1887.0</ele><time>2026-04-19T17:07:15.001Z</time></trkpt><trkpt lat="36.79448913099608" lon="-107.93419819692252"><ele>1888.0</ele><time>2026-04-19T17:07:16.001Z</time></trkpt><trkpt lat="36.79463060292775" lon="-107.93422094469652"><ele>1889.0</ele><time>2026-04-19T17:07:17.001Z</time></trkpt><trkpt lat="36.7947447149036" lon="-107.93421048847422"><ele>1889.0</ele><time>2026-04-19T17:07:18.001Z</time></trkpt><trkpt lat="36.79486882675002" lon="-107.93418999822995"><ele>1889.0</ele><time>2026-04-19T17:07:19.001Z</time></trkpt><trkpt lat="36.79498065898121" lon="-107.93418013906684"><ele>1889.0</ele><time>2026-04-19T17:07:20.001Z</time></trkpt><trkpt lat="36.79507185233833" lon="-107.93415221821799"><ele>1889.0</ele><time>2026-04-19T17:07:21.001Z</time></trkpt><trkpt lat="36.795171396469684" lon="-107.9340804920227"><ele>1889.0</ele><time>2026-04-19T17:07:22.001Z</time></trkpt><trkpt lat="36.79528576303533" lon="-107.93403744865293"><ele>1890.0</ele><time>2026-04-19T17:07:23.001Z</time></trkpt><trkpt lat="36.795404435012095" lon="-107.93402588255778"><ele>1891.0</ele><time>2026-04-19T17:07:24.001Z</time></trkpt><trkpt lat="36.79554850043759" lon="-107.9340295580325"><ele>1892.0</ele><time>2026-04-19T17:07:25.001Z</time></trkpt><trkpt lat="36.79568544579943" lon="-107.93402350099943"><ele>1893.0</ele><time>2026-04-19T17:07:26.001Z</time></trkpt><trkpt lat="36.79580837139024" lon="-107.93401052279762"><ele>1893.0</ele><time>2026-04-19T17:07:27.001Z</time></trkpt><trkpt lat="36.7958964535321" lon="-107.93399720725931"><ele>1893.0000000000002</ele><time>2026-04-19T17:07:28.001Z</time></trkpt><trkpt lat="36.79598138276058" lon="-107.93399172925534"><ele>1893.0000000000002</ele><time>2026-04-19T17:07:29.001Z</time></trkpt><trkpt lat="36.79608464499603" lon="-107.93399560861761"><ele>1893.0</ele><time>2026-04-19T17:07:30.001Z</time></trkpt><trkpt lat="36.796187590917874" lon="-107.93404104836566"><ele>1893.0</ele><time>2026-04-19T17:07:31.001Z</time></trkpt><trkpt lat="36.79628500289072" lon="-107.9340861460245"><ele>1893.75</ele><time>2026-04-19T17:07:32.001Z</time></trkpt><trkpt lat="36.79639971513693" lon="-107.93411728062986"><ele>1894.5</ele><time>2026-04-19T17:07:33.001Z</time></trkpt><trkpt lat="36.79652932430828" lon="-107.93415003933183"><ele>1895.25</ele><time>2026-04-19T17:07:34Z</time></trkpt><trkpt lat="36.79660472611965" lon="-107.93418177674153"><ele>1896.0</ele><time>2026-04-19T17:07:35Z</time></trkpt><trkpt lat="36.79671630873728" lon="-107.93426380483433"><ele>1896.6</ele><time>2026-04-19T17:07:37Z</time></trkpt><trkpt lat="36.79678089164718" lon="-107.93427362812005"><ele>1897.1999999999998</ele><time>2026-04-19T17:07:38Z</time></trkpt><trkpt lat="36.79687191529663" lon="-107.93421909432128"><ele>1897.8000000000002</ele><time>2026-04-19T17:07:39Z</time></trkpt><trkpt lat="36.79699046132126" lon="-107.93416946300337"><ele>1898.4</ele><time>2026-04-19T17:07:40Z</time></trkpt><trkpt lat="36.797119845531675" lon="-107.9341585308224"><ele>1899.0</ele><time>2026-04-19T17:07:41Z</time></trkpt><trkpt lat="36.797265122599896" lon="-107.93413645531858"><ele>1899.75</ele><time>2026-04-19T17:07:42Z</time></trkpt><trkpt lat="36.797425745907205" lon="-107.93408399085834"><ele>1900.5</ele><time>2026-04-19T17:07:43Z</time></trkpt><trkpt lat="36.79758924122816" lon="-107.93404281894482"><ele>1901.25</ele><time>2026-04-19T17:07:44Z</time></trkpt><trkpt lat="36.79770416784428" lon="-107.93401821211341"><ele>1902.0</ele><time>2026-04-19T17:07:45Z</time></trkpt><trkpt lat="36.797789960183074" lon="-107.93400639366769"><ele>1902.6666666666667</ele><time>2026-04-19T17:07:46Z</time></trkpt><trkpt lat="36.79789626777473" lon="-107.9339595158415"><ele>1903.3333333333335</ele><time>2026-04-19T17:07:48Z</time></trkpt><trkpt lat="36.79795497698168" lon="-107.93389687962865"><ele>1904.0</ele><time>2026-04-19T17:07:49Z</time></trkpt><trkpt lat="36.79800778806726" lon="-107.93381908818068"><ele>1904.6666666666667</ele><time>2026-04-19T17:07:50Z</time></trkpt><trkpt lat="36.79802538581926" lon="-107.933742898069"><ele>1905.3333333333335</ele><time>2026-04-19T17:10:50.001Z</time></trkpt><trkpt lat="36.79806907788509" lon="-107.93363990537304"><ele>1906.0</ele><time>2026-04-19T17:10:52.001Z</time></trkpt><trkpt lat="36.7981325586894" lon="-107.93360912361665"><ele>1906.0000000000002</ele><time>2026-04-19T17:10:53.001Z</time></trkpt><trkpt lat="36.79821544986154" lon="-107.93358607222167"><ele>1906.0</ele><time>2026-04-19T17:10:54.001Z</time></trkpt><trkpt lat="36.79829600581498" lon="-107.9335463948404"><ele>1906.0</ele><time>2026-04-19T17:10:55.001Z</time></trkpt><trkpt lat="36.79835348372147" lon="-107.93349592408934"><ele>1906.0</ele><time>2026-04-19T17:10:56.001Z</time></trkpt><trkpt lat="36.79837985643059" lon="-107.93341074548728"><ele>1906.0000000000002</ele><time>2026-04-19T17:10:57.001Z</time></trkpt><trkpt lat="36.79840989055142" lon="-107.93329618031787"><ele>1906.0</ele><time>2026-04-19T17:10:58.001Z</time></trkpt><trkpt lat="36.79847451915623" lon="-107.9332172978755"><ele>1906.8</ele><time>2026-04-19T17:10:59.001Z</time></trkpt><trkpt lat="36.79856708750496" lon="-107.93315149408774"><ele>1907.6</ele><time>2026-04-19T17:11:00.001Z</time></trkpt><trkpt lat="36.79866629936244" lon="-107.93309308655469"><ele>1908.4</ele><time>2026-04-19T17:11:01.001Z</time></trkpt><trkpt lat="36.79872975373957" lon="-107.93305567933548"><ele>1909.2</ele><time>2026-04-19T17:11:02.001Z</time></trkpt><trkpt lat="36.79880885320351" lon="-107.93304057883475"><ele>1910.0</ele><time>2026-04-19T17:11:03.001Z</time></trkpt><trkpt lat="36.79889465967994" lon="-107.93294216189663"><ele>1910.0</ele><time>2026-04-19T17:11:05.001Z</time></trkpt><trkpt lat="36.79894257243621" lon="-107.93284476291363"><ele>1910.0</ele><time>2026-04-19T17:11:06.001Z</time></trkpt><trkpt lat="36.79900524673959" lon="-107.93274478919155"><ele>1910.0</ele><time>2026-04-19T17:11:07.001Z</time></trkpt><trkpt lat="36.799060014156645" lon="-107.93268499680387"><ele>1910.0</ele><time>2026-04-19T17:11:08.001Z</time></trkpt><trkpt lat="36.79919682371139" lon="-107.93268275123387"><ele>1910.0</ele><time>2026-04-19T17:11:10.001Z</time></trkpt><trkpt lat="36.79930989251396" lon="-107.93267168606043"><ele>1910.6</ele><time>2026-04-19T17:11:11.001Z</time></trkpt><trkpt lat="36.79940082383061" lon="-107.93263453618333"><ele>1911.2</ele><time>2026-04-19T17:11:12.001Z</time></trkpt><trkpt lat="36.79949892946397" lon="-107.93257733592364"><ele>1911.8000000000002</ele><time>2026-04-19T17:11:13.001Z</time></trkpt><trkpt lat="36.799593667939035" lon="-107.93253920024858"><ele>1912.4</ele><time>2026-04-19T17:11:14.001Z</time></trkpt><trkpt lat="36.799708138538556" lon="-107.93254098598959"><ele>1913.0</ele><time>2026-04-19T17:11:15.001Z</time></trkpt><trkpt lat="36.79985464950075" lon="-107.93255723261002"><ele>1913.0</ele><time>2026-04-19T17:11:16.001Z</time></trkpt><trkpt lat="36.80000662595947" lon="-107.93257677160327"><ele>1913.0</ele><time>2026-04-19T17:11:17.001Z</time></trkpt><trkpt lat="36.800170752540396" lon="-107.93258965036654"><ele>1913.0</ele><time>2026-04-19T17:11:18.001Z</time></trkpt><trkpt lat="36.800331616982746" lon="-107.93259272219844"><ele>1913.6000000000001</ele><time>2026-04-19T17:11:19.001Z</time></trkpt><trkpt lat="36.800435330058974" lon="-107.9325870632623"><ele>1914.2000000000003</ele><time>2026-04-19T17:11:20.001Z</time></trkpt><trkpt lat="36.80054002867297" lon="-107.93257957942157"><ele>1914.8</ele><time>2026-04-19T17:11:21.001Z</time></trkpt><trkpt lat="36.80064447175569" lon="-107.93257841408696"><ele>1915.4</ele><time>2026-04-19T17:11:22.001Z</time></trkpt><trkpt lat="36.80073748492811" lon="-107.93255897120012"><ele>1916.0</ele><time>2026-04-19T17:11:23.001Z</time></trkpt><trkpt lat="36.80085239258756" lon="-107.93251093578222"><ele>1916.0</ele><time>2026-04-19T17:11:24.001Z</time></trkpt><trkpt lat="36.800972737802276" lon="-107.93247714563098"><ele>1916.0</ele><time>2026-04-19T17:11:25.001Z</time></trkpt><trkpt lat="36.80105468773238" lon="-107.93247135965002"><ele>1916.0</ele><time>2026-04-19T17:11:26.001Z</time></trkpt><trkpt lat="36.80117462166795" lon="-107.93256325809189"><ele>1916.0</ele><time>2026-04-19T17:11:28.001Z</time></trkpt><trkpt lat="36.801265618189504" lon="-107.93265132186461"><ele>1917.75</ele><time>2026-04-19T17:11:29.001Z</time></trkpt><trkpt lat="36.80138241528341" lon="-107.93276402897796"><ele>1919.5</ele><time>2026-04-19T17:11:30.001Z</time></trkpt><trkpt lat="36.80148007738997" lon="-107.93285352374345"><ele>1921.25</ele><time>2026-04-19T17:11:31.001Z</time></trkpt><trkpt lat="36.80153585102009" lon="-107.93294176532507"><ele>1923.0</ele><time>2026-04-19T17:11:32.001Z</time></trkpt><trkpt lat="36.80162143640901" lon="-107.93304820156504"><ele>1923.0</ele><time>2026-04-19T17:11:33.001Z</time></trkpt><trkpt lat="36.80171433212537" lon="-107.93311308905808"><ele>1923.0000000000002</ele><time>2026-04-19T17:11:34.001Z</time></trkpt><trkpt lat="36.801784635698944" lon="-107.93320189287974"><ele>1923.0000000000002</ele><time>2026-04-19T17:11:35.001Z</time></trkpt><trkpt lat="36.801841002570676" lon="-107.93329696982262"><ele>1923.0</ele><time>2026-04-19T17:11:36.001Z</time></trkpt><trkpt lat="36.80190787705755" lon="-107.93340252924756"><ele>1923.0</ele><time>2026-04-19T17:11:37.001Z</time></trkpt><trkpt lat="36.80195398311356" lon="-107.93348398680492"><ele>1923.6666666666667</ele><time>2026-04-19T17:11:38.001Z</time></trkpt><trkpt lat="36.80201769982003" lon="-107.93350159530783"><ele>1924.3333333333335</ele><time>2026-04-19T17:11:40.001Z</time></trkpt><trkpt lat="36.80208540292528" lon="-107.93348596703085"><ele>1925.0</ele><time>2026-04-19T17:12:40.001Z</time></trkpt><trkpt lat="36.802163987540446" lon="-107.93351900794462"><ele>1925.6666666666667</ele><time>2026-04-19T17:12:42.001Z</time></trkpt><trkpt lat="36.80223633406346" lon="-107.93349040613919"><ele>1926.3333333333335</ele><time>2026-04-19T17:12:44.001Z</time></trkpt><trkpt lat="36.80230680583673" lon="-107.93348235844428"><ele>1927.0</ele><time>2026-04-19T17:12:45.001Z</time></trkpt><trkpt lat="36.80239364769748" lon="-107.9335330069571"><ele>1927.0000000000002</ele><time>2026-04-19T17:12:46.001Z</time></trkpt><trkpt lat="36.80248045722838" lon="-107.93360812561248"><ele>1927.0</ele><time>2026-04-19T17:12:47.001Z</time></trkpt><trkpt lat="36.80254192809125" lon="-107.93369732895455"><ele>1927.0</ele><time>2026-04-19T17:12:48.001Z</time></trkpt><trkpt lat="36.80257757462251" lon="-107.93378824586627"><ele>1927.0</ele><time>2026-04-19T17:12:49.001Z</time></trkpt><trkpt lat="36.80261530169085" lon="-107.9338570921097"><ele>1927.0000000000002</ele><time>2026-04-19T17:12:50.001Z</time></trkpt><trkpt lat="36.802684692621696" lon="-107.93389200326084"><ele>1927.0</ele><time>2026-04-19T17:12:51.001Z</time></trkpt><trkpt lat="36.802760015876466" lon="-107.93390536331728"><ele>1927.8</ele><time>2026-04-19T17:12:52.001Z</time></trkpt><trkpt lat="36.80284582959883" lon="-107.93389796778222"><ele>1928.6</ele><time>2026-04-19T17:12:53.001Z</time></trkpt><trkpt lat="36.80295018397884" lon="-107.93387874559882"><ele>1929.3999999999999</ele><time>2026-04-19T17:12:54.001Z</time></trkpt><trkpt lat="36.80306549399213" lon="-107.93387364137332"><ele>1930.1999999999998</ele><time>2026-04-19T17:12:55.001Z</time></trkpt><trkpt lat="36.80319119176753" lon="-107.9338865978401"><ele>1931.0</ele><time>2026-04-19T17:12:56.001Z</time></trkpt><trkpt lat="36.8033021989795" lon="-107.93390706673563"><ele>1930.9999999999998</ele><time>2026-04-19T17:12:57.001Z</time></trkpt><trkpt lat="36.80337544003552" lon="-107.93389271854093"><ele>1931.0</ele><time>2026-04-19T17:12:58.001Z</time></trkpt><trkpt lat="36.80344266820433" lon="-107.93386751296646"><ele>1931.0</ele><time>2026-04-19T17:12:59.001Z</time></trkpt><trkpt lat="36.803542628117015" lon="-107.93391033629305"><ele>1931.0</ele><time>2026-04-19T17:13:01.001Z</time></trkpt><trkpt lat="36.80360829670262" lon="-107.9339465974207"><ele>1930.9999999999998</ele><time>2026-04-19T17:13:03.001Z</time></trkpt><trkpt lat="36.803606976160744" lon="-107.93385335337256"><ele>1931.0</ele><time>2026-04-19T17:13:05.001Z</time></trkpt><trkpt lat="36.803594960844414" lon="-107.9337663551593"><ele>1929.4</ele><time>2026-04-19T17:13:06.001Z</time></trkpt><trkpt lat="36.80357745830985" lon="-107.93368670667897"><ele>1927.8</ele><time>2026-04-19T17:13:08.001Z</time></trkpt><trkpt lat="36.803629272316954" lon="-107.93358791472119"><ele>1926.2000000000003</ele><time>2026-04-19T17:13:09.001Z</time></trkpt><trkpt lat="36.80361972442556" lon="-107.93342233900866"><ele>1924.6000000000001</ele><time>2026-04-19T17:13:10.001Z</time></trkpt><trkpt lat="36.80365703961959" lon="-107.93330255996563"><ele>1923.0</ele><time>2026-04-19T17:13:11.001Z</time></trkpt><trkpt lat="36.803690961195684" lon="-107.93322649465533"><ele>1923.0</ele><time>2026-04-19T17:13:12.001Z</time></trkpt><trkpt lat="36.803721696851426" lon="-107.93315304848232"><ele>1923.0</ele><time>2026-04-19T17:13:13.001Z</time></trkpt><trkpt lat="36.803764571565466" lon="-107.9330795551607"><ele>1923.0</ele><time>2026-04-19T17:13:14.001Z</time></trkpt><trkpt lat="36.80382758464474" lon="-107.93302167152208"><ele>1923.0</ele><time>2026-04-19T17:13:15.001Z</time></trkpt><trkpt lat="36.80390431644016" lon="-107.93297899542836"><ele>1923.0</ele><time>2026-04-19T17:13:16.001Z</time></trkpt><trkpt lat="36.803969411002114" lon="-107.93292267323851"><ele>1923.0</ele><time>2026-04-19T17:13:17.001Z</time></trkpt><trkpt lat="36.80400736366647" lon="-107.93284649488655"><ele>1923.0</ele><time>2026-04-19T17:13:18.001Z</time></trkpt><trkpt lat="36.80404376944494" lon="-107.93277083370612"><ele>1923.0000000000002</ele><time>2026-04-19T17:13:19.001Z</time></trkpt><trkpt lat="36.804108975164034" lon="-107.93262016856775"><ele>1923.0000000000002</ele><time>2026-04-19T17:13:21.001Z</time></trkpt><trkpt lat="36.80415743952888" lon="-107.93252157379553"><ele>1923.0</ele><time>2026-04-19T17:13:22.001Z</time></trkpt><trkpt lat="36.804182115365045" lon="-107.9324161175052"><ele>1923.0</ele><time>2026-04-19T17:13:23.001Z</time></trkpt><trkpt lat="36.8041916942958" lon="-107.9323322770774"><ele>1924.1666666666667</ele><time>2026-04-19T17:13:24.001Z</time></trkpt><trkpt lat="36.80420804836593" lon="-107.93225020949495"><ele>1925.3333333333335</ele><time>2026-04-19T17:13:25.001Z</time></trkpt><trkpt lat="36.80422663704769" lon="-107.93216517644194"><ele>1926.5</ele><time>2026-04-19T17:13:26.001Z</time></trkpt><trkpt lat="36.80420097651761" lon="-107.93207377070884"><ele>1927.6666666666667</ele><time>2026-04-19T17:13:27.001Z</time></trkpt><trkpt lat="36.804173248852784" lon="-107.93198939229121"><ele>1928.8333333333335</ele><time>2026-04-19T17:13:28.001Z</time></trkpt><trkpt lat="36.80419025588356" lon="-107.93182767842133"><ele>1930.0</ele><time>2026-04-19T17:13:30.001Z</time></trkpt><trkpt lat="36.804218245213" lon="-107.93170611548265"><ele>1930.8</ele><time>2026-04-19T17:13:31.001Z</time></trkpt><trkpt lat="36.804256831142155" lon="-107.93159532160446"><ele>1931.6</ele><time>2026-04-19T17:13:32.001Z</time></trkpt><trkpt lat="36.80429233667401" lon="-107.93150808148985"><ele>1932.4</ele><time>2026-04-19T17:13:33.001Z</time></trkpt><trkpt lat="36.8043543193497" lon="-107.93136473197677"><ele>1933.2</ele><time>2026-04-19T17:13:35.001Z</time></trkpt><trkpt lat="36.80439111321805" lon="-107.9312715918186"><ele>1934.0</ele><time>2026-04-19T17:13:36.001Z</time></trkpt><trkpt lat="36.804444255968086" lon="-107.93120982980176"><ele>1934.0</ele><time>2026-04-19T17:13:37.001Z</time></trkpt><trkpt lat="36.804431675819245" lon="-107.93106874322768"><ele>1934.0</ele><time>2026-04-19T17:13:39.001Z</time></trkpt><trkpt lat="36.804415117016944" lon="-107.93093804659895"><ele>1934.0</ele><time>2026-04-19T17:13:40.001Z</time></trkpt><trkpt lat="36.8044140272389" lon="-107.93085425192314"><ele>1934.0</ele><time>2026-04-19T17:13:41.001Z</time></trkpt><trkpt lat="36.804346400615444" lon="-107.93073665493975"><ele>1934.0</ele><time>2026-04-19T17:13:43.001Z</time></trkpt><trkpt lat="36.804286237520785" lon="-107.93067067569478"><ele>1933.9999999999998</ele><time>2026-04-19T17:13:44.001Z</time></trkpt><trkpt lat="36.8042624161598" lon="-107.93055818376465"><ele>1934.0</ele><time>2026-04-19T17:13:45.001Z</time></trkpt><trkpt lat="36.804241304311596" lon="-107.93045666526577"><ele>1934.0</ele><time>2026-04-19T17:13:46.001Z</time></trkpt><trkpt lat="36.80422864434671" lon="-107.93032718503"><ele>1934.0</ele><time>2026-04-19T17:13:48.001Z</time></trkpt><trkpt lat="36.80426623011197" lon="-107.93022945665535"><ele>1933.9999999999998</ele><time>2026-04-19T17:13:49.001Z</time></trkpt><trkpt lat="36.804275631591246" lon="-107.93012983485727"><ele>1934.0</ele><time>2026-04-19T17:13:50.001Z</time></trkpt><trkpt lat="36.80423228049242" lon="-107.93000257723841"><ele>1934.6</ele><time>2026-04-19T17:13:52Z</time></trkpt><trkpt lat="36.804260900982165" lon="-107.92991580718653"><ele>1935.2</ele><time>2026-04-19T17:13:53Z</time></trkpt><trkpt lat="36.80429187649864" lon="-107.92982239122853"><ele>1935.7999999999997</ele><time>2026-04-19T17:13:54Z</time></trkpt><trkpt lat="36.804280310364156" lon="-107.92971981855791"><ele>1936.3999999999999</ele><time>2026-04-19T17:13:55Z</time></trkpt><trkpt lat="36.80427518096919" lon="-107.92961980526574"><ele>1937.0</ele><time>2026-04-19T17:13:56Z</time></trkpt><trkpt lat="36.80439772833598" lon="-107.92956168801146"><ele>1937.0</ele><time>2026-04-19T17:13:58Z</time></trkpt><trkpt lat="36.80448729574803" lon="-107.92953430545"><ele>1936.9999999999998</ele><time>2026-04-19T17:13:59Z</time></trkpt><trkpt lat="36.80453168577417" lon="-107.92946989446396"><ele>1936.9999999999998</ele><time>2026-04-19T17:14:01Z</time></trkpt><trkpt lat="36.80449396940704" lon="-107.9293808137396"><ele>1937.0</ele><time>2026-04-19T17:14:03Z</time></trkpt><trkpt lat="36.80437873861048" lon="-107.92934113666206"><ele>1937.0</ele><time>2026-04-19T17:14:05Z</time></trkpt><trkpt lat="36.80425547663291" lon="-107.9293271287444"><ele>1936.9999999999998</ele><time>2026-04-19T17:14:07Z</time></trkpt><trkpt lat="36.80413831632897" lon="-107.92934920188063"><ele>1937.0</ele><time>2026-04-19T17:14:09Z</time></trkpt><trkpt lat="36.804074153450756" lon="-107.9293613527578"><ele>1937.0</ele><time>2026-04-19T17:14:10Z</time></trkpt><trkpt lat="36.804005858400714" lon="-107.9293781273399"><ele>1937.0</ele><time>2026-04-19T17:14:11Z</time></trkpt><trkpt lat="36.803928584453885" lon="-107.92937790586979"><ele>1936.9999999999998</ele><time>2026-04-19T17:14:12Z</time></trkpt><trkpt lat="36.80386801345133" lon="-107.92940592740699"><ele>1937.0</ele><time>2026-04-19T17:14:13Z</time></trkpt><trkpt lat="36.803800258581944" lon="-107.92947821296829"><ele>1936.9999999999998</ele><time>2026-04-19T17:14:14Z</time></trkpt><trkpt lat="36.80372380391747" lon="-107.92954558069745"><ele>1937.0</ele><time>2026-04-19T17:14:15Z</time></trkpt><trkpt lat="36.803667340791" lon="-107.9296140866913"><ele>1937.0</ele><time>2026-04-19T17:14:16Z</time></trkpt><trkpt lat="36.80363778570055" lon="-107.92969168936268"><ele>1937.0</ele><time>2026-04-19T17:14:17Z</time></trkpt><trkpt lat="36.803545419932824" lon="-107.92970756291312"><ele>1936.9999999999998</ele><time>2026-04-19T17:14:19Z</time></trkpt><trkpt lat="36.803482150927536" lon="-107.9297083547254"><ele>1937.0</ele><time>2026-04-19T17:14:20Z</time></trkpt><trkpt lat="36.803400993133664" lon="-107.92974761050861"><ele>1936.4999999999998</ele><time>2026-04-19T17:14:21Z</time></trkpt><trkpt lat="36.80332919259307" lon="-107.92981034211851"><ele>1936.0</ele><time>2026-04-19T17:14:22Z</time></trkpt><trkpt lat="36.80328235225284" lon="-107.92987862704334"><ele>1935.5</ele><time>2026-04-19T17:14:23Z</time></trkpt><trkpt lat="36.803231328555505" lon="-107.92993861591489"><ele>1935.0</ele><time>2026-04-19T17:14:24Z</time></trkpt><trkpt lat="36.80316081786569" lon="-107.92995344650159"><ele>1934.4999999999998</ele><time>2026-04-19T17:14:25Z</time></trkpt><trkpt lat="36.803056497124224" lon="-107.92995806361932"><ele>1934.0</ele><time>2026-04-19T17:14:26Z</time></trkpt><trkpt lat="36.80295548980467" lon="-107.929986591879"><ele>1934.0</ele><time>2026-04-19T17:14:27Z</time></trkpt><trkpt lat="36.80287675346752" lon="-107.93001623421675"><ele>1934.0</ele><time>2026-04-19T17:14:28Z</time></trkpt><trkpt lat="36.802791266586894" lon="-107.93004430773601"><ele>1934.0</ele><time>2026-04-19T17:14:29Z</time></trkpt><trkpt lat="36.80268309262898" lon="-107.93006789971936"><ele>1934.0</ele><time>2026-04-19T17:14:30Z</time></trkpt><trkpt lat="36.80260455482836" lon="-107.93009660655757"><ele>1934.0</ele><time>2026-04-19T17:14:31Z</time></trkpt><trkpt lat="36.80244941205834" lon="-107.93008297242459"><ele>1932.6</ele><time>2026-04-19T17:14:33Z</time></trkpt><trkpt lat="36.80232832401991" lon="-107.93009493873141"><ele>1931.2</ele><time>2026-04-19T17:14:34Z</time></trkpt><trkpt lat="36.8022346916466" lon="-107.9300975227497"><ele>1929.7999999999997</ele><time>2026-04-19T17:14:35Z</time></trkpt><trkpt lat="36.80214485083678" lon="-107.93009738413964"><ele>1928.3999999999999</ele><time>2026-04-19T17:14:36Z</time></trkpt><trkpt lat="36.80206230449715" lon="-107.93010841219527"><ele>1927.0</ele><time>2026-04-19T17:14:37Z</time></trkpt><trkpt lat="36.80198067135769" lon="-107.93012950423099"><ele>1927.0</ele><time>2026-04-19T17:14:38Z</time></trkpt><trkpt lat="36.80184466203609" lon="-107.9301609538691"><ele>1927.0</ele><time>2026-04-19T17:14:39Z</time></trkpt><trkpt lat="36.80167615428256" lon="-107.93019859583627"><ele>1927.0</ele><time>2026-04-19T17:14:40.001Z</time></trkpt><trkpt lat="36.801562943882224" lon="-107.93023104410295"><ele>1927.0</ele><time>2026-04-19T17:14:41.001Z</time></trkpt><trkpt lat="36.80146443781899" lon="-107.93027684030375"><ele>1926.6</ele><time>2026-04-19T17:14:42.001Z</time></trkpt><trkpt lat="36.801361772690015" lon="-107.93032671812485"><ele>1926.1999999999998</ele><time>2026-04-19T17:14:43.001Z</time></trkpt><trkpt lat="36.801280485181486" lon="-107.93037187166794"><ele>1925.8</ele><time>2026-04-19T17:14:44.001Z</time></trkpt><trkpt lat="36.80121174459812" lon="-107.93039235633442"><ele>1925.4</ele><time>2026-04-19T17:14:45.001Z</time></trkpt><trkpt lat="36.801130260117915" lon="-107.9303890962722"><ele>1925.0</ele><time>2026-04-19T17:14:46.001Z</time></trkpt><trkpt lat="36.8010204536589" lon="-107.93034178062909"><ele>1924.75</ele><time>2026-04-19T17:14:47.001Z</time></trkpt><trkpt lat="36.80089474671708" lon="-107.93027782609647"><ele>1924.5</ele><time>2026-04-19T17:14:48.001Z</time></trkpt><trkpt lat="36.80075134139964" lon="-107.93022263380279"><ele>1924.25</ele><time>2026-04-19T17:14:49.001Z</time></trkpt><trkpt lat="36.800613958800525" lon="-107.93017262459"><ele>1924.0</ele><time>2026-04-19T17:14:50.001Z</time></trkpt><trkpt lat="36.80049938142153" lon="-107.93012484901595"><ele>1924.0</ele><time>2026-04-19T17:14:51.001Z</time></trkpt><trkpt lat="36.800394098086336" lon="-107.93008532488221"><ele>1924.0</ele><time>2026-04-19T17:14:52.001Z</time></trkpt><trkpt lat="36.80028815495904" lon="-107.93005681286247"><ele>1924.0</ele><time>2026-04-19T17:14:53.001Z</time></trkpt><trkpt lat="36.80018366357983" lon="-107.9300293931208"><ele>1924.0</ele><time>2026-04-19T17:14:54.001Z</time></trkpt><trkpt lat="36.800075096374826" lon="-107.9300016320567"><ele>1924.0</ele><time>2026-04-19T17:14:55.001Z</time></trkpt><trkpt lat="36.79996839640032" lon="-107.92997528625409"><ele>1924.4</ele><time>2026-04-19T17:14:56.001Z</time></trkpt><trkpt lat="36.799872033564036" lon="-107.92997049525643"><ele>1924.8000000000002</ele><time>2026-04-19T17:14:57.001Z</time></trkpt><trkpt lat="36.79976789994369" lon="-107.92995999387372"><ele>1925.1999999999998</ele><time>2026-04-19T17:14:58.001Z</time></trkpt><trkpt lat="36.7996605424208" lon="-107.92994994446805"><ele>1925.6</ele><time>2026-04-19T17:14:59.001Z</time></trkpt><trkpt lat="36.79957402367834" lon="-107.92994559249128"><ele>1926.0</ele><time>2026-04-19T17:15:00.001Z</time></trkpt><trkpt lat="36.79948496235786" lon="-107.9299822829021"><ele>1925.6</ele><time>2026-04-19T17:15:01.001Z</time></trkpt><trkpt lat="36.7993663473805" lon="-107.93006795472733"><ele>1925.1999999999998</ele><time>2026-04-19T17:15:02.001Z</time></trkpt><trkpt lat="36.799283608728395" lon="-107.93011349801807"><ele>1924.8000000000002</ele><time>2026-04-19T17:15:03.001Z</time></trkpt><trkpt lat="36.79917573380261" lon="-107.93008137346902"><ele>1924.4</ele><time>2026-04-19T17:15:05.001Z</time></trkpt><trkpt lat="36.7990985673747" lon="-107.93002482260663"><ele>1924.0</ele><time>2026-04-19T17:15:06.001Z</time></trkpt><trkpt lat="36.799013480920614" lon="-107.92996448925928"><ele>1924.0000000000002</ele><time>2026-04-19T17:15:07.001Z</time></trkpt><trkpt lat="36.79893398898647" lon="-107.92994463625725"><ele>1924.0</ele><time>2026-04-19T17:15:08.001Z</time></trkpt><trkpt lat="36.79886728426179" lon="-107.92991871912278"><ele>1924.0</ele><time>2026-04-19T17:15:09.001Z</time></trkpt><trkpt lat="36.79876433304104" lon="-107.92989283662777"><ele>1924.0</ele><time>2026-04-19T17:15:11.001Z</time></trkpt><trkpt lat="36.79869242318738" lon="-107.92992987361009"><ele>1924.0000000000002</ele><time>2026-04-19T17:15:12.001Z</time></trkpt><trkpt lat="36.79861066393384" lon="-107.92993141660638"><ele>1924.0</ele><time>2026-04-19T17:15:13.001Z</time></trkpt><trkpt lat="36.79853221228317" lon="-107.92990965421201"><ele>1923.5000000000002</ele><time>2026-04-19T17:15:14.001Z</time></trkpt><trkpt lat="36.79846881479144" lon="-107.92988464806746"><ele>1923.0</ele><time>2026-04-19T17:15:15.001Z</time></trkpt><trkpt lat="36.798410106295165" lon="-107.92983083681509"><ele>1922.5</ele><time>2026-04-19T17:15:16.001Z</time></trkpt><trkpt lat="36.798319426263845" lon="-107.92976511399381"><ele>1922.0</ele><time>2026-04-19T17:15:17.001Z</time></trkpt><trkpt lat="36.79821897136882" lon="-107.92971867768755"><ele>1921.5000000000002</ele><time>2026-04-19T17:15:18.001Z</time></trkpt><trkpt lat="36.79813294503233" lon="-107.92968634212983"><ele>1921.0</ele><time>2026-04-19T17:15:19.001Z</time></trkpt><trkpt lat="36.79805266400001" lon="-107.9296475294821"><ele>1921.0</ele><time>2026-04-19T17:15:20.001Z</time></trkpt><trkpt lat="36.79793043816084" lon="-107.92960301369922"><ele>1921.0</ele><time>2026-04-19T17:15:21.001Z</time></trkpt><trkpt lat="36.79775822751344" lon="-107.92956657696999"><ele>1921.0</ele><time>2026-04-19T17:15:22.001Z</time></trkpt><trkpt lat="36.79760877082095" lon="-107.92951661566133"><ele>1921.25</ele><time>2026-04-19T17:15:23.001Z</time></trkpt><trkpt lat="36.797472851367374" lon="-107.92944247496808"><ele>1921.5</ele><time>2026-04-19T17:15:24.001Z</time></trkpt><trkpt lat="36.79733501634917" lon="-107.92935416040619"><ele>1921.75</ele><time>2026-04-19T17:15:25.001Z</time></trkpt><trkpt lat="36.79721640059002" lon="-107.92927440377696"><ele>1922.0</ele><time>2026-04-19T17:15:26.001Z</time></trkpt><trkpt lat="36.79711901157298" lon="-107.92920301980753"><ele>1922.0</ele><time>2026-04-19T17:15:27.001Z</time></trkpt><trkpt lat="36.79703447777099" lon="-107.92912913863968"><ele>1921.9999999999998</ele><time>2026-04-19T17:15:28.001Z</time></trkpt><trkpt lat="36.7969582756983" lon="-107.92905768045979"><ele>1921.9999999999998</ele><time>2026-04-19T17:15:29.001Z</time></trkpt><trkpt lat="36.79688246060939" lon="-107.92900547263274"><ele>1922.0</ele><time>2026-04-19T17:15:30.001Z</time></trkpt><trkpt lat="36.79679737114858" lon="-107.92897699493284"><ele>1922.0</ele><time>2026-04-19T17:15:31.001Z</time></trkpt><trkpt lat="36.79667338898636" lon="-107.92896848690744"><ele>1921.0</ele><time>2026-04-19T17:15:32.001Z</time></trkpt><trkpt lat="36.79650464266069" lon="-107.92899068608199"><ele>1920.0</ele><time>2026-04-19T17:15:33.001Z</time></trkpt><trkpt lat="36.79634078252474" lon="-107.92898281112832"><ele>1919.0</ele><time>2026-04-19T17:15:34.001Z</time></trkpt><trkpt lat="36.79619542724925" lon="-107.92897353318429"><ele>1919.0</ele><time>2026-04-19T17:15:35.001Z</time></trkpt><trkpt lat="36.796092632259565" lon="-107.92895939321801"><ele>1919.0</ele><time>2026-04-19T17:15:36.001Z</time></trkpt><trkpt lat="36.79600750496099" lon="-107.92891438068271"><ele>1919.0</ele><time>2026-04-19T17:15:37.001Z</time></trkpt><trkpt lat="36.7959184110953" lon="-107.92884483861398"><ele>1919.0</ele><time>2026-04-19T17:15:38.001Z</time></trkpt><trkpt lat="36.795804100995156" lon="-107.92874914949624"><ele>1919.0</ele><time>2026-04-19T17:15:39.001Z</time></trkpt><trkpt lat="36.7956776608854" lon="-107.92864979572549"><ele>1919.0</ele><time>2026-04-19T17:15:40.001Z</time></trkpt><trkpt lat="36.79553769093588" lon="-107.92854042965675"><ele>1919.0</ele><time>2026-04-19T17:15:41.001Z</time></trkpt><trkpt lat="36.79539721004508" lon="-107.9284206281043"><ele>1919.0</ele><time>2026-04-19T17:15:42.001Z</time></trkpt><trkpt lat="36.7952874444476" lon="-107.92832623133854"><ele>1919.0</ele><time>2026-04-19T17:15:43.001Z</time></trkpt><trkpt lat="36.79519268628001" lon="-107.92826037141597"><ele>1919.0</ele><time>2026-04-19T17:15:44.001Z</time></trkpt><trkpt lat="36.79508450124654" lon="-107.92821306433099"><ele>1919.0</ele><time>2026-04-19T17:15:45.001Z</time></trkpt><trkpt lat="36.794976841589296" lon="-107.92818408525903"><ele>1919.0</ele><time>2026-04-19T17:15:46.001Z</time></trkpt><trkpt lat="36.79489939287894" lon="-107.92815368730444"><ele>1919.0</ele><time>2026-04-19T17:15:47.001Z</time></trkpt><trkpt lat="36.79481328588162" lon="-107.92806810025102"><ele>1918.25</ele><time>2026-04-19T17:15:48.001Z</time></trkpt><trkpt lat="36.794694630939574" lon="-107.9279488725576"><ele>1917.5</ele><time>2026-04-19T17:15:49.001Z</time></trkpt><trkpt lat="36.794583265031136" lon="-107.92784296975536"><ele>1916.75</ele><time>2026-04-19T17:15:50.001Z</time></trkpt><trkpt lat="36.79449770189499" lon="-107.92778472731612"><ele>1916.0</ele><time>2026-04-19T17:15:51.001Z</time></trkpt><trkpt lat="36.794402850814" lon="-107.92774209889906"><ele>1916.0</ele><time>2026-04-19T17:15:52.001Z</time></trkpt><trkpt lat="36.79427371341423" lon="-107.92770086720445"><ele>1916.0</ele><time>2026-04-19T17:15:53.001Z</time></trkpt><trkpt lat="36.794130810233874" lon="-107.92763736431299"><ele>1916.0</ele><time>2026-04-19T17:15:54.001Z</time></trkpt><trkpt lat="36.79401197949666" lon="-107.92753880545592"><ele>1916.0</ele><time>2026-04-19T17:15:55.001Z</time></trkpt><trkpt lat="36.79392409410441" lon="-107.92746206294842"><ele>1916.0</ele><time>2026-04-19T17:15:56.001Z</time></trkpt><trkpt lat="36.79383708706058" lon="-107.92739358097138"><ele>1916.0</ele><time>2026-04-19T17:15:57.001Z</time></trkpt><trkpt lat="36.79373435188451" lon="-107.92732282187632"><ele>1916.0</ele><time>2026-04-19T17:15:58Z</time></trkpt><trkpt lat="36.79365357815669" lon="-107.9272746732831"><ele>1916.0</ele><time>2026-04-19T17:15:59Z</time></trkpt><trkpt lat="36.79353864684678" lon="-107.92723779235617"><ele>1916.0</ele><time>2026-04-19T17:16:01Z</time></trkpt><trkpt lat="36.79346667434585" lon="-107.92722654863378"><ele>1914.6666666666665</ele><time>2026-04-19T17:16:02Z</time></trkpt><trkpt lat="36.79339052239371" lon="-107.92722413707276"><ele>1913.3333333333333</ele><time>2026-04-19T17:16:03Z</time></trkpt><trkpt lat="36.79330755966312" lon="-107.92723259775127"><ele>1912.0</ele><time>2026-04-19T17:16:04Z</time></trkpt><trkpt lat="36.79323641887942" lon="-107.92724530250932"><ele>1910.6666666666665</ele><time>2026-04-19T17:16:05Z</time></trkpt><trkpt lat="36.79315585582216" lon="-107.92724994662483"><ele>1909.3333333333333</ele><time>2026-04-19T17:16:06Z</time></trkpt><trkpt lat="36.79305220446239" lon="-107.9272564697832"><ele>1908.0</ele><time>2026-04-19T17:16:07Z</time></trkpt><trkpt lat="36.79293782002663" lon="-107.92725015415677"><ele>1908.0</ele><time>2026-04-19T17:16:08Z</time></trkpt><trkpt lat="36.79287459819812" lon="-107.92724114791666"><ele>1908.0000000000002</ele><time>2026-04-19T17:16:09Z</time></trkpt><trkpt lat="36.79277227785478" lon="-107.92715377559291"><ele>1908.0000000000002</ele><time>2026-04-19T17:16:11Z</time></trkpt><trkpt lat="36.79272287936297" lon="-107.92705262470898"><ele>1908.0</ele><time>2026-04-19T17:16:12Z</time></trkpt><trkpt lat="36.79266360438023" lon="-107.92695413000877"><ele>1908.0</ele><time>2026-04-19T17:16:13Z</time></trkpt><trkpt lat="36.7926150324144" lon="-107.92689133571935"><ele>1907.4</ele><time>2026-04-19T17:16:14Z</time></trkpt><trkpt lat="36.792561523093184" lon="-107.92681035131311"><ele>1906.8000000000002</ele><time>2026-04-19T17:16:15Z</time></trkpt><trkpt lat="36.79251498084782" lon="-107.9267151732091"><ele>1906.2</ele><time>2026-04-19T17:16:16Z</time></trkpt><trkpt lat="36.79246124128053" lon="-107.92663377127523"><ele>1905.6</ele><time>2026-04-19T17:16:17Z</time></trkpt><trkpt lat="36.79238297306603" lon="-107.92657155462581"><ele>1905.0</ele><time>2026-04-19T17:16:18Z</time></trkpt><trkpt lat="36.79230140410817" lon="-107.92647684961166"><ele>1905.0</ele><time>2026-04-19T17:16:19Z</time></trkpt><trkpt lat="36.79222914565115" lon="-107.92636960069385"><ele>1905.0</ele><time>2026-04-19T17:16:20Z</time></trkpt><trkpt lat="36.79217469764445" lon="-107.92628425593499"><ele>1905.0</ele><time>2026-04-19T17:16:21Z</time></trkpt><trkpt lat="36.79209341722827" lon="-107.92625847534732"><ele>1905.0</ele><time>2026-04-19T17:16:22Z</time></trkpt><trkpt lat="36.792018343403285" lon="-107.92622158817784"><ele>1905.0</ele><time>2026-04-19T17:16:23Z</time></trkpt><trkpt lat="36.791938533419135" lon="-107.92614113517661"><ele>1905.0</ele><time>2026-04-19T17:16:24Z</time></trkpt><trkpt lat="36.7918539131832" lon="-107.92611251715105"><ele>1905.0</ele><time>2026-04-19T17:16:25Z</time></trkpt><trkpt lat="36.79178055307148" lon="-107.92609114418565"><ele>1905.0</ele><time>2026-04-19T17:16:26Z</time></trkpt><trkpt lat="36.79170914606046" lon="-107.9260691516373"><ele>1905.0</ele><time>2026-04-19T17:16:27Z</time></trkpt><trkpt lat="36.791623113091624" lon="-107.92608580761527"><ele>1905.0</ele><time>2026-04-19T17:16:28Z</time></trkpt><trkpt lat="36.79153151741106" lon="-107.92609966454542"><ele>1905.0</ele><time>2026-04-19T17:16:29Z</time></trkpt><trkpt lat="36.79146651953988" lon="-107.92611389438382"><ele>1904.0</ele><time>2026-04-19T17:16:30Z</time></trkpt><trkpt lat="36.79139798411667" lon="-107.92610930646953"><ele>1903.0</ele><time>2026-04-19T17:16:31Z</time></trkpt><trkpt lat="36.791298922413944" lon="-107.92607240166225"><ele>1902.0</ele><time>2026-04-19T17:16:32Z</time></trkpt><trkpt lat="36.791212349612586" lon="-107.92604718460515"><ele>1901.0</ele><time>2026-04-19T17:16:33Z</time></trkpt><trkpt lat="36.79107143076189" lon="-107.9260237768356"><ele>1900.0</ele><time>2026-04-19T17:16:35Z</time></trkpt><trkpt lat="36.79097563729755" lon="-107.92604130330409"><ele>1899.8333333333335</ele><time>2026-04-19T17:16:37Z</time></trkpt><trkpt lat="36.79091709510531" lon="-107.9260794640088"><ele>1899.6666666666667</ele><time>2026-04-19T17:16:38Z</time></trkpt><trkpt lat="36.79082821857641" lon="-107.92612212869547"><ele>1899.5</ele><time>2026-04-19T17:16:39Z</time></trkpt><trkpt lat="36.79074834803073" lon="-107.92616649900636"><ele>1899.3333333333335</ele><time>2026-04-19T17:16:40Z</time></trkpt><trkpt lat="36.79067772183271" lon="-107.92622075594474"><ele>1899.1666666666667</ele><time>2026-04-19T17:16:41Z</time></trkpt><trkpt lat="36.79062607097977" lon="-107.92627872761815"><ele>1899.0</ele><time>2026-04-19T17:16:42Z</time></trkpt><trkpt lat="36.790598165180825" lon="-107.9263540924018"><ele>1899.0</ele><time>2026-04-19T17:16:43Z</time></trkpt><trkpt lat="36.790554345779626" lon="-107.92646224335621"><ele>1899.0</ele><time>2026-04-19T17:16:44.001Z</time></trkpt><trkpt lat="36.790498301688864" lon="-107.92655910409013"><ele>1899.0</ele><time>2026-04-19T17:16:45.001Z</time></trkpt><trkpt lat="36.79045294188013" lon="-107.92662020188573"><ele>1899.0</ele><time>2026-04-19T17:16:46.001Z</time></trkpt><trkpt lat="36.79036146390802" lon="-107.92666400195377"><ele>1899.0</ele><time>2026-04-19T17:16:48.001Z</time></trkpt><trkpt lat="36.790270179716465" lon="-107.92668533760161"><ele>1899.0</ele><time>2026-04-19T17:16:49.001Z</time></trkpt><trkpt lat="36.79018133767443" lon="-107.92672428353359"><ele>1899.0</ele><time>2026-04-19T17:16:50.001Z</time></trkpt><trkpt lat="36.79007381872749" lon="-107.92673369034259"><ele>1899.0</ele><time>2026-04-19T17:16:52.001Z</time></trkpt><trkpt lat="36.79000590447743" lon="-107.92670289955515"><ele>1899.0</ele><time>2026-04-19T17:16:53.001Z</time></trkpt><trkpt lat="36.78989981014249" lon="-107.9266476322117"><ele>1899.0</ele><time>2026-04-19T17:16:54.001Z</time></trkpt><trkpt lat="36.78982457195368" lon="-107.9266082358532"><ele>1899.4</ele><time>2026-04-19T17:16:55.001Z</time></trkpt><trkpt lat="36.78969561201681" lon="-107.9266191752196"><ele>1899.8000000000002</ele><time>2026-04-19T17:16:57.001Z</time></trkpt><trkpt lat="36.78960335227798" lon="-107.92662913850988"><ele>1900.1999999999998</ele><time>2026-04-19T17:16:58.001Z</time></trkpt><trkpt lat="36.78953745105102" lon="-107.92662134132573"><ele>1900.6</ele><time>2026-04-19T17:16:59.001Z</time></trkpt><trkpt lat="36.78943497283717" lon="-107.92652150107757"><ele>1901.0</ele><time>2026-04-19T17:17:01.001Z</time></trkpt><trkpt lat="36.78936708630217" lon="-107.92645980542117"><ele>1899.8</ele><time>2026-04-19T17:17:02.001Z</time></trkpt><trkpt lat="36.78930712804014" lon="-107.9263841656059"><ele>1898.6</ele><time>2026-04-19T17:17:03.001Z</time></trkpt><trkpt lat="36.789235360341934" lon="-107.92629779199271"><ele>1897.4</ele><time>2026-04-19T17:17:04.001Z</time></trkpt><trkpt lat="36.78916977846423" lon="-107.92623965320026"><ele>1896.2</ele><time>2026-04-19T17:17:05.001Z</time></trkpt><trkpt lat="36.78907255736638" lon="-107.92617435406702"><ele>1895.0</ele><time>2026-04-19T17:17:06.001Z</time></trkpt><trkpt lat="36.788994801269055" lon="-107.92610456654496"><ele>1895.0</ele><time>2026-04-19T17:17:07.001Z</time></trkpt><trkpt lat="36.78892954993702" lon="-107.92602880707526"><ele>1895.0</ele><time>2026-04-19T17:17:08.001Z</time></trkpt><trkpt lat="36.788864213558" lon="-107.92593732489598"><ele>1895.0</ele><time>2026-04-19T17:17:09.001Z</time></trkpt><trkpt lat="36.788768123837954" lon="-107.92587878188641"><ele>1895.0</ele><time>2026-04-19T17:17:10.001Z</time></trkpt><trkpt lat="36.78867309868306" lon="-107.92584579611832"><ele>1895.0</ele><time>2026-04-19T17:17:11.001Z</time></trkpt><trkpt lat="36.788579033600584" lon="-107.92580726415937"><ele>1894.6</ele><time>2026-04-19T17:17:12.001Z</time></trkpt><trkpt lat="36.78850177052561" lon="-107.92577637651266"><ele>1894.2</ele><time>2026-04-19T17:17:13.001Z</time></trkpt><trkpt lat="36.78842268185846" lon="-107.92563863433055"><ele>1893.8000000000002</ele><time>2026-04-19T17:17:15.001Z</time></trkpt><trkpt lat="36.78838217331106" lon="-107.92553914060473"><ele>1893.4</ele><time>2026-04-19T17:17:16.001Z</time></trkpt><trkpt lat="36.788324503400986" lon="-107.9254514760622"><ele>1893.0</ele><time>2026-04-19T17:17:17.001Z</time></trkpt><trkpt lat="36.78823476525098" lon="-107.92537546435157"><ele>1893.0</ele><time>2026-04-19T17:17:18.001Z</time></trkpt><trkpt lat="36.78815827090365" lon="-107.92532044036506"><ele>1893.0000000000002</ele><time>2026-04-19T17:17:19.001Z</time></trkpt><trkpt lat="36.7880519173289" lon="-107.92523093102527"><ele>1893.0000000000002</ele><time>2026-04-19T17:17:21.001Z</time></trkpt><trkpt lat="36.78795111993193" lon="-107.92519373864712"><ele>1893.0</ele><time>2026-04-19T17:17:22.001Z</time></trkpt><trkpt lat="36.787868743028234" lon="-107.92519595399774"><ele>1893.0</ele><time>2026-04-19T17:17:23.001Z</time></trkpt><trkpt lat="36.78776400982198" lon="-107.92518733953564"><ele>1892.2</ele><time>2026-04-19T17:17:24.001Z</time></trkpt><trkpt lat="36.787662303382014" lon="-107.92514875280435"><ele>1891.4</ele><time>2026-04-19T17:17:25.001Z</time></trkpt><trkpt lat="36.78756361678511" lon="-107.92513414669419"><ele>1890.6000000000001</ele><time>2026-04-19T17:17:26.001Z</time></trkpt><trkpt lat="36.78749827564799" lon="-107.92517555813264"><ele>1889.8000000000002</ele><time>2026-04-19T17:17:27.001Z</time></trkpt><trkpt lat="36.78741672066246" lon="-107.92518305016998"><ele>1889.0</ele><time>2026-04-19T17:17:28.001Z</time></trkpt><trkpt lat="36.78731557769393" lon="-107.92515815098028"><ele>1889.0</ele><time>2026-04-19T17:17:29.001Z</time></trkpt><trkpt lat="36.787231525025454" lon="-107.92511472456977"><ele>1889.0</ele><time>2026-04-19T17:17:30.001Z</time></trkpt><trkpt lat="36.78716943954544" lon="-107.92508574032253"><ele>1889.0</ele><time>2026-04-19T17:17:31.001Z</time></trkpt><trkpt lat="36.787082186580015" lon="-107.92506230031339"><ele>1889.0</ele><time>2026-04-19T17:17:32.001Z</time></trkpt><trkpt lat="36.78701222919303" lon="-107.92508276445618"><ele>1889.0</ele><time>2026-04-19T17:17:33.001Z</time></trkpt><trkpt lat="36.78692867893583" lon="-107.92521312140147"><ele>1889.0</ele><time>2026-04-19T17:17:35.001Z</time></trkpt><trkpt lat="36.78689315841095" lon="-107.92534007544982"><ele>1889.0</ele><time>2026-04-19T17:17:36.001Z</time></trkpt><trkpt lat="36.78679651425688" lon="-107.92539402931574"><ele>1889.0</ele><time>2026-04-19T17:17:38.001Z</time></trkpt><trkpt lat="36.7866905649126" lon="-107.92534211738067"><ele>1889.0</ele><time>2026-04-19T17:17:39.001Z</time></trkpt><trkpt lat="36.78658043953398" lon="-107.9253139767095"><ele>1889.0</ele><time>2026-04-19T17:17:40.001Z</time></trkpt><trkpt lat="36.78648224301064" lon="-107.92533213985223"><ele>1888.4</ele><time>2026-04-19T17:17:41.001Z</time></trkpt><trkpt lat="36.78638663499633" lon="-107.92534445632788"><ele>1887.8000000000002</ele><time>2026-04-19T17:17:42.001Z</time></trkpt><trkpt lat="36.78628261786005" lon="-107.92531096024531"><ele>1887.1999999999998</ele><time>2026-04-19T17:17:43.001Z</time></trkpt><trkpt lat="36.786181915432074" lon="-107.92528457360272"><ele>1886.6</ele><time>2026-04-19T17:17:44.001Z</time></trkpt><trkpt lat="36.78607272868318" lon="-107.92526211753979"><ele>1886.0</ele><time>2026-04-19T17:17:45.001Z</time></trkpt><trkpt lat="36.7859922391991" lon="-107.92523446392946"><ele>1885.6</ele><time>2026-04-19T17:17:46.001Z</time></trkpt><trkpt lat="36.78592245232835" lon="-107.9251980791698"><ele>1885.1999999999998</ele><time>2026-04-19T17:17:47.001Z</time></trkpt><trkpt lat="36.78583464274189" lon="-107.92517824535071"><ele>1884.8000000000002</ele><time>2026-04-19T17:17:48.001Z</time></trkpt><trkpt lat="36.78573337655492" lon="-107.9252034793537"><ele>1884.4</ele><time>2026-04-19T17:17:49.001Z</time></trkpt><trkpt lat="36.78563759073593" lon="-107.92522562262177"><ele>1884.0</ele><time>2026-04-19T17:17:50.001Z</time></trkpt><trkpt lat="36.785536902686964" lon="-107.92523401075783"><ele>1884.0</ele><time>2026-04-19T17:17:51.001Z</time></trkpt><trkpt lat="36.78544521147893" lon="-107.92521606628463"><ele>1884.0</ele><time>2026-04-19T17:17:52.001Z</time></trkpt><trkpt lat="36.785385064071775" lon="-107.92518507070119"><ele>1884.0</ele><time>2026-04-19T17:17:53.001Z</time></trkpt><trkpt lat="36.785311822166996" lon="-107.92512436401692"><ele>1884.0</ele><time>2026-04-19T17:17:54.001Z</time></trkpt><trkpt lat="36.78520530829552" lon="-107.92506091687476"><ele>1884.0</ele><time>2026-04-19T17:17:55.001Z</time></trkpt><trkpt lat="36.78509493232382" lon="-107.92501480676809"><ele>1883.3333333333333</ele><time>2026-04-19T17:17:56.001Z</time></trkpt><trkpt lat="36.785014907525685" lon="-107.9249748422037"><ele>1882.6666666666665</ele><time>2026-04-19T17:17:57.001Z</time></trkpt><trkpt lat="36.78494653170056" lon="-107.92490935555391"><ele>1882.0</ele><time>2026-04-19T17:17:58.001Z</time></trkpt><trkpt lat="36.7848827437837" lon="-107.92487084843229"><ele>1881.3333333333333</ele><time>2026-04-19T17:17:59.001Z</time></trkpt><trkpt lat="36.784810799648575" lon="-107.92488254484093"><ele>1880.6666666666665</ele><time>2026-04-19T17:18:00.001Z</time></trkpt><trkpt lat="36.78472579785841" lon="-107.92489458643381"><ele>1880.0</ele><time>2026-04-19T17:18:01.001Z</time></trkpt><trkpt lat="36.78462197667285" lon="-107.92492840817755"><ele>1880.0</ele><time>2026-04-19T17:18:02.001Z</time></trkpt><trkpt lat="36.78450638386047" lon="-107.92494242488898"><ele>1880.0</ele><time>2026-04-19T17:18:03.001Z</time></trkpt><trkpt lat="36.784417794792425" lon="-107.9249145214267"><ele>1880.0</ele><time>2026-04-19T17:18:04Z</time></trkpt><trkpt lat="36.78431059423301" lon="-107.92488092625595"><ele>1880.0</ele><time>2026-04-19T17:18:05Z</time></trkpt><trkpt lat="36.7842075021151" lon="-107.92485538657195"><ele>1880.0</ele><time>2026-04-19T17:18:06Z</time></trkpt><trkpt lat="36.78409961483651" lon="-107.92485604901465"><ele>1879.4</ele><time>2026-04-19T17:18:07Z</time></trkpt><trkpt lat="36.7839795847295" lon="-107.92487537458769"><ele>1878.8</ele><time>2026-04-19T17:18:08Z</time></trkpt><trkpt lat="36.78388080933125" lon="-107.92489203059056"><ele>1878.1999999999998</ele><time>2026-04-19T17:18:09Z</time></trkpt><trkpt lat="36.78379079072773" lon="-107.92489707628457"><ele>1877.6</ele><time>2026-04-19T17:18:10Z</time></trkpt><trkpt lat="36.78369143317823" lon="-107.92488632188001"><ele>1877.0</ele><time>2026-04-19T17:18:11Z</time></trkpt><trkpt lat="36.78359346939247" lon="-107.92487974997111"><ele>1876.9999999999998</ele><time>2026-04-19T17:18:12Z</time></trkpt><trkpt lat="36.78350007084372" lon="-107.9249004968017"><ele>1877.0</ele><time>2026-04-19T17:18:13Z</time></trkpt><trkpt lat="36.783403479780866" lon="-107.92492403469933"><ele>1877.0</ele><time>2026-04-19T17:18:14Z</time></trkpt><trkpt lat="36.783326962819125" lon="-107.92493647270771"><ele>1877.0</ele><time>2026-04-19T17:18:15Z</time></trkpt><trkpt lat="36.78326019126815" lon="-107.92496857039998"><ele>1876.9999999999998</ele><time>2026-04-19T17:18:16Z</time></trkpt><trkpt lat="36.78318148136566" lon="-107.92504474338475"><ele>1877.0</ele><time>2026-04-19T17:18:17Z</time></trkpt><trkpt lat="36.7831010301891" lon="-107.92512128468805"><ele>1876.3333333333333</ele><time>2026-04-19T17:18:18Z</time></trkpt><trkpt lat="36.783031235281285" lon="-107.92516605272705"><ele>1875.6666666666665</ele><time>2026-04-19T17:18:19Z</time></trkpt><trkpt lat="36.78295073321795" lon="-107.92517318278458"><ele>1875.0</ele><time>2026-04-19T17:18:20Z</time></trkpt><trkpt lat="36.78285334283784" lon="-107.92516639039803"><ele>1874.3333333333335</ele><time>2026-04-19T17:18:21Z</time></trkpt><trkpt lat="36.782764027387806" lon="-107.92517821037134"><ele>1873.6666666666667</ele><time>2026-04-19T17:18:22Z</time></trkpt><trkpt lat="36.782677728166746" lon="-107.9252248259531"><ele>1873.0</ele><time>2026-04-19T17:18:23Z</time></trkpt><trkpt lat="36.78259246085441" lon="-107.9252740970619"><ele>1872.4</ele><time>2026-04-19T17:18:24Z</time></trkpt><trkpt lat="36.78252118207972" lon="-107.925305425049"><ele>1871.8000000000002</ele><time>2026-04-19T17:18:25Z</time></trkpt><trkpt lat="36.782443283509856" lon="-107.92532830994708"><ele>1871.2</ele><time>2026-04-19T17:18:26Z</time></trkpt><trkpt lat="36.78236043297594" lon="-107.92533892631147"><ele>1870.6</ele><time>2026-04-19T17:18:27Z</time></trkpt><trkpt lat="36.78225303295961" lon="-107.92527097919498"><ele>1870.0</ele><time>2026-04-19T17:18:29Z</time></trkpt><trkpt lat="36.78214386897856" lon="-107.92528462591822"><ele>1870.0000000000002</ele><time>2026-04-19T17:18:30Z</time></trkpt><trkpt lat="36.78204655313851" lon="-107.92533085439536"><ele>1870.0</ele><time>2026-04-19T17:18:31Z</time></trkpt><trkpt lat="36.78195315262639" lon="-107.92533406630591"><ele>1870.0</ele><time>2026-04-19T17:18:32Z</time></trkpt><trkpt lat="36.78185395074555" lon="-107.92533045585013"><ele>1870.0</ele><time>2026-04-19T17:18:33Z</time></trkpt><trkpt lat="36.78178848766738" lon="-107.92532916719004"><ele>1870.0000000000002</ele><time>2026-04-19T17:18:34Z</time></trkpt><trkpt lat="36.781712545325185" lon="-107.92535748562962"><ele>1870.0</ele><time>2026-04-19T17:18:35Z</time></trkpt><trkpt lat="36.78161323555175" lon="-107.92540321931189"><ele>1869.5000000000002</ele><time>2026-04-19T17:18:36Z</time></trkpt><trkpt lat="36.781514638595844" lon="-107.92544367598953"><ele>1869.0</ele><time>2026-04-19T17:18:37Z</time></trkpt><trkpt lat="36.78144248594139" lon="-107.92545269745348"><ele>1868.5</ele><time>2026-04-19T17:18:38Z</time></trkpt><trkpt lat="36.78137040387378" lon="-107.92545485261567"><ele>1868.0</ele><time>2026-04-19T17:18:39Z</time></trkpt><trkpt lat="36.78127850308696" lon="-107.92546261749997"><ele>1867.5000000000002</ele><time>2026-04-19T17:18:40Z</time></trkpt><trkpt lat="36.7811929170794" lon="-107.9254843558848"><ele>1867.0</ele><time>2026-04-19T17:18:41Z</time></trkpt><trkpt lat="36.781129744943065" lon="-107.92549022500928"><ele>1867.0</ele><time>2026-04-19T17:18:42Z</time></trkpt><trkpt lat="36.78103703696576" lon="-107.92547630974227"><ele>1866.9999999999998</ele><time>2026-04-19T17:18:43Z</time></trkpt><trkpt lat="36.780956853119456" lon="-107.92546597659265"><ele>1866.9999999999998</ele><time>2026-04-19T17:18:44Z</time></trkpt><trkpt lat="36.78089125204946" lon="-107.92547423745432"><ele>1867.0</ele><time>2026-04-19T17:18:45Z</time></trkpt><trkpt lat="36.78074147256307" lon="-107.92550360867862"><ele>1867.0</ele><time>2026-04-19T17:18:47Z</time></trkpt><trkpt lat="36.780627708439546" lon="-107.92551644380175"><ele>1867.1999999999998</ele><time>2026-04-19T17:18:48Z</time></trkpt><trkpt lat="36.780537647357804" lon="-107.92553310650102"><ele>1867.3999999999999</ele><time>2026-04-19T17:18:49.001Z</time></trkpt><trkpt lat="36.78046807127936" lon="-107.92557857253975"><ele>1867.6000000000001</ele><time>2026-04-19T17:18:50.001Z</time></trkpt><trkpt lat="36.78038462686192" lon="-107.92565808649627"><ele>1867.8000000000002</ele><time>2026-04-19T17:18:51.001Z</time></trkpt><trkpt lat="36.7803015482759" lon="-107.92574613513783"><ele>1868.0</ele><time>2026-04-19T17:18:52.001Z</time></trkpt><trkpt lat="36.78023748299418" lon="-107.92582562322151"><ele>1868.0</ele><time>2026-04-19T17:18:53.001Z</time></trkpt><trkpt lat="36.78018772986715" lon="-107.92587954068833"><ele>1868.0000000000002</ele><time>2026-04-19T17:18:54.001Z</time></trkpt><trkpt lat="36.7800391777631" lon="-107.92589802846203"><ele>1868.0000000000002</ele><time>2026-04-19T17:18:56.001Z</time></trkpt><trkpt lat="36.77993354474842" lon="-107.92592112753458"><ele>1868.0</ele><time>2026-04-19T17:18:57.001Z</time></trkpt><trkpt lat="36.7798328007997" lon="-107.92595181765647"><ele>1868.0</ele><time>2026-04-19T17:18:58.001Z</time></trkpt><trkpt lat="36.77974564418663" lon="-107.92598421869481"><ele>1867.6000000000001</ele><time>2026-04-19T17:18:59.001Z</time></trkpt><trkpt lat="36.779656315841834" lon="-107.92602531432327"><ele>1867.2000000000003</ele><time>2026-04-19T17:19:00.001Z</time></trkpt><trkpt lat="36.77958745777775" lon="-107.92608537261502"><ele>1866.8</ele><time>2026-04-19T17:19:01.001Z</time></trkpt><trkpt lat="36.779542060045806" lon="-107.92614381189671"><ele>1866.4</ele><time>2026-04-19T17:19:02.001Z</time></trkpt><trkpt lat="36.7794405001857" lon="-107.92621125250037"><ele>1866.0</ele><time>2026-04-19T17:19:04.001Z</time></trkpt><trkpt lat="36.77935655607972" lon="-107.9262745760001"><ele>1866.3333333333333</ele><time>2026-04-19T17:23:19.001Z</time></trkpt><trkpt lat="36.779295073000526" lon="-107.9263347559988"><ele>1866.6666666666665</ele><time>2026-04-19T17:23:20.001Z</time></trkpt><trkpt lat="36.779221222231314" lon="-107.92640285454608"><ele>1867.0</ele><time>2026-04-19T17:23:21.001Z</time></trkpt><trkpt lat="36.779166454863685" lon="-107.92646257732602"><ele>1867.3333333333333</ele><time>2026-04-19T17:23:22.001Z</time></trkpt><trkpt lat="36.77912003942143" lon="-107.92653633925454"><ele>1867.6666666666665</ele><time>2026-04-19T17:23:23.001Z</time></trkpt><trkpt lat="36.77907804274849" lon="-107.9266095844935"><ele>1868.0</ele><time>2026-04-19T17:23:24.001Z</time></trkpt><trkpt lat="36.77896711545337" lon="-107.92666134230157"><ele>1868.0</ele><time>2026-04-19T17:23:26.001Z</time></trkpt><trkpt lat="36.77886206212507" lon="-107.92665602671697"><ele>1868.0</ele><time>2026-04-19T17:23:27.001Z</time></trkpt><trkpt lat="36.77873991103623" lon="-107.92664796365432"><ele>1868.0</ele><time>2026-04-19T17:23:28.001Z</time></trkpt><trkpt lat="36.77862823341409" lon="-107.92663853851305"><ele>1868.0</ele><time>2026-04-19T17:23:29.001Z</time></trkpt><trkpt lat="36.77851519988778" lon="-107.92661218863047"><ele>1867.4</ele><time>2026-04-19T17:23:30.001Z</time></trkpt><trkpt lat="36.778409144611445" lon="-107.92658387000284"><ele>1866.8000000000002</ele><time>2026-04-19T17:23:31.001Z</time></trkpt><trkpt lat="36.77830491674061" lon="-107.92659143712442"><ele>1866.2</ele><time>2026-04-19T17:23:32.001Z</time></trkpt><trkpt lat="36.7781948637029" lon="-107.92662328847712"><ele>1865.6</ele><time>2026-04-19T17:23:33.001Z</time></trkpt><trkpt lat="36.77808891223434" lon="-107.92663745202958"><ele>1865.0</ele><time>2026-04-19T17:23:34.001Z</time></trkpt><trkpt lat="36.77802624695618" lon="-107.92660332797142"><ele>1865.0</ele><time>2026-04-19T17:23:35.001Z</time></trkpt><trkpt lat="36.77792809213604" lon="-107.92655175777391"><ele>1865.0</ele><time>2026-04-19T17:23:36.001Z</time></trkpt><trkpt lat="36.777799261344796" lon="-107.92652058289266"><ele>1865.0</ele><time>2026-04-19T17:23:37.001Z</time></trkpt><trkpt lat="36.77766449063759" lon="-107.92648384051768"><ele>1865.0</ele><time>2026-04-19T17:23:38.001Z</time></trkpt><trkpt lat="36.77754372400091" lon="-107.92645651279405"><ele>1864.25</ele><time>2026-04-19T17:23:39.001Z</time></trkpt><trkpt lat="36.77743523292351" lon="-107.92644280289957"><ele>1863.5</ele><time>2026-04-19T17:23:40.001Z</time></trkpt><trkpt lat="36.77732164585315" lon="-107.92643581828331"><ele>1862.75</ele><time>2026-04-19T17:23:41.001Z</time></trkpt><trkpt lat="36.77720155959513" lon="-107.92643556966061"><ele>1862.0</ele><time>2026-04-19T17:23:42.001Z</time></trkpt><trkpt lat="36.77708010717153" lon="-107.9264442605511"><ele>1862.0</ele><time>2026-04-19T17:23:43.001Z</time></trkpt><trkpt lat="36.77697448158696" lon="-107.92645273247089"><ele>1861.9999999999998</ele><time>2026-04-19T17:23:44.001Z</time></trkpt><trkpt lat="36.77688299853336" lon="-107.92646860504655"><ele>1861.9999999999998</ele><time>2026-04-19T17:23:45.001Z</time></trkpt><trkpt lat="36.77677007610934" lon="-107.92657985536094"><ele>1862.0</ele><time>2026-04-19T17:23:47.001Z</time></trkpt><trkpt lat="36.77668355836518" lon="-107.92664530701016"><ele>1862.0</ele><time>2026-04-19T17:23:48.001Z</time></trkpt><trkpt lat="36.776582595316235" lon="-107.9266791634452"><ele>1861.8333333333333</ele><time>2026-04-19T17:23:49.001Z</time></trkpt><trkpt lat="36.77648724649782" lon="-107.92669189532168"><ele>1861.6666666666665</ele><time>2026-04-19T17:23:50.001Z</time></trkpt><trkpt lat="36.776413551228266" lon="-107.92668323716416"><ele>1861.5</ele><time>2026-04-19T17:23:51.001Z</time></trkpt><trkpt lat="36.77633117838663" lon="-107.92664840284881"><ele>1861.3333333333335</ele><time>2026-04-19T17:23:52.001Z</time></trkpt><trkpt lat="36.7762447135632" lon="-107.92663331131519"><ele>1861.1666666666667</ele><time>2026-04-19T17:23:53.001Z</time></trkpt><trkpt lat="36.77616549087836" lon="-107.92668335564927"><ele>1861.0</ele><time>2026-04-19T17:23:54.001Z</time></trkpt><trkpt lat="36.77607377161551" lon="-107.92676613797664"><ele>1861.0</ele><time>2026-04-19T17:23:55.001Z</time></trkpt><trkpt lat="36.77596710617795" lon="-107.92684252017186"><ele>1861.0</ele><time>2026-04-19T17:23:56.001Z</time></trkpt><trkpt lat="36.77587696285414" lon="-107.92691701466491"><ele>1861.0</ele><time>2026-04-19T17:23:57.001Z</time></trkpt><trkpt lat="36.77579261561896" lon="-107.92699825229901"><ele>1861.0</ele><time>2026-04-19T17:23:58.001Z</time></trkpt><trkpt lat="36.77571881560274" lon="-107.92704854733961"><ele>1861.0</ele><time>2026-04-19T17:23:59.001Z</time></trkpt><trkpt lat="36.77563604590856" lon="-107.927078821305"><ele>1861.0000000000002</ele><time>2026-04-19T17:24:00.001Z</time></trkpt><trkpt lat="36.77556080397093" lon="-107.92709222842142"><ele>1861.0</ele><time>2026-04-19T17:24:01.001Z</time></trkpt><trkpt lat="36.77546166931951" lon="-107.92702900287541"><ele>1861.0</ele><time>2026-04-19T17:24:03.001Z</time></trkpt><trkpt lat="36.775404204227975" lon="-107.9269381307351"><ele>1861.0</ele><time>2026-04-19T17:24:04.001Z</time></trkpt><trkpt lat="36.77535475230484" lon="-107.92686277181026"><ele>1861.0000000000002</ele><time>2026-04-19T17:24:05.001Z</time></trkpt><trkpt lat="36.77529847101572" lon="-107.92681653777207"><ele>1861.0</ele><time>2026-04-19T17:24:06.001Z</time></trkpt><trkpt lat="36.77522949215458" lon="-107.92679235564255"><ele>1860.8333333333335</ele><time>2026-04-19T17:24:07.001Z</time></trkpt><trkpt lat="36.77515782846252" lon="-107.92675917640372"><ele>1860.6666666666667</ele><time>2026-04-19T17:24:08.001Z</time></trkpt><trkpt lat="36.775041029834824" lon="-107.92671912376957"><ele>1860.5</ele><time>2026-04-19T17:24:10.001Z</time></trkpt><trkpt lat="36.77496802238053" lon="-107.92667572778866"><ele>1860.3333333333335</ele><time>2026-04-19T17:24:11.001Z</time></trkpt><trkpt lat="36.774902218085884" lon="-107.92661379025726"><ele>1860.1666666666667</ele><time>2026-04-19T17:24:12.001Z</time></trkpt><trkpt lat="36.77486040016671" lon="-107.9265415335432"><ele>1860.0</ele><time>2026-04-19T17:24:13.001Z</time></trkpt><trkpt lat="36.774818133380705" lon="-107.92646663785612"><ele>1860.0</ele><time>2026-04-19T17:24:14.001Z</time></trkpt><trkpt lat="36.774718520187385" lon="-107.92641151446449"><ele>1860.0</ele><time>2026-04-19T17:24:16.001Z</time></trkpt><trkpt lat="36.774615564335" lon="-107.92635928603363"><ele>1860.0</ele><time>2026-04-19T17:24:18.001Z</time></trkpt><trkpt lat="36.77456824694455" lon="-107.92630033152452"><ele>1860.0</ele><time>2026-04-19T17:24:19.001Z</time></trkpt><trkpt lat="36.77451872147285" lon="-107.92624721519657"><ele>1860.0</ele><time>2026-04-19T17:24:20.001Z</time></trkpt><trkpt lat="36.77445687622621" lon="-107.92609380523554"><ele>1861.0</ele><time>2026-04-19T17:24:22Z</time></trkpt><trkpt lat="36.774341563685056" lon="-107.92606749326376"><ele>1862.0</ele><time>2026-04-19T17:24:24Z</time></trkpt><trkpt lat="36.774254294370365" lon="-107.92608189865908"><ele>1863.0</ele><time>2026-04-19T17:24:25Z</time></trkpt><trkpt lat="36.77415989875856" lon="-107.92607875716003"><ele>1864.0</ele><time>2026-04-19T17:24:26Z</time></trkpt><trkpt lat="36.77408663842684" lon="-107.92607900578768"><ele>1865.0</ele><time>2026-04-19T17:24:27Z</time></trkpt><trkpt lat="36.77400627981192" lon="-107.92610991634136"><ele>1864.9999999999998</ele><time>2026-04-19T17:24:28Z</time></trkpt><trkpt lat="36.77394080278158" lon="-107.92614276540105"><ele>1865.0</ele><time>2026-04-19T17:24:29Z</time></trkpt><trkpt lat="36.77387758904364" lon="-107.92622148257712"><ele>1865.0</ele><time>2026-04-19T17:24:31Z</time></trkpt><trkpt lat="36.773836327993266" lon="-107.92629800146442"><ele>1865.0</ele><time>2026-04-19T17:24:32Z</time></trkpt><trkpt lat="36.77378132771585" lon="-107.92638154433209"><ele>1864.9999999999998</ele><time>2026-04-19T17:24:33Z</time></trkpt><trkpt lat="36.77372432514496" lon="-107.92648595410326"><ele>1865.0</ele><time>2026-04-19T17:24:34Z</time></trkpt><trkpt lat="36.77365579088068" lon="-107.92656388248992"><ele>1865.0</ele><time>2026-04-19T17:24:35Z</time></trkpt><trkpt lat="36.77358412551503" lon="-107.92665174738015"><ele>1865.0</ele><time>2026-04-19T17:24:36Z</time></trkpt><trkpt lat="36.773513029689475" lon="-107.92673871981862"><ele>1865.0</ele><time>2026-04-19T17:24:37Z</time></trkpt><trkpt lat="36.77345534055544" lon="-107.92679223837281"><ele>1865.0</ele><time>2026-04-19T17:24:38Z</time></trkpt><trkpt lat="36.773372696938154" lon="-107.92684312305474"><ele>1865.0</ele><time>2026-04-19T17:24:39Z</time></trkpt><trkpt lat="36.77327566011154" lon="-107.92690286511097"><ele>1865.2</ele><time>2026-04-19T17:24:40Z</time></trkpt><trkpt lat="36.7732091732661" lon="-107.92695097077674"><ele>1865.4</ele><time>2026-04-19T17:24:41Z</time></trkpt><trkpt lat="36.773065400390955" lon="-107.92698114513361"><ele>1865.6</ele><time>2026-04-19T17:24:43Z</time></trkpt><trkpt lat="36.772968299394876" lon="-107.9269826215836"><ele>1865.8</ele><time>2026-04-19T17:24:44Z</time></trkpt><trkpt lat="36.772895998726604" lon="-107.92700822837097"><ele>1866.0</ele><time>2026-04-19T17:24:45Z</time></trkpt><trkpt lat="36.77283486720834" lon="-107.92706310159097"><ele>1866.0</ele><time>2026-04-19T17:24:46Z</time></trkpt><trkpt lat="36.772748487899214" lon="-107.9271388970683"><ele>1866.0</ele><time>2026-04-19T17:24:47Z</time></trkpt><trkpt lat="36.77264756821893" lon="-107.92722212123572"><ele>1866.0</ele><time>2026-04-19T17:24:48Z</time></trkpt><trkpt lat="36.77251571464027" lon="-107.92729793406187"><ele>1866.0</ele><time>2026-04-19T17:24:49Z</time></trkpt><trkpt lat="36.77239036592613" lon="-107.92736610074921"><ele>1865.6</ele><time>2026-04-19T17:24:50Z</time></trkpt><trkpt lat="36.772308622629836" lon="-107.92742589904269"><ele>1865.1999999999998</ele><time>2026-04-19T17:24:51Z</time></trkpt><trkpt lat="36.77222123401271" lon="-107.92750458127077"><ele>1864.8000000000002</ele><time>2026-04-19T17:24:53Z</time></trkpt><trkpt lat="36.7721219374865" lon="-107.92756433350642"><ele>1864.4</ele><time>2026-04-19T17:24:54Z</time></trkpt><trkpt lat="36.77201825128079" lon="-107.92765319422493"><ele>1864.0</ele><time>2026-04-19T17:24:55Z</time></trkpt><trkpt lat="36.77195097956264" lon="-107.92773130030277"><ele>1864.0000000000002</ele><time>2026-04-19T17:24:56Z</time></trkpt><trkpt lat="36.771885677955886" lon="-107.92781435924276"><ele>1864.0</ele><time>2026-04-19T17:24:57Z</time></trkpt><trkpt lat="36.77182231962022" lon="-107.92788525032458"><ele>1864.0</ele><time>2026-04-19T17:24:58Z</time></trkpt><trkpt lat="36.77175021982061" lon="-107.92793199655098"><ele>1864.0</ele><time>2026-04-19T17:24:59Z</time></trkpt><trkpt lat="36.771679977483615" lon="-107.92797510058068"><ele>1864.0000000000002</ele><time>2026-04-19T17:25:00Z</time></trkpt><trkpt lat="36.771625321898476" lon="-107.92809588797664"><ele>1864.0</ele><time>2026-04-19T17:25:02Z</time></trkpt><trkpt lat="36.771597457111746" lon="-107.9281708937569"><ele>1863.3333333333335</ele><time>2026-04-19T17:25:03Z</time></trkpt><trkpt lat="36.77155963251625" lon="-107.92823522592874"><ele>1862.6666666666667</ele><time>2026-04-19T17:25:04Z</time></trkpt><trkpt lat="36.77150423835431" lon="-107.92829216727259"><ele>1862.0</ele><time>2026-04-19T17:25:05Z</time></trkpt><trkpt lat="36.77141719830972" lon="-107.92835707407865"><ele>1861.3333333333335</ele><time>2026-04-19T17:25:06Z</time></trkpt><trkpt lat="36.77132270911094" lon="-107.92842943491867"><ele>1860.6666666666667</ele><time>2026-04-19T17:25:07Z</time></trkpt><trkpt lat="36.77124443188351" lon="-107.92850807216645"><ele>1860.0</ele><time>2026-04-19T17:25:08Z</time></trkpt><trkpt lat="36.771174196262" lon="-107.9285882527975"><ele>1860.0</ele><time>2026-04-19T17:25:09Z</time></trkpt><trkpt lat="36.771100582064975" lon="-107.92866789913997"><ele>1860.0</ele><time>2026-04-19T17:25:10Z</time></trkpt><trkpt lat="36.771002415282254" lon="-107.9287540029874"><ele>1860.0</ele><time>2026-04-19T17:25:11Z</time></trkpt><trkpt lat="36.77088254934522" lon="-107.92883686572408"><ele>1860.0</ele><time>2026-04-19T17:25:12Z</time></trkpt><trkpt lat="36.770767150212556" lon="-107.92891203490254"><ele>1860.2</ele><time>2026-04-19T17:25:13Z</time></trkpt><trkpt lat="36.77067483080212" lon="-107.92897289551497"><ele>1860.4</ele><time>2026-04-19T17:25:14Z</time></trkpt><trkpt lat="36.77060197291937" lon="-107.92902796436421"><ele>1860.6</ele><time>2026-04-19T17:25:15.001Z</time></trkpt><trkpt lat="36.7705514873701" lon="-107.9290967765941"><ele>1860.8</ele><time>2026-04-19T17:25:16.001Z</time></trkpt><trkpt lat="36.770517604971204" lon="-107.92919974447166"><ele>1861.0</ele><time>2026-04-19T17:25:17.001Z</time></trkpt><trkpt lat="36.77047636479663" lon="-107.92932604196774"><ele>1859.6666666666667</ele><time>2026-04-19T17:25:18.001Z</time></trkpt><trkpt lat="36.77041545812549" lon="-107.92944656358671"><ele>1858.3333333333335</ele><time>2026-04-19T17:25:19.001Z</time></trkpt><trkpt lat="36.77038482409813" lon="-107.92952984175705"><ele>1857.0</ele><time>2026-04-19T17:25:20.001Z</time></trkpt><trkpt lat="36.77036685231891" lon="-107.92960737400911"><ele>1855.6666666666665</ele><time>2026-04-19T17:25:21.001Z</time></trkpt><trkpt lat="36.770338769521736" lon="-107.92968995844208"><ele>1854.3333333333333</ele><time>2026-04-19T17:25:22.001Z</time></trkpt><trkpt lat="36.77028309363763" lon="-107.92979696664123"><ele>1853.0</ele><time>2026-04-19T17:25:23.001Z</time></trkpt><trkpt lat="36.77019877841421" lon="-107.92991683391546"><ele>1852.9999999999998</ele><time>2026-04-19T17:25:24.001Z</time></trkpt><trkpt lat="36.77012856227652" lon="-107.93002020668928"><ele>1853.0</ele><time>2026-04-19T17:25:25.001Z</time></trkpt><trkpt lat="36.77007194056315" lon="-107.93011350435529"><ele>1853.0</ele><time>2026-04-19T17:25:26.001Z</time></trkpt><trkpt lat="36.770019965371965" lon="-107.93019818032812"><ele>1853.0</ele><time>2026-04-19T17:25:27.001Z</time></trkpt><trkpt lat="36.7699657411009" lon="-107.93026786234188"><ele>1852.9999999999998</ele><time>2026-04-19T17:25:28.001Z</time></trkpt><trkpt lat="36.769903932027354" lon="-107.9303177367088"><ele>1853.0</ele><time>2026-04-19T17:25:29.001Z</time></trkpt><trkpt lat="36.76984051470045" lon="-107.93036255701895"><ele>1852.9999999999998</ele><time>2026-04-19T17:25:30.001Z</time></trkpt><trkpt lat="36.76977530167206" lon="-107.93039982456847"><ele>1853.0</ele><time>2026-04-19T17:25:31.001Z</time></trkpt><trkpt lat="36.76969578832322" lon="-107.9304068481279"><ele>1853.0</ele><time>2026-04-19T17:25:32.001Z</time></trkpt><trkpt lat="36.76960840147801" lon="-107.93042349092458"><ele>1853.0</ele><time>2026-04-19T17:25:33.001Z</time></trkpt><trkpt lat="36.76952740163469" lon="-107.93045081255434"><ele>1852.9999999999998</ele><time>2026-04-19T17:25:34.001Z</time></trkpt><trkpt lat="36.76943165858856" lon="-107.93048326921529"><ele>1853.0</ele><time>2026-04-19T17:25:35.001Z</time></trkpt><trkpt lat="36.769316590560926" lon="-107.93051340542229"><ele>1852.8000000000002</ele><time>2026-04-19T17:25:36.001Z</time></trkpt><trkpt lat="36.76920940648517" lon="-107.93054626969128"><ele>1852.6000000000001</ele><time>2026-04-19T17:25:37.001Z</time></trkpt><trkpt lat="36.769097202515795" lon="-107.9306036738341"><ele>1852.3999999999999</ele><time>2026-04-19T17:25:38.001Z</time></trkpt><trkpt lat="36.76899300158395" lon="-107.9306414340047"><ele>1852.1999999999998</ele><time>2026-04-19T17:25:39.001Z</time></trkpt><trkpt lat="36.768931220159295" lon="-107.93066847874418"><ele>1852.0</ele><time>2026-04-19T17:25:40.001Z</time></trkpt><trkpt lat="36.768844039696816" lon="-107.93074595580096"><ele>1852.0000000000002</ele><time>2026-04-19T17:25:42.001Z</time></trkpt><trkpt lat="36.7687748074" lon="-107.93075912645271"><ele>1852.0</ele><time>2026-04-19T17:25:43.001Z</time></trkpt><trkpt lat="36.768697277225435" lon="-107.93079333462293"><ele>1852.0</ele><time>2026-04-19T17:25:44.001Z</time></trkpt><trkpt lat="36.76860149245772" lon="-107.93083720259361"><ele>1852.0</ele><time>2026-04-19T17:25:46.001Z</time></trkpt><trkpt lat="36.76852620985923" lon="-107.93084260524051"><ele>1852.0000000000002</ele><time>2026-04-19T17:25:47.001Z</time></trkpt><trkpt lat="36.76844281208417" lon="-107.93086561329899"><ele>1852.0</ele><time>2026-04-19T17:25:48.001Z</time></trkpt><trkpt lat="36.768363838925346" lon="-107.93089339684005"><ele>1850.0000000000002</ele><time>2026-04-19T17:25:49.001Z</time></trkpt><trkpt lat="36.7682884691482" lon="-107.93092209356813"><ele>1848.0</ele><time>2026-04-19T17:25:50.001Z</time></trkpt><trkpt lat="36.76822335627658" lon="-107.93097120901629"><ele>1846.0</ele><time>2026-04-19T17:25:51.001Z</time></trkpt><trkpt lat="36.76817379059313" lon="-107.93103031895502"><ele>1844.0</ele><time>2026-04-19T17:25:52.001Z</time></trkpt><trkpt lat="36.768138301351" lon="-107.9311030945928"><ele>1842.0000000000002</ele><time>2026-04-19T17:25:53.001Z</time></trkpt><trkpt lat="36.768115647178995" lon="-107.93119909721568"><ele>1840.0</ele><time>2026-04-19T17:25:54.001Z</time></trkpt><trkpt lat="36.76806973152925" lon="-107.93128186952242"><ele>1840.0</ele><time>2026-04-19T17:25:55.001Z</time></trkpt><trkpt lat="36.768007994952065" lon="-107.93130389953951"><ele>1840.0</ele><time>2026-04-19T17:25:56.001Z</time></trkpt><trkpt lat="36.767876219256046" lon="-107.93132169640377"><ele>1840.0</ele><time>2026-04-19T17:25:58.001Z</time></trkpt><trkpt lat="36.76780210051286" lon="-107.93133120625252"><ele>1840.0</ele><time>2026-04-19T17:25:59.001Z</time></trkpt><trkpt lat="36.76772806756275" lon="-107.9313218272827"><ele>1840.0</ele><time>2026-04-19T17:26:00.001Z</time></trkpt><trkpt lat="36.767626321322005" lon="-107.93126864399629"><ele>1838.5</ele><time>2026-04-19T17:26:01.001Z</time></trkpt><trkpt lat="36.76750197697915" lon="-107.93119751613266"><ele>1837.0</ele><time>2026-04-19T17:26:02.001Z</time></trkpt><trkpt lat="36.76739462567238" lon="-107.93113129136273"><ele>1835.5</ele><time>2026-04-19T17:26:03.001Z</time></trkpt><trkpt lat="36.76729308649501" lon="-107.93106902790238"><ele>1834.0</ele><time>2026-04-19T17:26:04.001Z</time></trkpt><trkpt lat="36.76720248511102" lon="-107.93101650263564"><ele>1834.0000000000002</ele><time>2026-04-19T17:26:05.001Z</time></trkpt><trkpt lat="36.76711060780364" lon="-107.93097139872555"><ele>1834.0</ele><time>2026-04-19T17:26:06.001Z</time></trkpt><trkpt lat="36.76702752897713" lon="-107.93094523067279"><ele>1834.0</ele><time>2026-04-19T17:26:07.001Z</time></trkpt><trkpt lat="36.766944267097145" lon="-107.93093186711832"><ele>1834.0</ele><time>2026-04-19T17:26:08.001Z</time></trkpt><trkpt lat="36.76685773767253" lon="-107.93089753035133"><ele>1834.0000000000002</ele><time>2026-04-19T17:26:09.001Z</time></trkpt><trkpt lat="36.766785685576856" lon="-107.93085414464723"><ele>1834.0</ele><time>2026-04-19T17:26:10.001Z</time></trkpt><trkpt lat="36.76671791240952" lon="-107.93081245965719"><ele>1832.8333333333335</ele><time>2026-04-19T17:26:11.001Z</time></trkpt><trkpt lat="36.76667022791343" lon="-107.93075257650254"><ele>1831.6666666666667</ele><time>2026-04-19T17:26:12.001Z</time></trkpt><trkpt lat="36.76665411485964" lon="-107.93067342812765"><ele>1830.5</ele><time>2026-04-19T17:26:13.001Z</time></trkpt><trkpt lat="36.766651837571494" lon="-107.93057686554711"><ele>1829.3333333333335</ele><time>2026-04-19T17:26:14.001Z</time></trkpt><trkpt lat="36.76663561206249" lon="-107.93050075911297"><ele>1828.1666666666667</ele><time>2026-04-19T17:26:15.001Z</time></trkpt><trkpt lat="36.76651095138175" lon="-107.93037859099768"><ele>1827.0</ele><time>2026-04-19T17:26:17.001Z</time></trkpt><trkpt lat="36.76641974139393" lon="-107.93032254050071"><ele>1827.0</ele><time>2026-04-19T17:26:18.001Z</time></trkpt><trkpt lat="36.76630776709638" lon="-107.93030211058745"><ele>1827.0</ele><time>2026-04-19T17:26:19.001Z</time></trkpt><trkpt lat="36.76616851045583" lon="-107.93027897412277"><ele>1827.0</ele><time>2026-04-19T17:26:20.001Z</time></trkpt><trkpt lat="36.766015425444536" lon="-107.93024747929519"><ele>1827.0</ele><time>2026-04-19T17:26:21.001Z</time></trkpt><trkpt lat="36.76586604609714" lon="-107.93020913654217"><ele>1826.0</ele><time>2026-04-19T17:26:22.001Z</time></trkpt><trkpt lat="36.76575913544789" lon="-107.93018447246571"><ele>1824.9999999999998</ele><time>2026-04-19T17:26:23.001Z</time></trkpt><trkpt lat="36.76568860672349" lon="-107.93017751986795"><ele>1823.9999999999998</ele><time>2026-04-19T17:26:24.001Z</time></trkpt><trkpt lat="36.76560933295936" lon="-107.93024304926547"><ele>1823.0</ele><time>2026-04-19T17:26:26.001Z</time></trkpt><trkpt lat="36.765553845023" lon="-107.93041004410269"><ele>1822.0</ele><time>2026-04-19T17:26:28Z</time></trkpt><trkpt lat="36.76549242743161" lon="-107.93049402871362"><ele>1822.0</ele><time>2026-04-19T17:26:29Z</time></trkpt><trkpt lat="36.765392706412946" lon="-107.93056935836908"><ele>1821.9999999999998</ele><time>2026-04-19T17:26:30Z</time></trkpt><trkpt lat="36.765302461169334" lon="-107.9306403163508"><ele>1821.9999999999998</ele><time>2026-04-19T17:26:31Z</time></trkpt><trkpt lat="36.76526620639351" lon="-107.93073773903184"><ele>1822.0</ele><time>2026-04-19T17:26:32Z</time></trkpt><trkpt lat="36.76521266992853" lon="-107.93087303386027"><ele>1822.0</ele><time>2026-04-19T17:26:33Z</time></trkpt><trkpt lat="36.76514212716446" lon="-107.93099550693081"><ele>1822.1999999999998</ele><time>2026-04-19T17:26:34Z</time></trkpt><trkpt lat="36.7650641561173" lon="-107.93108329728868"><ele>1822.3999999999999</ele><time>2026-04-19T17:26:35Z</time></trkpt><trkpt lat="36.76500901007883" lon="-107.93115233445884"><ele>1822.6000000000001</ele><time>2026-04-19T17:26:36Z</time></trkpt><trkpt lat="36.764930514009045" lon="-107.93117373945765"><ele>1822.8000000000002</ele><time>2026-04-19T17:26:37Z</time></trkpt><trkpt lat="36.76482722695012" lon="-107.93117241424936"><ele>1823.0</ele><time>2026-04-19T17:26:38Z</time></trkpt><trkpt lat="36.76472203186617" lon="-107.9311973774581"><ele>1823.0</ele><time>2026-04-19T17:26:39Z</time></trkpt><trkpt lat="36.76460471411765" lon="-107.93126465122002"><ele>1823.0</ele><time>2026-04-19T17:26:40Z</time></trkpt><trkpt lat="36.7644502848697" lon="-107.93134146347697"><ele>1823.0</ele><time>2026-04-19T17:26:41Z</time></trkpt><trkpt lat="36.76428649667006" lon="-107.9313905445238"><ele>1821.5</ele><time>2026-04-19T17:26:42Z</time></trkpt><trkpt lat="36.764168222290905" lon="-107.93143494127789"><ele>1820.0</ele><time>2026-04-19T17:26:43Z</time></trkpt><trkpt lat="36.76405564913963" lon="-107.93146445128643"><ele>1818.5</ele><time>2026-04-19T17:26:44Z</time></trkpt><trkpt lat="36.7639507763671" lon="-107.93147269246221"><ele>1817.0</ele><time>2026-04-19T17:26:45Z</time></trkpt><trkpt lat="36.763831490354825" lon="-107.93145769164447"><ele>1817.0</ele><time>2026-04-19T17:26:46Z</time></trkpt><trkpt lat="36.76370110196372" lon="-107.93144176452043"><ele>1816.9999999999998</ele><time>2026-04-19T17:26:47Z</time></trkpt><trkpt lat="36.76359748167013" lon="-107.93145838262649"><ele>1816.9999999999998</ele><time>2026-04-19T17:26:48Z</time></trkpt><trkpt lat="36.76351980538466" lon="-107.9315037694548"><ele>1817.0</ele><time>2026-04-19T17:26:49Z</time></trkpt><trkpt lat="36.76344457026198" lon="-107.93158316833866"><ele>1817.0</ele><time>2026-04-19T17:26:50Z</time></trkpt><trkpt lat="36.763347991519844" lon="-107.93168750552856"><ele>1815.75</ele><time>2026-04-19T17:26:51Z</time></trkpt><trkpt lat="36.76320720682237" lon="-107.93177802450016"><ele>1814.5</ele><time>2026-04-19T17:26:52Z</time></trkpt><trkpt lat="36.763058296445585" lon="-107.93184925691874"><ele>1813.25</ele><time>2026-04-19T17:26:53Z</time></trkpt><trkpt lat="36.76296136493454" lon="-107.93193359506708"><ele>1812.0</ele><time>2026-04-19T17:26:54Z</time></trkpt><trkpt lat="36.76287709984088" lon="-107.93202721143622"><ele>1812.0</ele><time>2026-04-19T17:26:55Z</time></trkpt><trkpt lat="36.76277643470726" lon="-107.93214857524796"><ele>1811.9999999999998</ele><time>2026-04-19T17:26:56Z</time></trkpt><trkpt lat="36.762685685468966" lon="-107.93227198418371"><ele>1811.9999999999998</ele><time>2026-04-19T17:26:57Z</time></trkpt><trkpt lat="36.76262722328701" lon="-107.93236209610048"><ele>1812.0</ele><time>2026-04-19T17:26:58Z</time></trkpt><trkpt lat="36.762590977240414" lon="-107.93242670167243"><ele>1812.0</ele><time>2026-04-19T17:26:59Z</time></trkpt><trkpt lat="36.76262424473822" lon="-107.93250381039266"><ele>1812.0</ele><time>2026-04-19T17:27:03Z</time></trkpt><trkpt lat="36.76263172305995" lon="-107.93260682421696"><ele>1812.0</ele><time>2026-04-19T17:27:04Z</time></trkpt><trkpt lat="36.762628806616725" lon="-107.9327330427157"><ele>1812.0</ele><time>2026-04-19T17:27:05Z</time></trkpt><trkpt lat="36.762632044462464" lon="-107.93283739383703"><ele>1812.0</ele><time>2026-04-19T17:27:06Z</time></trkpt><trkpt lat="36.76267290024002" lon="-107.9329380139545"><ele>1812.0</ele><time>2026-04-19T17:27:08Z</time></trkpt><trkpt lat="36.76272056679419" lon="-107.93301151334241"><ele>1812.0</ele><time>2026-04-19T17:27:09Z</time></trkpt><trkpt lat="36.762797308691404" lon="-107.93307298881695"><ele>1813.3999999999999</ele><time>2026-04-19T17:27:10Z</time></trkpt><trkpt lat="36.76287723283178" lon="-107.93309218186134"><ele>1814.7999999999997</ele><time>2026-04-19T17:27:11Z</time></trkpt><trkpt lat="36.76297883830387" lon="-107.93309856919127"><ele>1816.2</ele><time>2026-04-19T17:27:12Z</time></trkpt><trkpt lat="36.76309617129993" lon="-107.9331423115242"><ele>1817.6</ele><time>2026-04-19T17:27:13Z</time></trkpt><trkpt lat="36.763200386703396" lon="-107.93321196162921"><ele>1819.0</ele><time>2026-04-19T17:27:14Z</time></trkpt><trkpt lat="36.7632631909787" lon="-107.93327892172945"><ele>1820.4</ele><time>2026-04-19T17:27:15Z</time></trkpt><trkpt lat="36.763258337637126" lon="-107.9334037139973"><ele>1821.8000000000002</ele><time>2026-04-19T17:27:18Z</time></trkpt><trkpt lat="36.763286231402894" lon="-107.93353457999474"><ele>1823.1999999999998</ele><time>2026-04-19T17:27:19Z</time></trkpt><trkpt lat="36.763283014407975" lon="-107.9336302048505"><ele>1824.6</ele><time>2026-04-19T17:27:20Z</time></trkpt><trkpt lat="36.76325417510044" lon="-107.93372495878018"><ele>1826.0</ele><time>2026-04-19T17:27:22.001Z</time></trkpt><trkpt lat="36.763295580036164" lon="-107.93389648455766"><ele>1826.0</ele><time>2026-04-19T17:27:25.001Z</time></trkpt><trkpt lat="36.76335799349042" lon="-107.93405251171804"><ele>1826.0</ele><time>2026-04-19T17:27:26.001Z</time></trkpt><trkpt lat="36.76335082154767" lon="-107.93418595162483"><ele>1826.0</ele><time>2026-04-19T17:27:28.001Z</time></trkpt><trkpt lat="36.76333100890545" lon="-107.93431391845064"><ele>1826.0</ele><time>2026-04-19T17:27:30.001Z</time></trkpt><trkpt lat="36.76336040074848" lon="-107.93443590363395"><ele>1826.8</ele><time>2026-04-19T17:27:32.001Z</time></trkpt><trkpt lat="36.76342252115036" lon="-107.93450486287844"><ele>1827.6</ele><time>2026-04-19T17:27:34.001Z</time></trkpt><trkpt lat="36.76350486133855" lon="-107.93462592887838"><ele>1828.4</ele><time>2026-04-19T17:27:36.001Z</time></trkpt><trkpt lat="36.76352667816979" lon="-107.93470059286577"><ele>1829.2</ele><time>2026-04-19T17:27:37.001Z</time></trkpt><trkpt lat="36.76357114972245" lon="-107.93485355439847"><ele>1830.0</ele><time>2026-04-19T17:27:39.001Z</time></trkpt><trkpt lat="36.76359996563008" lon="-107.93492972156109"><ele>1830.2857142857144</ele><time>2026-04-19T17:27:40.001Z</time></trkpt><trkpt lat="36.76362588303196" lon="-107.93500801435263"><ele>1830.571428571429</ele><time>2026-04-19T17:27:41.001Z</time></trkpt><trkpt lat="36.76364902026445" lon="-107.93509140933108"><ele>1830.857142857143</ele><time>2026-04-19T17:27:42.001Z</time></trkpt><trkpt lat="36.76368283756042" lon="-107.93516990091972"><ele>1831.1428571428573</ele><time>2026-04-19T17:27:43.001Z</time></trkpt><trkpt lat="36.76372524299048" lon="-107.93524841908322"><ele>1831.4285714285716</ele><time>2026-04-19T17:27:44.001Z</time></trkpt><trkpt lat="36.763772509730494" lon="-107.93533762480136"><ele>1831.7142857142858</ele><time>2026-04-19T17:27:45.001Z</time></trkpt><trkpt lat="36.76381870525235" lon="-107.935415468499"><ele>1832.0</ele><time>2026-04-19T17:27:46.001Z</time></trkpt><trkpt lat="36.76384607969016" lon="-107.9355056301169"><ele>1832.6</ele><time>2026-04-19T17:27:47.001Z</time></trkpt><trkpt lat="36.76384614296405" lon="-107.9356054939889"><ele>1833.1999999999998</ele><time>2026-04-19T17:27:48.001Z</time></trkpt><trkpt lat="36.763778412674974" lon="-107.93574905181754"><ele>1833.8</ele><time>2026-04-19T17:27:50.001Z</time></trkpt><trkpt lat="36.76371469029852" lon="-107.93585064363494"><ele>1834.4</ele><time>2026-04-19T17:27:51.001Z</time></trkpt><trkpt lat="36.76365442331395" lon="-107.93595402042784"><ele>1835.0</ele><time>2026-04-19T17:27:52.001Z</time></trkpt><trkpt lat="36.76361552400045" lon="-107.93603926208999"><ele>1835.0</ele><time>2026-04-19T17:27:53.001Z</time></trkpt><trkpt lat="36.763596062411864" lon="-107.93614583388307"><ele>1835.0</ele><time>2026-04-19T17:27:55.001Z</time></trkpt><trkpt lat="36.76358849612195" lon="-107.93626686167195"><ele>1835.0</ele><time>2026-04-19T17:27:58.001Z</time></trkpt><trkpt lat="36.76358760328304" lon="-107.93644455095257"><ele>1835.0</ele><time>2026-04-19T17:28:00.001Z</time></trkpt><trkpt lat="36.76355956531686" lon="-107.93651862491485"><ele>1835.0</ele><time>2026-04-19T17:28:01.001Z</time></trkpt><trkpt lat="36.763529495686285" lon="-107.93661437113074"><ele>1834.8</ele><time>2026-04-19T17:28:02.001Z</time></trkpt><trkpt lat="36.76349231393113" lon="-107.93671627149229"><ele>1834.6</ele><time>2026-04-19T17:28:03.001Z</time></trkpt><trkpt lat="36.76345658758796" lon="-107.93682850901425"><ele>1834.4</ele><time>2026-04-19T17:28:04.001Z</time></trkpt><trkpt lat="36.76342246082704" lon="-107.93695136751752"><ele>1834.2</ele><time>2026-04-19T17:28:05.001Z</time></trkpt><trkpt lat="36.76336953383478" lon="-107.93704971084686"><ele>1834.0</ele><time>2026-04-19T17:28:06.001Z</time></trkpt><trkpt lat="36.76327572699984" lon="-107.93715217042538"><ele>1834.0</ele><time>2026-04-19T17:28:07.001Z</time></trkpt><trkpt lat="36.76317940731886" lon="-107.93725683447194"><ele>1834.0</ele><time>2026-04-19T17:28:08.001Z</time></trkpt><trkpt lat="36.76308726881356" lon="-107.93735944419807"><ele>1834.0</ele><time>2026-04-19T17:28:09.001Z</time></trkpt><trkpt lat="36.76301216539188" lon="-107.93744125403087"><ele>1834.0</ele><time>2026-04-19T17:28:10.001Z</time></trkpt><trkpt lat="36.76290135860058" lon="-107.9375437704103"><ele>1833.0</ele><time>2026-04-19T17:28:11.001Z</time></trkpt><trkpt lat="36.76279556766239" lon="-107.93765314679769"><ele>1832.0</ele><time>2026-04-19T17:28:12.001Z</time></trkpt><trkpt lat="36.76267508664501" lon="-107.9377836533291"><ele>1831.0</ele><time>2026-04-19T17:28:13.001Z</time></trkpt><trkpt lat="36.76256786995592" lon="-107.93789162042434"><ele>1830.0</ele><time>2026-04-19T17:28:14.001Z</time></trkpt><trkpt lat="36.76246345670349" lon="-107.93799297958094"><ele>1829.75</ele><time>2026-04-19T17:28:15.001Z</time></trkpt><trkpt lat="36.76236413954392" lon="-107.93808164802743"><ele>1829.5</ele><time>2026-04-19T17:28:16.001Z</time></trkpt><trkpt lat="36.762255119128554" lon="-107.93816099032763"><ele>1829.25</ele><time>2026-04-19T17:28:17.001Z</time></trkpt><trkpt lat="36.762163094668146" lon="-107.9382455878675"><ele>1829.0</ele><time>2026-04-19T17:28:18.001Z</time></trkpt><trkpt lat="36.76208139215257" lon="-107.93834830645959"><ele>1828.0</ele><time>2026-04-19T17:28:19.001Z</time></trkpt><trkpt lat="36.76202719495683" lon="-107.938432846664"><ele>1827.0</ele><time>2026-04-19T17:28:20.001Z</time></trkpt><trkpt lat="36.761982113960855" lon="-107.93857586793712"><ele>1826.0</ele><time>2026-04-19T17:28:22.001Z</time></trkpt><trkpt lat="36.76198683017707" lon="-107.93868564853177"><ele>1825.0</ele><time>2026-04-19T17:28:23.001Z</time></trkpt><trkpt lat="36.76198151766108" lon="-107.93879847774804"><ele>1824.0</ele><time>2026-04-19T17:28:24.001Z</time></trkpt><trkpt lat="36.76197592234066" lon="-107.93890198526603"><ele>1824.0</ele><time>2026-04-19T17:28:25.001Z</time></trkpt><trkpt lat="36.76196167722304" lon="-107.93899688964991"><ele>1824.0</ele><time>2026-04-19T17:28:26.001Z</time></trkpt><trkpt lat="36.76193193716598" lon="-107.93907433027948"><ele>1824.0</ele><time>2026-04-19T17:28:27.001Z</time></trkpt><trkpt lat="36.76189605617218" lon="-107.93920314577136"><ele>1824.0</ele><time>2026-04-19T17:28:29.001Z</time></trkpt><trkpt lat="36.76190966778858" lon="-107.93931997120637"><ele>1824.0</ele><time>2026-04-19T17:28:30.001Z</time></trkpt><trkpt lat="36.76192265247116" lon="-107.93941848853817"><ele>1824.0</ele><time>2026-04-19T17:28:31.001Z</time></trkpt><trkpt lat="36.76193129219343" lon="-107.93950189406947"><ele>1823.142857142857</ele><time>2026-04-19T17:28:32.001Z</time></trkpt><trkpt lat="36.76193341754256" lon="-107.93958577002985"><ele>1822.2857142857142</ele><time>2026-04-19T17:28:33.001Z</time></trkpt><trkpt lat="36.76193272364297" lon="-107.93966563571577"><ele>1821.4285714285713</ele><time>2026-04-19T17:28:34Z</time></trkpt><trkpt lat="36.76193683243623" lon="-107.93975891614356"><ele>1820.5714285714284</ele><time>2026-04-19T17:28:35Z</time></trkpt><trkpt lat="36.76194478843039" lon="-107.93984952957427"><ele>1819.7142857142858</ele><time>2026-04-19T17:28:36Z</time></trkpt><trkpt lat="36.76194793048753" lon="-107.93993026072036"><ele>1818.8571428571427</ele><time>2026-04-19T17:28:37Z</time></trkpt><trkpt lat="36.761933786285816" lon="-107.94001833437726"><ele>1818.0</ele><time>2026-04-19T17:28:38Z</time></trkpt><trkpt lat="36.761912021938436" lon="-107.94012601110482"><ele>1816.8333333333333</ele><time>2026-04-19T17:28:39Z</time></trkpt><trkpt lat="36.761892176591" lon="-107.94020287707072"><ele>1815.6666666666665</ele><time>2026-04-19T17:28:40Z</time></trkpt><trkpt lat="36.761926474637974" lon="-107.9403336158329"><ele>1814.5</ele><time>2026-04-19T17:28:42Z</time></trkpt><trkpt lat="36.76192206698623" lon="-107.94044328554213"><ele>1813.3333333333333</ele><time>2026-04-19T17:28:44Z</time></trkpt><trkpt lat="36.76187676430466" lon="-107.94055002452174"><ele>1812.1666666666665</ele><time>2026-04-19T17:28:46Z</time></trkpt><trkpt lat="36.76187834092982" lon="-107.9406611982141"><ele>1811.0</ele><time>2026-04-19T17:28:49Z</time></trkpt><trkpt lat="36.76188907666702" lon="-107.94076065789255"><ele>1809.6</ele><time>2026-04-19T17:28:51Z</time></trkpt><trkpt lat="36.761897598813704" lon="-107.94088277262752"><ele>1808.1999999999998</ele><time>2026-04-19T17:28:53Z</time></trkpt><trkpt lat="36.761867485427906" lon="-107.94100451334842"><ele>1806.8000000000002</ele><time>2026-04-19T17:28:55Z</time></trkpt><trkpt lat="36.76182252210311" lon="-107.94114643215048"><ele>1805.4</ele><time>2026-04-19T17:28:57Z</time></trkpt><trkpt lat="36.76176539019895" lon="-107.94128795957967"><ele>1804.0</ele><time>2026-04-19T17:28:59Z</time></trkpt><trkpt lat="36.7617220216691" lon="-107.941384303703"><ele>1803.5000000000002</ele><time>2026-04-19T17:29:00Z</time></trkpt><trkpt lat="36.76164309149562" lon="-107.94149766749206"><ele>1803.0</ele><time>2026-04-19T17:29:01Z</time></trkpt><trkpt lat="36.761599384846996" lon="-107.94157917375198"><ele>1802.5</ele><time>2026-04-19T17:29:02Z</time></trkpt><trkpt lat="36.76157636107704" lon="-107.94165927848378"><ele>1802.0</ele><time>2026-04-19T17:29:04Z</time></trkpt><trkpt lat="36.76152405121508" lon="-107.94176214483107"><ele>1801.5000000000002</ele><time>2026-04-19T17:29:06Z</time></trkpt><trkpt lat="36.76154755146842" lon="-107.94183854350737"><ele>1801.0</ele><time>2026-04-19T17:29:08Z</time></trkpt><trkpt lat="36.761659584021885" lon="-107.94186666145109"><ele>1801.1666666666667</ele><time>2026-04-19T17:29:10Z</time></trkpt><trkpt lat="36.761739317756295" lon="-107.94187806177527"><ele>1801.3333333333335</ele><time>2026-04-19T17:29:11Z</time></trkpt><trkpt lat="36.76181765646416" lon="-107.94190302840376"><ele>1801.5</ele><time>2026-04-19T17:29:12Z</time></trkpt><trkpt lat="36.761898676047345" lon="-107.9419544120227"><ele>1801.6666666666665</ele><time>2026-04-19T17:29:13Z</time></trkpt><trkpt lat="36.76196686525934" lon="-107.94203874583657"><ele>1801.8333333333333</ele><time>2026-04-19T17:29:14Z</time></trkpt><trkpt lat="36.762026026752615" lon="-107.94213825733628"><ele>1802.0</ele><time>2026-04-19T17:29:15Z</time></trkpt><trkpt lat="36.762077866149134" lon="-107.94221694653926"><ele>1802.0</ele><time>2026-04-19T17:29:16Z</time></trkpt><trkpt lat="36.76212504207759" lon="-107.94231867727605"><ele>1801.9999999999998</ele><time>2026-04-19T17:29:17Z</time></trkpt><trkpt lat="36.76216648442529" lon="-107.94242164393958"><ele>1801.9999999999998</ele><time>2026-04-19T17:29:18Z</time></trkpt><trkpt lat="36.76214120702746" lon="-107.94259415665023"><ele>1802.0</ele><time>2026-04-19T17:29:20Z</time></trkpt><trkpt lat="36.76207848922016" lon="-107.94272058024097"><ele>1802.0</ele><time>2026-04-19T17:29:21Z</time></trkpt><trkpt lat="36.76202819678575" lon="-107.94287192349154"><ele>1801.1999999999998</ele><time>2026-04-19T17:29:22Z</time></trkpt><trkpt lat="36.762005490940474" lon="-107.94301612873028"><ele>1800.3999999999999</ele><time>2026-04-19T17:29:23Z</time></trkpt><trkpt lat="36.76198118039317" lon="-107.94313481659424"><ele>1799.6000000000001</ele><time>2026-04-19T17:29:24Z</time></trkpt><trkpt lat="36.761959009786835" lon="-107.94321419271141"><ele>1798.8000000000002</ele><time>2026-04-19T17:29:25Z</time></trkpt><trkpt lat="36.76196679573413" lon="-107.94329442335685"><ele>1798.0</ele><time>2026-04-19T17:29:26Z</time></trkpt><trkpt lat="36.76201735023489" lon="-107.94340664785057"><ele>1797.0</ele><time>2026-04-19T17:29:27Z</time></trkpt><trkpt lat="36.7620469411149" lon="-107.94352565422466"><ele>1796.0000000000002</ele><time>2026-04-19T17:29:28Z</time></trkpt><trkpt lat="36.7621498669048" lon="-107.94357075872158"><ele>1795.0000000000002</ele><time>2026-04-19T17:29:30.001Z</time></trkpt><trkpt lat="36.76225041204219" lon="-107.94355437067263"><ele>1794.0</ele><time>2026-04-19T17:29:31.001Z</time></trkpt><trkpt lat="36.76236942261812" lon="-107.94352604955773"><ele>1793.0</ele><time>2026-04-19T17:29:32.001Z</time></trkpt><trkpt lat="36.7624975189934" lon="-107.94351081840188"><ele>1793.0</ele><time>2026-04-19T17:29:33.001Z</time></trkpt><trkpt lat="36.76262091207856" lon="-107.94350676493046"><ele>1793.0000000000002</ele><time>2026-04-19T17:29:34.001Z</time></trkpt><trkpt lat="36.762699868879224" lon="-107.94351179253722"><ele>1793.0000000000002</ele><time>2026-04-19T17:29:35.001Z</time></trkpt><trkpt lat="36.76278730087154" lon="-107.94343566670696"><ele>1793.0</ele><time>2026-04-19T17:29:37.001Z</time></trkpt><trkpt lat="36.76284021733922" lon="-107.94334483107455"><ele>1793.0</ele><time>2026-04-19T17:29:39.001Z</time></trkpt><trkpt lat="36.762834020012725" lon="-107.94325712955226"><ele>1794.25</ele><time>2026-04-19T17:29:40.001Z</time></trkpt><trkpt lat="36.7628385473523" lon="-107.9431590251354"><ele>1795.5</ele><time>2026-04-19T17:29:41.001Z</time></trkpt><trkpt lat="36.76290152706042" lon="-107.94306741342633"><ele>1796.75</ele><time>2026-04-19T17:29:43.001Z</time></trkpt><trkpt lat="36.763040825957496" lon="-107.94294786537556"><ele>1798.0</ele><time>2026-04-19T17:29:45.001Z</time></trkpt><trkpt lat="36.7631558595969" lon="-107.94292811532523"><ele>1798.0000000000002</ele><time>2026-04-19T17:29:46.001Z</time></trkpt><trkpt lat="36.76326058487483" lon="-107.94291229317432"><ele>1798.0</ele><time>2026-04-19T17:29:47.001Z</time></trkpt><trkpt lat="36.76334314376139" lon="-107.94287382511948"><ele>1798.0</ele><time>2026-04-19T17:29:48.001Z</time></trkpt><trkpt lat="36.76341416697305" lon="-107.94284201304738"><ele>1798.0</ele><time>2026-04-19T17:29:49.001Z</time></trkpt><trkpt lat="36.76349742655893" lon="-107.94279474243751"><ele>1798.0000000000002</ele><time>2026-04-19T17:29:51.001Z</time></trkpt><trkpt lat="36.76356474139295" lon="-107.94274725466646"><ele>1798.0</ele><time>2026-04-19T17:29:53.001Z</time></trkpt><trkpt lat="36.76366028764515" lon="-107.94273968593357"><ele>1798.2</ele><time>2026-04-19T17:29:54.001Z</time></trkpt><trkpt lat="36.76374310507289" lon="-107.94269419421471"><ele>1798.4</ele><time>2026-04-19T17:29:55.001Z</time></trkpt><trkpt lat="36.763800347284736" lon="-107.94260727919554"><ele>1798.6000000000001</ele><time>2026-04-19T17:29:56.001Z</time></trkpt><trkpt lat="36.76384831645404" lon="-107.94251086718985"><ele>1798.8000000000002</ele><time>2026-04-19T17:29:57.001Z</time></trkpt><trkpt lat="36.76393510436853" lon="-107.94245321303619"><ele>1799.0</ele><time>2026-04-19T17:29:59.001Z</time></trkpt><trkpt lat="36.7640642033097" lon="-107.94252804907865"><ele>1799.0</ele><time>2026-04-19T17:30:01.001Z</time></trkpt><trkpt lat="36.76414929129371" lon="-107.9425645000711"><ele>1799.0</ele><time>2026-04-19T17:30:02.001Z</time></trkpt><trkpt lat="36.764228292803914" lon="-107.94255165491653"><ele>1799.0</ele><time>2026-04-19T17:30:04.001Z</time></trkpt><trkpt lat="36.76427563355104" lon="-107.94240369294579"><ele>1799.0</ele><time>2026-04-19T17:30:06.001Z</time></trkpt><trkpt lat="36.76434957123648" lon="-107.94232855936711"><ele>1799.0</ele><time>2026-04-19T17:30:07.001Z</time></trkpt><trkpt lat="36.76444752731282" lon="-107.94228672791377"><ele>1799.6666666666665</ele><time>2026-04-19T17:30:08.001Z</time></trkpt><trkpt lat="36.76454250897218" lon="-107.94226141626362"><ele>1800.3333333333333</ele><time>2026-04-19T17:30:09.001Z</time></trkpt><trkpt lat="36.76460380117087" lon="-107.9422076950542"><ele>1801.0</ele><time>2026-04-19T17:30:10.001Z</time></trkpt><trkpt lat="36.764655699524695" lon="-107.94212728362209"><ele>1801.6666666666665</ele><time>2026-04-19T17:30:11.001Z</time></trkpt><trkpt lat="36.76473992604738" lon="-107.94208977977921"><ele>1802.3333333333333</ele><time>2026-04-19T17:30:13.001Z</time></trkpt><trkpt lat="36.764798525294204" lon="-107.94214446930518"><ele>1803.0</ele><time>2026-04-19T17:30:14.001Z</time></trkpt><trkpt lat="36.7648533796675" lon="-107.94221279532509"><ele>1803.0</ele><time>2026-04-19T17:30:16.001Z</time></trkpt><trkpt lat="36.76508352095146" lon="-107.94216372726122"><ele>1803.0</ele><time>2026-04-19T17:30:19.001Z</time></trkpt><trkpt lat="36.765169051310906" lon="-107.94210647919947"><ele>1803.0</ele><time>2026-04-19T17:30:20.001Z</time></trkpt><trkpt lat="36.76526360870455" lon="-107.94203995689809"><ele>1803.0</ele><time>2026-04-19T17:30:21.001Z</time></trkpt><trkpt lat="36.76535003462351" lon="-107.94195720480005"><ele>1802.6666666666667</ele><time>2026-04-19T17:30:22.001Z</time></trkpt><trkpt lat="36.76543082003758" lon="-107.94188284528198"><ele>1802.3333333333335</ele><time>2026-04-19T17:30:23.001Z</time></trkpt><trkpt lat="36.76549943785354" lon="-107.94181688183986"><ele>1802.0</ele><time>2026-04-19T17:30:24.001Z</time></trkpt><trkpt lat="36.76556681328005" lon="-107.94174586070086"><ele>1801.6666666666667</ele><time>2026-04-19T17:30:25.001Z</time></trkpt><trkpt lat="36.765634107215725" lon="-107.9416837240111"><ele>1801.3333333333335</ele><time>2026-04-19T17:30:26.001Z</time></trkpt><trkpt lat="36.76570004015017" lon="-107.94163125310912"><ele>1801.0</ele><time>2026-04-19T17:30:27.001Z</time></trkpt><trkpt lat="36.76577388078476" lon="-107.94158456627603"><ele>1801.5000000000002</ele><time>2026-04-19T17:30:28.001Z</time></trkpt><trkpt lat="36.76584945757769" lon="-107.94154884022208"><ele>1802.0</ele><time>2026-04-19T17:30:29.001Z</time></trkpt><trkpt lat="36.765914711663235" lon="-107.94152630192215"><ele>1802.5</ele><time>2026-04-19T17:30:30.001Z</time></trkpt><trkpt lat="36.765980258820534" lon="-107.94153193250406"><ele>1803.0</ele><time>2026-04-19T17:30:31.001Z</time></trkpt><trkpt lat="36.76606258069987" lon="-107.94154261787389"><ele>1803.5000000000002</ele><time>2026-04-19T17:30:32.001Z</time></trkpt><trkpt lat="36.76616576757022" lon="-107.94155668464617"><ele>1804.0</ele><time>2026-04-19T17:30:33.001Z</time></trkpt><trkpt lat="36.76627117162" lon="-107.94156747643342"><ele>1804.0</ele><time>2026-04-19T17:30:34.001Z</time></trkpt><trkpt lat="36.766371346965556" lon="-107.94155152475959"><ele>1804.0</ele><time>2026-04-19T17:30:35.001Z</time></trkpt><trkpt lat="36.766452926908656" lon="-107.94152118330689"><ele>1804.0</ele><time>2026-04-19T17:30:36.001Z</time></trkpt><trkpt lat="36.766521525617115" lon="-107.94150313626615"><ele>1804.0</ele><time>2026-04-19T17:30:37.001Z</time></trkpt><trkpt lat="36.76659282044993" lon="-107.94148635596814"><ele>1804.0</ele><time>2026-04-19T17:30:38.001Z</time></trkpt><trkpt lat="36.766618680202996" lon="-107.94170312058249"><ele>1803.4</ele><time>2026-04-19T17:30:39.001Z</time></trkpt><trkpt lat="36.76669763367084" lon="-107.94178748163787"><ele>1802.8000000000002</ele><time>2026-04-19T17:30:40Z</time></trkpt><trkpt lat="36.766798923376335" lon="-107.94189793072307"><ele>1802.1999999999998</ele><time>2026-04-19T17:30:41Z</time></trkpt><trkpt lat="36.76684513842793" lon="-107.94198435108441"><ele>1801.6</ele><time>2026-04-19T17:30:42Z</time></trkpt><trkpt lat="36.766933889020606" lon="-107.94204327017464"><ele>1801.0</ele><time>2026-04-19T17:30:44Z</time></trkpt><trkpt lat="36.76701476044797" lon="-107.94199040676098"><ele>1800.0</ele><time>2026-04-19T17:30:45Z</time></trkpt><trkpt lat="36.76710588995599" lon="-107.94190138884049"><ele>1799.0</ele><time>2026-04-19T17:30:46Z</time></trkpt><trkpt lat="36.767177654607494" lon="-107.94184764827298"><ele>1798.0</ele><time>2026-04-19T17:30:47Z</time></trkpt><trkpt lat="36.76731523107586" lon="-107.9419114621375"><ele>1797.0</ele><time>2026-04-19T17:30:49Z</time></trkpt><trkpt lat="36.76743018035287" lon="-107.94197737596275"><ele>1797.0</ele><time>2026-04-19T17:30:50Z</time></trkpt><trkpt lat="36.767545345028836" lon="-107.94202364975179"><ele>1796.9999999999998</ele><time>2026-04-19T17:30:51Z</time></trkpt><trkpt lat="36.767618999132154" lon="-107.94203275524342"><ele>1796.9999999999998</ele><time>2026-04-19T17:30:52Z</time></trkpt><trkpt lat="36.76774676608476" lon="-107.94196230596063"><ele>1797.0</ele><time>2026-04-19T17:30:54Z</time></trkpt><trkpt lat="36.76782649284025" lon="-107.94193430223939"><ele>1797.0</ele><time>2026-04-19T17:30:55Z</time></trkpt><trkpt lat="36.76791722536984" lon="-107.94193049163447"><ele>1797.3999999999999</ele><time>2026-04-19T17:30:56Z</time></trkpt><trkpt lat="36.7680053723681" lon="-107.94192905291376"><ele>1797.7999999999997</ele><time>2026-04-19T17:30:57Z</time></trkpt><trkpt lat="36.76809141770428" lon="-107.94196600543238"><ele>1798.2</ele><time>2026-04-19T17:30:58Z</time></trkpt><trkpt lat="36.768198185861685" lon="-107.94202315201106"><ele>1798.6</ele><time>2026-04-19T17:30:59Z</time></trkpt><trkpt lat="36.76831272528221" lon="-107.94209122836027"><ele>1799.0</ele><time>2026-04-19T17:31:00Z</time></trkpt><trkpt lat="36.76837481163898" lon="-107.94212939320914"><ele>1798.9999999999998</ele><time>2026-04-19T17:31:01Z</time></trkpt><trkpt lat="36.76843025303826" lon="-107.942074575587"><ele>1799.0</ele><time>2026-04-19T17:31:04Z</time></trkpt><trkpt lat="36.768502896269105" lon="-107.9420225852212"><ele>1799.0</ele><time>2026-04-19T17:31:10Z</time></trkpt><trkpt lat="36.768559145924264" lon="-107.94196789515114"><ele>1799.0</ele><time>2026-04-19T17:31:11Z</time></trkpt><trkpt lat="36.768614465720304" lon="-107.94190540371078"><ele>1798.9999999999998</ele><time>2026-04-19T17:31:12Z</time></trkpt><trkpt lat="36.76868836593744" lon="-107.94187550029993"><ele>1799.0</ele><time>2026-04-19T17:31:13Z</time></trkpt><trkpt lat="36.76876935065372" lon="-107.9418653755965"><ele>1799.2</ele><time>2026-04-19T17:31:14Z</time></trkpt><trkpt lat="36.768843684406995" lon="-107.94185984298295"><ele>1799.4</ele><time>2026-04-19T17:31:15Z</time></trkpt><trkpt lat="36.76891805792758" lon="-107.9418516589931"><ele>1799.6</ele><time>2026-04-19T17:31:16Z</time></trkpt><trkpt lat="36.76898498602427" lon="-107.94184664444495"><ele>1799.8</ele><time>2026-04-19T17:31:17Z</time></trkpt><trkpt lat="36.769108480183064" lon="-107.94192238632623"><ele>1800.0</ele><time>2026-04-19T17:31:19Z</time></trkpt><trkpt lat="36.76919984165386" lon="-107.94200631263396"><ele>1800.0</ele><time>2026-04-19T17:31:21Z</time></trkpt><trkpt lat="36.76927667917177" lon="-107.9420455571398"><ele>1800.0</ele><time>2026-04-19T17:31:22Z</time></trkpt><trkpt lat="36.76936950730479" lon="-107.94208900931265"><ele>1800.0</ele><time>2026-04-19T17:31:23Z</time></trkpt><trkpt lat="36.769465912931196" lon="-107.94213514121351"><ele>1800.0</ele><time>2026-04-19T17:31:24Z</time></trkpt><trkpt lat="36.76955894634369" lon="-107.94218633181522"><ele>1800.0</ele><time>2026-04-19T17:31:25Z</time></trkpt><trkpt lat="36.76965053485057" lon="-107.94224323495938"><ele>1799.25</ele><time>2026-04-19T17:31:26Z</time></trkpt><trkpt lat="36.76974005146868" lon="-107.9422968095408"><ele>1798.5</ele><time>2026-04-19T17:31:27Z</time></trkpt><trkpt lat="36.76985706719539" lon="-107.94236337024623"><ele>1797.75</ele><time>2026-04-19T17:31:28Z</time></trkpt><trkpt lat="36.76997134595796" lon="-107.94243432043646"><ele>1797.0</ele><time>2026-04-19T17:31:29Z</time></trkpt><trkpt lat="36.77007216401286" lon="-107.942504185424"><ele>1796.6</ele><time>2026-04-19T17:31:30Z</time></trkpt><trkpt lat="36.77016584756002" lon="-107.94256346284861"><ele>1796.1999999999998</ele><time>2026-04-19T17:31:31Z</time></trkpt><trkpt lat="36.77026538748273" lon="-107.94263399552702"><ele>1795.8</ele><time>2026-04-19T17:31:32Z</time></trkpt><trkpt lat="36.77034893219494" lon="-107.94269448159639"><ele>1795.4</ele><time>2026-04-19T17:31:33Z</time></trkpt><trkpt lat="36.7704371416201" lon="-107.94274314534763"><ele>1795.0</ele><time>2026-04-19T17:31:34Z</time></trkpt><trkpt lat="36.770539981821784" lon="-107.94278514873281"><ele>1795.6666666666667</ele><time>2026-04-19T17:31:35Z</time></trkpt><trkpt lat="36.770625827466326" lon="-107.94282399706303"><ele>1796.3333333333335</ele><time>2026-04-19T17:31:36Z</time></trkpt><trkpt lat="36.77068929064792" lon="-107.94285768582668"><ele>1797.0</ele><time>2026-04-19T17:31:37.001Z</time></trkpt><trkpt lat="36.77080723789492" lon="-107.94286675284059"><ele>1797.6666666666665</ele><time>2026-04-19T17:31:39.001Z</time></trkpt><trkpt lat="36.7708600403402" lon="-107.94281009631662"><ele>1798.3333333333333</ele><time>2026-04-19T17:31:40.001Z</time></trkpt><trkpt lat="36.770912896489854" lon="-107.94273784661736"><ele>1799.0</ele><time>2026-04-19T17:31:41.001Z</time></trkpt><trkpt lat="36.770973272637775" lon="-107.94266206537021"><ele>1799.25</ele><time>2026-04-19T17:31:42.001Z</time></trkpt><trkpt lat="36.77105763941396" lon="-107.94261813135368"><ele>1799.5</ele><time>2026-04-19T17:31:43.001Z</time></trkpt><trkpt lat="36.7711711102894" lon="-107.94261126141284"><ele>1799.75</ele><time>2026-04-19T17:31:44.001Z</time></trkpt><trkpt lat="36.77129558906652" lon="-107.9426110380526"><ele>1800.0</ele><time>2026-04-19T17:31:45.001Z</time></trkpt><trkpt lat="36.77141915633386" lon="-107.94263722987473"><ele>1800.0</ele><time>2026-04-19T17:31:46.001Z</time></trkpt><trkpt lat="36.77156655145286" lon="-107.94269938041757"><ele>1800.0</ele><time>2026-04-19T17:31:47.001Z</time></trkpt><trkpt lat="36.77171554989162" lon="-107.94272307322974"><ele>1800.0</ele><time>2026-04-19T17:31:48.001Z</time></trkpt><trkpt lat="36.77185281905393" lon="-107.94270077146399"><ele>1800.0</ele><time>2026-04-19T17:31:49.001Z</time></trkpt><trkpt lat="36.771953377003314" lon="-107.94268268146476"><ele>1800.5</ele><time>2026-04-19T17:31:50.001Z</time></trkpt><trkpt lat="36.77205885432318" lon="-107.94266968196013"><ele>1801.0</ele><time>2026-04-19T17:31:51.001Z</time></trkpt><trkpt lat="36.77216717281718" lon="-107.94264385011704"><ele>1801.5</ele><time>2026-04-19T17:31:52.001Z</time></trkpt><trkpt lat="36.77227164174987" lon="-107.94260777550848"><ele>1802.0</ele><time>2026-04-19T17:31:53.001Z</time></trkpt><trkpt lat="36.772395830053206" lon="-107.94255665322717"><ele>1802.25</ele><time>2026-04-19T17:31:54.001Z</time></trkpt><trkpt lat="36.77252550050252" lon="-107.94249163491526"><ele>1802.5</ele><time>2026-04-19T17:31:55.001Z</time></trkpt><trkpt lat="36.77264870156724" lon="-107.94240749320502"><ele>1802.75</ele><time>2026-04-19T17:31:56.001Z</time></trkpt><trkpt lat="36.77275156841414" lon="-107.9423196422063"><ele>1803.0</ele><time>2026-04-19T17:31:57.001Z</time></trkpt><trkpt lat="36.77283401289305" lon="-107.9422270523138"><ele>1803.6666666666667</ele><time>2026-04-19T17:31:58.001Z</time></trkpt><trkpt lat="36.772908727604914" lon="-107.94213981092508"><ele>1804.3333333333335</ele><time>2026-04-19T17:31:59.001Z</time></trkpt><trkpt lat="36.772983787098006" lon="-107.9420752659209"><ele>1805.0</ele><time>2026-04-19T17:32:00.001Z</time></trkpt><trkpt lat="36.773059196426246" lon="-107.94202557794412"><ele>1805.6666666666667</ele><time>2026-04-19T17:32:01.001Z</time></trkpt><trkpt lat="36.77313809728958" lon="-107.94196463995637"><ele>1806.3333333333335</ele><time>2026-04-19T17:32:03.001Z</time></trkpt><trkpt lat="36.77319606376452" lon="-107.94192360097104"><ele>1807.0</ele><time>2026-04-19T17:32:05.001Z</time></trkpt><trkpt lat="36.77328047673431" lon="-107.94186460867674"><ele>1807.0</ele><time>2026-04-19T17:32:18.001Z</time></trkpt><trkpt lat="36.773333259720445" lon="-107.94179379128333"><ele>1806.9999999999998</ele><time>2026-04-19T17:32:19.001Z</time></trkpt><trkpt lat="36.77339162727014" lon="-107.94170226099835"><ele>1806.9999999999998</ele><time>2026-04-19T17:32:20.001Z</time></trkpt><trkpt lat="36.77346026626522" lon="-107.9415859857596"><ele>1807.0</ele><time>2026-04-19T17:32:21.001Z</time></trkpt><trkpt lat="36.77354597523937" lon="-107.94145839883696"><ele>1807.0</ele><time>2026-04-19T17:32:22.001Z</time></trkpt><trkpt lat="36.77364621335249" lon="-107.9413114748193"><ele>1807.75</ele><time>2026-04-19T17:32:23.001Z</time></trkpt><trkpt lat="36.77375966690343" lon="-107.94115180164795"><ele>1808.5</ele><time>2026-04-19T17:32:24.001Z</time></trkpt><trkpt lat="36.77385182118633" lon="-107.94102491001709"><ele>1809.25</ele><time>2026-04-19T17:32:25.001Z</time></trkpt><trkpt lat="36.7739209991872" lon="-107.94092440562837"><ele>1810.0</ele><time>2026-04-19T17:32:26.001Z</time></trkpt><trkpt lat="36.77397687128475" lon="-107.94084298046023"><ele>1810.0</ele><time>2026-04-19T17:32:27.001Z</time></trkpt><trkpt lat="36.77405568528765" lon="-107.94078596922648"><ele>1810.0</ele><time>2026-04-19T17:32:28.001Z</time></trkpt><trkpt lat="36.774164615049756" lon="-107.94074222861468"><ele>1810.0</ele><time>2026-04-19T17:32:29.001Z</time></trkpt><trkpt lat="36.77427872783343" lon="-107.94069632549503"><ele>1810.0</ele><time>2026-04-19T17:32:30.001Z</time></trkpt><trkpt lat="36.77434128141833" lon="-107.94062852705567"><ele>1810.0</ele><time>2026-04-19T17:32:31.001Z</time></trkpt><trkpt lat="36.77439961541509" lon="-107.94052129818415"><ele>1811.0</ele><time>2026-04-19T17:32:32.001Z</time></trkpt><trkpt lat="36.774449538008234" lon="-107.94036757767338"><ele>1812.0</ele><time>2026-04-19T17:32:33.001Z</time></trkpt><trkpt lat="36.77449455498101" lon="-107.94018860536116"><ele>1813.0</ele><time>2026-04-19T17:32:34.001Z</time></trkpt><trkpt lat="36.774538180524246" lon="-107.93998589982738"><ele>1813.0</ele><time>2026-04-19T17:32:35.001Z</time></trkpt><trkpt lat="36.774588462686154" lon="-107.93976772126419"><ele>1813.0</ele><time>2026-04-19T17:32:36.001Z</time></trkpt><trkpt lat="36.77463563285196" lon="-107.93957764764636"><ele>1813.0</ele><time>2026-04-19T17:32:37.001Z</time></trkpt><trkpt lat="36.77468129350062" lon="-107.93941835477176"><ele>1813.0</ele><time>2026-04-19T17:32:38.001Z</time></trkpt><trkpt lat="36.774749764402884" lon="-107.93926012198474"><ele>1813.0</ele><time>2026-04-19T17:32:39.001Z</time></trkpt><trkpt lat="36.77482933718765" lon="-107.9390986665646"><ele>1813.0</ele><time>2026-04-19T17:32:40.001Z</time></trkpt><trkpt lat="36.774890238403046" lon="-107.9389783233395"><ele>1813.0</ele><time>2026-04-19T17:32:41.001Z</time></trkpt><trkpt lat="36.77493463581122" lon="-107.93890134636929"><ele>1812.8000000000002</ele><time>2026-04-19T17:32:42.001Z</time></trkpt><trkpt lat="36.77499390231408" lon="-107.93885017291255"><ele>1812.6000000000001</ele><time>2026-04-19T17:32:43.001Z</time></trkpt><trkpt lat="36.77506122529343" lon="-107.93881165915248"><ele>1812.3999999999999</ele><time>2026-04-19T17:32:44.001Z</time></trkpt><trkpt lat="36.7751497651166" lon="-107.93879682924226"><ele>1812.1999999999998</ele><time>2026-04-19T17:32:45.001Z</time></trkpt><trkpt lat="36.775265959075654" lon="-107.93878280124355"><ele>1812.0</ele><time>2026-04-19T17:32:46Z</time></trkpt><trkpt lat="36.77539068783463" lon="-107.93874786815873"><ele>1812.8333333333333</ele><time>2026-04-19T17:32:47Z</time></trkpt><trkpt lat="36.77548348776063" lon="-107.93873268202157"><ele>1813.6666666666665</ele><time>2026-04-19T17:32:48Z</time></trkpt><trkpt lat="36.7755554636871" lon="-107.9387248860433"><ele>1814.5</ele><time>2026-04-19T17:32:49Z</time></trkpt><trkpt lat="36.775632953139635" lon="-107.9386913616251"><ele>1815.3333333333333</ele><time>2026-04-19T17:32:50Z</time></trkpt><trkpt lat="36.775704707841165" lon="-107.93868173509178"><ele>1816.1666666666665</ele><time>2026-04-19T17:32:51Z</time></trkpt><trkpt lat="36.77577825603767" lon="-107.93872044595714"><ele>1817.0</ele><time>2026-04-19T17:32:52Z</time></trkpt><trkpt lat="36.7758477568135" lon="-107.93874511698087"><ele>1817.0</ele><time>2026-04-19T17:32:53Z</time></trkpt><trkpt lat="36.775939742407864" lon="-107.93874979629366"><ele>1817.0</ele><time>2026-04-19T17:32:54Z</time></trkpt><trkpt lat="36.77607168710028" lon="-107.93875696813515"><ele>1817.0</ele><time>2026-04-19T17:32:55Z</time></trkpt><trkpt lat="36.77620156249368" lon="-107.93874925765621"><ele>1817.0</ele><time>2026-04-19T17:32:56Z</time></trkpt><trkpt lat="36.77630239810467" lon="-107.93875431982448"><ele>1818.0</ele><time>2026-04-19T17:32:57Z</time></trkpt><trkpt lat="36.77642013670499" lon="-107.93880810560505"><ele>1818.9999999999998</ele><time>2026-04-19T17:32:58Z</time></trkpt><trkpt lat="36.77654376384899" lon="-107.93883867379225"><ele>1819.9999999999998</ele><time>2026-04-19T17:32:59Z</time></trkpt><trkpt lat="36.77663196945188" lon="-107.93884248646066"><ele>1821.0</ele><time>2026-04-19T17:33:00Z</time></trkpt><trkpt lat="36.77671797476759" lon="-107.93881232108322"><ele>1822.0</ele><time>2026-04-19T17:33:01Z</time></trkpt><trkpt lat="36.776819255833225" lon="-107.93878263907628"><ele>1822.5000000000002</ele><time>2026-04-19T17:33:02Z</time></trkpt><trkpt lat="36.77690400426096" lon="-107.9387629912866"><ele>1823.0</ele><time>2026-04-19T17:33:03Z</time></trkpt><trkpt lat="36.77697197082401" lon="-107.93874852536564"><ele>1823.5</ele><time>2026-04-19T17:33:04Z</time></trkpt><trkpt lat="36.77705510408417" lon="-107.93871575948566"><ele>1824.0</ele><time>2026-04-19T17:33:05Z</time></trkpt><trkpt lat="36.77715319601299" lon="-107.93871967216822"><ele>1824.5000000000002</ele><time>2026-04-19T17:33:07Z</time></trkpt><trkpt lat="36.7772221066497" lon="-107.93879653718922"><ele>1825.0</ele><time>2026-04-19T17:33:08Z</time></trkpt><trkpt lat="36.777304456614495" lon="-107.9388651852651"><ele>1825.0000000000002</ele><time>2026-04-19T17:33:09Z</time></trkpt><trkpt lat="36.77739606797634" lon="-107.93890835037078"><ele>1825.0</ele><time>2026-04-19T17:33:10Z</time></trkpt><trkpt lat="36.77747423128551" lon="-107.93892942567551"><ele>1825.0</ele><time>2026-04-19T17:33:11Z</time></trkpt><trkpt lat="36.77753489812747" lon="-107.93896306714176"><ele>1825.0</ele><time>2026-04-19T17:33:12Z</time></trkpt><trkpt lat="36.777614624504224" lon="-107.93905141540957"><ele>1825.0000000000002</ele><time>2026-04-19T17:33:13Z</time></trkpt><trkpt lat="36.77768094458312" lon="-107.93913300429531"><ele>1825.0</ele><time>2026-04-19T17:33:14Z</time></trkpt><trkpt lat="36.77774277399502" lon="-107.93920722022222"><ele>1825.6</ele><time>2026-04-19T17:33:15Z</time></trkpt><trkpt lat="36.77780994420084" lon="-107.93925281237463"><ele>1826.2</ele><time>2026-04-19T17:33:16Z</time></trkpt><trkpt lat="36.777888105102996" lon="-107.93929889934671"><ele>1826.8000000000002</ele><time>2026-04-19T17:33:17Z</time></trkpt><trkpt lat="36.777971978069296" lon="-107.9393720163258"><ele>1827.4</ele><time>2026-04-19T17:33:18Z</time></trkpt><trkpt lat="36.77804560947886" lon="-107.93943003815873"><ele>1828.0</ele><time>2026-04-19T17:33:19Z</time></trkpt><trkpt lat="36.778151493078454" lon="-107.93949815437355"><ele>1828.0000000000002</ele><time>2026-04-19T17:33:21Z</time></trkpt><trkpt lat="36.77822626398955" lon="-107.93951265786988"><ele>1828.0</ele><time>2026-04-19T17:33:22Z</time></trkpt><trkpt lat="36.7783077907424" lon="-107.93954822037593"><ele>1828.0</ele><time>2026-04-19T17:33:23Z</time></trkpt><trkpt lat="36.77838657144659" lon="-107.93961187505313"><ele>1828.0</ele><time>2026-04-19T17:33:24Z</time></trkpt><trkpt lat="36.7784868966555" lon="-107.93965150617694"><ele>1828.0000000000002</ele><time>2026-04-19T17:33:26Z</time></trkpt><trkpt lat="36.77855726915973" lon="-107.93964716366112"><ele>1828.0</ele><time>2026-04-19T17:33:27Z</time></trkpt><trkpt lat="36.77864272239221" lon="-107.93959247093615"><ele>1829.2</ele><time>2026-04-19T17:33:29Z</time></trkpt><trkpt lat="36.778696410188694" lon="-107.93953785648219"><ele>1830.4</ele><time>2026-04-19T17:33:30Z</time></trkpt><trkpt lat="36.77875783885232" lon="-107.93949804346985"><ele>1831.6000000000001</ele><time>2026-04-19T17:33:31Z</time></trkpt><trkpt lat="36.778900573019335" lon="-107.9394002233114"><ele>1832.8000000000002</ele><time>2026-04-19T17:33:33Z</time></trkpt><trkpt lat="36.77897940233318" lon="-107.93933176662644"><ele>1834.0</ele><time>2026-04-19T17:33:34Z</time></trkpt><trkpt lat="36.779031067425706" lon="-107.93925825254502"><ele>1834.0000000000002</ele><time>2026-04-19T17:33:35Z</time></trkpt><trkpt lat="36.779098306213065" lon="-107.93918859568902"><ele>1834.0</ele><time>2026-04-19T17:33:36Z</time></trkpt><trkpt lat="36.77918537113307" lon="-107.93919767044855"><ele>1834.0</ele><time>2026-04-19T17:33:37Z</time></trkpt><trkpt lat="36.77926281755241" lon="-107.93923314623902"><ele>1834.0</ele><time>2026-04-19T17:33:38Z</time></trkpt><trkpt lat="36.77931032396425" lon="-107.93928481347642"><ele>1834.0000000000002</ele><time>2026-04-19T17:33:39Z</time></trkpt><trkpt lat="36.77937286527515" lon="-107.93934908082677"><ele>1834.0</ele><time>2026-04-19T17:33:40Z</time></trkpt><trkpt lat="36.77944717411973" lon="-107.93942168673902"><ele>1835.1666666666667</ele><time>2026-04-19T17:33:41Z</time></trkpt><trkpt lat="36.77946462674647" lon="-107.93955447029461"><ele>1836.3333333333335</ele><time>2026-04-19T17:33:43Z</time></trkpt><trkpt lat="36.779454650584796" lon="-107.93966125576867"><ele>1837.5</ele><time>2026-04-19T17:33:44Z</time></trkpt><trkpt lat="36.779422617655555" lon="-107.93975469061901"><ele>1838.6666666666665</ele><time>2026-04-19T17:33:45Z</time></trkpt><trkpt lat="36.779445088127964" lon="-107.93982904782645"><ele>1839.8333333333333</ele><time>2026-04-19T17:33:47Z</time></trkpt><trkpt lat="36.77949821515675" lon="-107.93990420692401"><ele>1841.0</ele><time>2026-04-19T17:33:48.001Z</time></trkpt><trkpt lat="36.77956931388818" lon="-107.93995813690742"><ele>1840.9999999999998</ele><time>2026-04-19T17:33:49.001Z</time></trkpt><trkpt lat="36.779642928684886" lon="-107.93995162236054"><ele>1841.0</ele><time>2026-04-19T17:33:50.001Z</time></trkpt><trkpt lat="36.77971955062153" lon="-107.93992348976317"><ele>1841.0</ele><time>2026-04-19T17:33:51.001Z</time></trkpt><trkpt lat="36.77981494421143" lon="-107.93994001967792"><ele>1841.0</ele><time>2026-04-19T17:33:52.001Z</time></trkpt><trkpt lat="36.779894822504566" lon="-107.93993666520971"><ele>1840.9999999999998</ele><time>2026-04-19T17:33:53.001Z</time></trkpt><trkpt lat="36.77996769938858" lon="-107.93993116307017"><ele>1841.0</ele><time>2026-04-19T17:33:54.001Z</time></trkpt><trkpt lat="36.780056851531874" lon="-107.94006112118696"><ele>1842.3333333333333</ele><time>2026-04-19T17:33:56.001Z</time></trkpt><trkpt lat="36.780132895954296" lon="-107.94016114907848"><ele>1843.6666666666665</ele><time>2026-04-19T17:33:57.001Z</time></trkpt><trkpt lat="36.780210551037996" lon="-107.94019891972302"><ele>1845.0</ele><time>2026-04-19T17:33:58.001Z</time></trkpt><trkpt lat="36.78028564314863" lon="-107.94020066987484"><ele>1846.3333333333335</ele><time>2026-04-19T17:33:59.001Z</time></trkpt><trkpt lat="36.780354621140674" lon="-107.9402037869166"><ele>1847.6666666666667</ele><time>2026-04-19T17:34:00.001Z</time></trkpt><trkpt lat="36.78042783370802" lon="-107.94023849892974"><ele>1849.0</ele><time>2026-04-19T17:34:01.001Z</time></trkpt><trkpt lat="36.78050548424542" lon="-107.94028966410939"><ele>1849.0</ele><time>2026-04-19T17:34:02.001Z</time></trkpt><trkpt lat="36.780593511208444" lon="-107.94033127607152"><ele>1849.0</ele><time>2026-04-19T17:34:03.001Z</time></trkpt><trkpt lat="36.78066879375952" lon="-107.94038201039473"><ele>1849.0</ele><time>2026-04-19T17:34:04.001Z</time></trkpt><trkpt lat="36.78076437778156" lon="-107.94045778892766"><ele>1849.0</ele><time>2026-04-19T17:34:05.001Z</time></trkpt><trkpt lat="36.78088500305738" lon="-107.94054542099028"><ele>1849.0</ele><time>2026-04-19T17:34:06.001Z</time></trkpt><trkpt lat="36.78094044866506" lon="-107.94063727422174"><ele>1849.0</ele><time>2026-04-19T17:34:07.001Z</time></trkpt><trkpt lat="36.78095723036968" lon="-107.94074305623907"><ele>1849.0</ele><time>2026-04-19T17:34:08.001Z</time></trkpt><trkpt lat="36.78098598638222" lon="-107.94085873319564"><ele>1849.0</ele><time>2026-04-19T17:34:09.001Z</time></trkpt><trkpt lat="36.78102782584534" lon="-107.94097490173165"><ele>1849.0</ele><time>2026-04-19T17:34:10.001Z</time></trkpt><trkpt lat="36.78107087141641" lon="-107.94105824792723"><ele>1849.0</ele><time>2026-04-19T17:34:11.001Z</time></trkpt><trkpt lat="36.78114674933413" lon="-107.94111749561337"><ele>1848.8000000000002</ele><time>2026-04-19T17:34:12.001Z</time></trkpt><trkpt lat="36.78125610862426" lon="-107.94117973449977"><ele>1848.6000000000001</ele><time>2026-04-19T17:34:13.001Z</time></trkpt><trkpt lat="36.781334011894145" lon="-107.94118834039313"><ele>1848.4</ele><time>2026-04-19T17:34:14.001Z</time></trkpt><trkpt lat="36.78143575823335" lon="-107.94109141857001"><ele>1848.2</ele><time>2026-04-19T17:34:16.001Z</time></trkpt><trkpt lat="36.781527783412315" lon="-107.94101874255132"><ele>1848.0</ele><time>2026-04-19T17:34:17.001Z</time></trkpt><trkpt lat="36.78161616702246" lon="-107.94097732937276"><ele>1848.0</ele><time>2026-04-19T17:34:18.001Z</time></trkpt><trkpt lat="36.78171137557205" lon="-107.9409561095"><ele>1848.0</ele><time>2026-04-19T17:34:19.001Z</time></trkpt><trkpt lat="36.78179404975404" lon="-107.94090331313053"><ele>1848.0</ele><time>2026-04-19T17:34:20.001Z</time></trkpt><trkpt lat="36.781838526694074" lon="-107.94084103338923"><ele>1848.0</ele><time>2026-04-19T17:34:21.001Z</time></trkpt><trkpt lat="36.7819141928607" lon="-107.9407748065388"><ele>1848.0</ele><time>2026-04-19T17:34:22.001Z</time></trkpt><trkpt lat="36.78199895385771" lon="-107.94073837480148"><ele>1848.0</ele><time>2026-04-19T17:34:23.001Z</time></trkpt><trkpt lat="36.7820661297202" lon="-107.94072466827642"><ele>1848.8000000000002</ele><time>2026-04-19T17:34:24.001Z</time></trkpt><trkpt lat="36.782138915185904" lon="-107.94065384547788"><ele>1849.6000000000001</ele><time>2026-04-19T17:34:25.001Z</time></trkpt><trkpt lat="36.782236088073816" lon="-107.94065516986694"><ele>1850.3999999999999</ele><time>2026-04-19T17:34:27.001Z</time></trkpt><trkpt lat="36.782331810383795" lon="-107.94067139493258"><ele>1851.1999999999998</ele><time>2026-04-19T17:34:28.001Z</time></trkpt><trkpt lat="36.782418535856415" lon="-107.94065220046622"><ele>1852.0</ele><time>2026-04-19T17:34:29.001Z</time></trkpt><trkpt lat="36.78247544190933" lon="-107.94051580798829"><ele>1852.0000000000002</ele><time>2026-04-19T17:34:31.001Z</time></trkpt><trkpt lat="36.782562524587945" lon="-107.9404269279061"><ele>1852.0</ele><time>2026-04-19T17:34:33.001Z</time></trkpt><trkpt lat="36.78262259548757" lon="-107.94037984736917"><ele>1852.0</ele><time>2026-04-19T17:34:34.001Z</time></trkpt><trkpt lat="36.78266408198011" lon="-107.94030816654693"><ele>1852.0</ele><time>2026-04-19T17:34:35.001Z</time></trkpt><trkpt lat="36.782700981759476" lon="-107.9402365863306"><ele>1852.0000000000002</ele><time>2026-04-19T17:34:36.001Z</time></trkpt><trkpt lat="36.782815792764694" lon="-107.94019504992838"><ele>1852.0</ele><time>2026-04-19T17:34:38.001Z</time></trkpt><trkpt lat="36.78291358224331" lon="-107.9401899742242"><ele>1852.8333333333335</ele><time>2026-04-19T17:34:39.001Z</time></trkpt><trkpt lat="36.78299310915947" lon="-107.94022024190626"><ele>1853.6666666666667</ele><time>2026-04-19T17:34:40.001Z</time></trkpt><trkpt lat="36.78306651002541" lon="-107.94029637146461"><ele>1854.5</ele><time>2026-04-19T17:34:41.001Z</time></trkpt><trkpt lat="36.783154359350405" lon="-107.94033725409851"><ele>1855.3333333333335</ele><time>2026-04-19T17:34:42.001Z</time></trkpt><trkpt lat="36.78322843706472" lon="-107.94032240850511"><ele>1856.1666666666667</ele><time>2026-04-19T17:34:43.001Z</time></trkpt><trkpt lat="36.78330605611287" lon="-107.94028472016021"><ele>1857.0</ele><time>2026-04-19T17:34:44.001Z</time></trkpt><trkpt lat="36.78338573654082" lon="-107.94025703458644"><ele>1857.0</ele><time>2026-04-19T17:34:45.001Z</time></trkpt><trkpt lat="36.783459802619895" lon="-107.94022133789767"><ele>1857.0</ele><time>2026-04-19T17:34:46.001Z</time></trkpt><trkpt lat="36.78353869038169" lon="-107.94020376127018"><ele>1857.0</ele><time>2026-04-19T17:34:47.001Z</time></trkpt><trkpt lat="36.783624237086485" lon="-107.9402042198387"><ele>1857.0</ele><time>2026-04-19T17:34:48.001Z</time></trkpt><trkpt lat="36.78371737612225" lon="-107.94019373869914"><ele>1857.0</ele><time>2026-04-19T17:34:49.001Z</time></trkpt><trkpt lat="36.78378481471348" lon="-107.94019014743746"><ele>1857.0</ele><time>2026-04-19T17:34:50.001Z</time></trkpt><trkpt lat="36.78385286915595" lon="-107.9401980708971"><ele>1858.1999999999998</ele><time>2026-04-19T17:34:51.001Z</time></trkpt><trkpt lat="36.783937885299096" lon="-107.94019846480147"><ele>1859.3999999999999</ele><time>2026-04-19T17:34:52Z</time></trkpt><trkpt lat="36.78403050575131" lon="-107.94016919404935"><ele>1860.6000000000001</ele><time>2026-04-19T17:34:53Z</time></trkpt><trkpt lat="36.78413083170753" lon="-107.94015393410925"><ele>1861.8000000000002</ele><time>2026-04-19T17:34:54Z</time></trkpt><trkpt lat="36.784216131355834" lon="-107.94016437299494"><ele>1863.0</ele><time>2026-04-19T17:34:55Z</time></trkpt><trkpt lat="36.78430871174224" lon="-107.94020286408868"><ele>1862.8333333333333</ele><time>2026-04-19T17:34:56Z</time></trkpt><trkpt lat="36.7844037310073" lon="-107.9402394864053"><ele>1862.6666666666665</ele><time>2026-04-19T17:34:57Z</time></trkpt><trkpt lat="36.78447110914116" lon="-107.94023962890263"><ele>1862.5</ele><time>2026-04-19T17:34:58Z</time></trkpt><trkpt lat="36.78457481948345" lon="-107.94019995510673"><ele>1862.3333333333333</ele><time>2026-04-19T17:35:00Z</time></trkpt><trkpt lat="36.7846623562931" lon="-107.9401607503336"><ele>1862.1666666666665</ele><time>2026-04-19T17:35:01Z</time></trkpt><trkpt lat="36.78472863252898" lon="-107.94011621722163"><ele>1862.0</ele><time>2026-04-19T17:35:02Z</time></trkpt><trkpt lat="36.78484235315209" lon="-107.94005469214333"><ele>1863.3333333333333</ele><time>2026-04-19T17:35:04Z</time></trkpt><trkpt lat="36.784908866808486" lon="-107.9399731648937"><ele>1864.6666666666665</ele><time>2026-04-19T17:35:05Z</time></trkpt><trkpt lat="36.78496466804336" lon="-107.93992154003335"><ele>1866.0</ele><time>2026-04-19T17:35:06Z</time></trkpt><trkpt lat="36.78504064237538" lon="-107.93989177189928"><ele>1867.3333333333335</ele><time>2026-04-19T17:35:07Z</time></trkpt><trkpt lat="36.78511409970565" lon="-107.93987062647264"><ele>1868.6666666666667</ele><time>2026-04-19T17:35:08Z</time></trkpt><trkpt lat="36.78518054070795" lon="-107.93989138684861"><ele>1870.0</ele><time>2026-04-19T17:35:09Z</time></trkpt><trkpt lat="36.785271703215265" lon="-107.93993735029977"><ele>1870.6</ele><time>2026-04-19T17:35:10Z</time></trkpt><trkpt lat="36.785386355485045" lon="-107.93986639783839"><ele>1871.2</ele><time>2026-04-19T17:35:12Z</time></trkpt><trkpt lat="36.785483452091924" lon="-107.93982696816774"><ele>1871.8000000000002</ele><time>2026-04-19T17:35:13Z</time></trkpt><trkpt lat="36.7855804945941" lon="-107.93978242234054"><ele>1872.4</ele><time>2026-04-19T17:35:14Z</time></trkpt><trkpt lat="36.785661693323995" lon="-107.93972105271939"><ele>1873.0</ele><time>2026-04-19T17:35:15Z</time></trkpt><trkpt lat="36.785741148651184" lon="-107.9396612680521"><ele>1873.0000000000002</ele><time>2026-04-19T17:35:16Z</time></trkpt><trkpt lat="36.78581300074461" lon="-107.93963110205043"><ele>1873.0</ele><time>2026-04-19T17:35:17Z</time></trkpt><trkpt lat="36.785912896211855" lon="-107.93961943962083"><ele>1873.0</ele><time>2026-04-19T17:35:18Z</time></trkpt><trkpt lat="36.78601356688667" lon="-107.9396089664354"><ele>1873.0</ele><time>2026-04-19T17:35:19Z</time></trkpt><trkpt lat="36.78610134869506" lon="-107.9395807325949"><ele>1873.0000000000002</ele><time>2026-04-19T17:35:20Z</time></trkpt><trkpt lat="36.786170596726144" lon="-107.9395506922547"><ele>1873.0</ele><time>2026-04-19T17:35:21Z</time></trkpt><trkpt lat="36.786243121569555" lon="-107.93953287821414"><ele>1872.6000000000001</ele><time>2026-04-19T17:35:22Z</time></trkpt><trkpt lat="36.786322942903475" lon="-107.93956713005447"><ele>1872.2000000000003</ele><time>2026-04-19T17:35:23Z</time></trkpt><trkpt lat="36.786408415872955" lon="-107.93962045537509"><ele>1871.8</ele><time>2026-04-19T17:35:24Z</time></trkpt><trkpt lat="36.786479345556565" lon="-107.93966795229036"><ele>1871.4</ele><time>2026-04-19T17:35:25Z</time></trkpt><trkpt lat="36.786548511913814" lon="-107.93958133766843"><ele>1871.0</ele><time>2026-04-19T17:35:27Z</time></trkpt><trkpt lat="36.78660684755461" lon="-107.93946499849329"><ele>1870.9999999999998</ele><time>2026-04-19T17:35:28Z</time></trkpt><trkpt lat="36.786682944419155" lon="-107.93938015014236"><ele>1871.0</ele><time>2026-04-19T17:35:29Z</time></trkpt><trkpt lat="36.78676725555265" lon="-107.93930801597368"><ele>1871.0</ele><time>2026-04-19T17:35:30Z</time></trkpt><trkpt lat="36.786846192757906" lon="-107.939247482063"><ele>1871.0</ele><time>2026-04-19T17:35:31Z</time></trkpt><trkpt lat="36.786914544763434" lon="-107.93919905556879"><ele>1870.9999999999998</ele><time>2026-04-19T17:35:32Z</time></trkpt><trkpt lat="36.7869705245483" lon="-107.93914998293214"><ele>1871.0</ele><time>2026-04-19T17:35:33Z</time></trkpt><trkpt lat="36.787027182093624" lon="-107.93907255124364"><ele>1872.8</ele><time>2026-04-19T17:35:34Z</time></trkpt><trkpt lat="36.787068602090656" lon="-107.93900154472561"><ele>1874.6</ele><time>2026-04-19T17:35:35Z</time></trkpt><trkpt lat="36.78713043369638" lon="-107.93889547795814"><ele>1876.4</ele><time>2026-04-19T17:35:37Z</time></trkpt><trkpt lat="36.78723388184757" lon="-107.93883167483311"><ele>1878.2</ele><time>2026-04-19T17:35:39Z</time></trkpt><trkpt lat="36.78730611564511" lon="-107.93884751407592"><ele>1880.0</ele><time>2026-04-19T17:35:40Z</time></trkpt><trkpt lat="36.787397629909954" lon="-107.93887260996782"><ele>1879.9999999999998</ele><time>2026-04-19T17:35:41Z</time></trkpt><trkpt lat="36.78748639472058" lon="-107.93891273097658"><ele>1880.0</ele><time>2026-04-19T17:35:42Z</time></trkpt><trkpt lat="36.78755428551411" lon="-107.93893053189525"><ele>1880.0</ele><time>2026-04-19T17:35:43Z</time></trkpt><trkpt lat="36.78761698661544" lon="-107.93894071584444"><ele>1880.0</ele><time>2026-04-19T17:35:44Z</time></trkpt><trkpt lat="36.78768475651374" lon="-107.93891191105574"><ele>1879.9999999999998</ele><time>2026-04-19T17:35:45Z</time></trkpt><trkpt lat="36.78775673269625" lon="-107.9388992356043"><ele>1880.0</ele><time>2026-04-19T17:35:46Z</time></trkpt><trkpt lat="36.78783356215555" lon="-107.93893642757476"><ele>1880.4</ele><time>2026-04-19T17:35:47Z</time></trkpt><trkpt lat="36.787933302471316" lon="-107.93900595691085"><ele>1880.8</ele><time>2026-04-19T17:35:48Z</time></trkpt><trkpt lat="36.78803387650773" lon="-107.93905464395766"><ele>1881.1999999999998</ele><time>2026-04-19T17:35:49Z</time></trkpt><trkpt lat="36.78810340065081" lon="-107.93905908886023"><ele>1881.6</ele><time>2026-04-19T17:35:50Z</time></trkpt><trkpt lat="36.78819031494234" lon="-107.93904802696564"><ele>1882.0</ele><time>2026-04-19T17:35:51Z</time></trkpt><trkpt lat="36.788270132879966" lon="-107.9390491702215"><ele>1882.0</ele><time>2026-04-19T17:35:52Z</time></trkpt><trkpt lat="36.78833064631377" lon="-107.93907411091419"><ele>1881.9999999999998</ele><time>2026-04-19T17:35:53Z</time></trkpt><trkpt lat="36.78842471530192" lon="-107.93914607899646"><ele>1881.9999999999998</ele><time>2026-04-19T17:35:54Z</time></trkpt><trkpt lat="36.78851749469702" lon="-107.9392049250725"><ele>1882.0</ele><time>2026-04-19T17:35:55Z</time></trkpt><trkpt lat="36.78861750965333" lon="-107.93924365099801"><ele>1882.0</ele><time>2026-04-19T17:35:56.001Z</time></trkpt><trkpt lat="36.78874599660878" lon="-107.93928070279466"><ele>1881.25</ele><time>2026-04-19T17:35:57.001Z</time></trkpt><trkpt lat="36.78887559411453" lon="-107.93932640604085"><ele>1880.5</ele><time>2026-04-19T17:35:58.001Z</time></trkpt><trkpt lat="36.78897113505607" lon="-107.93937149549355"><ele>1879.75</ele><time>2026-04-19T17:35:59.001Z</time></trkpt><trkpt lat="36.789072640283436" lon="-107.93942759806201"><ele>1879.0</ele><time>2026-04-19T17:36:00.001Z</time></trkpt><trkpt lat="36.789185245676684" lon="-107.93947638148644"><ele>1879.0</ele><time>2026-04-19T17:36:01.001Z</time></trkpt><trkpt lat="36.78928932333073" lon="-107.93950325313178"><ele>1879.0</ele><time>2026-04-19T17:36:02.001Z</time></trkpt><trkpt lat="36.789385958583715" lon="-107.93951793158757"><ele>1879.0</ele><time>2026-04-19T17:36:03.001Z</time></trkpt><trkpt lat="36.78948207309692" lon="-107.9395253100247"><ele>1879.0</ele><time>2026-04-19T17:36:04.001Z</time></trkpt><trkpt lat="36.78956132774513" lon="-107.93952969941688"><ele>1879.0</ele><time>2026-04-19T17:36:05.001Z</time></trkpt><trkpt lat="36.7896459814473" lon="-107.9395268626152"><ele>1879.0000000000002</ele><time>2026-04-19T17:36:06.001Z</time></trkpt><trkpt lat="36.789734730008995" lon="-107.93951871465573"><ele>1879.0</ele><time>2026-04-19T17:36:07.001Z</time></trkpt><trkpt lat="36.789844691932714" lon="-107.93953772423433"><ele>1879.0</ele><time>2026-04-19T17:36:09.001Z</time></trkpt><trkpt lat="36.7899072400677" lon="-107.93947015258524"><ele>1879.0</ele><time>2026-04-19T17:36:10.001Z</time></trkpt><trkpt lat="36.78997226271359" lon="-107.9393989606621"><ele>1879.0000000000002</ele><time>2026-04-19T17:36:11.001Z</time></trkpt><trkpt lat="36.79004246847244" lon="-107.93935046942947"><ele>1879.0</ele><time>2026-04-19T17:36:12.001Z</time></trkpt><trkpt lat="36.79011559101854" lon="-107.93935100703943"><ele>1879.8333333333335</ele><time>2026-04-19T17:36:13.001Z</time></trkpt><trkpt lat="36.79023103562259" lon="-107.9393713550177"><ele>1880.6666666666667</ele><time>2026-04-19T17:36:15.001Z</time></trkpt><trkpt lat="36.79030637615234" lon="-107.9393739237747"><ele>1881.5</ele><time>2026-04-19T17:36:16.001Z</time></trkpt><trkpt lat="36.790389894508166" lon="-107.93937731961292"><ele>1882.3333333333335</ele><time>2026-04-19T17:36:17.001Z</time></trkpt><trkpt lat="36.79046789618602" lon="-107.93939314185668"><ele>1883.1666666666667</ele><time>2026-04-19T17:36:18.001Z</time></trkpt><trkpt lat="36.79054024487983" lon="-107.93942920263213"><ele>1884.0</ele><time>2026-04-19T17:36:19.001Z</time></trkpt><trkpt lat="36.79059744041527" lon="-107.93947977526278"><ele>1884.0</ele><time>2026-04-19T17:36:20.001Z</time></trkpt><trkpt lat="36.790657378860466" lon="-107.93954174738839"><ele>1884.0</ele><time>2026-04-19T17:36:21.001Z</time></trkpt><trkpt lat="36.7907485084734" lon="-107.93960759246961"><ele>1884.0</ele><time>2026-04-19T17:36:22.001Z</time></trkpt><trkpt lat="36.79084120286753" lon="-107.93961965108251"><ele>1884.0</ele><time>2026-04-19T17:36:23.001Z</time></trkpt><trkpt lat="36.79094463288346" lon="-107.93960538515265"><ele>1884.0</ele><time>2026-04-19T17:36:24.001Z</time></trkpt><trkpt lat="36.7910462450341" lon="-107.93958895811"><ele>1884.4</ele><time>2026-04-19T17:36:25.001Z</time></trkpt><trkpt lat="36.79115116793166" lon="-107.93961169256444"><ele>1884.8000000000002</ele><time>2026-04-19T17:36:26.001Z</time></trkpt><trkpt lat="36.791264739576604" lon="-107.93962830836723"><ele>1885.1999999999998</ele><time>2026-04-19T17:36:27.001Z</time></trkpt><trkpt lat="36.79132713898913" lon="-107.93961566513721"><ele>1885.6</ele><time>2026-04-19T17:36:28.001Z</time></trkpt><trkpt lat="36.791397566998455" lon="-107.93955846597876"><ele>1886.0</ele><time>2026-04-19T17:36:30.001Z</time></trkpt><trkpt lat="36.791499133498654" lon="-107.93947302651875"><ele>1886.0</ele><time>2026-04-19T17:36:32.001Z</time></trkpt><trkpt lat="36.79164880965993" lon="-107.93947586115848"><ele>1886.0</ele><time>2026-04-19T17:36:34.001Z</time></trkpt><trkpt lat="36.7917401715866" lon="-107.93948973554826"><ele>1886.0</ele><time>2026-04-19T17:36:35.001Z</time></trkpt><trkpt lat="36.791807726786274" lon="-107.93951324358528"><ele>1886.0</ele><time>2026-04-19T17:36:36.001Z</time></trkpt><trkpt lat="36.791874439694006" lon="-107.93953389616277"><ele>1886.0</ele><time>2026-04-19T17:36:37.001Z</time></trkpt><trkpt lat="36.79194719194836" lon="-107.93954620248647"><ele>1886.4999999999998</ele><time>2026-04-19T17:36:38.001Z</time></trkpt><trkpt lat="36.79202609091673" lon="-107.93958524724513"><ele>1887.0</ele><time>2026-04-19T17:36:39.001Z</time></trkpt><trkpt lat="36.792104677146234" lon="-107.93963597761812"><ele>1887.5</ele><time>2026-04-19T17:36:40.001Z</time></trkpt><trkpt lat="36.792197798221686" lon="-107.93967068975363"><ele>1888.0</ele><time>2026-04-19T17:36:41.001Z</time></trkpt><trkpt lat="36.792262819801806" lon="-107.93966305368056"><ele>1888.4999999999998</ele><time>2026-04-19T17:36:42.001Z</time></trkpt><trkpt lat="36.79236552376477" lon="-107.9396888300078"><ele>1889.0</ele><time>2026-04-19T17:36:44.001Z</time></trkpt><trkpt lat="36.79250156767711" lon="-107.93971371221029"><ele>1889.0</ele><time>2026-04-19T17:36:46.001Z</time></trkpt><trkpt lat="36.79259940136921" lon="-107.93968545718005"><ele>1889.0</ele><time>2026-04-19T17:36:47.001Z</time></trkpt><trkpt lat="36.79269757618923" lon="-107.93964811535496"><ele>1889.0</ele><time>2026-04-19T17:36:48.001Z</time></trkpt><trkpt lat="36.79281000592109" lon="-107.93961294607463"><ele>1889.0</ele><time>2026-04-19T17:36:49.001Z</time></trkpt><trkpt lat="36.79290514344287" lon="-107.93957466506873"><ele>1889.0</ele><time>2026-04-19T17:36:50.001Z</time></trkpt><trkpt lat="36.792983037456864" lon="-107.93952046353218"><ele>1889.4</ele><time>2026-04-19T17:36:51.001Z</time></trkpt><trkpt lat="36.79304743059336" lon="-107.93944835265161"><ele>1889.8000000000002</ele><time>2026-04-19T17:36:52.001Z</time></trkpt><trkpt lat="36.793130983526424" lon="-107.93937769630774"><ele>1890.1999999999998</ele><time>2026-04-19T17:36:53.001Z</time></trkpt><trkpt lat="36.79322681776651" lon="-107.93931101011398"><ele>1890.6</ele><time>2026-04-19T17:36:54.001Z</time></trkpt><trkpt lat="36.79330122802419" lon="-107.93926190563673"><ele>1891.0</ele><time>2026-04-19T17:36:55.001Z</time></trkpt><trkpt lat="36.79337355371656" lon="-107.93919045308405"><ele>1891.0</ele><time>2026-04-19T17:36:56.001Z</time></trkpt><trkpt lat="36.79348498414969" lon="-107.93921392928428"><ele>1891.0</ele><time>2026-04-19T17:36:58Z</time></trkpt><trkpt lat="36.79359235625393" lon="-107.9392229075187"><ele>1891.0</ele><time>2026-04-19T17:36:59Z</time></trkpt><trkpt lat="36.79366225331878" lon="-107.93920623370076"><ele>1891.0</ele><time>2026-04-19T17:37:00Z</time></trkpt><trkpt lat="36.79377322570866" lon="-107.9392518797559"><ele>1891.0</ele><time>2026-04-19T17:37:02Z</time></trkpt><trkpt lat="36.79386362220042" lon="-107.93930435296609"><ele>1891.1666666666667</ele><time>2026-04-19T17:37:04Z</time></trkpt><trkpt lat="36.79394773726987" lon="-107.93925108149408"><ele>1891.3333333333335</ele><time>2026-04-19T17:37:05Z</time></trkpt><trkpt lat="36.79401647940911" lon="-107.93917444349088"><ele>1891.5</ele><time>2026-04-19T17:37:06Z</time></trkpt><trkpt lat="36.7940884281243" lon="-107.93918158326409"><ele>1891.6666666666665</ele><time>2026-04-19T17:37:07Z</time></trkpt><trkpt lat="36.79415907317895" lon="-107.93920824089766"><ele>1891.8333333333333</ele><time>2026-04-19T17:37:08Z</time></trkpt><trkpt lat="36.79421903923127" lon="-107.93916564901625"><ele>1892.0</ele><time>2026-04-19T17:37:09Z</time></trkpt><trkpt lat="36.79424381369199" lon="-107.93908374343361"><ele>1892.0</ele><time>2026-04-19T17:37:10Z</time></trkpt><trkpt lat="36.794280558524896" lon="-107.93898739802358"><ele>1891.9999999999998</ele><time>2026-04-19T17:37:11Z</time></trkpt><trkpt lat="36.79437611573529" lon="-107.93889577393196"><ele>1891.9999999999998</ele><time>2026-04-19T17:37:12Z</time></trkpt><trkpt lat="36.79445157994089" lon="-107.93881223993549"><ele>1892.0</ele><time>2026-04-19T17:37:13Z</time></trkpt><trkpt lat="36.794438103371384" lon="-107.93865840873954"><ele>1892.0</ele><time>2026-04-19T17:37:15Z</time></trkpt><trkpt lat="36.79440188148315" lon="-107.9385704445557"><ele>1892.1666666666665</ele><time>2026-04-19T17:37:17Z</time></trkpt><trkpt lat="36.79442296289177" lon="-107.93848555957882"><ele>1892.3333333333333</ele><time>2026-04-19T17:37:19Z</time></trkpt><trkpt lat="36.79449220525462" lon="-107.93840945805024"><ele>1892.5</ele><time>2026-04-19T17:37:21Z</time></trkpt><trkpt lat="36.79458386225365" lon="-107.93834788983733"><ele>1892.6666666666665</ele><time>2026-04-19T17:37:22Z</time></trkpt><trkpt lat="36.79466204535363" lon="-107.93830526213881"><ele>1892.8333333333333</ele><time>2026-04-19T17:37:23Z</time></trkpt><trkpt lat="36.79473677435956" lon="-107.93827960516782"><ele>1893.0</ele><time>2026-04-19T17:37:24Z</time></trkpt><trkpt lat="36.79479561230982" lon="-107.93822626400042"><ele>1893.6000000000001</ele><time>2026-04-19T17:37:25Z</time></trkpt><trkpt lat="36.794851970563734" lon="-107.93814673733755"><ele>1894.2000000000003</ele><time>2026-04-19T17:37:26Z</time></trkpt><trkpt lat="36.794942271876444" lon="-107.93807623090632"><ele>1894.8</ele><time>2026-04-19T17:37:27Z</time></trkpt><trkpt lat="36.79501801473235" lon="-107.93803934488132"><ele>1895.4</ele><time>2026-04-19T17:37:28Z</time></trkpt><trkpt lat="36.795130677726355" lon="-107.93801999205176"><ele>1896.0</ele><time>2026-04-19T17:37:30Z</time></trkpt><trkpt lat="36.79524255306455" lon="-107.93802436683181"><ele>1897.0</ele><time>2026-04-19T17:37:31Z</time></trkpt><trkpt lat="36.795368273470494" lon="-107.93802968536497"><ele>1898.0</ele><time>2026-04-19T17:37:32Z</time></trkpt><trkpt lat="36.79549358510705" lon="-107.93801110502072"><ele>1899.0</ele><time>2026-04-19T17:37:33Z</time></trkpt><trkpt lat="36.79563342056763" lon="-107.93800396253292"><ele>1900.0</ele><time>2026-04-19T17:37:34Z</time></trkpt><trkpt lat="36.79575760820637" lon="-107.93802462169303"><ele>1900.0</ele><time>2026-04-19T17:37:35Z</time></trkpt><trkpt lat="36.795889991507295" lon="-107.93805543254591"><ele>1900.0</ele><time>2026-04-19T17:37:36Z</time></trkpt><trkpt lat="36.79602177222062" lon="-107.93807110168385"><ele>1900.0</ele><time>2026-04-19T17:37:37Z</time></trkpt><trkpt lat="36.796132259730584" lon="-107.93806996634486"><ele>1900.0</ele><time>2026-04-19T17:37:38Z</time></trkpt><trkpt lat="36.79626450495824" lon="-107.9380745854911"><ele>1901.25</ele><time>2026-04-19T17:37:39Z</time></trkpt><trkpt lat="36.79639284669792" lon="-107.93808960033516"><ele>1902.5</ele><time>2026-04-19T17:37:40Z</time></trkpt><trkpt lat="36.796502139699264" lon="-107.93809609421423"><ele>1903.75</ele><time>2026-04-19T17:37:41Z</time></trkpt><trkpt lat="36.796609863293114" lon="-107.93811435211502"><ele>1905.0</ele><time>2026-04-19T17:37:42Z</time></trkpt><trkpt lat="36.7967126482027" lon="-107.93814378525988"><ele>1905.0</ele><time>2026-04-19T17:37:43Z</time></trkpt><trkpt lat="36.79682617790175" lon="-107.93816783124299"><ele>1905.0</ele><time>2026-04-19T17:37:44Z</time></trkpt><trkpt lat="36.79697193246039" lon="-107.93817039752936"><ele>1905.0</ele><time>2026-04-19T17:37:45Z</time></trkpt><trkpt lat="36.79712644269181" lon="-107.93817887890322"><ele>1905.0</ele><time>2026-04-19T17:37:46Z</time></trkpt><trkpt lat="36.79726395541014" lon="-107.9381848985513"><ele>1906.75</ele><time>2026-04-19T17:37:47Z</time></trkpt><trkpt lat="36.797384252878906" lon="-107.93819189517497"><ele>1908.5</ele><time>2026-04-19T17:37:48Z</time></trkpt><trkpt lat="36.79750575941634" lon="-107.93820537517587"><ele>1910.25</ele><time>2026-04-19T17:37:49Z</time></trkpt><trkpt lat="36.79762719181488" lon="-107.93820617223426"><ele>1912.0</ele><time>2026-04-19T17:37:50Z</time></trkpt><trkpt lat="36.797720263925264" lon="-107.93820802933482"><ele>1913.25</ele><time>2026-04-19T17:37:51Z</time></trkpt><trkpt lat="36.79785509984778" lon="-107.93822850994484"><ele>1914.5</ele><time>2026-04-19T17:37:52Z</time></trkpt><trkpt lat="36.79800422105169" lon="-107.93824584335287"><ele>1915.75</ele><time>2026-04-19T17:37:53Z</time></trkpt><trkpt lat="36.798143277538145" lon="-107.9382655620107"><ele>1917.0</ele><time>2026-04-19T17:37:54Z</time></trkpt><trkpt lat="36.79826796337445" lon="-107.93829727996834"><ele>1917.0</ele><time>2026-04-19T17:37:55Z</time></trkpt><trkpt lat="36.798408902686795" lon="-107.93832540901255"><ele>1917.0</ele><time>2026-04-19T17:37:56Z</time></trkpt><trkpt lat="36.79853594527324" lon="-107.93833324009505"><ele>1917.0</ele><time>2026-04-19T17:37:57Z</time></trkpt><trkpt lat="36.79863891919896" lon="-107.93833669075791"><ele>1917.0</ele><time>2026-04-19T17:37:58Z</time></trkpt><trkpt lat="36.79875520596344" lon="-107.93833080643611"><ele>1917.25</ele><time>2026-04-19T17:37:59Z</time></trkpt><trkpt lat="36.79888734423216" lon="-107.93833821643643"><ele>1917.5</ele><time>2026-04-19T17:38:00Z</time></trkpt><trkpt lat="36.79902065313959" lon="-107.93836252449303"><ele>1917.75</ele><time>2026-04-19T17:38:01Z</time></trkpt><trkpt lat="36.79913747684518" lon="-107.93837065416852"><ele>1918.0</ele><time>2026-04-19T17:38:02Z</time></trkpt><trkpt lat="36.799267974498555" lon="-107.9383541529232"><ele>1918.0</ele><time>2026-04-19T17:38:03Z</time></trkpt><trkpt lat="36.79943570649142" lon="-107.93835967434437"><ele>1918.0</ele><time>2026-04-19T17:38:04Z</time></trkpt><trkpt lat="36.79961398295223" lon="-107.93837826932342"><ele>1918.0</ele><time>2026-04-19T17:38:05Z</time></trkpt><trkpt lat="36.79978670311828" lon="-107.93839132000991"><ele>1918.0</ele><time>2026-04-19T17:38:06.001Z</time></trkpt><trkpt lat="36.79994343345784" lon="-107.9383919742993"><ele>1918.0</ele><time>2026-04-19T17:38:07.001Z</time></trkpt><trkpt lat="36.80008746864668" lon="-107.93839588202464"><ele>1918.0</ele><time>2026-04-19T17:38:08.001Z</time></trkpt><trkpt lat="36.800199111859236" lon="-107.93840538617596"><ele>1918.0</ele><time>2026-04-19T17:38:09.001Z</time></trkpt><trkpt lat="36.80027956340685" lon="-107.938426774485"><ele>1918.2</ele><time>2026-04-19T17:38:10.001Z</time></trkpt><trkpt lat="36.80036895798913" lon="-107.93846402194507"><ele>1918.4</ele><time>2026-04-19T17:38:12.001Z</time></trkpt><trkpt lat="36.800466491039025" lon="-107.93853856580469"><ele>1918.6000000000001</ele><time>2026-04-19T17:38:32.001Z</time></trkpt><trkpt lat="36.80054060187922" lon="-107.93859857402981"><ele>1918.8000000000002</ele><time>2026-04-19T17:38:33.001Z</time></trkpt><trkpt lat="36.800619815665684" lon="-107.93868784573223"><ele>1919.0</ele><time>2026-04-19T17:38:34.001Z</time></trkpt><trkpt lat="36.800709823680116" lon="-107.93879765798751"><ele>1919.0</ele><time>2026-04-19T17:38:35.001Z</time></trkpt><trkpt lat="36.80079729117169" lon="-107.93890164540196"><ele>1919.0</ele><time>2026-04-19T17:38:36.001Z</time></trkpt><trkpt lat="36.80086711930491" lon="-107.93899100693345"><ele>1919.0</ele><time>2026-04-19T17:38:37.001Z</time></trkpt><trkpt lat="36.80093136781181" lon="-107.93907039572586"><ele>1919.0</ele><time>2026-04-19T17:38:38.001Z</time></trkpt><trkpt lat="36.800999970097386" lon="-107.93914211194722"><ele>1919.0</ele><time>2026-04-19T17:38:39.001Z</time></trkpt><trkpt lat="36.801098082171805" lon="-107.93923984730199"><ele>1917.25</ele><time>2026-04-19T17:38:40.001Z</time></trkpt><trkpt lat="36.80121952460256" lon="-107.93934857375905"><ele>1915.5</ele><time>2026-04-19T17:38:41.001Z</time></trkpt><trkpt lat="36.801330991333025" lon="-107.9394441289255"><ele>1913.75</ele><time>2026-04-19T17:38:42.001Z</time></trkpt><trkpt lat="36.801411332383964" lon="-107.93951857008805"><ele>1912.0</ele><time>2026-04-19T17:38:43.001Z</time></trkpt><trkpt lat="36.80149726127991" lon="-107.93959694466572"><ele>1912.0</ele><time>2026-04-19T17:38:44.001Z</time></trkpt><trkpt lat="36.801608596817296" lon="-107.93967792808166"><ele>1912.0</ele><time>2026-04-19T17:38:45.001Z</time></trkpt><trkpt lat="36.8017099513626" lon="-107.93977348590148"><ele>1912.0</ele><time>2026-04-19T17:38:46.001Z</time></trkpt><trkpt lat="36.80179614495749" lon="-107.93986785900344"><ele>1912.0</ele><time>2026-04-19T17:38:47.001Z</time></trkpt><trkpt lat="36.801869396750675" lon="-107.93994044440511"><ele>1910.6</ele><time>2026-04-19T17:38:48.001Z</time></trkpt><trkpt lat="36.80193748546024" lon="-107.94001931746624"><ele>1909.1999999999998</ele><time>2026-04-19T17:38:49.001Z</time></trkpt><trkpt lat="36.80201124915449" lon="-107.94009769382025"><ele>1907.8</ele><time>2026-04-19T17:38:50.001Z</time></trkpt><trkpt lat="36.802076490397766" lon="-107.94016227825887"><ele>1906.4</ele><time>2026-04-19T17:38:51.001Z</time></trkpt><trkpt lat="36.80215910577222" lon="-107.94023510526445"><ele>1905.0</ele><time>2026-04-19T17:38:52.001Z</time></trkpt><trkpt lat="36.80225161236128" lon="-107.94032277786583"><ele>1903.8</ele><time>2026-04-19T17:38:53.001Z</time></trkpt><trkpt lat="36.80233962661443" lon="-107.94041008594489"><ele>1902.6</ele><time>2026-04-19T17:38:54.001Z</time></trkpt><trkpt lat="36.80240717639808" lon="-107.94046140836946"><ele>1901.4</ele><time>2026-04-19T17:38:55.001Z</time></trkpt><trkpt lat="36.80248035751744" lon="-107.94052689852951"><ele>1900.2</ele><time>2026-04-19T17:38:56.001Z</time></trkpt><trkpt lat="36.80257235203679" lon="-107.94060741795747"><ele>1899.0</ele><time>2026-04-19T17:38:57.001Z</time></trkpt><trkpt lat="36.80266925651473" lon="-107.94071109377866"><ele>1898.4</ele><time>2026-04-19T17:38:58.001Z</time></trkpt><trkpt lat="36.802757012000484" lon="-107.94079594272944"><ele>1897.8000000000002</ele><time>2026-04-19T17:38:59.001Z</time></trkpt><trkpt lat="36.80285102220617" lon="-107.94086435267234"><ele>1897.1999999999998</ele><time>2026-04-19T17:39:00.001Z</time></trkpt><trkpt lat="36.802951267615875" lon="-107.94093742514012"><ele>1896.6</ele><time>2026-04-19T17:39:01.001Z</time></trkpt><trkpt lat="36.80304169341322" lon="-107.9410020043201"><ele>1896.0</ele><time>2026-04-19T17:39:02.001Z</time></trkpt><trkpt lat="36.80312265051694" lon="-107.94105964280376"><ele>1895.6</ele><time>2026-04-19T17:39:03.001Z</time></trkpt><trkpt lat="36.80319804050675" lon="-107.94110199969052"><ele>1895.1999999999998</ele><time>2026-04-19T17:39:04Z</time></trkpt><trkpt lat="36.803271831880664" lon="-107.94114089874408"><ele>1894.8000000000002</ele><time>2026-04-19T17:39:05Z</time></trkpt><trkpt lat="36.80335026715585" lon="-107.94121117703698"><ele>1894.4</ele><time>2026-04-19T17:39:06Z</time></trkpt><trkpt lat="36.803452911739896" lon="-107.94133653018113"><ele>1894.0</ele><time>2026-04-19T17:39:07Z</time></trkpt><trkpt lat="36.80356663769069" lon="-107.94148459562545"><ele>1893.4</ele><time>2026-04-19T17:39:08Z</time></trkpt><trkpt lat="36.80367848842468" lon="-107.94161026347113"><ele>1892.8000000000002</ele><time>2026-04-19T17:39:09Z</time></trkpt><trkpt lat="36.80376021789802" lon="-107.94168042591969"><ele>1892.1999999999998</ele><time>2026-04-19T17:39:10Z</time></trkpt><trkpt lat="36.803841303665074" lon="-107.9417343538028"><ele>1891.6</ele><time>2026-04-19T17:39:11Z</time></trkpt><trkpt lat="36.80392148342749" lon="-107.94179923189373"><ele>1891.0</ele><time>2026-04-19T17:39:12Z</time></trkpt><trkpt lat="36.8040201466695" lon="-107.9419016628169"><ele>1890.3333333333335</ele><time>2026-04-19T17:39:13Z</time></trkpt><trkpt lat="36.804147760469114" lon="-107.94202908888525"><ele>1889.6666666666665</ele><time>2026-04-19T17:39:14Z</time></trkpt><trkpt lat="36.80428345998439" lon="-107.94214512430433"><ele>1889.0</ele><time>2026-04-19T17:39:15Z</time></trkpt><trkpt lat="36.80439858181891" lon="-107.9422382277873"><ele>1888.75</ele><time>2026-04-19T17:39:16Z</time></trkpt><trkpt lat="36.80450752221228" lon="-107.94232665065896"><ele>1888.5</ele><time>2026-04-19T17:39:17Z</time></trkpt><trkpt lat="36.804621134882865" lon="-107.94243150231112"><ele>1888.25</ele><time>2026-04-19T17:39:18Z</time></trkpt><trkpt lat="36.80472786468977" lon="-107.94254711356976"><ele>1888.0</ele><time>2026-04-19T17:39:19Z</time></trkpt><trkpt lat="36.804827362539086" lon="-107.94266011070292"><ele>1887.8000000000002</ele><time>2026-04-19T17:39:20Z</time></trkpt><trkpt lat="36.804918281711295" lon="-107.94276409953669"><ele>1887.6000000000001</ele><time>2026-04-19T17:39:21Z</time></trkpt><trkpt lat="36.80498570490518" lon="-107.94284325051211"><ele>1887.3999999999999</ele><time>2026-04-19T17:39:22Z</time></trkpt><trkpt lat="36.80506809318694" lon="-107.94292868788737"><ele>1887.1999999999998</ele><time>2026-04-19T17:39:24Z</time></trkpt><trkpt lat="36.805108725364526" lon="-107.94301216613198"><ele>1887.0</ele><time>2026-04-19T17:39:26Z</time></trkpt><trkpt lat="36.80508192939205" lon="-107.94314769785775"><ele>1887.0</ele><time>2026-04-19T17:39:28Z</time></trkpt><trkpt lat="36.80505631436087" lon="-107.94322162064408"><ele>1887.0</ele><time>2026-04-19T17:39:29Z</time></trkpt><trkpt lat="36.80507701324938" lon="-107.94338378976033"><ele>1887.0</ele><time>2026-04-19T17:39:31Z</time></trkpt><trkpt lat="36.80509779148315" lon="-107.94348887854106"><ele>1887.0</ele><time>2026-04-19T17:39:32Z</time></trkpt><trkpt lat="36.805129741378146" lon="-107.9435838571773"><ele>1887.0</ele><time>2026-04-19T17:39:33Z</time></trkpt><trkpt lat="36.80517085875582" lon="-107.94366005780864"><ele>1887.0</ele><time>2026-04-19T17:39:34Z</time></trkpt><trkpt lat="36.80524914500582" lon="-107.94372864045835"><ele>1887.3999999999999</ele><time>2026-04-19T17:39:35Z</time></trkpt><trkpt lat="36.80530641959207" lon="-107.94381944130724"><ele>1887.7999999999997</ele><time>2026-04-19T17:39:36Z</time></trkpt><trkpt lat="36.80533825358082" lon="-107.94392570638173"><ele>1888.2</ele><time>2026-04-19T17:39:37Z</time></trkpt><trkpt lat="36.80535092312994" lon="-107.94403050533371"><ele>1888.6</ele><time>2026-04-19T17:39:38Z</time></trkpt><trkpt lat="36.80536540134478" lon="-107.94415716673792"><ele>1889.0</ele><time>2026-04-19T17:39:39Z</time></trkpt><trkpt lat="36.8054014504" lon="-107.9442849431035"><ele>1889.0</ele><time>2026-04-19T17:39:40Z</time></trkpt><trkpt lat="36.80544934601112" lon="-107.94442343903802"><ele>1889.0</ele><time>2026-04-19T17:39:41Z</time></trkpt><trkpt lat="36.805495309808585" lon="-107.94456326246565"><ele>1889.0</ele><time>2026-04-19T17:39:42Z</time></trkpt><trkpt lat="36.80553255804188" lon="-107.94469656096966"><ele>1889.0</ele><time>2026-04-19T17:39:43Z</time></trkpt><trkpt lat="36.805573208927875" lon="-107.9448164118925"><ele>1889.0</ele><time>2026-04-19T17:39:44Z</time></trkpt><trkpt lat="36.80559281833766" lon="-107.94491274439103"><ele>1889.0</ele><time>2026-04-19T17:39:45Z</time></trkpt><trkpt lat="36.80561157949121" lon="-107.94504336018146"><ele>1889.0</ele><time>2026-04-19T17:39:46Z</time></trkpt><trkpt lat="36.80564033818789" lon="-107.94516733226315"><ele>1889.0</ele><time>2026-04-19T17:39:47Z</time></trkpt><trkpt lat="36.805687992678244" lon="-107.94526733386247"><ele>1889.0</ele><time>2026-04-19T17:39:48Z</time></trkpt><trkpt lat="36.805751031696445" lon="-107.94535612639349"><ele>1889.2</ele><time>2026-04-19T17:39:49Z</time></trkpt><trkpt lat="36.80580543148235" lon="-107.94540640969778"><ele>1889.4</ele><time>2026-04-19T17:39:50Z</time></trkpt><trkpt lat="36.805859439740324" lon="-107.9454681352118"><ele>1889.6</ele><time>2026-04-19T17:39:51Z</time></trkpt><trkpt lat="36.80589929353366" lon="-107.94561630227615"><ele>1889.8</ele><time>2026-04-19T17:39:53Z</time></trkpt><trkpt lat="36.80589192470008" lon="-107.94574857397012"><ele>1890.0</ele><time>2026-04-19T17:39:54Z</time></trkpt><trkpt lat="36.805894415241276" lon="-107.94589503608758"><ele>1890.0</ele><time>2026-04-19T17:39:55Z</time></trkpt><trkpt lat="36.80593139370835" lon="-107.94599387376812"><ele>1890.0</ele><time>2026-04-19T17:39:56Z</time></trkpt><trkpt lat="36.805960474712975" lon="-107.94610641273515"><ele>1890.0</ele><time>2026-04-19T17:39:57Z</time></trkpt><trkpt lat="36.80599161054662" lon="-107.94624659606451"><ele>1890.0</ele><time>2026-04-19T17:39:58Z</time></trkpt><trkpt lat="36.806028102223515" lon="-107.94635273684476"><ele>1890.0</ele><time>2026-04-19T17:39:59Z</time></trkpt><trkpt lat="36.806013592434645" lon="-107.94655023790867"><ele>1890.0</ele><time>2026-04-19T17:40:01Z</time></trkpt><trkpt lat="36.80597578504919" lon="-107.94669689986353"><ele>1890.0</ele><time>2026-04-19T17:40:02Z</time></trkpt><trkpt lat="36.80597800861403" lon="-107.94682054778781"><ele>1890.0</ele><time>2026-04-19T17:40:03Z</time></trkpt><trkpt lat="36.80598640081255" lon="-107.94693121410836"><ele>1890.0</ele><time>2026-04-19T17:40:04Z</time></trkpt><trkpt lat="36.805975915860955" lon="-107.94701325187458"><ele>1890.0</ele><time>2026-04-19T17:40:05Z</time></trkpt><trkpt lat="36.80604806661856" lon="-107.9471206545586"><ele>1890.2</ele><time>2026-04-19T17:40:07Z</time></trkpt><trkpt lat="36.80615390594766" lon="-107.94715174547142"><ele>1890.4</ele><time>2026-04-19T17:40:08Z</time></trkpt><trkpt lat="36.80624510676146" lon="-107.94717468146398"><ele>1890.6</ele><time>2026-04-19T17:40:09Z</time></trkpt><trkpt lat="36.806309279205884" lon="-107.94719087211068"><ele>1890.8</ele><time>2026-04-19T17:40:10Z</time></trkpt><trkpt lat="36.80640947979136" lon="-107.94731715490478"><ele>1891.0</ele><time>2026-04-19T17:40:12Z</time></trkpt><trkpt lat="36.806469734468514" lon="-107.94740487237722"><ele>1891.0</ele><time>2026-04-19T17:40:13Z</time></trkpt><trkpt lat="36.8065234248574" lon="-107.94747362651812"><ele>1891.0</ele><time>2026-04-19T17:40:14.001Z</time></trkpt><trkpt lat="36.806627988077146" lon="-107.94757105295812"><ele>1891.0</ele><time>2026-04-19T17:40:16.001Z</time></trkpt><trkpt lat="36.8066733274655" lon="-107.94765018719353"><ele>1891.0</ele><time>2026-04-19T17:40:17.001Z</time></trkpt><trkpt lat="36.80671456018151" lon="-107.94775763698853"><ele>1891.0</ele><time>2026-04-19T17:40:18.001Z</time></trkpt><trkpt lat="36.80675304176513" lon="-107.94789564847746"><ele>1890.6666666666667</ele><time>2026-04-19T17:40:19.001Z</time></trkpt><trkpt lat="36.806780491562186" lon="-107.94800378506416"><ele>1890.3333333333335</ele><time>2026-04-19T17:40:20.001Z</time></trkpt><trkpt lat="36.806821267660474" lon="-107.94810082302675"><ele>1890.0</ele><time>2026-04-19T17:40:21.001Z</time></trkpt><trkpt lat="36.806876869406814" lon="-107.94817599420536"><ele>1889.6666666666665</ele><time>2026-04-19T17:40:22.001Z</time></trkpt><trkpt lat="36.80691865637997" lon="-107.94825321429855"><ele>1889.3333333333333</ele><time>2026-04-19T17:40:23.001Z</time></trkpt><trkpt lat="36.80695406820048" lon="-107.94834803731196"><ele>1889.0</ele><time>2026-04-19T17:40:24.001Z</time></trkpt><trkpt lat="36.806991259825516" lon="-107.94842001043138"><ele>1886.0</ele><time>2026-04-19T17:40:25.001Z</time></trkpt><trkpt lat="36.80698855028668" lon="-107.94859262995995"><ele>1883.0</ele><time>2026-04-19T17:40:27.001Z</time></trkpt><trkpt lat="36.80698161767329" lon="-107.94868117823246"><ele>1880.0</ele><time>2026-04-19T17:40:28.001Z</time></trkpt><trkpt lat="36.806992199395744" lon="-107.94876924075712"><ele>1877.0</ele><time>2026-04-19T17:40:29.001Z</time></trkpt><trkpt lat="36.80701339103702" lon="-107.94889687971737"><ele>1874.0</ele><time>2026-04-19T17:40:30.001Z</time></trkpt><trkpt lat="36.8070254883266" lon="-107.94901580282078"><ele>1873.9999999999998</ele><time>2026-04-19T17:40:31.001Z</time></trkpt><trkpt lat="36.80704142863707" lon="-107.94910531974631"><ele>1874.0</ele><time>2026-04-19T17:40:32.001Z</time></trkpt><trkpt lat="36.80712577340516" lon="-107.9492039564824"><ele>1874.0</ele><time>2026-04-19T17:40:34.001Z</time></trkpt><trkpt lat="36.8071173480774" lon="-107.94928597460266"><ele>1874.0</ele><time>2026-04-19T17:40:35.001Z</time></trkpt><trkpt lat="36.80710153061224" lon="-107.94939168908539"><ele>1873.9999999999998</ele><time>2026-04-19T17:40:36.001Z</time></trkpt><trkpt lat="36.807103231318166" lon="-107.94948710699173"><ele>1874.0</ele><time>2026-04-19T17:40:37.001Z</time></trkpt><trkpt lat="36.807099286389146" lon="-107.94957168959876"><ele>1874.4999999999998</ele><time>2026-04-19T17:40:38.001Z</time></trkpt><trkpt lat="36.80710449658871" lon="-107.94966437724449"><ele>1875.0</ele><time>2026-04-19T17:40:39.001Z</time></trkpt><trkpt lat="36.80712253245271" lon="-107.94974579210908"><ele>1875.5</ele><time>2026-04-19T17:40:40.001Z</time></trkpt><trkpt lat="36.807149423283946" lon="-107.94984244402842"><ele>1876.0</ele><time>2026-04-19T17:40:41.001Z</time></trkpt><trkpt lat="36.80719605605241" lon="-107.94993437683877"><ele>1876.4999999999998</ele><time>2026-04-19T17:40:42.001Z</time></trkpt><trkpt lat="36.807230303942355" lon="-107.95002578640178"><ele>1877.0</ele><time>2026-04-19T17:40:43.001Z</time></trkpt><trkpt lat="36.807241045031795" lon="-107.95012669225062"><ele>1877.6</ele><time>2026-04-19T17:40:44.001Z</time></trkpt><trkpt lat="36.80724674851107" lon="-107.95023794264183"><ele>1878.1999999999998</ele><time>2026-04-19T17:40:45.001Z</time></trkpt><trkpt lat="36.807254102171385" lon="-107.95036620959429"><ele>1878.8</ele><time>2026-04-19T17:40:46.001Z</time></trkpt><trkpt lat="36.80724915314821" lon="-107.95050205563575"><ele>1879.4</ele><time>2026-04-19T17:40:47.001Z</time></trkpt><trkpt lat="36.80723828975415" lon="-107.95059885263831"><ele>1880.0</ele><time>2026-04-19T17:40:48.001Z</time></trkpt><trkpt lat="36.80715528660953" lon="-107.95073794976288"><ele>1880.0</ele><time>2026-04-19T17:40:50.001Z</time></trkpt><trkpt lat="36.807099101116556" lon="-107.95085992238673"><ele>1880.0</ele><time>2026-04-19T17:40:51.001Z</time></trkpt><trkpt lat="36.80706400555697" lon="-107.95097548538627"><ele>1880.0</ele><time>2026-04-19T17:40:52.001Z</time></trkpt><trkpt lat="36.807041582660126" lon="-107.95108001518959"><ele>1880.0</ele><time>2026-04-19T17:40:53.001Z</time></trkpt><trkpt lat="36.80703691059572" lon="-107.95117020168577"><ele>1880.0</ele><time>2026-04-19T17:40:54.001Z</time></trkpt><trkpt lat="36.80704337733561" lon="-107.95128411680001"><ele>1879.4999999999998</ele><time>2026-04-19T17:40:55.001Z</time></trkpt><trkpt lat="36.80705053705488" lon="-107.95141732830663"><ele>1879.0</ele><time>2026-04-19T17:40:56.001Z</time></trkpt><trkpt lat="36.8070502027306" lon="-107.95152562608338"><ele>1878.5</ele><time>2026-04-19T17:40:57.001Z</time></trkpt><trkpt lat="36.807032949404395" lon="-107.95161009140405"><ele>1878.0</ele><time>2026-04-19T17:40:58.001Z</time></trkpt><trkpt lat="36.80700637111061" lon="-107.95168841388019"><ele>1877.4999999999998</ele><time>2026-04-19T17:40:59.001Z</time></trkpt><trkpt lat="36.806970607269925" lon="-107.95178427602407"><ele>1877.0</ele><time>2026-04-19T17:41:00.001Z</time></trkpt><trkpt lat="36.80694163155087" lon="-107.95188992495031"><ele>1876.3333333333333</ele><time>2026-04-19T17:41:01.001Z</time></trkpt><trkpt lat="36.80690678462603" lon="-107.95199017338358"><ele>1875.6666666666665</ele><time>2026-04-19T17:41:02.001Z</time></trkpt><trkpt lat="36.80686174420775" lon="-107.95208214821282"><ele>1875.0</ele><time>2026-04-19T17:41:03.001Z</time></trkpt><trkpt lat="36.806803448788415" lon="-107.9521470816027"><ele>1874.3333333333335</ele><time>2026-04-19T17:41:04.001Z</time></trkpt><trkpt lat="36.806731955493866" lon="-107.95220596561107"><ele>1873.6666666666667</ele><time>2026-04-19T17:41:05.001Z</time></trkpt><trkpt lat="36.806665147094805" lon="-107.95226675735996"><ele>1873.0</ele><time>2026-04-19T17:41:06.001Z</time></trkpt><trkpt lat="36.806595141678265" lon="-107.9523466931419"><ele>1873.3333333333335</ele><time>2026-04-19T17:41:07.001Z</time></trkpt><trkpt lat="36.80653502271431" lon="-107.95240374610438"><ele>1873.6666666666667</ele><time>2026-04-19T17:41:08.001Z</time></trkpt><trkpt lat="36.806470004970116" lon="-107.9524291087938"><ele>1874.0</ele><time>2026-04-19T17:41:09.001Z</time></trkpt><trkpt lat="36.80640394185442" lon="-107.95246536005217"><ele>1874.3333333333335</ele><time>2026-04-19T17:41:10Z</time></trkpt><trkpt lat="36.80637944168316" lon="-107.95261290559685"><ele>1874.6666666666667</ele><time>2026-04-19T17:41:12Z</time></trkpt><trkpt lat="36.80638344200548" lon="-107.95271165988069"><ele>1875.0</ele><time>2026-04-19T17:41:13Z</time></trkpt><trkpt lat="36.806410362593155" lon="-107.95279752184793"><ele>1875.0</ele><time>2026-04-19T17:41:14Z</time></trkpt><trkpt lat="36.80645254486094" lon="-107.95291123116357"><ele>1875.0</ele><time>2026-04-19T17:41:15Z</time></trkpt><trkpt lat="36.80646972046014" lon="-107.95303833224784"><ele>1875.0</ele><time>2026-04-19T17:41:16Z</time></trkpt><trkpt lat="36.80649187261287" lon="-107.95315317829206"><ele>1875.0</ele><time>2026-04-19T17:41:17Z</time></trkpt><trkpt lat="36.80652713479564" lon="-107.95326701117173"><ele>1875.0</ele><time>2026-04-19T17:41:18Z</time></trkpt><trkpt lat="36.80656212444807" lon="-107.95337634824737"><ele>1874.5</ele><time>2026-04-19T17:41:19Z</time></trkpt><trkpt lat="36.80657506655289" lon="-107.95347025352663"><ele>1874.0</ele><time>2026-04-19T17:41:20Z</time></trkpt><trkpt lat="36.806565778850135" lon="-107.95357673591924"><ele>1873.5</ele><time>2026-04-19T17:41:21Z</time></trkpt><trkpt lat="36.806553523823624" lon="-107.95367775334674"><ele>1873.0</ele><time>2026-04-19T17:41:22Z</time></trkpt><trkpt lat="36.806562703455846" lon="-107.95375903479061"><ele>1872.5</ele><time>2026-04-19T17:41:23Z</time></trkpt><trkpt lat="36.8065811568997" lon="-107.95386785408768"><ele>1872.0</ele><time>2026-04-19T17:41:24Z</time></trkpt><trkpt lat="36.80659575657023" lon="-107.9539801216605"><ele>1872.0</ele><time>2026-04-19T17:41:25Z</time></trkpt><trkpt lat="36.80659726572907" lon="-107.95407660531474"><ele>1871.9999999999998</ele><time>2026-04-19T17:41:26Z</time></trkpt><trkpt lat="36.806582234725624" lon="-107.95419211442547"><ele>1871.9999999999998</ele><time>2026-04-19T17:41:27Z</time></trkpt><trkpt lat="36.806555855664534" lon="-107.95431737437174"><ele>1872.0</ele><time>2026-04-19T17:41:28Z</time></trkpt><trkpt lat="36.80651733716362" lon="-107.95442450630529"><ele>1872.0</ele><time>2026-04-19T17:41:29Z</time></trkpt><trkpt lat="36.806472067873166" lon="-107.9545205824126"><ele>1871.3999999999999</ele><time>2026-04-19T17:41:30Z</time></trkpt><trkpt lat="36.80642127781381" lon="-107.95460510111003"><ele>1870.7999999999997</ele><time>2026-04-19T17:41:31Z</time></trkpt><trkpt lat="36.806377380166175" lon="-107.95468559587123"><ele>1870.2</ele><time>2026-04-19T17:41:32Z</time></trkpt><trkpt lat="36.806339786880436" lon="-107.9548263896707"><ele>1869.6</ele><time>2026-04-19T17:41:34Z</time></trkpt><trkpt lat="36.80631861015698" lon="-107.95493055722744"><ele>1869.0</ele><time>2026-04-19T17:41:35Z</time></trkpt><trkpt lat="36.80630017913422" lon="-107.95503360922376"><ele>1868.0</ele><time>2026-04-19T17:41:36Z</time></trkpt><trkpt lat="36.80625916175647" lon="-107.95510387886557"><ele>1867.0</ele><time>2026-04-19T17:41:37Z</time></trkpt><trkpt lat="36.80612887009905" lon="-107.95517799407621"><ele>1866.0</ele><time>2026-04-19T17:41:39Z</time></trkpt><trkpt lat="36.806027953731466" lon="-107.95522656597369"><ele>1865.0</ele><time>2026-04-19T17:41:40Z</time></trkpt><trkpt lat="36.805932455679695" lon="-107.95527570057568"><ele>1864.0</ele><time>2026-04-19T17:41:41Z</time></trkpt><trkpt lat="36.80589599961389" lon="-107.95536490801783"><ele>1865.0</ele><time>2026-04-19T17:41:42Z</time></trkpt><trkpt lat="36.805858692563774" lon="-107.95548778022044"><ele>1866.0</ele><time>2026-04-19T17:41:43Z</time></trkpt><trkpt lat="36.80583126383454" lon="-107.95556490405052"><ele>1867.0</ele><time>2026-04-19T17:41:44Z</time></trkpt><trkpt lat="36.80579331173535" lon="-107.9556469241233"><ele>1868.0</ele><time>2026-04-19T17:41:45Z</time></trkpt><trkpt lat="36.8057818025363" lon="-107.95576990065632"><ele>1869.0</ele><time>2026-04-19T17:41:46Z</time></trkpt><trkpt lat="36.80579547459704" lon="-107.95591988812939"><ele>1869.0</ele><time>2026-04-19T17:41:47Z</time></trkpt><trkpt lat="36.80581184289216" lon="-107.95604979286769"><ele>1869.0</ele><time>2026-04-19T17:41:48Z</time></trkpt><trkpt lat="36.80579998050778" lon="-107.95615476063901"><ele>1869.0</ele><time>2026-04-19T17:41:49Z</time></trkpt><trkpt lat="36.80588649333865" lon="-107.95627068521287"><ele>1869.0</ele><time>2026-04-19T17:41:51Z</time></trkpt><trkpt lat="36.805971432923386" lon="-107.9563299430182"><ele>1869.0</ele><time>2026-04-19T17:41:52Z</time></trkpt><trkpt lat="36.80606284153973" lon="-107.95635726119981"><ele>1868.6666666666667</ele><time>2026-04-19T17:41:53Z</time></trkpt><trkpt lat="36.80613868549961" lon="-107.95636811343867"><ele>1868.3333333333335</ele><time>2026-04-19T17:41:54Z</time></trkpt><trkpt lat="36.80622222938605" lon="-107.95648114838662"><ele>1868.0</ele><time>2026-04-19T17:41:56Z</time></trkpt><trkpt lat="36.80625117379843" lon="-107.95659620947177"><ele>1867.6666666666667</ele><time>2026-04-19T17:41:57Z</time></trkpt><trkpt lat="36.806270431948654" lon="-107.95668049207114"><ele>1867.3333333333335</ele><time>2026-04-19T17:41:58Z</time></trkpt><trkpt lat="36.80628631255786" lon="-107.9567586561401"><ele>1867.0</ele><time>2026-04-19T17:41:59Z</time></trkpt><trkpt lat="36.80632155459741" lon="-107.9568576063479"><ele>1866.6</ele><time>2026-04-19T17:42:00Z</time></trkpt><trkpt lat="36.806368949654086" lon="-107.95696095435152"><ele>1866.1999999999998</ele><time>2026-04-19T17:42:01Z</time></trkpt><trkpt lat="36.806418453447485" lon="-107.95702656076892"><ele>1865.8</ele><time>2026-04-19T17:42:02Z</time></trkpt><trkpt lat="36.80646987318218" lon="-107.9570884698415"><ele>1865.4</ele><time>2026-04-19T17:42:03Z</time></trkpt><trkpt lat="36.80645523477489" lon="-107.95723843737609"><ele>1865.0</ele><time>2026-04-19T17:42:05Z</time></trkpt><trkpt lat="36.80654155282133" lon="-107.95727384749294"><ele>1865.0</ele><time>2026-04-19T17:42:08Z</time></trkpt><trkpt lat="36.806624902691006" lon="-107.95719987065225"><ele>1865.0</ele><time>2026-04-19T17:42:10Z</time></trkpt><trkpt lat="36.806688349134994" lon="-107.9572855307373"><ele>1865.0</ele><time>2026-04-19T17:42:13Z</time></trkpt><trkpt lat="36.80667219113494" lon="-107.957392848274"><ele>1865.0</ele><time>2026-04-19T17:42:14Z</time></trkpt><trkpt lat="36.806613922758196" lon="-107.95752971390874"><ele>1865.0</ele><time>2026-04-19T17:42:15Z</time></trkpt><trkpt lat="36.80656330497201" lon="-107.95766446107179"><ele>1863.9999999999998</ele><time>2026-04-19T17:42:16Z</time></trkpt><trkpt lat="36.80653756139685" lon="-107.95778233246135"><ele>1863.0</ele><time>2026-04-19T17:42:17Z</time></trkpt><trkpt lat="36.80653489336524" lon="-107.95787403558867"><ele>1862.0</ele><time>2026-04-19T17:42:18Z</time></trkpt><trkpt lat="36.80655524353369" lon="-107.95795016141454"><ele>1861.0</ele><time>2026-04-19T17:42:19Z</time></trkpt><trkpt lat="36.80661502306593" lon="-107.95800366124381"><ele>1859.9999999999998</ele><time>2026-04-19T17:42:20.001Z</time></trkpt><trkpt lat="36.80672331283441" lon="-107.95804075912248"><ele>1859.0</ele><time>2026-04-19T17:42:21.001Z</time></trkpt><trkpt lat="36.80680654498401" lon="-107.95809869480729"><ele>1857.5</ele><time>2026-04-19T17:42:22.001Z</time></trkpt><trkpt lat="36.80686737124794" lon="-107.95816506120195"><ele>1856.0</ele><time>2026-04-19T17:42:23.001Z</time></trkpt><trkpt lat="36.80692901287814" lon="-107.95831005889356"><ele>1854.5</ele><time>2026-04-19T17:42:25.001Z</time></trkpt><trkpt lat="36.806960824240626" lon="-107.95846833434052"><ele>1853.0</ele><time>2026-04-19T17:42:26.001Z</time></trkpt><trkpt lat="36.806988315581314" lon="-107.95862168057096"><ele>1852.4999999999998</ele><time>2026-04-19T17:42:27.001Z</time></trkpt><trkpt lat="36.80697034302441" lon="-107.9587596385424"><ele>1852.0</ele><time>2026-04-19T17:42:28.001Z</time></trkpt><trkpt lat="36.806987725224324" lon="-107.95886862476851"><ele>1851.5</ele><time>2026-04-19T17:42:29.001Z</time></trkpt><trkpt lat="36.80704140255918" lon="-107.95893749658413"><ele>1851.0</ele><time>2026-04-19T17:42:30.001Z</time></trkpt><trkpt lat="36.807099460981206" lon="-107.9589864789696"><ele>1850.4999999999998</ele><time>2026-04-19T17:42:31.001Z</time></trkpt><trkpt lat="36.807173366830135" lon="-107.95906852971567"><ele>1850.0</ele><time>2026-04-19T17:42:32.001Z</time></trkpt><trkpt lat="36.807231557549855" lon="-107.95913500997268"><ele>1849.9999999999998</ele><time>2026-04-19T17:42:33.001Z</time></trkpt><trkpt lat="36.8073005203383" lon="-107.9591471955794"><ele>1850.0</ele><time>2026-04-19T17:42:34.001Z</time></trkpt><trkpt lat="36.807387128204546" lon="-107.95915239490512"><ele>1850.0</ele><time>2026-04-19T17:42:35.001Z</time></trkpt><trkpt lat="36.80745761181095" lon="-107.95918227190826"><ele>1850.0</ele><time>2026-04-19T17:42:36.001Z</time></trkpt><trkpt lat="36.80748517582594" lon="-107.95925767152964"><ele>1849.9999999999998</ele><time>2026-04-19T17:42:37.001Z</time></trkpt><trkpt lat="36.807498753471954" lon="-107.95934016709995"><ele>1850.0</ele><time>2026-04-19T17:42:38.001Z</time></trkpt><trkpt lat="36.80757811315167" lon="-107.95945045740457"><ele>1849.6</ele><time>2026-04-19T17:42:40.001Z</time></trkpt><trkpt lat="36.80763347735022" lon="-107.95955490679125"><ele>1849.2</ele><time>2026-04-19T17:42:42.001Z</time></trkpt><trkpt lat="36.80762104533713" lon="-107.95964883581016"><ele>1848.8000000000002</ele><time>2026-04-19T17:42:43.001Z</time></trkpt><trkpt lat="36.80758738702886" lon="-107.95977503530413"><ele>1848.4</ele><time>2026-04-19T17:42:44.001Z</time></trkpt><trkpt lat="36.807546793873705" lon="-107.95989842191518"><ele>1848.0</ele><time>2026-04-19T17:42:45.001Z</time></trkpt><trkpt lat="36.80752801496886" lon="-107.95997585541386"><ele>1847.8000000000002</ele><time>2026-04-19T17:42:46.001Z</time></trkpt><trkpt lat="36.80748528961608" lon="-107.9601286263139"><ele>1847.6000000000001</ele><time>2026-04-19T17:42:48.001Z</time></trkpt><trkpt lat="36.80745850910919" lon="-107.96023446651716"><ele>1847.3999999999999</ele><time>2026-04-19T17:42:49.001Z</time></trkpt><trkpt lat="36.80744881160365" lon="-107.96035689459914"><ele>1847.1999999999998</ele><time>2026-04-19T17:42:51.001Z</time></trkpt><trkpt lat="36.807364866864816" lon="-107.96045478288138"><ele>1847.0</ele><time>2026-04-19T17:42:53.001Z</time></trkpt><trkpt lat="36.80731415135652" lon="-107.96052951144881"><ele>1846.9999999999998</ele><time>2026-04-19T17:42:54.001Z</time></trkpt><trkpt lat="36.80728929070504" lon="-107.96060963916875"><ele>1847.0</ele><time>2026-04-19T17:42:55.001Z</time></trkpt><trkpt lat="36.807281327206525" lon="-107.96070172038047"><ele>1847.0</ele><time>2026-04-19T17:42:58.001Z</time></trkpt><trkpt lat="36.8072632692817" lon="-107.96079325328873"><ele>1847.0</ele><time>2026-04-19T17:43:05.001Z</time></trkpt><trkpt lat="36.807340463181895" lon="-107.96090667096318"><ele>1846.9999999999998</ele><time>2026-04-19T17:43:07.001Z</time></trkpt><trkpt lat="36.80739516700038" lon="-107.96096581740284"><ele>1847.0</ele><time>2026-04-19T17:43:08.001Z</time></trkpt><trkpt lat="36.80747526649474" lon="-107.9610658835458"><ele>1846.1666666666665</ele><time>2026-04-19T17:43:10.001Z</time></trkpt><trkpt lat="36.80752524885735" lon="-107.96113419712103"><ele>1845.3333333333333</ele><time>2026-04-19T17:43:11.001Z</time></trkpt><trkpt lat="36.807560517376515" lon="-107.96120795106069"><ele>1844.5</ele><time>2026-04-19T17:43:12.001Z</time></trkpt><trkpt lat="36.80758352707474" lon="-107.96128282780717"><ele>1843.6666666666665</ele><time>2026-04-19T17:43:13.001Z</time></trkpt><trkpt lat="36.80760032792436" lon="-107.96138579018162"><ele>1842.8333333333333</ele><time>2026-04-19T17:43:14.001Z</time></trkpt><trkpt lat="36.80760759780383" lon="-107.96151309512798"><ele>1842.0</ele><time>2026-04-19T17:43:15.001Z</time></trkpt><trkpt lat="36.80761307094971" lon="-107.96163888194903"><ele>1841.8333333333333</ele><time>2026-04-19T17:43:16Z</time></trkpt><trkpt lat="36.80763654397567" lon="-107.9617618656802"><ele>1841.6666666666665</ele><time>2026-04-19T17:43:17Z</time></trkpt><trkpt lat="36.80767026990669" lon="-107.96186878415362"><ele>1841.5</ele><time>2026-04-19T17:43:18Z</time></trkpt><trkpt lat="36.80768620656499" lon="-107.96195795380261"><ele>1841.3333333333333</ele><time>2026-04-19T17:43:19Z</time></trkpt><trkpt lat="36.80769111169904" lon="-107.96204385139775"><ele>1841.1666666666665</ele><time>2026-04-19T17:43:20Z</time></trkpt><trkpt lat="36.8076536559838" lon="-107.96217835595712"><ele>1841.0</ele><time>2026-04-19T17:43:22Z</time></trkpt><trkpt lat="36.80762463696564" lon="-107.96225172540888"><ele>1841.0</ele><time>2026-04-19T17:43:23Z</time></trkpt><trkpt lat="36.807624378086395" lon="-107.9624068821246"><ele>1841.0</ele><time>2026-04-19T17:43:25Z</time></trkpt><trkpt lat="36.8076583509514" lon="-107.9625067875129"><ele>1841.0</ele><time>2026-04-19T17:43:27Z</time></trkpt><trkpt lat="36.807668206299496" lon="-107.96259055016672"><ele>1841.0</ele><time>2026-04-19T17:43:31Z</time></trkpt><trkpt lat="36.80765510226509" lon="-107.96267278343886"><ele>1841.0</ele><time>2026-04-19T17:43:36Z</time></trkpt><trkpt lat="36.80756281482897" lon="-107.96274206405833"><ele>1840.6</ele><time>2026-04-19T17:43:40Z</time></trkpt><trkpt lat="36.807495923120705" lon="-107.96279409763123"><ele>1840.1999999999998</ele><time>2026-04-19T17:43:43Z</time></trkpt><trkpt lat="36.80742533722227" lon="-107.96289430017687"><ele>1839.8000000000002</ele><time>2026-04-19T17:43:45Z</time></trkpt><trkpt lat="36.8074167077486" lon="-107.96299165176649"><ele>1839.4</ele><time>2026-04-19T17:43:46Z</time></trkpt><trkpt lat="36.80742571513034" lon="-107.96311592495589"><ele>1839.0</ele><time>2026-04-19T17:43:47Z</time></trkpt><trkpt lat="36.80743335619038" lon="-107.96323789725702"><ele>1838.4</ele><time>2026-04-19T17:43:48Z</time></trkpt><trkpt lat="36.8074190189573" lon="-107.96338506996918"><ele>1837.8000000000002</ele><time>2026-04-19T17:43:49Z</time></trkpt><trkpt lat="36.80739424809276" lon="-107.96348979578863"><ele>1837.1999999999998</ele><time>2026-04-19T17:43:50Z</time></trkpt><trkpt lat="36.807344494696196" lon="-107.96359054633734"><ele>1836.6</ele><time>2026-04-19T17:43:51Z</time></trkpt><trkpt lat="36.807289907664504" lon="-107.96369032457405"><ele>1836.0</ele><time>2026-04-19T17:43:52Z</time></trkpt><trkpt lat="36.8072861746561" lon="-107.96377169199222"><ele>1836.0</ele><time>2026-04-19T17:43:53Z</time></trkpt><trkpt lat="36.80732015484137" lon="-107.96387657001024"><ele>1836.0</ele><time>2026-04-19T17:43:54Z</time></trkpt><trkpt lat="36.80735283714268" lon="-107.9639774620038"><ele>1836.0</ele><time>2026-04-19T17:43:55Z</time></trkpt><trkpt lat="36.80735616995166" lon="-107.96408838972526"><ele>1836.0</ele><time>2026-04-19T17:43:56Z</time></trkpt><trkpt lat="36.807333479059224" lon="-107.96420348676058"><ele>1836.0</ele><time>2026-04-19T17:43:57Z</time></trkpt><trkpt lat="36.80734842977816" lon="-107.96429429064922"><ele>1836.0</ele><time>2026-04-19T17:43:58Z</time></trkpt><trkpt lat="36.8073214834399" lon="-107.96441948433754"><ele>1835.1999999999998</ele><time>2026-04-19T17:43:59Z</time></trkpt><trkpt lat="36.80731277922687" lon="-107.96450764605585"><ele>1834.3999999999999</ele><time>2026-04-19T17:44:00Z</time></trkpt><trkpt lat="36.80727734806234" lon="-107.96463566465053"><ele>1833.6</ele><time>2026-04-19T17:44:02Z</time></trkpt><trkpt lat="36.807213402527736" lon="-107.96468842607145"><ele>1832.8</ele><time>2026-04-19T17:44:03Z</time></trkpt><trkpt lat="36.807150098750405" lon="-107.96482028526135"><ele>1832.0</ele><time>2026-04-19T17:44:05Z</time></trkpt><trkpt lat="36.80717271150046" lon="-107.96494037058864"><ele>1830.6</ele><time>2026-04-19T17:44:07Z</time></trkpt><trkpt lat="36.80713635463464" lon="-107.96504488580028"><ele>1829.1999999999998</ele><time>2026-04-19T17:44:08Z</time></trkpt><trkpt lat="36.807113978665754" lon="-107.96515048772022"><ele>1827.8</ele><time>2026-04-19T17:44:09Z</time></trkpt><trkpt lat="36.807077886300966" lon="-107.96524509447472"><ele>1826.4</ele><time>2026-04-19T17:44:10Z</time></trkpt><trkpt lat="36.80703635840376" lon="-107.96530940928169"><ele>1825.0</ele><time>2026-04-19T17:44:11Z</time></trkpt><trkpt lat="36.807045031113844" lon="-107.96546060260397"><ele>1825.0000000000002</ele><time>2026-04-19T17:44:13Z</time></trkpt><trkpt lat="36.807039627765256" lon="-107.96557313390956"><ele>1825.0</ele><time>2026-04-19T17:44:14Z</time></trkpt><trkpt lat="36.80705049451649" lon="-107.96567159151375"><ele>1825.0</ele><time>2026-04-19T17:44:15Z</time></trkpt><trkpt lat="36.80705903514369" lon="-107.96576413268753"><ele>1825.0</ele><time>2026-04-19T17:44:16Z</time></trkpt><trkpt lat="36.80704811625904" lon="-107.96585863970257"><ele>1825.0000000000002</ele><time>2026-04-19T17:44:17Z</time></trkpt><trkpt lat="36.80699287318736" lon="-107.96596972320364"><ele>1825.0</ele><time>2026-04-19T17:44:18Z</time></trkpt><trkpt lat="36.80694155477777" lon="-107.96605357003062"><ele>1825.6</ele><time>2026-04-19T17:44:19Z</time></trkpt><trkpt lat="36.80690720259898" lon="-107.96620988391001"><ele>1826.2</ele><time>2026-04-19T17:44:21Z</time></trkpt><trkpt lat="36.806879627919756" lon="-107.96633291402495"><ele>1826.8000000000002</ele><time>2026-04-19T17:44:22Z</time></trkpt><trkpt lat="36.80682847678196" lon="-107.96644136550208"><ele>1827.4</ele><time>2026-04-19T17:44:23Z</time></trkpt><trkpt lat="36.80678277055329" lon="-107.96652988947281"><ele>1828.0</ele><time>2026-04-19T17:44:24Z</time></trkpt><trkpt lat="36.80678438362493" lon="-107.96661481520009"><ele>1828.6000000000001</ele><time>2026-04-19T17:44:25Z</time></trkpt><trkpt lat="36.806730310306484" lon="-107.96676212442225"><ele>1829.2000000000003</ele><time>2026-04-19T17:44:27.001Z</time></trkpt><trkpt lat="36.80664591510669" lon="-107.96685023541872"><ele>1829.8</ele><time>2026-04-19T17:44:28.001Z</time></trkpt><trkpt lat="36.8065896939453" lon="-107.96694852468366"><ele>1830.4</ele><time>2026-04-19T17:44:29.001Z</time></trkpt><trkpt lat="36.80655206358171" lon="-107.9670370498922"><ele>1831.0</ele><time>2026-04-19T17:44:30.001Z</time></trkpt><trkpt lat="36.80653213839426" lon="-107.96713475566739"><ele>1831.0000000000002</ele><time>2026-04-19T17:44:31.001Z</time></trkpt><trkpt lat="36.80652238956807" lon="-107.96725382241591"><ele>1831.0</ele><time>2026-04-19T17:44:32.001Z</time></trkpt><trkpt lat="36.806499623449106" lon="-107.96738410976099"><ele>1831.0</ele><time>2026-04-19T17:44:33.001Z</time></trkpt><trkpt lat="36.80646908076345" lon="-107.96749910569294"><ele>1831.0</ele><time>2026-04-19T17:44:34.001Z</time></trkpt><trkpt lat="36.80644119677526" lon="-107.96758639459492"><ele>1831.0000000000002</ele><time>2026-04-19T17:44:35.001Z</time></trkpt><trkpt lat="36.806413049355434" lon="-107.9676723107597"><ele>1831.0</ele><time>2026-04-19T17:44:36.001Z</time></trkpt><trkpt lat="36.806372215153935" lon="-107.96779382947095"><ele>1830.1999999999998</ele><time>2026-04-19T17:44:37.001Z</time></trkpt><trkpt lat="36.806330164637586" lon="-107.96791300637852"><ele>1829.3999999999999</ele><time>2026-04-19T17:44:38.001Z</time></trkpt><trkpt lat="36.80629439796229" lon="-107.96801741064004"><ele>1828.6</ele><time>2026-04-19T17:44:39.001Z</time></trkpt><trkpt lat="36.80625279454647" lon="-107.96810673161751"><ele>1827.8</ele><time>2026-04-19T17:44:40.001Z</time></trkpt><trkpt lat="36.80620064195103" lon="-107.96817999895663"><ele>1827.0</ele><time>2026-04-19T17:44:41.001Z</time></trkpt><trkpt lat="36.80614791591179" lon="-107.96832751596646"><ele>1826.4285714285716</ele><time>2026-04-19T17:44:43.001Z</time></trkpt><trkpt lat="36.806120852157505" lon="-107.96840237254672"><ele>1825.857142857143</ele><time>2026-04-19T17:44:44.001Z</time></trkpt><trkpt lat="36.806107032442725" lon="-107.968498944455"><ele>1825.2857142857142</ele><time>2026-04-19T17:44:45.001Z</time></trkpt><trkpt lat="36.80608888824827" lon="-107.96858461185246"><ele>1824.7142857142858</ele><time>2026-04-19T17:44:46.001Z</time></trkpt><trkpt lat="36.806028534183305" lon="-107.96862329142846"><ele>1824.1428571428573</ele><time>2026-04-19T17:44:47.001Z</time></trkpt><trkpt lat="36.80594536768787" lon="-107.96862287178435"><ele>1823.5714285714287</ele><time>2026-04-19T17:44:48.001Z</time></trkpt><trkpt lat="36.805877898245555" lon="-107.96863172722217"><ele>1823.0</ele><time>2026-04-19T17:44:49.001Z</time></trkpt><trkpt lat="36.805816703986494" lon="-107.96866914342287"><ele>1822.4999999999998</ele><time>2026-04-19T17:44:50.001Z</time></trkpt><trkpt lat="36.80574810605174" lon="-107.9687291699039"><ele>1822.0</ele><time>2026-04-19T17:44:51.001Z</time></trkpt><trkpt lat="36.80568861565471" lon="-107.96876883957128"><ele>1821.5</ele><time>2026-04-19T17:44:52.001Z</time></trkpt><trkpt lat="36.80561854113528" lon="-107.96879100750635"><ele>1821.0</ele><time>2026-04-19T17:44:53.001Z</time></trkpt><trkpt lat="36.805555531693514" lon="-107.96881243249348"><ele>1820.4999999999998</ele><time>2026-04-19T17:44:54.001Z</time></trkpt><trkpt lat="36.805442439097" lon="-107.96889570288195"><ele>1820.0</ele><time>2026-04-19T17:44:56.001Z</time></trkpt><trkpt lat="36.80538312401234" lon="-107.96897254254021"><ele>1819.9999999999998</ele><time>2026-04-19T17:44:58.001Z</time></trkpt><trkpt lat="36.805338362146614" lon="-107.96910270363426"><ele>1820.0</ele><time>2026-04-19T17:45:00.001Z</time></trkpt><trkpt lat="36.80530637786809" lon="-107.96918997125942"><ele>1820.0</ele><time>2026-04-19T17:45:01.001Z</time></trkpt><trkpt lat="36.80526952267035" lon="-107.96926168588774"><ele>1820.0</ele><time>2026-04-19T17:45:02.001Z</time></trkpt><trkpt lat="36.80522751365939" lon="-107.96932976360078"><ele>1819.9999999999998</ele><time>2026-04-19T17:45:03.001Z</time></trkpt><trkpt lat="36.80517454056378" lon="-107.9693942546708"><ele>1820.0</ele><time>2026-04-19T17:45:04.001Z</time></trkpt><trkpt lat="36.805114599409364" lon="-107.96943790186701"><ele>1817.4999999999998</ele><time>2026-04-19T17:45:05.001Z</time></trkpt><trkpt lat="36.80505560271948" lon="-107.96947422915635"><ele>1815.0</ele><time>2026-04-19T17:45:06.001Z</time></trkpt><trkpt lat="36.80500977743546" lon="-107.96954119685549"><ele>1812.5</ele><time>2026-04-19T17:45:07.001Z</time></trkpt><trkpt lat="36.804990299944855" lon="-107.96963078146564"><ele>1810.0</ele><time>2026-04-19T17:45:08.001Z</time></trkpt><trkpt lat="36.80493448421142" lon="-107.96973984544127"><ele>1807.4999999999998</ele><time>2026-04-19T17:45:10.001Z</time></trkpt><trkpt lat="36.80487167775974" lon="-107.96972473499068"><ele>1805.0</ele><time>2026-04-19T17:45:11.001Z</time></trkpt><trkpt lat="36.80480092197436" lon="-107.96970927631648"><ele>1804.9999999999998</ele><time>2026-04-19T17:45:12.001Z</time></trkpt><trkpt lat="36.80467267608737" lon="-107.96977433430304"><ele>1805.0</ele><time>2026-04-19T17:45:14.001Z</time></trkpt><trkpt lat="36.80460823521102" lon="-107.96982213115753"><ele>1805.0</ele><time>2026-04-19T17:45:15.001Z</time></trkpt><trkpt lat="36.80455234419604" lon="-107.96987645979142"><ele>1805.0</ele><time>2026-04-19T17:45:16.001Z</time></trkpt><trkpt lat="36.80449797997296" lon="-107.96994184185573"><ele>1804.9999999999998</ele><time>2026-04-19T17:45:17.001Z</time></trkpt><trkpt lat="36.804445523243025" lon="-107.97001358675888"><ele>1805.0</ele><time>2026-04-19T17:45:18.001Z</time></trkpt><trkpt lat="36.80442729038214" lon="-107.97013625462372"><ele>1804.1666666666665</ele><time>2026-04-19T17:45:20.001Z</time></trkpt><trkpt lat="36.80440028925003" lon="-107.97021280236143"><ele>1803.3333333333333</ele><time>2026-04-19T17:45:21.001Z</time></trkpt><trkpt lat="36.80435803690973" lon="-107.97030980443961"><ele>1802.5</ele><time>2026-04-19T17:45:22Z</time></trkpt><trkpt lat="36.80431061343766" lon="-107.97040268681764"><ele>1801.6666666666665</ele><time>2026-04-19T17:45:23Z</time></trkpt><trkpt lat="36.80425688544458" lon="-107.97047545136645"><ele>1800.8333333333333</ele><time>2026-04-19T17:45:24Z</time></trkpt><trkpt lat="36.804226175730626" lon="-107.97058400222161"><ele>1800.0</ele><time>2026-04-19T17:45:26Z</time></trkpt><trkpt lat="36.80425338506221" lon="-107.9706751263773"><ele>1800.0</ele><time>2026-04-19T17:45:27Z</time></trkpt><trkpt lat="36.80428853143013" lon="-107.97079889065587"><ele>1800.0</ele><time>2026-04-19T17:45:28Z</time></trkpt><trkpt lat="36.80432798136242" lon="-107.97090442608142"><ele>1800.0</ele><time>2026-04-19T17:45:30Z</time></trkpt><trkpt lat="36.8044466980564" lon="-107.97101135748744"><ele>1800.0</ele><time>2026-04-19T17:45:32Z</time></trkpt><trkpt lat="36.80451483386928" lon="-107.97103730237585"><ele>1800.0</ele><time>2026-04-19T17:45:33Z</time></trkpt><trkpt lat="36.80462162444719" lon="-107.97110194157705"><ele>1799.1666666666667</ele><time>2026-04-19T17:45:35Z</time></trkpt><trkpt lat="36.80468906729065" lon="-107.97116608492493"><ele>1798.3333333333335</ele><time>2026-04-19T17:45:36Z</time></trkpt><trkpt lat="36.80474239368624" lon="-107.97122169388368"><ele>1797.5</ele><time>2026-04-19T17:45:37Z</time></trkpt><trkpt lat="36.80481138180904" lon="-107.97130766898016"><ele>1796.6666666666667</ele><time>2026-04-19T17:45:39Z</time></trkpt><trkpt lat="36.80477812973028" lon="-107.9714093523239"><ele>1795.8333333333335</ele><time>2026-04-19T17:45:42Z</time></trkpt><trkpt lat="36.80471774806761" lon="-107.97147345329994"><ele>1795.0</ele><time>2026-04-19T17:45:43Z</time></trkpt><trkpt lat="36.804632943151326" lon="-107.97155668785388"><ele>1795.0</ele><time>2026-04-19T17:45:44Z</time></trkpt><trkpt lat="36.80454288184413" lon="-107.97165712217111"><ele>1795.0</ele><time>2026-04-19T17:45:45Z</time></trkpt><trkpt lat="36.80444312608227" lon="-107.97177271761318"><ele>1795.0</ele><time>2026-04-19T17:45:46Z</time></trkpt><trkpt lat="36.80434712096404" lon="-107.97187765017705"><ele>1795.0</ele><time>2026-04-19T17:45:47Z</time></trkpt><trkpt lat="36.80424597745767" lon="-107.97198237175786"><ele>1794.5</ele><time>2026-04-19T17:45:48Z</time></trkpt><trkpt lat="36.80413978701347" lon="-107.9721017448192"><ele>1794.0</ele><time>2026-04-19T17:45:49Z</time></trkpt><trkpt lat="36.80404538076061" lon="-107.97222342295349"><ele>1793.5</ele><time>2026-04-19T17:45:50Z</time></trkpt><trkpt lat="36.80396096225875" lon="-107.97234122640785"><ele>1793.0</ele><time>2026-04-19T17:45:51Z</time></trkpt><trkpt lat="36.80387716320142" lon="-107.97243057641303"><ele>1793.0</ele><time>2026-04-19T17:45:52Z</time></trkpt><trkpt lat="36.80378045660574" lon="-107.97251644320082"><ele>1793.0</ele><time>2026-04-19T17:45:53Z</time></trkpt><trkpt lat="36.80367943929021" lon="-107.9726122750042"><ele>1793.0</ele><time>2026-04-19T17:45:54Z</time></trkpt><trkpt lat="36.80358925087127" lon="-107.97269519673684"><ele>1793.0</ele><time>2026-04-19T17:45:55Z</time></trkpt><trkpt lat="36.80351274374106" lon="-107.97277572985881"><ele>1792.4999999999998</ele><time>2026-04-19T17:45:56Z</time></trkpt><trkpt lat="36.80344902626524" lon="-107.97286128082426"><ele>1792.0</ele><time>2026-04-19T17:45:57Z</time></trkpt><trkpt lat="36.80339648670318" lon="-107.97293783021088"><ele>1791.5</ele><time>2026-04-19T17:45:58Z</time></trkpt><trkpt lat="36.803348889351824" lon="-107.97300998153995"><ele>1791.0</ele><time>2026-04-19T17:45:59Z</time></trkpt><trkpt lat="36.80328959479876" lon="-107.97307727991209"><ele>1790.4999999999998</ele><time>2026-04-19T17:46:00Z</time></trkpt><trkpt lat="36.80320931249828" lon="-107.97315859398337"><ele>1790.0</ele><time>2026-04-19T17:46:01Z</time></trkpt><trkpt lat="36.803121351385" lon="-107.9732572613406"><ele>1790.0</ele><time>2026-04-19T17:46:02Z</time></trkpt><trkpt lat="36.803055899443216" lon="-107.97333861188643"><ele>1790.0</ele><time>2026-04-19T17:46:03Z</time></trkpt><trkpt lat="36.80300735061549" lon="-107.97341368697607"><ele>1790.0</ele><time>2026-04-19T17:46:04Z</time></trkpt><trkpt lat="36.80293330369089" lon="-107.9735128387664"><ele>1790.0</ele><time>2026-04-19T17:46:05Z</time></trkpt><trkpt lat="36.80287743289339" lon="-107.97358189819086"><ele>1790.0</ele><time>2026-04-19T17:46:06Z</time></trkpt><trkpt lat="36.80279280208051" lon="-107.97363303488335"><ele>1789.4</ele><time>2026-04-19T17:46:08Z</time></trkpt><trkpt lat="36.80269176239574" lon="-107.97365502733174"><ele>1788.8</ele><time>2026-04-19T17:46:10Z</time></trkpt><trkpt lat="36.802593491676824" lon="-107.97362763657301"><ele>1788.1999999999998</ele><time>2026-04-19T17:46:11Z</time></trkpt><trkpt lat="36.80246763875102" lon="-107.97359031623569"><ele>1787.6</ele><time>2026-04-19T17:46:12Z</time></trkpt><trkpt lat="36.80236361327824" lon="-107.97355106052173"><ele>1787.0</ele><time>2026-04-19T17:46:13Z</time></trkpt><trkpt lat="36.80228234098831" lon="-107.97350074172056"><ele>1788.1999999999998</ele><time>2026-04-19T17:46:14Z</time></trkpt><trkpt lat="36.802205283014466" lon="-107.97343519741705"><ele>1789.3999999999999</ele><time>2026-04-19T17:46:15Z</time></trkpt><trkpt lat="36.802134977654205" lon="-107.97338907619937"><ele>1790.6000000000001</ele><time>2026-04-19T17:46:16Z</time></trkpt><trkpt lat="36.802019889502375" lon="-107.97344515094218"><ele>1791.8000000000002</ele><time>2026-04-19T17:46:18Z</time></trkpt><trkpt lat="36.801952703331985" lon="-107.97350479186277"><ele>1793.0</ele><time>2026-04-19T17:46:19Z</time></trkpt><trkpt lat="36.801897665883935" lon="-107.9735861831488"><ele>1795.1666666666665</ele><time>2026-04-19T17:46:20Z</time></trkpt><trkpt lat="36.80182912217687" lon="-107.9736308744737"><ele>1797.3333333333333</ele><time>2026-04-19T17:46:21Z</time></trkpt><trkpt lat="36.801733549580106" lon="-107.97362496381776"><ele>1799.5</ele><time>2026-04-19T17:46:22Z</time></trkpt><trkpt lat="36.80162235433218" lon="-107.97364274457728"><ele>1801.6666666666665</ele><time>2026-04-19T17:46:23Z</time></trkpt><trkpt lat="36.80158069954101" lon="-107.97370762959216"><ele>1803.8333333333333</ele><time>2026-04-19T17:46:24Z</time></trkpt><trkpt lat="36.80153640125004" lon="-107.97380162816495"><ele>1806.0</ele><time>2026-04-19T17:46:25Z</time></trkpt><trkpt lat="36.80146334955629" lon="-107.97388727842598"><ele>1806.0</ele><time>2026-04-19T17:46:26Z</time></trkpt><trkpt lat="36.8013983944018" lon="-107.97394128008318"><ele>1806.0</ele><time>2026-04-19T17:46:27Z</time></trkpt><trkpt lat="36.80127550114965" lon="-107.97392419906329"><ele>1806.0</ele><time>2026-04-19T17:46:29Z</time></trkpt><trkpt lat="36.801210380782656" lon="-107.97395331847156"><ele>1806.0</ele><time>2026-04-19T17:46:30Z</time></trkpt><trkpt lat="36.80115564158885" lon="-107.97399700711902"><ele>1806.0</ele><time>2026-04-19T17:46:31Z</time></trkpt><trkpt lat="36.80104237027647" lon="-107.97409828379928"><ele>1807.1666666666667</ele><time>2026-04-19T17:46:33Z</time></trkpt><trkpt lat="36.80094857139012" lon="-107.97415660236369"><ele>1808.3333333333335</ele><time>2026-04-19T17:46:34Z</time></trkpt><trkpt lat="36.80086255299735" lon="-107.97421235467226"><ele>1809.5</ele><time>2026-04-19T17:46:35Z</time></trkpt><trkpt lat="36.80080795874877" lon="-107.97425331470215"><ele>1810.6666666666667</ele><time>2026-04-19T17:46:36Z</time></trkpt><trkpt lat="36.80075919573471" lon="-107.97418597037067"><ele>1811.8333333333335</ele><time>2026-04-19T17:46:49.001Z</time></trkpt><trkpt lat="36.80073634021161" lon="-107.974067566912"><ele>1813.0</ele><time>2026-04-19T17:46:51.001Z</time></trkpt><trkpt lat="36.80062244671602" lon="-107.97400993278487"><ele>1813.0000000000002</ele><time>2026-04-19T17:46:53.001Z</time></trkpt><trkpt lat="36.80054513160052" lon="-107.97401173595146"><ele>1813.0</ele><time>2026-04-19T17:46:54.001Z</time></trkpt><trkpt lat="36.800477332529425" lon="-107.97399755411767"><ele>1813.0</ele><time>2026-04-19T17:46:55.001Z</time></trkpt><trkpt lat="36.8004255048142" lon="-107.9739044083738"><ele>1813.0</ele><time>2026-04-19T17:46:57.001Z</time></trkpt><trkpt lat="36.800392243496944" lon="-107.97376891929149"><ele>1813.0000000000002</ele><time>2026-04-19T17:47:26.001Z</time></trkpt><trkpt lat="36.800410832553595" lon="-107.97368797127906"><ele>1813.0</ele><time>2026-04-19T17:47:27.001Z</time></trkpt><trkpt lat="36.80042437083236" lon="-107.97360770641436"><ele>1813.0</ele><time>2026-04-19T17:47:28Z</time></trkpt><trkpt lat="36.8004096324236" lon="-107.97352437222187"><ele>1813.0000000000002</ele><time>2026-04-19T17:47:29Z</time></trkpt><trkpt lat="36.800382578673016" lon="-107.97344549570873"><ele>1813.0000000000002</ele><time>2026-04-19T17:47:30Z</time></trkpt><trkpt lat="36.80029011639859" lon="-107.97330749726488"><ele>1813.0</ele><time>2026-04-19T17:47:32Z</time></trkpt><trkpt lat="36.800218798913434" lon="-107.97323204277234"><ele>1813.0</ele><time>2026-04-19T17:47:33Z</time></trkpt><trkpt lat="36.800218946259335" lon="-107.97312030327335"><ele>1812.6000000000001</ele><time>2026-04-19T17:47:36Z</time></trkpt><trkpt lat="36.80026798243935" lon="-107.9730263213332"><ele>1812.2000000000003</ele><time>2026-04-19T17:47:37Z</time></trkpt><trkpt lat="36.800296798731814" lon="-107.97292428571002"><ele>1811.8</ele><time>2026-04-19T17:47:38Z</time></trkpt><trkpt lat="36.80030717373476" lon="-107.97279883176509"><ele>1811.4</ele><time>2026-04-19T17:47:40Z</time></trkpt><trkpt lat="36.800319977663435" lon="-107.97265801654636"><ele>1811.0</ele><time>2026-04-19T17:47:42Z</time></trkpt><trkpt lat="36.80031108611687" lon="-107.97252664199699"><ele>1811.0</ele><time>2026-04-19T17:47:44Z</time></trkpt><trkpt lat="36.80026547777746" lon="-107.97236444488445"><ele>1811.0</ele><time>2026-04-19T17:47:46Z</time></trkpt><trkpt lat="36.80024372959737" lon="-107.97223482684515"><ele>1811.0</ele><time>2026-04-19T17:47:48Z</time></trkpt><trkpt lat="36.80023391945657" lon="-107.97206764108307"><ele>1811.0</ele><time>2026-04-19T17:47:50Z</time></trkpt><trkpt lat="36.80022855723506" lon="-107.97195675951457"><ele>1811.0</ele><time>2026-04-19T17:47:51Z</time></trkpt><trkpt lat="36.800230622663506" lon="-107.97182890780304"><ele>1811.0</ele><time>2026-04-19T17:47:52Z</time></trkpt><trkpt lat="36.80022994537401" lon="-107.97167758521121"><ele>1811.0</ele><time>2026-04-19T17:47:53Z</time></trkpt><trkpt lat="36.800222227951274" lon="-107.97150164839832"><ele>1811.0</ele><time>2026-04-19T17:47:54Z</time></trkpt><trkpt lat="36.80021179072587" lon="-107.9713224111533"><ele>1810.8</ele><time>2026-04-19T17:47:55Z</time></trkpt><trkpt lat="36.80020032212224" lon="-107.97115796853844"><ele>1810.6</ele><time>2026-04-19T17:47:56Z</time></trkpt><trkpt lat="36.800197319873696" lon="-107.9710155064853"><ele>1810.4</ele><time>2026-04-19T17:47:57Z</time></trkpt><trkpt lat="36.80020838306496" lon="-107.97089786988852"><ele>1810.2</ele><time>2026-04-19T17:47:58Z</time></trkpt><trkpt lat="36.800236485252945" lon="-107.97079584912453"><ele>1810.0</ele><time>2026-04-19T17:47:59Z</time></trkpt><trkpt lat="36.80028737631606" lon="-107.97068906386693"><ele>1810.5000000000002</ele><time>2026-04-19T17:48:00Z</time></trkpt><trkpt lat="36.80033016142542" lon="-107.97058615903582"><ele>1811.0</ele><time>2026-04-19T17:48:01Z</time></trkpt><trkpt lat="36.80032158218498" lon="-107.97049328995206"><ele>1811.5</ele><time>2026-04-19T17:48:03Z</time></trkpt><trkpt lat="36.80030829251306" lon="-107.97032445846685"><ele>1812.0</ele><time>2026-04-19T17:48:05Z</time></trkpt><trkpt lat="36.80027373888597" lon="-107.97025552728698"><ele>1812.5000000000002</ele><time>2026-04-19T17:48:06Z</time></trkpt><trkpt lat="36.800240257418075" lon="-107.97017786390637"><ele>1813.0</ele><time>2026-04-19T17:48:07Z</time></trkpt><trkpt lat="36.800218486599555" lon="-107.97008406174142"><ele>1812.8000000000002</ele><time>2026-04-19T17:48:08Z</time></trkpt><trkpt lat="36.80021340604673" lon="-107.97000567772649"><ele>1812.6000000000001</ele><time>2026-04-19T17:48:09Z</time></trkpt><trkpt lat="36.80018440016039" lon="-107.96985135407513"><ele>1812.3999999999999</ele><time>2026-04-19T17:48:11Z</time></trkpt><trkpt lat="36.80012695295368" lon="-107.9697716482305"><ele>1812.1999999999998</ele><time>2026-04-19T17:48:12Z</time></trkpt><trkpt lat="36.80006029166443" lon="-107.96968107372489"><ele>1812.0</ele><time>2026-04-19T17:48:13Z</time></trkpt><trkpt lat="36.80001799594505" lon="-107.96958405985448"><ele>1812.6666666666667</ele><time>2026-04-19T17:48:14Z</time></trkpt><trkpt lat="36.799983457854744" lon="-107.96948338508147"><ele>1813.3333333333335</ele><time>2026-04-19T17:48:15Z</time></trkpt><trkpt lat="36.79995594209634" lon="-107.96936222110544"><ele>1814.0</ele><time>2026-04-19T17:48:17Z</time></trkpt><trkpt lat="36.79997458784133" lon="-107.96926029160873"><ele>1814.6666666666667</ele><time>2026-04-19T17:48:18Z</time></trkpt><trkpt lat="36.79997474748881" lon="-107.96916390841093"><ele>1815.3333333333335</ele><time>2026-04-19T17:48:19Z</time></trkpt><trkpt lat="36.79994131256285" lon="-107.96908494165851"><ele>1816.0</ele><time>2026-04-19T17:48:20Z</time></trkpt><trkpt lat="36.79989266101705" lon="-107.96898963819109"><ele>1816.6</ele><time>2026-04-19T17:48:21Z</time></trkpt><trkpt lat="36.799855960949266" lon="-107.96890825546926"><ele>1817.1999999999998</ele><time>2026-04-19T17:48:22Z</time></trkpt><trkpt lat="36.79983827967669" lon="-107.96882806685795"><ele>1817.8000000000002</ele><time>2026-04-19T17:48:23Z</time></trkpt><trkpt lat="36.79987115761032" lon="-107.96874073792189"><ele>1818.4</ele><time>2026-04-19T17:48:25Z</time></trkpt><trkpt lat="36.799970280263764" lon="-107.96863065643952"><ele>1819.0</ele><time>2026-04-19T17:48:27Z</time></trkpt><trkpt lat="36.80004365289457" lon="-107.96853430034568"><ele>1819.0</ele><time>2026-04-19T17:48:28Z</time></trkpt><trkpt lat="36.80009124505856" lon="-107.96845582178443"><ele>1819.0</ele><time>2026-04-19T17:48:29Z</time></trkpt><trkpt lat="36.80001863153007" lon="-107.96830255889034"><ele>1819.0</ele><time>2026-04-19T17:48:31Z</time></trkpt><trkpt lat="36.79997322682677" lon="-107.96818518343899"><ele>1819.0</ele><time>2026-04-19T17:48:32Z</time></trkpt><trkpt lat="36.800001957917715" lon="-107.9681021256522"><ele>1819.0</ele><time>2026-04-19T17:48:33Z</time></trkpt><trkpt lat="36.800009395927006" lon="-107.96795157932837"><ele>1820.2</ele><time>2026-04-19T17:48:35Z</time></trkpt><trkpt lat="36.79999113899896" lon="-107.96785270282062"><ele>1821.4</ele><time>2026-04-19T17:48:36Z</time></trkpt><trkpt lat="36.79996468400671" lon="-107.96774685161552"><ele>1822.6</ele><time>2026-04-19T17:48:37Z</time></trkpt><trkpt lat="36.799916323693" lon="-107.96766855366744"><ele>1823.8</ele><time>2026-04-19T17:48:38Z</time></trkpt><trkpt lat="36.7999192439451" lon="-107.96750379183648"><ele>1825.0</ele><time>2026-04-19T17:48:40Z</time></trkpt><trkpt lat="36.79991507080999" lon="-107.9674033729534"><ele>1825.4</ele><time>2026-04-19T17:48:41Z</time></trkpt><trkpt lat="36.79988889795032" lon="-107.96724964265233"><ele>1825.8</ele><time>2026-04-19T17:48:43Z</time></trkpt><trkpt lat="36.79983949881882" lon="-107.96716355761211"><ele>1826.1999999999998</ele><time>2026-04-19T17:48:44Z</time></trkpt><trkpt lat="36.79975598878159" lon="-107.96708260462376"><ele>1826.6</ele><time>2026-04-19T17:48:45Z</time></trkpt><trkpt lat="36.79966528772614" lon="-107.9670264293496"><ele>1827.0</ele><time>2026-04-19T17:48:46.001Z</time></trkpt><trkpt lat="36.79960277430915" lon="-107.9669444475438"><ele>1827.0</ele><time>2026-04-19T17:48:47.001Z</time></trkpt><trkpt lat="36.79952477164742" lon="-107.9668528114581"><ele>1826.9999999999998</ele><time>2026-04-19T17:48:49.001Z</time></trkpt><trkpt lat="36.79947208997284" lon="-107.9667274627105"><ele>1826.9999999999998</ele><time>2026-04-19T17:48:50.001Z</time></trkpt><trkpt lat="36.79942357342722" lon="-107.96659783747825"><ele>1827.0</ele><time>2026-04-19T17:48:51.001Z</time></trkpt><trkpt lat="36.799404263194084" lon="-107.96648219449847"><ele>1827.0</ele><time>2026-04-19T17:48:52.001Z</time></trkpt><trkpt lat="36.79938344507278" lon="-107.96635434114765"><ele>1826.8</ele><time>2026-04-19T17:48:53.001Z</time></trkpt><trkpt lat="36.799344871708016" lon="-107.96625201149698"><ele>1826.6</ele><time>2026-04-19T17:48:54.001Z</time></trkpt><trkpt lat="36.79929334099972" lon="-107.96617599519834"><ele>1826.3999999999999</ele><time>2026-04-19T17:48:55.001Z</time></trkpt><trkpt lat="36.79928948672096" lon="-107.9660106762568"><ele>1826.1999999999998</ele><time>2026-04-19T17:48:57.001Z</time></trkpt><trkpt lat="36.799297721218245" lon="-107.96590247229466"><ele>1826.0</ele><time>2026-04-19T17:48:58.001Z</time></trkpt><trkpt lat="36.79929045930788" lon="-107.96578712570674"><ele>1826.0</ele><time>2026-04-19T17:48:59.001Z</time></trkpt><trkpt lat="36.799269506623254" lon="-107.96568524135569"><ele>1826.0</ele><time>2026-04-19T17:49:00.001Z</time></trkpt><trkpt lat="36.79923845325062" lon="-107.96556535029745"><ele>1826.0</ele><time>2026-04-19T17:49:01.001Z</time></trkpt><trkpt lat="36.79921221558847" lon="-107.96542819124477"><ele>1826.0</ele><time>2026-04-19T17:49:02.001Z</time></trkpt><trkpt lat="36.799200729274276" lon="-107.96528733320788"><ele>1826.0</ele><time>2026-04-19T17:49:03.001Z</time></trkpt><trkpt lat="36.79919184457192" lon="-107.96517654328724"><ele>1825.9999999999998</ele><time>2026-04-19T17:49:04.001Z</time></trkpt><trkpt lat="36.79916311241325" lon="-107.96510063080143"><ele>1826.0</ele><time>2026-04-19T17:49:05.001Z</time></trkpt><trkpt lat="36.79915554848472" lon="-107.96500526620821"><ele>1826.0</ele><time>2026-04-19T17:49:07.001Z</time></trkpt><trkpt lat="36.799219309208674" lon="-107.96486401331312"><ele>1826.0</ele><time>2026-04-19T17:49:09.001Z</time></trkpt><trkpt lat="36.79921862496308" lon="-107.96477088554643"><ele>1825.9999999999998</ele><time>2026-04-19T17:49:10.001Z</time></trkpt><trkpt lat="36.79921797808512" lon="-107.96465404062576"><ele>1826.0</ele><time>2026-04-19T17:49:12.001Z</time></trkpt><trkpt lat="36.799293923936276" lon="-107.96447807033582"><ele>1826.8</ele><time>2026-04-19T17:49:15.001Z</time></trkpt><trkpt lat="36.79937303833996" lon="-107.96434672944748"><ele>1827.6</ele><time>2026-04-19T17:49:17.001Z</time></trkpt><trkpt lat="36.79939155167945" lon="-107.96426700910705"><ele>1828.4</ele><time>2026-04-19T17:49:18.001Z</time></trkpt><trkpt lat="36.79936600800114" lon="-107.96410607974505"><ele>1829.2</ele><time>2026-04-19T17:49:20.001Z</time></trkpt><trkpt lat="36.799353998319894" lon="-107.96401582934584"><ele>1830.0</ele><time>2026-04-19T17:49:21.001Z</time></trkpt><trkpt lat="36.799340539655994" lon="-107.9639263449378"><ele>1831.6666666666667</ele><time>2026-04-19T17:49:22.001Z</time></trkpt><trkpt lat="36.79932041704987" lon="-107.96383219474583"><ele>1833.3333333333335</ele><time>2026-04-19T17:49:23.001Z</time></trkpt><trkpt lat="36.79929897679196" lon="-107.96375363898849"><ele>1835.0</ele><time>2026-04-19T17:49:24.001Z</time></trkpt><trkpt lat="36.79925113312128" lon="-107.96369504278422"><ele>1836.6666666666667</ele><time>2026-04-19T17:49:25.001Z</time></trkpt><trkpt lat="36.79923091090747" lon="-107.96353983023602"><ele>1838.3333333333335</ele><time>2026-04-19T17:49:27.001Z</time></trkpt><trkpt lat="36.799223608434914" lon="-107.96344572589074"><ele>1840.0</ele><time>2026-04-19T17:49:28.001Z</time></trkpt><trkpt lat="36.79922017325222" lon="-107.96334848971219"><ele>1840.5000000000002</ele><time>2026-04-19T17:49:29.001Z</time></trkpt><trkpt lat="36.79924322748646" lon="-107.96325209290497"><ele>1841.0</ele><time>2026-04-19T17:49:30.001Z</time></trkpt><trkpt lat="36.79927294323949" lon="-107.96315641728496"><ele>1841.5</ele><time>2026-04-19T17:49:31.001Z</time></trkpt><trkpt lat="36.79930986572514" lon="-107.96306394212623"><ele>1842.0</ele><time>2026-04-19T17:49:32.001Z</time></trkpt><trkpt lat="36.799337920212956" lon="-107.96298146836341"><ele>1842.5000000000002</ele><time>2026-04-19T17:49:33.001Z</time></trkpt><trkpt lat="36.79934555912441" lon="-107.96288882609322"><ele>1843.0</ele><time>2026-04-19T17:49:34Z</time></trkpt><trkpt lat="36.79930724510471" lon="-107.96279155877316"><ele>1843.0</ele><time>2026-04-19T17:49:35Z</time></trkpt><trkpt lat="36.79925548464617" lon="-107.96269576434295"><ele>1843.0000000000002</ele><time>2026-04-19T17:49:36Z</time></trkpt><trkpt lat="36.7991825657956" lon="-107.96259645037827"><ele>1843.0000000000002</ele><time>2026-04-19T17:49:37Z</time></trkpt><trkpt lat="36.799159176063135" lon="-107.96252018888929"><ele>1843.0</ele><time>2026-04-19T17:49:38Z</time></trkpt><trkpt lat="36.79911593695546" lon="-107.96242902327451"><ele>1843.0</ele><time>2026-04-19T17:49:39Z</time></trkpt><trkpt lat="36.799045245723434" lon="-107.96233563615533"><ele>1843.4</ele><time>2026-04-19T17:49:40Z</time></trkpt><trkpt lat="36.799000548830804" lon="-107.96227370191596"><ele>1843.8000000000002</ele><time>2026-04-19T17:49:41Z</time></trkpt><trkpt lat="36.79899789368218" lon="-107.9621391440195"><ele>1844.2</ele><time>2026-04-19T17:49:43Z</time></trkpt><trkpt lat="36.798989387120415" lon="-107.9620165318122"><ele>1844.6</ele><time>2026-04-19T17:49:44Z</time></trkpt><trkpt lat="36.79896611818399" lon="-107.96189873531816"><ele>1845.0</ele><time>2026-04-19T17:49:46Z</time></trkpt><trkpt lat="36.79890332332788" lon="-107.961734449766"><ele>1845.75</ele><time>2026-04-19T17:49:48Z</time></trkpt><trkpt lat="36.79884656576353" lon="-107.96158808185434"><ele>1846.5</ele><time>2026-04-19T17:49:49Z</time></trkpt><trkpt lat="36.79881473954285" lon="-107.96143359972639"><ele>1847.25</ele><time>2026-04-19T17:49:50Z</time></trkpt><trkpt lat="36.798789733287045" lon="-107.96130233244608"><ele>1848.0</ele><time>2026-04-19T17:49:51Z</time></trkpt><trkpt lat="36.79876616397993" lon="-107.9611800947615"><ele>1848.0</ele><time>2026-04-19T17:49:52Z</time></trkpt><trkpt lat="36.798761344925296" lon="-107.96106949566304"><ele>1848.0000000000002</ele><time>2026-04-19T17:49:53Z</time></trkpt><trkpt lat="36.79878598911549" lon="-107.96097842356292"><ele>1848.0000000000002</ele><time>2026-04-19T17:49:54Z</time></trkpt><trkpt lat="36.79880283872136" lon="-107.9607988133923"><ele>1848.0</ele><time>2026-04-19T17:49:56Z</time></trkpt><trkpt lat="36.79874126156262" lon="-107.96066289836173"><ele>1848.0</ele><time>2026-04-19T17:49:57Z</time></trkpt><trkpt lat="36.79866898080763" lon="-107.96053918808578"><ele>1849.0</ele><time>2026-04-19T17:49:58Z</time></trkpt><trkpt lat="36.798601901405384" lon="-107.96044591990321"><ele>1850.0000000000002</ele><time>2026-04-19T17:49:59Z</time></trkpt><trkpt lat="36.798529203514995" lon="-107.96039093763285"><ele>1851.0000000000002</ele><time>2026-04-19T17:50:00Z</time></trkpt><trkpt lat="36.7984440871832" lon="-107.96029232732494"><ele>1852.0</ele><time>2026-04-19T17:50:01Z</time></trkpt><trkpt lat="36.798402302895454" lon="-107.96020278276775"><ele>1853.0</ele><time>2026-04-19T17:50:02Z</time></trkpt><trkpt lat="36.79839745454746" lon="-107.9601177540325"><ele>1854.1666666666665</ele><time>2026-04-19T17:50:03Z</time></trkpt><trkpt lat="36.79840287448556" lon="-107.96001878822472"><ele>1855.3333333333333</ele><time>2026-04-19T17:50:04Z</time></trkpt><trkpt lat="36.79840677289568" lon="-107.95989769040284"><ele>1856.5</ele><time>2026-04-19T17:50:05Z</time></trkpt><trkpt lat="36.79839648128664" lon="-107.95977570049271"><ele>1857.6666666666665</ele><time>2026-04-19T17:50:06Z</time></trkpt><trkpt lat="36.79838514298552" lon="-107.95968703580674"><ele>1858.8333333333333</ele><time>2026-04-19T17:50:07Z</time></trkpt><trkpt lat="36.79839050387209" lon="-107.95959007460563"><ele>1860.0</ele><time>2026-04-19T17:50:08Z</time></trkpt><trkpt lat="36.798339500027325" lon="-107.95948550671504"><ele>1860.0</ele><time>2026-04-19T17:50:10Z</time></trkpt><trkpt lat="36.79822369500638" lon="-107.95931751950003"><ele>1860.0</ele><time>2026-04-19T17:50:12Z</time></trkpt><trkpt lat="36.79818586212294" lon="-107.9592169684358"><ele>1860.0</ele><time>2026-04-19T17:50:13Z</time></trkpt><trkpt lat="36.79811830473251" lon="-107.95915942972157"><ele>1860.0</ele><time>2026-04-19T17:50:14Z</time></trkpt><trkpt lat="36.79807085591211" lon="-107.95909492134783"><ele>1860.0</ele><time>2026-04-19T17:50:15Z</time></trkpt><trkpt lat="36.798038549121415" lon="-107.9590164388574"><ele>1859.0</ele><time>2026-04-19T17:50:17Z</time></trkpt><trkpt lat="36.798014620911495" lon="-107.95891281772194"><ele>1858.0</ele><time>2026-04-19T17:50:19Z</time></trkpt><trkpt lat="36.797960898462705" lon="-107.958804068251"><ele>1857.0</ele><time>2026-04-19T17:50:21Z</time></trkpt><trkpt lat="36.79788887028016" lon="-107.95873926210471"><ele>1856.0</ele><time>2026-04-19T17:50:24Z</time></trkpt><trkpt lat="36.797781315977346" lon="-107.95869057380327"><ele>1855.0</ele><time>2026-04-19T17:50:26Z</time></trkpt><trkpt lat="36.79769201507688" lon="-107.95869736819955"><ele>1855.4</ele><time>2026-04-19T17:50:28Z</time></trkpt><trkpt lat="36.797642172271225" lon="-107.95862299006355"><ele>1855.8</ele><time>2026-04-19T17:50:31Z</time></trkpt><trkpt lat="36.79760894847196" lon="-107.95852547787264"><ele>1856.1999999999998</ele><time>2026-04-19T17:50:33Z</time></trkpt><trkpt lat="36.79754722442626" lon="-107.95838771732346"><ele>1856.6</ele><time>2026-04-19T17:50:35Z</time></trkpt><trkpt lat="36.79753268601232" lon="-107.9582628334258"><ele>1857.0</ele><time>2026-04-19T17:50:37Z</time></trkpt><trkpt lat="36.797484131343474" lon="-107.95821102465992"><ele>1857.3333333333333</ele><time>2026-04-19T17:50:39Z</time></trkpt><trkpt lat="36.79736830160107" lon="-107.95817353410803"><ele>1857.6666666666665</ele><time>2026-04-19T17:50:41Z</time></trkpt><trkpt lat="36.79730528204183" lon="-107.95815402597114"><ele>1858.0</ele><time>2026-04-19T17:50:42Z</time></trkpt><trkpt lat="36.797237860005964" lon="-107.95813423424137"><ele>1858.3333333333333</ele><time>2026-04-19T17:50:43Z</time></trkpt><trkpt lat="36.797162980927766" lon="-107.9580970645377"><ele>1858.6666666666665</ele><time>2026-04-19T17:50:44Z</time></trkpt><trkpt lat="36.797079089189815" lon="-107.95805233044021"><ele>1859.0</ele><time>2026-04-19T17:50:45Z</time></trkpt><trkpt lat="36.796997766267424" lon="-107.95799459938624"><ele>1859.0</ele><time>2026-04-19T17:50:46Z</time></trkpt><trkpt lat="36.79693298705748" lon="-107.95788040474339"><ele>1859.0</ele><time>2026-04-19T17:50:47Z</time></trkpt><trkpt lat="36.796895104645245" lon="-107.9577875786173"><ele>1859.0</ele><time>2026-04-19T17:50:48Z</time></trkpt><trkpt lat="36.79685572570828" lon="-107.95769504915017"><ele>1859.0</ele><time>2026-04-19T17:50:49Z</time></trkpt><trkpt lat="36.796853047744165" lon="-107.95758369982842"><ele>1859.0</ele><time>2026-04-19T17:50:51Z</time></trkpt><trkpt lat="36.796884294170106" lon="-107.95740028715839"><ele>1859.2</ele><time>2026-04-19T17:50:53.001Z</time></trkpt><trkpt lat="36.79689659985088" lon="-107.95729727993945"><ele>1859.4</ele><time>2026-04-19T17:50:54.001Z</time></trkpt><trkpt lat="36.79683077067417" lon="-107.95724444892389"><ele>1859.6</ele><time>2026-04-19T17:50:56.001Z</time></trkpt><trkpt lat="36.796702981517015" lon="-107.95719067467303"><ele>1859.8</ele><time>2026-04-19T17:50:58.001Z</time></trkpt><trkpt lat="36.79665989908297" lon="-107.95708160276429"><ele>1860.0</ele><time>2026-04-19T17:51:00.001Z</time></trkpt><trkpt lat="36.79656749723175" lon="-107.95700493285683"><ele>1860.0</ele><time>2026-04-19T17:51:02.001Z</time></trkpt><trkpt lat="36.796464385144574" lon="-107.95693370989062"><ele>1860.0</ele><time>2026-04-19T17:51:04.001Z</time></trkpt><trkpt lat="36.79638405620141" lon="-107.95685561238982"><ele>1860.0</ele><time>2026-04-19T17:51:05.001Z</time></trkpt><trkpt lat="36.79632332397711" lon="-107.95679761601345"><ele>1860.0</ele><time>2026-04-19T17:51:07.001Z</time></trkpt><trkpt lat="36.79629618927463" lon="-107.9566501892034"><ele>1860.0</ele><time>2026-04-19T17:51:13.001Z</time></trkpt><trkpt lat="36.79626895898206" lon="-107.95656428871104"><ele>1859.8</ele><time>2026-04-19T17:51:14.001Z</time></trkpt><trkpt lat="36.796219193804" lon="-107.95641204900092"><ele>1859.6</ele><time>2026-04-19T17:51:16.001Z</time></trkpt><trkpt lat="36.79617798335445" lon="-107.95629623444522"><ele>1859.4</ele><time>2026-04-19T17:51:17.001Z</time></trkpt><trkpt lat="36.79612724182149" lon="-107.95620626949872"><ele>1859.2</ele><time>2026-04-19T17:51:18.001Z</time></trkpt><trkpt lat="36.79607107868157" lon="-107.95615289617827"><ele>1859.0</ele><time>2026-04-19T17:51:19.001Z</time></trkpt><trkpt lat="36.79596953079918" lon="-107.95611393507886"><ele>1860.1666666666665</ele><time>2026-04-19T17:51:21.001Z</time></trkpt><trkpt lat="36.795910833402495" lon="-107.95608383957294"><ele>1861.3333333333333</ele><time>2026-04-19T17:51:22.001Z</time></trkpt><trkpt lat="36.79584457699463" lon="-107.95606263956752"><ele>1862.5</ele><time>2026-04-19T17:51:23.001Z</time></trkpt><trkpt lat="36.79577292681659" lon="-107.9560117905922"><ele>1863.6666666666665</ele><time>2026-04-19T17:51:25.001Z</time></trkpt><trkpt lat="36.795754256563406" lon="-107.95593576765688"><ele>1864.8333333333333</ele><time>2026-04-19T17:51:27.001Z</time></trkpt><trkpt lat="36.79571544546302" lon="-107.95581431313377"><ele>1866.0</ele><time>2026-04-19T17:51:29.001Z</time></trkpt><trkpt lat="36.79566633291383" lon="-107.95569689275865"><ele>1866.6</ele><time>2026-04-19T17:51:31.001Z</time></trkpt><trkpt lat="36.79562407957675" lon="-107.95561929516732"><ele>1867.1999999999998</ele><time>2026-04-19T17:51:32.001Z</time></trkpt><trkpt lat="36.79556936837342" lon="-107.9555621357589"><ele>1867.8000000000002</ele><time>2026-04-19T17:51:33.001Z</time></trkpt><trkpt lat="36.79541873931772" lon="-107.9554171901348"><ele>1868.4</ele><time>2026-04-19T17:51:34.001Z</time></trkpt><trkpt lat="36.795340064411576" lon="-107.9553471498564"><ele>1869.0</ele><time>2026-04-19T17:51:35.001Z</time></trkpt><trkpt lat="36.79526191110985" lon="-107.95528088705824"><ele>1868.5</ele><time>2026-04-19T17:51:36.001Z</time></trkpt><trkpt lat="36.79516185515267" lon="-107.95525632745006"><ele>1868.0</ele><time>2026-04-19T17:51:38.001Z</time></trkpt><trkpt lat="36.795120433859324" lon="-107.9551931612803"><ele>1867.5</ele><time>2026-04-19T17:51:40Z</time></trkpt><trkpt lat="36.79507717568404" lon="-107.95513489289601"><ele>1867.0</ele><time>2026-04-19T17:51:41Z</time></trkpt><trkpt lat="36.795022022630995" lon="-107.9550792747285"><ele>1866.5</ele><time>2026-04-19T17:51:42Z</time></trkpt><trkpt lat="36.7949783698248" lon="-107.95499398919965"><ele>1866.0</ele><time>2026-04-19T17:51:43Z</time></trkpt><trkpt lat="36.79491287585602" lon="-107.95483312765813"><ele>1867.0</ele><time>2026-04-19T17:51:45Z</time></trkpt><trkpt lat="36.79488681129451" lon="-107.9547368481384"><ele>1868.0</ele><time>2026-04-19T17:51:46Z</time></trkpt><trkpt lat="36.79485460838549" lon="-107.95464348353438"><ele>1869.0</ele><time>2026-04-19T17:51:48Z</time></trkpt><trkpt lat="36.7947936465227" lon="-107.95460958398506"><ele>1870.0</ele><time>2026-04-19T17:51:58Z</time></trkpt><trkpt lat="36.79470691130837" lon="-107.95454309647667"><ele>1871.0</ele><time>2026-04-19T17:52:00Z</time></trkpt><trkpt lat="36.79462654486034" lon="-107.95448606010613"><ele>1872.0</ele><time>2026-04-19T17:52:01Z</time></trkpt><trkpt lat="36.79455672567036" lon="-107.95443743187133"><ele>1872.0</ele><time>2026-04-19T17:52:02Z</time></trkpt><trkpt lat="36.79449813504514" lon="-107.95440664341008"><ele>1872.0</ele><time>2026-04-19T17:52:03Z</time></trkpt><trkpt lat="36.79443890927431" lon="-107.95434357942577"><ele>1872.0</ele><time>2026-04-19T17:52:05Z</time></trkpt><trkpt lat="36.79441716215814" lon="-107.95422480421816"><ele>1872.0</ele><time>2026-04-19T17:52:07Z</time></trkpt><trkpt lat="36.79443300583791" lon="-107.95410671860648"><ele>1872.0</ele><time>2026-04-19T17:52:09Z</time></trkpt><trkpt lat="36.79450337901801" lon="-107.9540439133549"><ele>1872.0</ele><time>2026-04-19T17:52:11Z</time></trkpt><trkpt lat="36.794566574824" lon="-107.95398991153063"><ele>1872.0</ele><time>2026-04-19T17:52:12Z</time></trkpt><trkpt lat="36.79460593891223" lon="-107.95392600199801"><ele>1871.9999999999998</ele><time>2026-04-19T17:52:13Z</time></trkpt><trkpt lat="36.79462709761738" lon="-107.95377670674667"><ele>1871.9999999999998</ele><time>2026-04-19T17:52:15Z</time></trkpt><trkpt lat="36.79456824586244" lon="-107.9536449674759"><ele>1872.0</ele><time>2026-04-19T17:52:17Z</time></trkpt><trkpt lat="36.79452479355889" lon="-107.95352750486326"><ele>1872.0</ele><time>2026-04-19T17:52:19Z</time></trkpt><trkpt lat="36.79449813041819" lon="-107.95345291080598"><ele>1871.8</ele><time>2026-04-19T17:52:20Z</time></trkpt><trkpt lat="36.79446650471167" lon="-107.95328983025978"><ele>1871.6</ele><time>2026-04-19T17:52:22Z</time></trkpt><trkpt lat="36.79445176775557" lon="-107.95319380771696"><ele>1871.3999999999999</ele><time>2026-04-19T17:52:24Z</time></trkpt><trkpt lat="36.79445350574906" lon="-107.95310800069397"><ele>1871.1999999999998</ele><time>2026-04-19T17:52:26Z</time></trkpt><trkpt lat="36.794458254462874" lon="-107.95301217971657"><ele>1871.0</ele><time>2026-04-19T17:52:27Z</time></trkpt><trkpt lat="36.794439958363" lon="-107.95286868791133"><ele>1870.9999999999998</ele><time>2026-04-19T17:52:29Z</time></trkpt><trkpt lat="36.794419377341264" lon="-107.95277721953977"><ele>1871.0</ele><time>2026-04-19T17:52:30Z</time></trkpt><trkpt lat="36.7944028473698" lon="-107.95267620549708"><ele>1871.0</ele><time>2026-04-19T17:52:31Z</time></trkpt><trkpt lat="36.794404949920576" lon="-107.95259024054988"><ele>1871.0</ele><time>2026-04-19T17:52:32Z</time></trkpt><trkpt lat="36.794433454117986" lon="-107.95250780412357"><ele>1870.9999999999998</ele><time>2026-04-19T17:52:33Z</time></trkpt><trkpt lat="36.79444453160003" lon="-107.95242904560506"><ele>1871.0</ele><time>2026-04-19T17:52:34Z</time></trkpt><trkpt lat="36.794499413663054" lon="-107.95230303519277"><ele>1871.5714285714287</ele><time>2026-04-19T17:52:36Z</time></trkpt><trkpt lat="36.794538521606306" lon="-107.95223936571335"><ele>1872.1428571428569</ele><time>2026-04-19T17:52:37Z</time></trkpt><trkpt lat="36.794584160489556" lon="-107.952164808355"><ele>1872.7142857142856</ele><time>2026-04-19T17:52:38Z</time></trkpt><trkpt lat="36.794651117366314" lon="-107.95213541837192"><ele>1873.2857142857142</ele><time>2026-04-19T17:52:39Z</time></trkpt><trkpt lat="36.79472164196631" lon="-107.95212265689403"><ele>1873.8571428571427</ele><time>2026-04-19T17:52:40Z</time></trkpt><trkpt lat="36.79478081924363" lon="-107.95208639784664"><ele>1874.428571428571</ele><time>2026-04-19T17:52:41Z</time></trkpt><trkpt lat="36.79482634283816" lon="-107.95202642080639"><ele>1874.9999999999998</ele><time>2026-04-19T17:52:42Z</time></trkpt><trkpt lat="36.7948747852904" lon="-107.95196334511431"><ele>1875.0</ele><time>2026-04-19T17:52:43Z</time></trkpt><trkpt lat="36.79492885080894" lon="-107.9519019258466"><ele>1875.0</ele><time>2026-04-19T17:52:44Z</time></trkpt><trkpt lat="36.79498755612969" lon="-107.95184542858334"><ele>1875.0</ele><time>2026-04-19T17:52:45Z</time></trkpt><trkpt lat="36.795060017462454" lon="-107.95179869403904"><ele>1875.0</ele><time>2026-04-19T17:52:46Z</time></trkpt><trkpt lat="36.79511718311082" lon="-107.95170047369425"><ele>1875.0</ele><time>2026-04-19T17:52:48Z</time></trkpt><trkpt lat="36.79518947551938" lon="-107.95166581552981"><ele>1875.0</ele><time>2026-04-19T17:52:49Z</time></trkpt><trkpt lat="36.79524999211985" lon="-107.95163716742624"><ele>1876.0</ele><time>2026-04-19T17:52:50Z</time></trkpt><trkpt lat="36.795303777833794" lon="-107.95151315862509"><ele>1877.0</ele><time>2026-04-19T17:52:52Z</time></trkpt><trkpt lat="36.795329553307404" lon="-107.95141731227015"><ele>1878.0</ele><time>2026-04-19T17:52:53Z</time></trkpt><trkpt lat="36.79534472544061" lon="-107.95130985358479"><ele>1879.0</ele><time>2026-04-19T17:52:54Z</time></trkpt><trkpt lat="36.795310362832296" lon="-107.95123567121736"><ele>1880.0</ele><time>2026-04-19T17:52:55Z</time></trkpt><trkpt lat="36.795255056942864" lon="-107.95117327650739"><ele>1881.0</ele><time>2026-04-19T17:52:56Z</time></trkpt><trkpt lat="36.79525121405215" lon="-107.95109031801529"><ele>1881.0</ele><time>2026-04-19T17:52:57Z</time></trkpt><trkpt lat="36.795244506383675" lon="-107.95099930512386"><ele>1881.0</ele><time>2026-04-19T17:52:58Z</time></trkpt><trkpt lat="36.79520626925054" lon="-107.95090496495956"><ele>1881.0</ele><time>2026-04-19T17:52:59Z</time></trkpt><trkpt lat="36.79515745351323" lon="-107.95082742174316"><ele>1881.0</ele><time>2026-04-19T17:53:00Z</time></trkpt><trkpt lat="36.795119855311874" lon="-107.9507463133284"><ele>1881.0</ele><time>2026-04-19T17:53:01Z</time></trkpt><trkpt lat="36.79507271588339" lon="-107.95067622987305"><ele>1881.0</ele><time>2026-04-19T17:53:02Z</time></trkpt><trkpt lat="36.79501483947801" lon="-107.95060362294058"><ele>1881.5</ele><time>2026-04-19T17:53:04Z</time></trkpt><trkpt lat="36.79499454107765" lon="-107.95052670566514"><ele>1882.0</ele><time>2026-04-19T17:53:05.001Z</time></trkpt><trkpt lat="36.794997984985876" lon="-107.95041546731773"><ele>1882.5</ele><time>2026-04-19T17:53:06.001Z</time></trkpt><trkpt lat="36.795005140124935" lon="-107.95031103684919"><ele>1883.0</ele><time>2026-04-19T17:53:07.001Z</time></trkpt><trkpt lat="36.79500135499845" lon="-107.95022884201933"><ele>1883.5</ele><time>2026-04-19T17:53:08.001Z</time></trkpt><trkpt lat="36.79496261411757" lon="-107.95006425439195"><ele>1884.0</ele><time>2026-04-19T17:53:10.001Z</time></trkpt><trkpt lat="36.79491805898988" lon="-107.94995143179662"><ele>1885.3333333333333</ele><time>2026-04-19T17:53:11.001Z</time></trkpt><trkpt lat="36.79486055626118" lon="-107.94989261373314"><ele>1886.6666666666665</ele><time>2026-04-19T17:53:12.001Z</time></trkpt><trkpt lat="36.79482599663771" lon="-107.94979802117744"><ele>1888.0</ele><time>2026-04-19T17:53:13.001Z</time></trkpt><trkpt lat="36.794813947337374" lon="-107.94968682877882"><ele>1889.3333333333333</ele><time>2026-04-19T17:53:14.001Z</time></trkpt><trkpt lat="36.79478913577637" lon="-107.94958191785935"><ele>1890.6666666666665</ele><time>2026-04-19T17:53:15.001Z</time></trkpt><trkpt lat="36.79477692278844" lon="-107.9494824773376"><ele>1892.0</ele><time>2026-04-19T17:53:16.001Z</time></trkpt><trkpt lat="36.79479318053468" lon="-107.94938253402907"><ele>1891.9999999999998</ele><time>2026-04-19T17:53:17.001Z</time></trkpt><trkpt lat="36.794801370881835" lon="-107.94929389232708"><ele>1892.0</ele><time>2026-04-19T17:53:18.001Z</time></trkpt><trkpt lat="36.79477456976789" lon="-107.94918791181892"><ele>1892.0</ele><time>2026-04-19T17:53:20.001Z</time></trkpt><trkpt lat="36.794712555074135" lon="-107.94913871079486"><ele>1892.0</ele><time>2026-04-19T17:53:22.001Z</time></trkpt><trkpt lat="36.79464853563289" lon="-107.9491676956505"><ele>1891.9999999999998</ele><time>2026-04-19T17:53:23.001Z</time></trkpt><trkpt lat="36.79455051947627" lon="-107.94929324503401"><ele>1892.0</ele><time>2026-04-19T17:53:26.001Z</time></trkpt><trkpt lat="36.79448440719582" lon="-107.94940508538414"><ele>1892.0</ele><time>2026-04-19T17:53:27.001Z</time></trkpt><trkpt lat="36.79441580493613" lon="-107.9495073702993"><ele>1891.9999999999998</ele><time>2026-04-19T17:53:28.001Z</time></trkpt><trkpt lat="36.794323624669566" lon="-107.94960270705288"><ele>1891.9999999999998</ele><time>2026-04-19T17:53:29.001Z</time></trkpt><trkpt lat="36.79423674709577" lon="-107.94965507521167"><ele>1892.0</ele><time>2026-04-19T17:53:30.001Z</time></trkpt><trkpt lat="36.79415521572518" lon="-107.94968955369424"><ele>1892.0</ele><time>2026-04-19T17:53:31.001Z</time></trkpt><trkpt lat="36.794089225771216" lon="-107.94969109806561"><ele>1891.4999999999998</ele><time>2026-04-19T17:53:32.001Z</time></trkpt><trkpt lat="36.79401248514541" lon="-107.94979444768089"><ele>1891.0</ele><time>2026-04-19T17:53:34.001Z</time></trkpt><trkpt lat="36.79398343838986" lon="-107.94987314446017"><ele>1890.5</ele><time>2026-04-19T17:53:35.001Z</time></trkpt><trkpt lat="36.79394260946786" lon="-107.94994688206152"><ele>1890.0</ele><time>2026-04-19T17:53:36.001Z</time></trkpt><trkpt lat="36.7938861049476" lon="-107.95000422711149"><ele>1889.4999999999998</ele><time>2026-04-19T17:53:37.001Z</time></trkpt><trkpt lat="36.79381932705688" lon="-107.95005240529719"><ele>1889.0</ele><time>2026-04-19T17:53:38.001Z</time></trkpt><trkpt lat="36.79375527344141" lon="-107.95011763169437"><ele>1887.0</ele><time>2026-04-19T17:53:39.001Z</time></trkpt><trkpt lat="36.79369085153723" lon="-107.95018938228701"><ele>1885.0</ele><time>2026-04-19T17:53:40.001Z</time></trkpt><trkpt lat="36.79364731093711" lon="-107.95025297476838"><ele>1883.0</ele><time>2026-04-19T17:53:41.001Z</time></trkpt><trkpt lat="36.793558681992515" lon="-107.9503434579392"><ele>1881.0</ele><time>2026-04-19T17:53:43.001Z</time></trkpt><trkpt lat="36.79348777290774" lon="-107.95044803348023"><ele>1879.0</ele><time>2026-04-19T17:53:45.001Z</time></trkpt><trkpt lat="36.7934503027208" lon="-107.95054792295923"><ele>1878.2</ele><time>2026-04-19T17:53:47Z</time></trkpt><trkpt lat="36.793431066423985" lon="-107.95066994372363"><ele>1877.4</ele><time>2026-04-19T17:53:48Z</time></trkpt><trkpt lat="36.79343155131557" lon="-107.95081864492684"><ele>1876.6</ele><time>2026-04-19T17:53:49Z</time></trkpt><trkpt lat="36.79341336818161" lon="-107.95097783114622"><ele>1875.8</ele><time>2026-04-19T17:53:50Z</time></trkpt><trkpt lat="36.79340950805084" lon="-107.95107084317029"><ele>1875.0</ele><time>2026-04-19T17:53:51Z</time></trkpt><trkpt lat="36.79339304856528" lon="-107.9511724357384"><ele>1873.8333333333333</ele><time>2026-04-19T17:53:52Z</time></trkpt><trkpt lat="36.79336006413499" lon="-107.95127400444483"><ele>1872.6666666666665</ele><time>2026-04-19T17:53:53Z</time></trkpt><trkpt lat="36.79331227221627" lon="-107.95134485002424"><ele>1871.5</ele><time>2026-04-19T17:53:54Z</time></trkpt><trkpt lat="36.79325398870133" lon="-107.95140254683162"><ele>1870.3333333333333</ele><time>2026-04-19T17:53:55Z</time></trkpt><trkpt lat="36.79319827601287" lon="-107.95146228171532"><ele>1869.1666666666665</ele><time>2026-04-19T17:53:56Z</time></trkpt><trkpt lat="36.79314241665078" lon="-107.95151115867911"><ele>1868.0</ele><time>2026-04-19T17:53:57Z</time></trkpt><trkpt lat="36.79310532437002" lon="-107.95159761391102"><ele>1867.9999999999998</ele><time>2026-04-19T17:53:58Z</time></trkpt><trkpt lat="36.79305153364233" lon="-107.95164139781012"><ele>1868.0</ele><time>2026-04-19T17:53:59Z</time></trkpt><trkpt lat="36.79297247718576" lon="-107.95167959452073"><ele>1868.0</ele><time>2026-04-19T17:54:00Z</time></trkpt><trkpt lat="36.79292597818603" lon="-107.95174216366847"><ele>1868.0</ele><time>2026-04-19T17:54:01Z</time></trkpt><trkpt lat="36.79286349986256" lon="-107.951788549609"><ele>1867.9999999999998</ele><time>2026-04-19T17:54:03Z</time></trkpt><trkpt lat="36.79279724388427" lon="-107.95183972053174"><ele>1868.0</ele><time>2026-04-19T17:54:05Z</time></trkpt><trkpt lat="36.79272202124256" lon="-107.95192227531112"><ele>1865.1666666666665</ele><time>2026-04-19T17:54:07Z</time></trkpt><trkpt lat="36.792673221353084" lon="-107.95199407767835"><ele>1862.3333333333333</ele><time>2026-04-19T17:54:09Z</time></trkpt><trkpt lat="36.792592107280484" lon="-107.95198932981975"><ele>1859.5</ele><time>2026-04-19T17:54:14Z</time></trkpt><trkpt lat="36.79251619429742" lon="-107.95200780236415"><ele>1856.6666666666665</ele><time>2026-04-19T17:54:15Z</time></trkpt><trkpt lat="36.792373942773935" lon="-107.95202852713079"><ele>1853.8333333333333</ele><time>2026-04-19T17:54:17Z</time></trkpt><trkpt lat="36.79231902396169" lon="-107.9519792268939"><ele>1851.0</ele><time>2026-04-19T17:54:18Z</time></trkpt><trkpt lat="36.792239443077136" lon="-107.95190293178402"><ele>1850.8333333333333</ele><time>2026-04-19T17:54:19Z</time></trkpt><trkpt lat="36.79215953946275" lon="-107.95183707881198"><ele>1850.6666666666665</ele><time>2026-04-19T17:54:20Z</time></trkpt><trkpt lat="36.79208665472902" lon="-107.95179104422438"><ele>1850.5</ele><time>2026-04-19T17:54:21Z</time></trkpt><trkpt lat="36.792008611242494" lon="-107.95178806790074"><ele>1850.3333333333333</ele><time>2026-04-19T17:54:22Z</time></trkpt><trkpt lat="36.791916540590805" lon="-107.95185256719954"><ele>1850.1666666666665</ele><time>2026-04-19T17:54:24Z</time></trkpt><trkpt lat="36.791878595144304" lon="-107.9519160315394"><ele>1850.0</ele><time>2026-04-19T17:54:26Z</time></trkpt><trkpt lat="36.79183303704389" lon="-107.95197815466639"><ele>1849.0</ele><time>2026-04-19T17:54:29Z</time></trkpt><trkpt lat="36.79174569959948" lon="-107.95199436555367"><ele>1848.0</ele><time>2026-04-19T17:54:31Z</time></trkpt><trkpt lat="36.79164207797464" lon="-107.95201518738862"><ele>1847.0</ele><time>2026-04-19T17:54:33Z</time></trkpt><trkpt lat="36.791556467813024" lon="-107.95211968812707"><ele>1846.0</ele><time>2026-04-19T17:54:35Z</time></trkpt><trkpt lat="36.79150489419664" lon="-107.95217215421083"><ele>1845.0</ele><time>2026-04-19T17:54:36Z</time></trkpt><trkpt lat="36.79143120841195" lon="-107.95216405358367"><ele>1845.0</ele><time>2026-04-19T17:54:37Z</time></trkpt><trkpt lat="36.79136721581449" lon="-107.9521696242312"><ele>1845.0</ele><time>2026-04-19T17:54:38Z</time></trkpt><trkpt lat="36.79128727943622" lon="-107.95222276572555"><ele>1845.0</ele><time>2026-04-19T17:54:39Z</time></trkpt><trkpt lat="36.79122445916271" lon="-107.95230811412101"><ele>1845.0</ele><time>2026-04-19T17:54:40Z</time></trkpt><trkpt lat="36.79117234620206" lon="-107.95240469920036"><ele>1845.0</ele><time>2026-04-19T17:54:41Z</time></trkpt><trkpt lat="36.791107405623784" lon="-107.95247693264383"><ele>1845.0</ele><time>2026-04-19T17:54:42Z</time></trkpt><trkpt lat="36.791052911335534" lon="-107.9525240556294"><ele>1844.4</ele><time>2026-04-19T17:54:43Z</time></trkpt><trkpt lat="36.791017533571484" lon="-107.95268382995262"><ele>1843.8</ele><time>2026-04-19T17:54:45Z</time></trkpt><trkpt lat="36.7910413422831" lon="-107.9528186826046"><ele>1843.1999999999998</ele><time>2026-04-19T17:54:47Z</time></trkpt><trkpt lat="36.79100980482249" lon="-107.95296408328916"><ele>1842.6</ele><time>2026-04-19T17:54:49Z</time></trkpt><trkpt lat="36.790947430847915" lon="-107.95301019499466"><ele>1842.0</ele><time>2026-04-19T17:54:50Z</time></trkpt><trkpt lat="36.79090982302585" lon="-107.9531512754904"><ele>1842.0</ele><time>2026-04-19T17:54:52Z</time></trkpt><trkpt lat="36.790898042182285" lon="-107.95324888183224"><ele>1841.9999999999998</ele><time>2026-04-19T17:54:53Z</time></trkpt><trkpt lat="36.790880367621085" lon="-107.95339493762731"><ele>1841.9999999999998</ele><time>2026-04-19T17:54:55Z</time></trkpt><trkpt lat="36.790916924737274" lon="-107.95349389757207"><ele>1842.0</ele><time>2026-04-19T17:54:56Z</time></trkpt><trkpt lat="36.7909733833381" lon="-107.95356729292415"><ele>1842.0</ele><time>2026-04-19T17:54:57Z</time></trkpt><trkpt lat="36.79105763462443" lon="-107.95363776750652"><ele>1841.1999999999998</ele><time>2026-04-19T17:54:58Z</time></trkpt><trkpt lat="36.79114283093738" lon="-107.9537220612416"><ele>1840.3999999999999</ele><time>2026-04-19T17:54:59Z</time></trkpt><trkpt lat="36.791183886665834" lon="-107.95380761959387"><ele>1839.6000000000001</ele><time>2026-04-19T17:55:00Z</time></trkpt><trkpt lat="36.79116609447225" lon="-107.95389314955024"><ele>1838.8000000000002</ele><time>2026-04-19T17:55:02Z</time></trkpt><trkpt lat="36.791057679516875" lon="-107.95396042767447"><ele>1838.0</ele><time>2026-04-19T17:55:04Z</time></trkpt><trkpt lat="36.791015428414305" lon="-107.95403552050836"><ele>1837.9999999999998</ele><time>2026-04-19T17:55:06Z</time></trkpt><trkpt lat="36.791022395731005" lon="-107.95414599727258"><ele>1838.0</ele><time>2026-04-19T17:55:07Z</time></trkpt><trkpt lat="36.79101030023976" lon="-107.95422769749037"><ele>1838.0</ele><time>2026-04-19T17:55:08Z</time></trkpt><trkpt lat="36.79099523150438" lon="-107.95431151288206"><ele>1838.0</ele><time>2026-04-19T17:55:10Z</time></trkpt><trkpt lat="36.79091402410616" lon="-107.95439642002586"><ele>1837.9999999999998</ele><time>2026-04-19T17:55:12Z</time></trkpt><trkpt lat="36.79084713933946" lon="-107.95441286050676"><ele>1838.0</ele><time>2026-04-19T17:55:13Z</time></trkpt><trkpt lat="36.7907593621799" lon="-107.95441041495545"><ele>1837.25</ele><time>2026-04-19T17:55:14Z</time></trkpt><trkpt lat="36.79065435529214" lon="-107.95444692080463"><ele>1836.5</ele><time>2026-04-19T17:55:16.001Z</time></trkpt><trkpt lat="36.79053835318544" lon="-107.9545194555413"><ele>1835.75</ele><time>2026-04-19T17:55:18.001Z</time></trkpt><trkpt lat="36.79050176581411" lon="-107.95469657860974"><ele>1835.0</ele><time>2026-04-19T17:55:19.001Z</time></trkpt><trkpt lat="36.790458305206265" lon="-107.9548179953019"><ele>1835.0</ele><time>2026-04-19T17:55:20.001Z</time></trkpt><trkpt lat="36.790431081414205" lon="-107.95489470379324"><ele>1835.0</ele><time>2026-04-19T17:55:21.001Z</time></trkpt><trkpt lat="36.79040574318149" lon="-107.95505271033942"><ele>1835.0</ele><time>2026-04-19T17:55:23.001Z</time></trkpt><trkpt lat="36.79039268086206" lon="-107.95516143402315"><ele>1835.0</ele><time>2026-04-19T17:55:24.001Z</time></trkpt><trkpt lat="36.79037296101528" lon="-107.95526858680233"><ele>1835.0</ele><time>2026-04-19T17:55:25.001Z</time></trkpt><trkpt lat="36.790345133319754" lon="-107.95538724076638"><ele>1835.2</ele><time>2026-04-19T17:55:26.001Z</time></trkpt><trkpt lat="36.790298072148325" lon="-107.955479670049"><ele>1835.4</ele><time>2026-04-19T17:55:27.001Z</time></trkpt><trkpt lat="36.79021475436902" lon="-107.95557759572552"><ele>1835.6</ele><time>2026-04-19T17:55:28.001Z</time></trkpt><trkpt lat="36.79014575025216" lon="-107.955675664045"><ele>1835.8</ele><time>2026-04-19T17:55:29.001Z</time></trkpt><trkpt lat="36.79008644638763" lon="-107.95576367987265"><ele>1836.0</ele><time>2026-04-19T17:55:30.001Z</time></trkpt><trkpt lat="36.79001069555257" lon="-107.95571957691189"><ele>1834.6</ele><time>2026-04-19T17:55:34.001Z</time></trkpt><trkpt lat="36.78993362503793" lon="-107.95560996984183"><ele>1833.1999999999998</ele><time>2026-04-19T17:55:36.001Z</time></trkpt><trkpt lat="36.78985866687011" lon="-107.95561316097765"><ele>1831.8000000000002</ele><time>2026-04-19T17:55:38.001Z</time></trkpt><trkpt lat="36.789751216692515" lon="-107.95568401185777"><ele>1830.4</ele><time>2026-04-19T17:56:14Z</time></trkpt><trkpt lat="36.78968151168305" lon="-107.95573919815897"><ele>1829.0</ele><time>2026-04-19T17:56:15Z</time></trkpt><trkpt lat="36.789630917584624" lon="-107.95580135574198"><ele>1829.0</ele><time>2026-04-19T17:56:16Z</time></trkpt><trkpt lat="36.7895306179012" lon="-107.95583163689626"><ele>1829.0</ele><time>2026-04-19T17:56:18Z</time></trkpt><trkpt lat="36.78945025376072" lon="-107.95583307559833"><ele>1829.0</ele><time>2026-04-19T17:56:19Z</time></trkpt><trkpt lat="36.789332512168464" lon="-107.95585768390082"><ele>1829.0</ele><time>2026-04-19T17:56:20Z</time></trkpt><trkpt lat="36.78922454789251" lon="-107.95588178652824"><ele>1829.0</ele><time>2026-04-19T17:56:21Z</time></trkpt><trkpt lat="36.78911895497206" lon="-107.95590066300234"><ele>1828.3333333333333</ele><time>2026-04-19T17:56:22Z</time></trkpt><trkpt lat="36.789050886395906" lon="-107.95590772052708"><ele>1827.6666666666665</ele><time>2026-04-19T17:56:23Z</time></trkpt><trkpt lat="36.788985785980294" lon="-107.95598725820243"><ele>1827.0</ele><time>2026-04-19T17:56:25Z</time></trkpt><trkpt lat="36.788922582120065" lon="-107.95606053334637"><ele>1826.3333333333335</ele><time>2026-04-19T17:56:26Z</time></trkpt><trkpt lat="36.78884213973428" lon="-107.95613467041257"><ele>1825.6666666666667</ele><time>2026-04-19T17:56:27Z</time></trkpt><trkpt lat="36.78880909822391" lon="-107.95622879884719"><ele>1825.0</ele><time>2026-04-19T17:56:28Z</time></trkpt><trkpt lat="36.78879594923971" lon="-107.95637688437779"><ele>1825.0</ele><time>2026-04-19T17:56:29Z</time></trkpt><trkpt lat="36.78878499551239" lon="-107.95653171561031"><ele>1825.0</ele><time>2026-04-19T17:56:30Z</time></trkpt><trkpt lat="36.788757146353085" lon="-107.9566748134412"><ele>1825.0</ele><time>2026-04-19T17:56:31Z</time></trkpt><trkpt lat="36.788715094446125" lon="-107.9567977657415"><ele>1825.0</ele><time>2026-04-19T17:56:32Z</time></trkpt><trkpt lat="36.78866531409744" lon="-107.95694282512197"><ele>1824.4</ele><time>2026-04-19T17:56:33Z</time></trkpt><trkpt lat="36.788607657295415" lon="-107.95705061672186"><ele>1823.8</ele><time>2026-04-19T17:56:34Z</time></trkpt><trkpt lat="36.78851037934279" lon="-107.95717391620404"><ele>1823.1999999999998</ele><time>2026-04-19T17:56:35Z</time></trkpt><trkpt lat="36.78843085007331" lon="-107.95727418163814"><ele>1822.6</ele><time>2026-04-19T17:56:36Z</time></trkpt><trkpt lat="36.788372619733366" lon="-107.95735469132809"><ele>1822.0</ele><time>2026-04-19T17:56:37Z</time></trkpt><trkpt lat="36.78832962015919" lon="-107.9574786777628"><ele>1821.1999999999998</ele><time>2026-04-19T17:56:39Z</time></trkpt><trkpt lat="36.78833682649339" lon="-107.95755920731227"><ele>1820.3999999999999</ele><time>2026-04-19T17:56:40Z</time></trkpt><trkpt lat="36.78832041582826" lon="-107.95765965179076"><ele>1819.6000000000001</ele><time>2026-04-19T17:56:41Z</time></trkpt><trkpt lat="36.78826698579368" lon="-107.95775172064506"><ele>1818.8000000000002</ele><time>2026-04-19T17:56:42Z</time></trkpt><trkpt lat="36.78818579233538" lon="-107.95785465790375"><ele>1818.0</ele><time>2026-04-19T17:56:43Z</time></trkpt><trkpt lat="36.788135714488874" lon="-107.9579820837829"><ele>1818.0</ele><time>2026-04-19T17:56:44Z</time></trkpt><trkpt lat="36.788090334781" lon="-107.958050758621"><ele>1818.0</ele><time>2026-04-19T17:56:45Z</time></trkpt><trkpt lat="36.788026972851505" lon="-107.95810461865999"><ele>1818.0</ele><time>2026-04-19T17:56:46Z</time></trkpt><trkpt lat="36.78797474155709" lon="-107.95815236321428"><ele>1818.0</ele><time>2026-04-19T17:56:47Z</time></trkpt><trkpt lat="36.78797105876466" lon="-107.95826064744816"><ele>1818.0</ele><time>2026-04-19T17:56:49Z</time></trkpt><trkpt lat="36.787985493320114" lon="-107.95835465926686"><ele>1818.0</ele><time>2026-04-19T17:56:50Z</time></trkpt><trkpt lat="36.78792496167644" lon="-107.9584476559118"><ele>1817.6000000000001</ele><time>2026-04-19T17:56:51Z</time></trkpt><trkpt lat="36.78785287499261" lon="-107.95856742246298"><ele>1817.2000000000003</ele><time>2026-04-19T17:56:52Z</time></trkpt><trkpt lat="36.78778534988852" lon="-107.95868416493676"><ele>1816.8</ele><time>2026-04-19T17:56:53Z</time></trkpt><trkpt lat="36.787742553727945" lon="-107.95877344696926"><ele>1816.4</ele><time>2026-04-19T17:56:54Z</time></trkpt><trkpt lat="36.787730686696946" lon="-107.9588529511977"><ele>1816.0</ele><time>2026-04-19T17:56:55Z</time></trkpt><trkpt lat="36.787731476917145" lon="-107.95896064606838"><ele>1816.0</ele><time>2026-04-19T17:56:56Z</time></trkpt><trkpt lat="36.787725408990966" lon="-107.95909557119462"><ele>1816.0</ele><time>2026-04-19T17:56:57Z</time></trkpt><trkpt lat="36.7876915339128" lon="-107.95918534261402"><ele>1816.0</ele><time>2026-04-19T17:56:58Z</time></trkpt><trkpt lat="36.787699803527715" lon="-107.95930128140985"><ele>1816.0</ele><time>2026-04-19T17:57:00Z</time></trkpt><trkpt lat="36.78775976244704" lon="-107.9593625568389"><ele>1816.0</ele><time>2026-04-19T17:57:01Z</time></trkpt><trkpt lat="36.78783530675858" lon="-107.95945734093056"><ele>1815.1999999999998</ele><time>2026-04-19T17:57:02Z</time></trkpt><trkpt lat="36.78788470393412" lon="-107.95957087986429"><ele>1814.3999999999999</ele><time>2026-04-19T17:57:03Z</time></trkpt><trkpt lat="36.78791147448711" lon="-107.9596577812325"><ele>1813.6</ele><time>2026-04-19T17:57:04Z</time></trkpt><trkpt lat="36.78789155773952" lon="-107.95976153278176"><ele>1812.8</ele><time>2026-04-19T17:57:05Z</time></trkpt><trkpt lat="36.78787120650257" lon="-107.95991115363437"><ele>1812.0</ele><time>2026-04-19T17:57:06Z</time></trkpt><trkpt lat="36.78787731593622" lon="-107.960079504896"><ele>1811.75</ele><time>2026-04-19T17:57:07Z</time></trkpt><trkpt lat="36.78787380753303" lon="-107.96023948236565"><ele>1811.5</ele><time>2026-04-19T17:57:08Z</time></trkpt><trkpt lat="36.78784943595751" lon="-107.96040921232954"><ele>1811.25</ele><time>2026-04-19T17:57:09Z</time></trkpt><trkpt lat="36.78781330851316" lon="-107.9606034276852"><ele>1811.0</ele><time>2026-04-19T17:57:10Z</time></trkpt><trkpt lat="36.78778527872404" lon="-107.96077217013271"><ele>1810.9999999999998</ele><time>2026-04-19T17:57:11Z</time></trkpt><trkpt lat="36.787766906602506" lon="-107.96091129696931"><ele>1811.0</ele><time>2026-04-19T17:57:12Z</time></trkpt><trkpt lat="36.78775600532967" lon="-107.96102479359975"><ele>1811.0</ele><time>2026-04-19T17:57:13Z</time></trkpt><trkpt lat="36.78774271255733" lon="-107.96112526229209"><ele>1811.0</ele><time>2026-04-19T17:57:14Z</time></trkpt><trkpt lat="36.78774180783931" lon="-107.96121223312858"><ele>1810.9999999999998</ele><time>2026-04-19T17:57:15Z</time></trkpt><trkpt lat="36.7876865822129" lon="-107.961294982606"><ele>1811.0</ele><time>2026-04-19T17:57:17Z</time></trkpt><trkpt lat="36.787607860917404" lon="-107.96134978656802"><ele>1811.0</ele><time>2026-04-19T17:57:18Z</time></trkpt><trkpt lat="36.78751715454688" lon="-107.9614463906381"><ele>1811.0</ele><time>2026-04-19T17:57:19Z</time></trkpt><trkpt lat="36.78745268217889" lon="-107.96155994152262"><ele>1811.0</ele><time>2026-04-19T17:57:20.001Z</time></trkpt><trkpt lat="36.78735262959566" lon="-107.96168206122682"><ele>1811.0</ele><time>2026-04-19T17:57:21.001Z</time></trkpt><trkpt lat="36.787262684945546" lon="-107.96181251605651"><ele>1810.5</ele><time>2026-04-19T17:57:22.001Z</time></trkpt><trkpt lat="36.78718956148489" lon="-107.96195099744811"><ele>1810.0</ele><time>2026-04-19T17:57:23.001Z</time></trkpt><trkpt lat="36.787117622806846" lon="-107.96206396154055"><ele>1809.5</ele><time>2026-04-19T17:57:24.001Z</time></trkpt><trkpt lat="36.787041599611044" lon="-107.96215337977999"><ele>1809.0</ele><time>2026-04-19T17:57:25.001Z</time></trkpt><trkpt lat="36.78693785842229" lon="-107.96225020656102"><ele>1808.8000000000002</ele><time>2026-04-19T17:57:26.001Z</time></trkpt><trkpt lat="36.78682724565553" lon="-107.96234492916102"><ele>1808.6000000000001</ele><time>2026-04-19T17:57:27.001Z</time></trkpt><trkpt lat="36.786764140978335" lon="-107.9624017366487"><ele>1808.4</ele><time>2026-04-19T17:57:28.001Z</time></trkpt><trkpt lat="36.78671847981192" lon="-107.96250343497003"><ele>1808.2</ele><time>2026-04-19T17:57:29.001Z</time></trkpt><trkpt lat="36.78667673524192" lon="-107.96263235701578"><ele>1808.0</ele><time>2026-04-19T17:57:30.001Z</time></trkpt><trkpt lat="36.78664448772622" lon="-107.96272490076544"><ele>1808.0</ele><time>2026-04-19T17:57:31.001Z</time></trkpt><trkpt lat="36.78659436520906" lon="-107.96281063004915"><ele>1808.0000000000002</ele><time>2026-04-19T17:57:32.001Z</time></trkpt><trkpt lat="36.786494051434936" lon="-107.96290696787574"><ele>1808.0000000000002</ele><time>2026-04-19T17:57:33.001Z</time></trkpt><trkpt lat="36.78639369823614" lon="-107.96301341084079"><ele>1808.0</ele><time>2026-04-19T17:57:34.001Z</time></trkpt><trkpt lat="36.78633222337516" lon="-107.96310166244889"><ele>1808.0</ele><time>2026-04-19T17:57:35.001Z</time></trkpt><trkpt lat="36.78627723447959" lon="-107.96318990125968"><ele>1808.0</ele><time>2026-04-19T17:57:36.001Z</time></trkpt><trkpt lat="36.78621786117153" lon="-107.96326643889233"><ele>1808.0000000000002</ele><time>2026-04-19T17:57:37.001Z</time></trkpt><trkpt lat="36.78613632039111" lon="-107.96331723754905"><ele>1808.0000000000002</ele><time>2026-04-19T17:57:38.001Z</time></trkpt><trkpt lat="36.78605453756138" lon="-107.96334559161595"><ele>1808.0</ele><time>2026-04-19T17:57:39.001Z</time></trkpt><trkpt lat="36.78595827605021" lon="-107.96337524874164"><ele>1808.0</ele><time>2026-04-19T17:57:40.001Z</time></trkpt><trkpt lat="36.78585039069585" lon="-107.96341145951318"><ele>1808.6000000000001</ele><time>2026-04-19T17:57:41.001Z</time></trkpt><trkpt lat="36.785769459322495" lon="-107.96343801475524"><ele>1809.2000000000003</ele><time>2026-04-19T17:57:42.001Z</time></trkpt><trkpt lat="36.78567284076261" lon="-107.96347594532405"><ele>1809.8</ele><time>2026-04-19T17:57:43.001Z</time></trkpt><trkpt lat="36.78557690055342" lon="-107.96351729719575"><ele>1810.4</ele><time>2026-04-19T17:57:44.001Z</time></trkpt><trkpt lat="36.78550901516683" lon="-107.96357632697686"><ele>1811.0</ele><time>2026-04-19T17:57:45.001Z</time></trkpt><trkpt lat="36.78544462815281" lon="-107.96366232420584"><ele>1811.0</ele><time>2026-04-19T17:57:46.001Z</time></trkpt><trkpt lat="36.78537326410103" lon="-107.9637691824035"><ele>1811.0</ele><time>2026-04-19T17:57:47.001Z</time></trkpt><trkpt lat="36.785314039008675" lon="-107.96386069674672"><ele>1811.0</ele><time>2026-04-19T17:57:48.001Z</time></trkpt><trkpt lat="36.785207474388685" lon="-107.96396796788713"><ele>1811.0</ele><time>2026-04-19T17:57:50.001Z</time></trkpt><trkpt lat="36.78510764171133" lon="-107.96401576030217"><ele>1811.0</ele><time>2026-04-19T17:57:51.001Z</time></trkpt><trkpt lat="36.784972395244466" lon="-107.96406600620953"><ele>1812.0</ele><time>2026-04-19T17:57:52.001Z</time></trkpt><trkpt lat="36.784850784590446" lon="-107.9641143328765"><ele>1813.0</ele><time>2026-04-19T17:57:53.001Z</time></trkpt><trkpt lat="36.7847730203949" lon="-107.9641453285621"><ele>1814.0</ele><time>2026-04-19T17:57:54.001Z</time></trkpt><trkpt lat="36.784699592336835" lon="-107.96415376350986"><ele>1815.0</ele><time>2026-04-19T17:57:55.001Z</time></trkpt><trkpt lat="36.784590362508276" lon="-107.9641475581121"><ele>1816.0</ele><time>2026-04-19T17:57:56.001Z</time></trkpt><trkpt lat="36.784486213933135" lon="-107.96415465997323"><ele>1816.0</ele><time>2026-04-19T17:57:57.001Z</time></trkpt><trkpt lat="36.78440718795662" lon="-107.96419301251389"><ele>1816.0</ele><time>2026-04-19T17:57:58Z</time></trkpt><trkpt lat="36.784348618411066" lon="-107.96426497985928"><ele>1816.0</ele><time>2026-04-19T17:57:59Z</time></trkpt><trkpt lat="36.78425092496011" lon="-107.96435625705165"><ele>1816.0</ele><time>2026-04-19T17:58:00Z</time></trkpt><trkpt lat="36.784145943609765" lon="-107.96444376734036"><ele>1816.0</ele><time>2026-04-19T17:58:01Z</time></trkpt><trkpt lat="36.78405559405644" lon="-107.96453417678777"><ele>1816.4</ele><time>2026-04-19T17:58:02Z</time></trkpt><trkpt lat="36.78398167535849" lon="-107.96461584370267"><ele>1816.8</ele><time>2026-04-19T17:58:03Z</time></trkpt><trkpt lat="36.78391818748857" lon="-107.96467835759333"><ele>1817.2000000000003</ele><time>2026-04-19T17:58:04Z</time></trkpt><trkpt lat="36.78386488462367" lon="-107.96473700071365"><ele>1817.6000000000001</ele><time>2026-04-19T17:58:05Z</time></trkpt><trkpt lat="36.78378381604124" lon="-107.96484373325492"><ele>1818.0</ele><time>2026-04-19T17:58:06Z</time></trkpt><trkpt lat="36.78370680884299" lon="-107.96497143698478"><ele>1818.25</ele><time>2026-04-19T17:58:07Z</time></trkpt><trkpt lat="36.783620211536245" lon="-107.96506018647626"><ele>1818.5</ele><time>2026-04-19T17:58:08Z</time></trkpt><trkpt lat="36.78349717737272" lon="-107.96513014075961"><ele>1818.75</ele><time>2026-04-19T17:58:09Z</time></trkpt><trkpt lat="36.78334696836058" lon="-107.96520266235132"><ele>1819.0</ele><time>2026-04-19T17:58:10Z</time></trkpt><trkpt lat="36.78321663279141" lon="-107.96527838922131"><ele>1818.25</ele><time>2026-04-19T17:58:11Z</time></trkpt><trkpt lat="36.78310749490595" lon="-107.96535124678097"><ele>1817.5</ele><time>2026-04-19T17:58:12Z</time></trkpt><trkpt lat="36.78298516626732" lon="-107.96544891766627"><ele>1816.75</ele><time>2026-04-19T17:58:13Z</time></trkpt><trkpt lat="36.78285467823243" lon="-107.9655577011381"><ele>1816.0</ele><time>2026-04-19T17:58:14Z</time></trkpt><trkpt lat="36.782730809744365" lon="-107.96563911273424"><ele>1816.0</ele><time>2026-04-19T17:58:15Z</time></trkpt><trkpt lat="36.7826089439223" lon="-107.96571163736792"><ele>1816.0</ele><time>2026-04-19T17:58:16Z</time></trkpt><trkpt lat="36.7824725546552" lon="-107.96578275625079"><ele>1816.0</ele><time>2026-04-19T17:58:17Z</time></trkpt><trkpt lat="36.78233918079189" lon="-107.96583797428818"><ele>1816.0</ele><time>2026-04-19T17:58:18Z</time></trkpt><trkpt lat="36.782228668373556" lon="-107.96588934142802"><ele>1816.0</ele><time>2026-04-19T17:58:19Z</time></trkpt><trkpt lat="36.78211893108442" lon="-107.96594401151053"><ele>1816.0</ele><time>2026-04-19T17:58:20Z</time></trkpt><trkpt lat="36.78200339927269" lon="-107.96599632422831"><ele>1816.0</ele><time>2026-04-19T17:58:21Z</time></trkpt><trkpt lat="36.78188068100411" lon="-107.96604789317742"><ele>1816.0</ele><time>2026-04-19T17:58:22Z</time></trkpt><trkpt lat="36.78175591599599" lon="-107.9660959154393"><ele>1815.8</ele><time>2026-04-19T17:58:23Z</time></trkpt><trkpt lat="36.781642996661084" lon="-107.966132358711"><ele>1815.6</ele><time>2026-04-19T17:58:24Z</time></trkpt><trkpt lat="36.78153785252155" lon="-107.96616552738699"><ele>1815.4</ele><time>2026-04-19T17:58:25Z</time></trkpt><trkpt lat="36.78145625262209" lon="-107.96620524927563"><ele>1815.2</ele><time>2026-04-19T17:58:26Z</time></trkpt><trkpt lat="36.78139780502903" lon="-107.96625872580714"><ele>1815.0</ele><time>2026-04-19T17:58:27Z</time></trkpt><trkpt lat="36.781343928243246" lon="-107.96632056468393"><ele>1815.0</ele><time>2026-04-19T17:58:28Z</time></trkpt><trkpt lat="36.78128930789276" lon="-107.96640852224783"><ele>1815.0</ele><time>2026-04-19T17:58:29Z</time></trkpt><trkpt lat="36.78122083766009" lon="-107.96647361886583"><ele>1815.0</ele><time>2026-04-19T17:58:30Z</time></trkpt><trkpt lat="36.78114228607606" lon="-107.96655745471683"><ele>1815.0</ele><time>2026-04-19T17:58:31Z</time></trkpt><trkpt lat="36.781031949852704" lon="-107.9666550038048"><ele>1815.0</ele><time>2026-04-19T17:58:32Z</time></trkpt><trkpt lat="36.780938840936905" lon="-107.9667382324153"><ele>1815.6</ele><time>2026-04-19T17:58:33Z</time></trkpt><trkpt lat="36.780838781205205" lon="-107.96686635622899"><ele>1816.2</ele><time>2026-04-19T17:58:35Z</time></trkpt><trkpt lat="36.78077857373365" lon="-107.9669728046552"><ele>1816.8000000000002</ele><time>2026-04-19T17:58:36Z</time></trkpt><trkpt lat="36.780743275917324" lon="-107.96708222961632"><ele>1817.4</ele><time>2026-04-19T17:58:37Z</time></trkpt><trkpt lat="36.78071439781731" lon="-107.96720550155936"><ele>1818.0</ele><time>2026-04-19T17:58:38Z</time></trkpt><trkpt lat="36.780700492584174" lon="-107.96733460668993"><ele>1818.0</ele><time>2026-04-19T17:58:39Z</time></trkpt><trkpt lat="36.780696239174155" lon="-107.96745870966214"><ele>1818.0</ele><time>2026-04-19T17:58:40Z</time></trkpt><trkpt lat="36.78070181838268" lon="-107.96761953782126"><ele>1818.0</ele><time>2026-04-19T17:58:41Z</time></trkpt><trkpt lat="36.78070212692862" lon="-107.96778163645592"><ele>1818.0</ele><time>2026-04-19T17:58:42Z</time></trkpt><trkpt lat="36.78069725086748" lon="-107.96790313916974"><ele>1820.0</ele><time>2026-04-19T17:58:43Z</time></trkpt><trkpt lat="36.78067012234656" lon="-107.96799134929392"><ele>1822.0000000000002</ele><time>2026-04-19T17:58:44Z</time></trkpt><trkpt lat="36.780645548213634" lon="-107.96811979149643"><ele>1824.0000000000002</ele><time>2026-04-19T17:58:46Z</time></trkpt><trkpt lat="36.780681819357724" lon="-107.96818588557962"><ele>1826.0</ele><time>2026-04-19T17:58:47Z</time></trkpt><trkpt lat="36.780627093001605" lon="-107.96833070810192"><ele>1828.0</ele><time>2026-04-19T17:58:49Z</time></trkpt><trkpt lat="36.78055350882993" lon="-107.9683818775409"><ele>1829.4</ele><time>2026-04-19T17:58:50Z</time></trkpt><trkpt lat="36.78049202896932" lon="-107.96849773857424"><ele>1830.8000000000002</ele><time>2026-04-19T17:58:52Z</time></trkpt><trkpt lat="36.78049511180332" lon="-107.96863692025768"><ele>1832.2</ele><time>2026-04-19T17:58:54Z</time></trkpt><trkpt lat="36.78054048599132" lon="-107.96869590942202"><ele>1833.6</ele><time>2026-04-19T17:58:55Z</time></trkpt><trkpt lat="36.78058864742828" lon="-107.96877751325098"><ele>1835.0</ele><time>2026-04-19T17:58:56Z</time></trkpt><trkpt lat="36.780630137786844" lon="-107.96886513627572"><ele>1834.9999999999998</ele><time>2026-04-19T17:58:57Z</time></trkpt><trkpt lat="36.78064798235257" lon="-107.96895350031711"><ele>1835.0</ele><time>2026-04-19T17:58:58Z</time></trkpt><trkpt lat="36.78064196785725" lon="-107.96904278980941"><ele>1835.0</ele><time>2026-04-19T17:58:59Z</time></trkpt><trkpt lat="36.780652386821835" lon="-107.96915986521266"><ele>1835.0</ele><time>2026-04-19T17:59:01Z</time></trkpt><trkpt lat="36.780708937052104" lon="-107.96922965628575"><ele>1834.9999999999998</ele><time>2026-04-19T17:59:02Z</time></trkpt><trkpt lat="36.78075516768062" lon="-107.96931434990036"><ele>1835.0</ele><time>2026-04-19T17:59:03Z</time></trkpt><trkpt lat="36.78078085277371" lon="-107.96941935926951"><ele>1835.6666666666665</ele><time>2026-04-19T17:59:04Z</time></trkpt><trkpt lat="36.78078494003357" lon="-107.96951341229136"><ele>1836.3333333333333</ele><time>2026-04-19T17:59:05Z</time></trkpt><trkpt lat="36.780821582100266" lon="-107.96962338377087"><ele>1837.0</ele><time>2026-04-19T17:59:06Z</time></trkpt><trkpt lat="36.78087107987105" lon="-107.96969192042579"><ele>1837.6666666666665</ele><time>2026-04-19T17:59:07Z</time></trkpt><trkpt lat="36.78092369490261" lon="-107.96974760727662"><ele>1838.3333333333333</ele><time>2026-04-19T17:59:08Z</time></trkpt><trkpt lat="36.78096438182779" lon="-107.9698101966144"><ele>1839.0</ele><time>2026-04-19T17:59:09Z</time></trkpt><trkpt lat="36.78100933189412" lon="-107.9699110396674"><ele>1838.6</ele><time>2026-04-19T17:59:10Z</time></trkpt><trkpt lat="36.78104781129244" lon="-107.97001278828198"><ele>1838.2</ele><time>2026-04-19T17:59:11Z</time></trkpt><trkpt lat="36.78109339785298" lon="-107.97011306429364"><ele>1837.7999999999997</ele><time>2026-04-19T17:59:12Z</time></trkpt><trkpt lat="36.78114518238229" lon="-107.97020017897349"><ele>1837.3999999999999</ele><time>2026-04-19T17:59:13Z</time></trkpt><trkpt lat="36.78119677641854" lon="-107.97028712553305"><ele>1837.0</ele><time>2026-04-19T17:59:14Z</time></trkpt><trkpt lat="36.78124487174229" lon="-107.97045081522558"><ele>1836.6666666666667</ele><time>2026-04-19T17:59:16Z</time></trkpt><trkpt lat="36.78124050523352" lon="-107.97054290920128"><ele>1836.3333333333335</ele><time>2026-04-19T17:59:17Z</time></trkpt><trkpt lat="36.78120893538705" lon="-107.9706553143949"><ele>1836.0</ele><time>2026-04-19T17:59:19Z</time></trkpt><trkpt lat="36.78115984043364" lon="-107.97071088394685"><ele>1835.6666666666665</ele><time>2026-04-19T17:59:20Z</time></trkpt><trkpt lat="36.78109355310668" lon="-107.97074286079322"><ele>1835.3333333333333</ele><time>2026-04-19T17:59:21Z</time></trkpt><trkpt lat="36.78102273217619" lon="-107.97078459400399"><ele>1835.0</ele><time>2026-04-19T17:59:22Z</time></trkpt><trkpt lat="36.78092748786782" lon="-107.97088112927649"><ele>1834.9999999999998</ele><time>2026-04-19T17:59:24Z</time></trkpt><trkpt lat="36.78082763030027" lon="-107.97098499653308"><ele>1835.0</ele><time>2026-04-19T17:59:26.001Z</time></trkpt><trkpt lat="36.780761109674124" lon="-107.9710329542354"><ele>1835.0</ele><time>2026-04-19T17:59:27.001Z</time></trkpt><trkpt lat="36.78069113415218" lon="-107.97107962132637"><ele>1835.0</ele><time>2026-04-19T17:59:28.001Z</time></trkpt><trkpt lat="36.78062672089753" lon="-107.97113432379767"><ele>1834.9999999999998</ele><time>2026-04-19T17:59:29.001Z</time></trkpt><trkpt lat="36.780557816658245" lon="-107.9711822406586"><ele>1835.0</ele><time>2026-04-19T17:59:30.001Z</time></trkpt><trkpt lat="36.780490734217025" lon="-107.97124195831722"><ele>1835.0</ele><time>2026-04-19T17:59:31.001Z</time></trkpt><trkpt lat="36.78043995476774" lon="-107.9713055384355"><ele>1835.0</ele><time>2026-04-19T17:59:32.001Z</time></trkpt><trkpt lat="36.78036286824124" lon="-107.97134732761069"><ele>1835.0</ele><time>2026-04-19T17:59:33.001Z</time></trkpt><trkpt lat="36.78023031957862" lon="-107.97134074166638"><ele>1835.0</ele><time>2026-04-19T17:59:34.001Z</time></trkpt><trkpt lat="36.780108815083146" lon="-107.9712974249574"><ele>1835.0</ele><time>2026-04-19T17:59:35.001Z</time></trkpt><trkpt lat="36.780006534478105" lon="-107.97126187460897"><ele>1833.9999999999998</ele><time>2026-04-19T17:59:36.001Z</time></trkpt><trkpt lat="36.779934045359745" lon="-107.9712562189732"><ele>1833.0</ele><time>2026-04-19T17:59:37.001Z</time></trkpt><trkpt lat="36.779850340892274" lon="-107.97125757712085"><ele>1832.0</ele><time>2026-04-19T17:59:38.001Z</time></trkpt><trkpt lat="36.77976606541007" lon="-107.97128797264934"><ele>1831.0</ele><time>2026-04-19T17:59:39.001Z</time></trkpt><trkpt lat="36.77968700097952" lon="-107.9713103495183"><ele>1829.9999999999998</ele><time>2026-04-19T17:59:40.001Z</time></trkpt><trkpt lat="36.77959370713502" lon="-107.97128162837473"><ele>1829.0</ele><time>2026-04-19T17:59:41.001Z</time></trkpt><trkpt lat="36.779496717449135" lon="-107.97121234678407"><ele>1829.0</ele><time>2026-04-19T17:59:42.001Z</time></trkpt><trkpt lat="36.779429639622315" lon="-107.97116168240987"><ele>1829.0</ele><time>2026-04-19T17:59:43.001Z</time></trkpt><trkpt lat="36.779341641072236" lon="-107.97124992732877"><ele>1829.0</ele><time>2026-04-19T17:59:45.001Z</time></trkpt><trkpt lat="36.77925416643866" lon="-107.9713274640989"><ele>1829.0</ele><time>2026-04-19T17:59:46.001Z</time></trkpt><trkpt lat="36.77917610248235" lon="-107.97140357655898"><ele>1829.0</ele><time>2026-04-19T17:59:47.001Z</time></trkpt><trkpt lat="36.77909479324139" lon="-107.97149073577904"><ele>1828.8333333333333</ele><time>2026-04-19T17:59:48.001Z</time></trkpt><trkpt lat="36.779019692763285" lon="-107.97157046786513"><ele>1828.6666666666665</ele><time>2026-04-19T17:59:49.001Z</time></trkpt><trkpt lat="36.77896614827684" lon="-107.97164177302842"><ele>1828.5</ele><time>2026-04-19T17:59:50.001Z</time></trkpt><trkpt lat="36.778929132423485" lon="-107.97172315822966"><ele>1828.3333333333335</ele><time>2026-04-19T17:59:51.001Z</time></trkpt><trkpt lat="36.77891484506582" lon="-107.97180107633636"><ele>1828.1666666666667</ele><time>2026-04-19T17:59:52.001Z</time></trkpt><trkpt lat="36.7788751547544" lon="-107.9718719517861"><ele>1828.0</ele><time>2026-04-19T17:59:53.001Z</time></trkpt><trkpt lat="36.77877672607369" lon="-107.97193706965784"><ele>1827.4</ele><time>2026-04-19T17:59:54.001Z</time></trkpt><trkpt lat="36.77867406945594" lon="-107.97198533160437"><ele>1826.8000000000002</ele><time>2026-04-19T17:59:55.001Z</time></trkpt><trkpt lat="36.77861032192996" lon="-107.97205449770257"><ele>1826.2</ele><time>2026-04-19T17:59:56.001Z</time></trkpt><trkpt lat="36.77854963832684" lon="-107.97221969380455"><ele>1825.6</ele><time>2026-04-19T17:59:58.001Z</time></trkpt><trkpt lat="36.77849612933356" lon="-107.97231610189083"><ele>1825.0</ele><time>2026-04-19T17:59:59.001Z</time></trkpt><trkpt lat="36.77843291806215" lon="-107.97237117522258"><ele>1826.0000000000002</ele><time>2026-04-19T18:00:00.001Z</time></trkpt><trkpt lat="36.7783721737289" lon="-107.97241183288835"><ele>1827.0</ele><time>2026-04-19T18:00:01.001Z</time></trkpt><trkpt lat="36.77830699176353" lon="-107.97248385933896"><ele>1828.0</ele><time>2026-04-19T18:00:02.001Z</time></trkpt><trkpt lat="36.778271683952624" lon="-107.97257502122254"><ele>1829.0</ele><time>2026-04-19T18:00:03.001Z</time></trkpt><trkpt lat="36.778234551069616" lon="-107.97269325492292"><ele>1830.0000000000002</ele><time>2026-04-19T18:00:04Z</time></trkpt><trkpt lat="36.77817746387277" lon="-107.97277760734437"><ele>1831.0</ele><time>2026-04-19T18:00:05Z</time></trkpt><trkpt lat="36.77810730829291" lon="-107.97284683527053"><ele>1831.1999999999998</ele><time>2026-04-19T18:00:06Z</time></trkpt><trkpt lat="36.77802407256206" lon="-107.97294059831351"><ele>1831.3999999999999</ele><time>2026-04-19T18:00:07Z</time></trkpt><trkpt lat="36.77796904048813" lon="-107.97303051416755"><ele>1831.6</ele><time>2026-04-19T18:00:08Z</time></trkpt><trkpt lat="36.7779184909029" lon="-107.97309978514414"><ele>1831.8</ele><time>2026-04-19T18:00:09Z</time></trkpt><trkpt lat="36.77785469911911" lon="-107.97320485996306"><ele>1832.0</ele><time>2026-04-19T18:00:10Z</time></trkpt><trkpt lat="36.777789478952755" lon="-107.97330069968399"><ele>1832.1999999999998</ele><time>2026-04-19T18:00:11Z</time></trkpt><trkpt lat="36.77771425984107" lon="-107.97337737665728"><ele>1832.3999999999999</ele><time>2026-04-19T18:00:12Z</time></trkpt><trkpt lat="36.77763718050954" lon="-107.97347029569899"><ele>1832.6000000000001</ele><time>2026-04-19T18:00:13Z</time></trkpt><trkpt lat="36.777572104705996" lon="-107.97356663475051"><ele>1832.8000000000002</ele><time>2026-04-19T18:00:14Z</time></trkpt><trkpt lat="36.77752735576409" lon="-107.97365221990928"><ele>1833.0</ele><time>2026-04-19T18:00:15Z</time></trkpt><trkpt lat="36.77748096087678" lon="-107.97372981661678"><ele>1833.0</ele><time>2026-04-19T18:00:16Z</time></trkpt><trkpt lat="36.777413527254865" lon="-107.97378929250813"><ele>1833.0000000000002</ele><time>2026-04-19T18:00:17Z</time></trkpt><trkpt lat="36.77733206560323" lon="-107.97381391865106"><ele>1833.0000000000002</ele><time>2026-04-19T18:00:18Z</time></trkpt><trkpt lat="36.7772334662958" lon="-107.97381874362908"><ele>1833.0</ele><time>2026-04-19T18:00:19Z</time></trkpt><trkpt lat="36.77710462414332" lon="-107.97381428946638"><ele>1833.0</ele><time>2026-04-19T18:00:20Z</time></trkpt><trkpt lat="36.77697298069035" lon="-107.97380801921005"><ele>1833.0</ele><time>2026-04-19T18:00:21Z</time></trkpt><trkpt lat="36.77686708702638" lon="-107.97380875166671"><ele>1833.0000000000002</ele><time>2026-04-19T18:00:22Z</time></trkpt><trkpt lat="36.77678236706365" lon="-107.97382097026276"><ele>1833.0000000000002</ele><time>2026-04-19T18:00:23Z</time></trkpt><trkpt lat="36.776708277210076" lon="-107.97382913550548"><ele>1833.0</ele><time>2026-04-19T18:00:24Z</time></trkpt><trkpt lat="36.77659679674169" lon="-107.97382735486345"><ele>1833.0</ele><time>2026-04-19T18:00:26Z</time></trkpt><trkpt lat="36.77651488144568" lon="-107.97384575315722"><ele>1832.6666666666667</ele><time>2026-04-19T18:00:28Z</time></trkpt><trkpt lat="36.77646706564918" lon="-107.97391044816678"><ele>1832.3333333333335</ele><time>2026-04-19T18:00:30Z</time></trkpt><trkpt lat="36.77645403216128" lon="-107.97399435673711"><ele>1832.0</ele><time>2026-04-19T18:00:36Z</time></trkpt><trkpt lat="36.77646699109062" lon="-107.9740779619651"><ele>1831.6666666666667</ele><time>2026-04-19T18:00:37Z</time></trkpt><trkpt lat="36.77650090727403" lon="-107.97424309710482"><ele>1831.3333333333335</ele><time>2026-04-19T18:00:38Z</time></trkpt><trkpt lat="36.77651434178383" lon="-107.97434913502865"><ele>1831.0</ele><time>2026-04-19T18:00:39Z</time></trkpt><trkpt lat="36.77651486258821" lon="-107.97445783460886"><ele>1831.0</ele><time>2026-04-19T18:00:40Z</time></trkpt><trkpt lat="36.77650897765954" lon="-107.97456151667389"><ele>1831.0</ele><time>2026-04-19T18:00:41Z</time></trkpt><trkpt lat="36.77656427846566" lon="-107.97469192500851"><ele>1831.0</ele><time>2026-04-19T18:00:43Z</time></trkpt><trkpt lat="36.77660938413807" lon="-107.9747497464314"><ele>1831.0</ele><time>2026-04-19T18:00:44Z</time></trkpt><trkpt lat="36.776635143640576" lon="-107.9749097108842"><ele>1831.0</ele><time>2026-04-19T18:00:46Z</time></trkpt><trkpt lat="36.776617319060115" lon="-107.9750148433789"><ele>1831.1999999999998</ele><time>2026-04-19T18:00:47Z</time></trkpt><trkpt lat="36.77660078805348" lon="-107.9751213885418"><ele>1831.3999999999999</ele><time>2026-04-19T18:00:48Z</time></trkpt><trkpt lat="36.77659891952431" lon="-107.97524232458585"><ele>1831.6</ele><time>2026-04-19T18:00:49Z</time></trkpt><trkpt lat="36.776601250925815" lon="-107.97538692527075"><ele>1831.8</ele><time>2026-04-19T18:00:50Z</time></trkpt><trkpt lat="36.77659231075151" lon="-107.97550540582927"><ele>1832.0</ele><time>2026-04-19T18:00:51Z</time></trkpt><trkpt lat="36.77664758209338" lon="-107.97565747803884"><ele>1832.0</ele><time>2026-04-19T18:00:53Z</time></trkpt><trkpt lat="36.776700727653136" lon="-107.97575948413831"><ele>1831.9999999999998</ele><time>2026-04-19T18:00:54Z</time></trkpt><trkpt lat="36.776737788375286" lon="-107.97584561128485"><ele>1831.9999999999998</ele><time>2026-04-19T18:00:55Z</time></trkpt><trkpt lat="36.77676082157541" lon="-107.97593172961584"><ele>1832.0</ele><time>2026-04-19T18:00:56Z</time></trkpt><trkpt lat="36.77678520160518" lon="-107.97610231896621"><ele>1832.0</ele><time>2026-04-19T18:00:58Z</time></trkpt><trkpt lat="36.77681386614229" lon="-107.97621210158782"><ele>1830.1999999999998</ele><time>2026-04-19T18:00:59Z</time></trkpt><trkpt lat="36.7768538497709" lon="-107.9762971990324"><ele>1828.3999999999999</ele><time>2026-04-19T18:01:00Z</time></trkpt><trkpt lat="36.7769122879633" lon="-107.97640369015814"><ele>1826.6000000000001</ele><time>2026-04-19T18:01:01Z</time></trkpt><trkpt lat="36.776964553750425" lon="-107.97651843121388"><ele>1824.8000000000002</ele><time>2026-04-19T18:01:02Z</time></trkpt><trkpt lat="36.777013145111304" lon="-107.9766398441517"><ele>1823.0</ele><time>2026-04-19T18:01:03Z</time></trkpt><trkpt lat="36.777065348658354" lon="-107.97672845816898"><ele>1822.4</ele><time>2026-04-19T18:01:04Z</time></trkpt><trkpt lat="36.77713513419596" lon="-107.97686658194706"><ele>1821.8000000000002</ele><time>2026-04-19T18:01:06Z</time></trkpt><trkpt lat="36.777191383313074" lon="-107.97693156553183"><ele>1821.2</ele><time>2026-04-19T18:01:07Z</time></trkpt><trkpt lat="36.77722123988244" lon="-107.97704905382875"><ele>1820.6</ele><time>2026-04-19T18:01:09Z</time></trkpt><trkpt lat="36.777199742998214" lon="-107.9771374259051"><ele>1820.0</ele><time>2026-04-19T18:01:10Z</time></trkpt><trkpt lat="36.77718393476151" lon="-107.97722725014329"><ele>1820.0</ele><time>2026-04-19T18:01:11Z</time></trkpt><trkpt lat="36.77718732186515" lon="-107.97730917585767"><ele>1820.0</ele><time>2026-04-19T18:01:12Z</time></trkpt><trkpt lat="36.77719893037827" lon="-107.97745042030499"><ele>1820.0</ele><time>2026-04-19T18:01:14Z</time></trkpt><trkpt lat="36.777197599178855" lon="-107.97757853232618"><ele>1820.0</ele><time>2026-04-19T18:01:16Z</time></trkpt><trkpt lat="36.77724557666311" lon="-107.9777082673452"><ele>1820.0</ele><time>2026-04-19T18:01:18Z</time></trkpt><trkpt lat="36.777269815867506" lon="-107.97779580826342"><ele>1818.8333333333333</ele><time>2026-04-19T18:01:19Z</time></trkpt><trkpt lat="36.777269169936154" lon="-107.9778777104679"><ele>1817.6666666666665</ele><time>2026-04-19T18:01:20Z</time></trkpt><trkpt lat="36.77724441289648" lon="-107.97798058828319"><ele>1816.5</ele><time>2026-04-19T18:01:22Z</time></trkpt><trkpt lat="36.77720739922194" lon="-107.97808337942274"><ele>1815.3333333333335</ele><time>2026-04-19T18:01:24Z</time></trkpt><trkpt lat="36.77718393372371" lon="-107.97818564441394"><ele>1814.1666666666667</ele><time>2026-04-19T18:01:25Z</time></trkpt><trkpt lat="36.77715296075518" lon="-107.97831461596004"><ele>1813.0</ele><time>2026-04-19T18:01:26Z</time></trkpt><trkpt lat="36.77711380012341" lon="-107.97841014760259"><ele>1811.8000000000002</ele><time>2026-04-19T18:01:27Z</time></trkpt><trkpt lat="36.77707363484169" lon="-107.9784870176916"><ele>1810.6000000000001</ele><time>2026-04-19T18:01:28Z</time></trkpt><trkpt lat="36.77700877861214" lon="-107.97855609345486"><ele>1809.3999999999999</ele><time>2026-04-19T18:01:29Z</time></trkpt><trkpt lat="36.77690539705874" lon="-107.97863662170428"><ele>1808.1999999999998</ele><time>2026-04-19T18:01:30Z</time></trkpt><trkpt lat="36.77679062533596" lon="-107.97876075383304"><ele>1807.0</ele><time>2026-04-19T18:01:31Z</time></trkpt><trkpt lat="36.77668504075277" lon="-107.9788581039245"><ele>1807.0</ele><time>2026-04-19T18:01:32Z</time></trkpt><trkpt lat="36.77659007438912" lon="-107.97894727487845"><ele>1807.0</ele><time>2026-04-19T18:01:33Z</time></trkpt><trkpt lat="36.77648151145327" lon="-107.97904921272735"><ele>1807.0</ele><time>2026-04-19T18:01:34.001Z</time></trkpt><trkpt lat="36.77637083797899" lon="-107.97915313229208"><ele>1807.0</ele><time>2026-04-19T18:01:35.001Z</time></trkpt><trkpt lat="36.77627147252187" lon="-107.97924306331015"><ele>1805.6</ele><time>2026-04-19T18:01:36.001Z</time></trkpt><trkpt lat="36.776173630122706" lon="-107.97932662156633"><ele>1804.1999999999998</ele><time>2026-04-19T18:01:37.001Z</time></trkpt><trkpt lat="36.77608042220741" lon="-107.97940242083347"><ele>1802.8</ele><time>2026-04-19T18:01:38.001Z</time></trkpt><trkpt lat="36.77599440578619" lon="-107.97947355266"><ele>1801.4</ele><time>2026-04-19T18:01:39.001Z</time></trkpt><trkpt lat="36.775909174316745" lon="-107.97952533242244"><ele>1800.0</ele><time>2026-04-19T18:01:40.001Z</time></trkpt><trkpt lat="36.77584092208955" lon="-107.97959287437848"><ele>1799.8333333333333</ele><time>2026-04-19T18:01:41.001Z</time></trkpt><trkpt lat="36.775781117412855" lon="-107.97965912464414"><ele>1799.6666666666665</ele><time>2026-04-19T18:01:42.001Z</time></trkpt><trkpt lat="36.77575595358574" lon="-107.97973923479846"><ele>1799.5</ele><time>2026-04-19T18:01:43.001Z</time></trkpt><trkpt lat="36.77572029512264" lon="-107.9798602307403"><ele>1799.3333333333333</ele><time>2026-04-19T18:01:45.001Z</time></trkpt><trkpt lat="36.775703906212904" lon="-107.97994862972301"><ele>1799.1666666666665</ele><time>2026-04-19T18:01:49.001Z</time></trkpt><trkpt lat="36.775691664119655" lon="-107.98002651473209"><ele>1799.0</ele><time>2026-04-19T18:01:51.001Z</time></trkpt><trkpt lat="36.77566708409452" lon="-107.98018898691716"><ele>1798.4</ele><time>2026-04-19T18:01:53.001Z</time></trkpt><trkpt lat="36.77555252080074" lon="-107.98023202704233"><ele>1797.8000000000002</ele><time>2026-04-19T18:01:54.001Z</time></trkpt><trkpt lat="36.77545399641782" lon="-107.98029078843602"><ele>1797.1999999999998</ele><time>2026-04-19T18:01:56.001Z</time></trkpt><trkpt lat="36.77542106729854" lon="-107.98040873218767"><ele>1796.6</ele><time>2026-04-19T18:01:58.001Z</time></trkpt><trkpt lat="36.77539976492716" lon="-107.98048276527959"><ele>1796.0</ele><time>2026-04-19T18:01:59.001Z</time></trkpt><trkpt lat="36.77535339053516" lon="-107.98059471111185"><ele>1795.9999999999998</ele><time>2026-04-19T18:02:01.001Z</time></trkpt><trkpt lat="36.775352741098395" lon="-107.98068680217801"><ele>1796.0</ele><time>2026-04-19T18:02:04.001Z</time></trkpt><trkpt lat="36.77532351665879" lon="-107.98076752811495"><ele>1796.0</ele><time>2026-04-19T18:02:08.001Z</time></trkpt><trkpt lat="36.775261261545104" lon="-107.98084336381667"><ele>1796.0</ele><time>2026-04-19T18:02:12Z</time></trkpt><trkpt lat="36.77519661757677" lon="-107.98095236311424"><ele>1795.9999999999998</ele><time>2026-04-19T18:02:14Z</time></trkpt><trkpt lat="36.775155404912745" lon="-107.981021853533"><ele>1796.0</ele><time>2026-04-19T18:02:15Z</time></trkpt><trkpt lat="36.775103509871336" lon="-107.98110935586894"><ele>1796.75</ele><time>2026-04-19T18:02:17Z</time></trkpt><trkpt lat="36.77528204113066" lon="-107.98132011631236"><ele>1797.5</ele><time>2026-04-19T18:02:21Z</time></trkpt><trkpt lat="36.77529892226313" lon="-107.98140277245037"><ele>1798.25</ele><time>2026-04-19T18:02:22Z</time></trkpt><trkpt lat="36.775301894737" lon="-107.98151479042458"><ele>1799.0</ele><time>2026-04-19T18:02:23Z</time></trkpt><trkpt lat="36.77531803063566" lon="-107.98162177492623"><ele>1799.3333333333333</ele><time>2026-04-19T18:02:24Z</time></trkpt><trkpt lat="36.77536281219519" lon="-107.98170029246552"><ele>1799.6666666666665</ele><time>2026-04-19T18:02:25Z</time></trkpt><trkpt lat="36.77541614830675" lon="-107.98177144511757"><ele>1800.0</ele><time>2026-04-19T18:02:26Z</time></trkpt><trkpt lat="36.77545803260032" lon="-107.98184645804523"><ele>1800.3333333333335</ele><time>2026-04-19T18:02:27Z</time></trkpt><trkpt lat="36.775485859229086" lon="-107.98193364492653"><ele>1800.6666666666667</ele><time>2026-04-19T18:02:28Z</time></trkpt><trkpt lat="36.77548879387618" lon="-107.98202059618139"><ele>1801.0</ele><time>2026-04-19T18:02:29Z</time></trkpt><trkpt lat="36.775494005090586" lon="-107.98212490608198"><ele>1801.0</ele><time>2026-04-19T18:02:30Z</time></trkpt><trkpt lat="36.77552378597262" lon="-107.98226420405894"><ele>1801.0</ele><time>2026-04-19T18:02:31Z</time></trkpt><trkpt lat="36.77557181390638" lon="-107.98237766096233"><ele>1801.0</ele><time>2026-04-19T18:02:32Z</time></trkpt><trkpt lat="36.775604383484264" lon="-107.98246292121635"><ele>1801.0</ele><time>2026-04-19T18:02:33Z</time></trkpt><trkpt lat="36.775588840399834" lon="-107.98265420785738"><ele>1801.0</ele><time>2026-04-19T18:02:35Z</time></trkpt><trkpt lat="36.77558574508765" lon="-107.98275246573016"><ele>1801.0000000000002</ele><time>2026-04-19T18:02:36Z</time></trkpt><trkpt lat="36.77561547591395" lon="-107.98282263230946"><ele>1801.0</ele><time>2026-04-19T18:02:37Z</time></trkpt><trkpt lat="36.77565049024523" lon="-107.98293459310362"><ele>1801.0</ele><time>2026-04-19T18:02:38Z</time></trkpt><trkpt lat="36.775685104961106" lon="-107.98304899062516"><ele>1801.0</ele><time>2026-04-19T18:02:39Z</time></trkpt><trkpt lat="36.775722033275606" lon="-107.98314894553249"><ele>1801.0000000000002</ele><time>2026-04-19T18:02:40Z</time></trkpt><trkpt lat="36.77576023864198" lon="-107.98323039871119"><ele>1801.0</ele><time>2026-04-19T18:02:41Z</time></trkpt><trkpt lat="36.77583658624895" lon="-107.98329597360524"><ele>1801.1666666666667</ele><time>2026-04-19T18:02:43Z</time></trkpt><trkpt lat="36.77584819193306" lon="-107.98337806174503"><ele>1801.3333333333335</ele><time>2026-04-19T18:02:44Z</time></trkpt><trkpt lat="36.775865036585564" lon="-107.98349377918763"><ele>1801.5</ele><time>2026-04-19T18:02:45Z</time></trkpt><trkpt lat="36.77589720589047" lon="-107.98358173241019"><ele>1801.6666666666665</ele><time>2026-04-19T18:02:46Z</time></trkpt><trkpt lat="36.77593838293985" lon="-107.98364335856346"><ele>1801.8333333333333</ele><time>2026-04-19T18:02:47Z</time></trkpt><trkpt lat="36.77599559922839" lon="-107.98376208444229"><ele>1802.0</ele><time>2026-04-19T18:02:49Z</time></trkpt><trkpt lat="36.77605707685364" lon="-107.98381431664934"><ele>1802.3333333333333</ele><time>2026-04-19T18:02:50Z</time></trkpt><trkpt lat="36.7761136614652" lon="-107.98387721382004"><ele>1802.6666666666665</ele><time>2026-04-19T18:02:51Z</time></trkpt><trkpt lat="36.77610764135206" lon="-107.9839558794157"><ele>1803.0</ele><time>2026-04-19T18:02:53Z</time></trkpt><trkpt lat="36.77605412437145" lon="-107.98403684595426"><ele>1803.3333333333335</ele><time>2026-04-19T18:02:55Z</time></trkpt><trkpt lat="36.77602434665996" lon="-107.98411259304763"><ele>1803.6666666666667</ele><time>2026-04-19T18:02:56Z</time></trkpt><trkpt lat="36.77600553785027" lon="-107.98421079477198"><ele>1804.0</ele><time>2026-04-19T18:03:00Z</time></trkpt><trkpt lat="36.77601557802045" lon="-107.98448475765696"><ele>1804.0</ele><time>2026-04-19T18:03:03Z</time></trkpt><trkpt lat="36.77600067469016" lon="-107.98459267109014"><ele>1804.0</ele><time>2026-04-19T18:03:05Z</time></trkpt><trkpt lat="36.776066678888114" lon="-107.98469966675657"><ele>1804.0</ele><time>2026-04-19T18:03:07Z</time></trkpt><trkpt lat="36.776092316453024" lon="-107.98481958838225"><ele>1804.0</ele><time>2026-04-19T18:03:09Z</time></trkpt><trkpt lat="36.77609176038435" lon="-107.98491331635933"><ele>1804.0</ele><time>2026-04-19T18:03:10Z</time></trkpt><trkpt lat="36.77608878234548" lon="-107.98501415954551"><ele>1805.6</ele><time>2026-04-19T18:03:11Z</time></trkpt><trkpt lat="36.7760816742716" lon="-107.98511799479508"><ele>1807.2</ele><time>2026-04-19T18:03:12Z</time></trkpt><trkpt lat="36.77609804921317" lon="-107.98525959442756"><ele>1808.7999999999997</ele><time>2026-04-19T18:03:13Z</time></trkpt><trkpt lat="36.77611590452798" lon="-107.98539187603735"><ele>1810.3999999999999</ele><time>2026-04-19T18:03:14Z</time></trkpt><trkpt lat="36.77611896417662" lon="-107.98551981333794"><ele>1812.0</ele><time>2026-04-19T18:03:15Z</time></trkpt><trkpt lat="36.7761367770328" lon="-107.98565205421674"><ele>1812.0</ele><time>2026-04-19T18:03:16Z</time></trkpt><trkpt lat="36.77617618326946" lon="-107.98579324149712"><ele>1812.0</ele><time>2026-04-19T18:03:17Z</time></trkpt><trkpt lat="36.7762271446035" lon="-107.98592191221576"><ele>1812.0</ele><time>2026-04-19T18:03:18Z</time></trkpt><trkpt lat="36.7762795882925" lon="-107.98604198484105"><ele>1812.0</ele><time>2026-04-19T18:03:19Z</time></trkpt><trkpt lat="36.776340358786065" lon="-107.98618148774253"><ele>1814.0</ele><time>2026-04-19T18:03:20Z</time></trkpt><trkpt lat="36.77640215087034" lon="-107.98632491169153"><ele>1816.0</ele><time>2026-04-19T18:03:21Z</time></trkpt><trkpt lat="36.776521424989795" lon="-107.98653840652628"><ele>1818.0</ele><time>2026-04-19T18:03:22Z</time></trkpt><trkpt lat="36.77657513760612" lon="-107.9866736319855"><ele>1819.0</ele><time>2026-04-19T18:03:23Z</time></trkpt><trkpt lat="36.776615090819014" lon="-107.98678262149495"><ele>1820.0000000000002</ele><time>2026-04-19T18:03:24Z</time></trkpt><trkpt lat="36.77665820799134" lon="-107.98687283925423"><ele>1821.0000000000002</ele><time>2026-04-19T18:03:25Z</time></trkpt><trkpt lat="36.77669856385432" lon="-107.98697478207627"><ele>1822.0</ele><time>2026-04-19T18:03:26Z</time></trkpt><trkpt lat="36.77674157679589" lon="-107.98708181971355"><ele>1823.0</ele><time>2026-04-19T18:03:27Z</time></trkpt><trkpt lat="36.77678620305975" lon="-107.98719021813723"><ele>1823.0</ele><time>2026-04-19T18:03:28Z</time></trkpt><trkpt lat="36.77683596983198" lon="-107.98730304361723"><ele>1823.0000000000002</ele><time>2026-04-19T18:03:29Z</time></trkpt><trkpt lat="36.77688814110888" lon="-107.98741727395677"><ele>1823.0000000000002</ele><time>2026-04-19T18:03:30Z</time></trkpt><trkpt lat="36.77693801032797" lon="-107.98753046260053"><ele>1823.0</ele><time>2026-04-19T18:03:31Z</time></trkpt><trkpt lat="36.77698457251877" lon="-107.98765078466641"><ele>1823.0</ele><time>2026-04-19T18:03:32Z</time></trkpt><trkpt lat="36.77703201465655" lon="-107.98777343850865"><ele>1825.4</ele><time>2026-04-19T18:03:33Z</time></trkpt><trkpt lat="36.77708498337196" lon="-107.98789362554632"><ele>1827.8000000000002</ele><time>2026-04-19T18:03:34Z</time></trkpt><trkpt lat="36.777124602629485" lon="-107.98798825074323"><ele>1830.2</ele><time>2026-04-19T18:03:35Z</time></trkpt><trkpt lat="36.77716987665978" lon="-107.98811423259193"><ele>1832.6</ele><time>2026-04-19T18:03:37Z</time></trkpt><trkpt lat="36.777229991566976" lon="-107.98814897217156"><ele>1835.0</ele><time>2026-04-19T18:03:39Z</time></trkpt><trkpt lat="36.77730645914588" lon="-107.98810763792531"><ele>1835.0</ele><time>2026-04-19T18:03:41Z</time></trkpt><trkpt lat="36.77737396677625" lon="-107.98806798453829"><ele>1835.0</ele><time>2026-04-19T18:03:42.001Z</time></trkpt><trkpt lat="36.777466302388774" lon="-107.9880296564607"><ele>1835.0</ele><time>2026-04-19T18:03:43.001Z</time></trkpt><trkpt lat="36.777559113133826" lon="-107.98800593175503"><ele>1835.0</ele><time>2026-04-19T18:03:44.001Z</time></trkpt><trkpt lat="36.77767717297302" lon="-107.9880012072056"><ele>1835.0</ele><time>2026-04-19T18:03:45.001Z</time></trkpt><trkpt lat="36.77778524227418" lon="-107.98800208546484"><ele>1835.3333333333333</ele><time>2026-04-19T18:03:46.001Z</time></trkpt><trkpt lat="36.777885508557524" lon="-107.98799878024013"><ele>1835.6666666666665</ele><time>2026-04-19T18:03:47.001Z</time></trkpt><trkpt lat="36.77797149827052" lon="-107.9879686383468"><ele>1836.0</ele><time>2026-04-19T18:03:48.001Z</time></trkpt><trkpt lat="36.778036907547" lon="-107.98791761824361"><ele>1836.3333333333335</ele><time>2026-04-19T18:03:49.001Z</time></trkpt><trkpt lat="36.77810690987731" lon="-107.98788651746248"><ele>1836.6666666666667</ele><time>2026-04-19T18:03:50.001Z</time></trkpt><trkpt lat="36.778200344998254" lon="-107.98788710033546"><ele>1837.0</ele><time>2026-04-19T18:03:51.001Z</time></trkpt><trkpt lat="36.778293258842254" lon="-107.98788099614598"><ele>1837.0</ele><time>2026-04-19T18:03:52.001Z</time></trkpt><trkpt lat="36.77837026483131" lon="-107.98784891283832"><ele>1836.9999999999998</ele><time>2026-04-19T18:03:53.001Z</time></trkpt><trkpt lat="36.77844142635914" lon="-107.98781631212229"><ele>1836.9999999999998</ele><time>2026-04-19T18:03:54.001Z</time></trkpt><trkpt lat="36.77853771951123" lon="-107.9878023868241"><ele>1837.0</ele><time>2026-04-19T18:03:55.001Z</time></trkpt><trkpt lat="36.77865482692326" lon="-107.98779110542539"><ele>1837.0</ele><time>2026-04-19T18:03:56.001Z</time></trkpt><trkpt lat="36.77876602859714" lon="-107.98777859921972"><ele>1837.1666666666667</ele><time>2026-04-19T18:03:57.001Z</time></trkpt><trkpt lat="36.77886990294759" lon="-107.98775751888236"><ele>1837.3333333333335</ele><time>2026-04-19T18:03:58.001Z</time></trkpt><trkpt lat="36.77896846194934" lon="-107.98772993308114"><ele>1837.5</ele><time>2026-04-19T18:03:59.001Z</time></trkpt><trkpt lat="36.779049495873956" lon="-107.98769927343922"><ele>1837.6666666666665</ele><time>2026-04-19T18:04:00.001Z</time></trkpt><trkpt lat="36.77912076785689" lon="-107.98765942962295"><ele>1837.8333333333333</ele><time>2026-04-19T18:04:01.001Z</time></trkpt><trkpt lat="36.77919040223444" lon="-107.98764480272396"><ele>1838.0</ele><time>2026-04-19T18:04:02.001Z</time></trkpt><trkpt lat="36.77928219508784" lon="-107.98765731121284"><ele>1838.8333333333333</ele><time>2026-04-19T18:04:03.001Z</time></trkpt><trkpt lat="36.77935702407429" lon="-107.98764638355284"><ele>1839.6666666666665</ele><time>2026-04-19T18:04:04.001Z</time></trkpt><trkpt lat="36.77941482923141" lon="-107.9876063137864"><ele>1840.5</ele><time>2026-04-19T18:04:05.001Z</time></trkpt><trkpt lat="36.779476165428" lon="-107.98755150441436"><ele>1841.3333333333335</ele><time>2026-04-19T18:04:06.001Z</time></trkpt><trkpt lat="36.779552669170705" lon="-107.98753675448094"><ele>1842.1666666666667</ele><time>2026-04-19T18:04:07.001Z</time></trkpt><trkpt lat="36.77964928119727" lon="-107.987543263139"><ele>1843.0</ele><time>2026-04-19T18:04:08.001Z</time></trkpt><trkpt lat="36.77975630841931" lon="-107.98754924982057"><ele>1843.0000000000002</ele><time>2026-04-19T18:04:09.001Z</time></trkpt><trkpt lat="36.7798497958367" lon="-107.98753193683386"><ele>1843.0</ele><time>2026-04-19T18:04:10.001Z</time></trkpt><trkpt lat="36.779938188180125" lon="-107.98750948631971"><ele>1843.0</ele><time>2026-04-19T18:04:11.001Z</time></trkpt><trkpt lat="36.78002107507297" lon="-107.98749217015336"><ele>1843.0</ele><time>2026-04-19T18:04:12.001Z</time></trkpt><trkpt lat="36.780090370928896" lon="-107.98748664965947"><ele>1843.0000000000002</ele><time>2026-04-19T18:04:13.001Z</time></trkpt><trkpt lat="36.780154902456914" lon="-107.98747578004009"><ele>1843.0</ele><time>2026-04-19T18:04:14.001Z</time></trkpt><trkpt lat="36.7802335197131" lon="-107.98746214035414"><ele>1843.0000000000002</ele><time>2026-04-19T18:04:15.001Z</time></trkpt><trkpt lat="36.78030146916822" lon="-107.9874365956572"><ele>1843.0</ele><time>2026-04-19T18:04:16Z</time></trkpt><trkpt lat="36.78036585388389" lon="-107.9873890279526"><ele>1843.0</ele><time>2026-04-19T18:04:17Z</time></trkpt><trkpt lat="36.78044030154615" lon="-107.98733527995016"><ele>1843.0</ele><time>2026-04-19T18:04:18Z</time></trkpt><trkpt lat="36.78053322294425" lon="-107.98731145991697"><ele>1843.0000000000002</ele><time>2026-04-19T18:04:19Z</time></trkpt><trkpt lat="36.7806147595846" lon="-107.9873127560825"><ele>1843.0</ele><time>2026-04-19T18:04:20Z</time></trkpt><trkpt lat="36.780678049742754" lon="-107.98735258612082"><ele>1843.0</ele><time>2026-04-19T18:04:21Z</time></trkpt><trkpt lat="36.78073772960535" lon="-107.98741523898127"><ele>1843.0000000000002</ele><time>2026-04-19T18:04:22Z</time></trkpt><trkpt lat="36.7808177063216" lon="-107.98747231003435"><ele>1843.0000000000002</ele><time>2026-04-19T18:04:23Z</time></trkpt><trkpt lat="36.780905682980396" lon="-107.98748389122768"><ele>1843.0</ele><time>2026-04-19T18:04:24Z</time></trkpt><trkpt lat="36.781009084695235" lon="-107.98744483590697"><ele>1843.0</ele><time>2026-04-19T18:04:25Z</time></trkpt><trkpt lat="36.78112269384894" lon="-107.98742306840543"><ele>1844.4</ele><time>2026-04-19T18:04:26Z</time></trkpt><trkpt lat="36.781196745627646" lon="-107.98744399150807"><ele>1845.8000000000002</ele><time>2026-04-19T18:04:27Z</time></trkpt><trkpt lat="36.78126893386256" lon="-107.98747539789605"><ele>1847.2</ele><time>2026-04-19T18:04:28Z</time></trkpt><trkpt lat="36.781379665510364" lon="-107.98755215125655"><ele>1848.6</ele><time>2026-04-19T18:04:30Z</time></trkpt><trkpt lat="36.781500277639815" lon="-107.9875231744408"><ele>1850.0</ele><time>2026-04-19T18:04:32Z</time></trkpt><trkpt lat="36.781597835518525" lon="-107.98751054174939"><ele>1850.0</ele><time>2026-04-19T18:04:33Z</time></trkpt><trkpt lat="36.78169651504977" lon="-107.98754888599113"><ele>1850.0</ele><time>2026-04-19T18:04:34Z</time></trkpt><trkpt lat="36.78178531334987" lon="-107.98760808826093"><ele>1850.0</ele><time>2026-04-19T18:04:35Z</time></trkpt><trkpt lat="36.781904134260884" lon="-107.9876831089608"><ele>1850.0</ele><time>2026-04-19T18:04:36Z</time></trkpt><trkpt lat="36.78200685354979" lon="-107.98773467340453"><ele>1850.0</ele><time>2026-04-19T18:04:37Z</time></trkpt><trkpt lat="36.78208509054382" lon="-107.98777844430839"><ele>1850.4</ele><time>2026-04-19T18:04:38Z</time></trkpt><trkpt lat="36.782151481529716" lon="-107.98783737639721"><ele>1850.8</ele><time>2026-04-19T18:04:39Z</time></trkpt><trkpt lat="36.78222444054503" lon="-107.98792442325006"><ele>1851.1999999999998</ele><time>2026-04-19T18:04:40Z</time></trkpt><trkpt lat="36.782324301987664" lon="-107.98801797776238"><ele>1851.6</ele><time>2026-04-19T18:04:41Z</time></trkpt><trkpt lat="36.782437973739725" lon="-107.9880797146032"><ele>1852.0</ele><time>2026-04-19T18:04:42Z</time></trkpt><trkpt lat="36.7825504954546" lon="-107.98815906989658"><ele>1852.0</ele><time>2026-04-19T18:04:43Z</time></trkpt><trkpt lat="36.78263703359072" lon="-107.98825741263715"><ele>1851.9999999999998</ele><time>2026-04-19T18:04:44Z</time></trkpt><trkpt lat="36.78270979527108" lon="-107.9883462549547"><ele>1851.9999999999998</ele><time>2026-04-19T18:04:45Z</time></trkpt><trkpt lat="36.78276119864381" lon="-107.98842280044731"><ele>1852.0</ele><time>2026-04-19T18:04:46Z</time></trkpt><trkpt lat="36.78279125908457" lon="-107.98851942431344"><ele>1852.0</ele><time>2026-04-19T18:04:47Z</time></trkpt><trkpt lat="36.78281085233142" lon="-107.98864035297792"><ele>1851.1999999999998</ele><time>2026-04-19T18:04:48Z</time></trkpt><trkpt lat="36.78283464148707" lon="-107.98877626770299"><ele>1850.3999999999999</ele><time>2026-04-19T18:04:49Z</time></trkpt><trkpt lat="36.78286659948834" lon="-107.98889703167852"><ele>1849.6000000000001</ele><time>2026-04-19T18:04:50Z</time></trkpt><trkpt lat="36.78289997364202" lon="-107.98898301988869"><ele>1848.8000000000002</ele><time>2026-04-19T18:04:51Z</time></trkpt><trkpt lat="36.78299685977367" lon="-107.98904315541469"><ele>1848.0</ele><time>2026-04-19T18:04:53Z</time></trkpt><trkpt lat="36.78307951051666" lon="-107.98902526792247"><ele>1848.0</ele><time>2026-04-19T18:04:54Z</time></trkpt><trkpt lat="36.78317438038777" lon="-107.9890044498825"><ele>1848.0</ele><time>2026-04-19T18:04:55Z</time></trkpt><trkpt lat="36.78325893457427" lon="-107.98901770424182"><ele>1848.0</ele><time>2026-04-19T18:04:56Z</time></trkpt><trkpt lat="36.783334641679" lon="-107.98904248253055"><ele>1848.0</ele><time>2026-04-19T18:04:57Z</time></trkpt><trkpt lat="36.7834124802038" lon="-107.98904651750291"><ele>1848.0</ele><time>2026-04-19T18:04:58Z</time></trkpt><trkpt lat="36.78348927756234" lon="-107.98903472260167"><ele>1848.0</ele><time>2026-04-19T18:04:59Z</time></trkpt><trkpt lat="36.783573697618806" lon="-107.98905438401971"><ele>1847.0</ele><time>2026-04-19T18:05:00Z</time></trkpt><trkpt lat="36.78365915019906" lon="-107.98910398992169"><ele>1846.0</ele><time>2026-04-19T18:05:01Z</time></trkpt><trkpt lat="36.78374180412534" lon="-107.9891628278467"><ele>1845.0</ele><time>2026-04-19T18:05:02Z</time></trkpt><trkpt lat="36.78380831342183" lon="-107.98921454905981"><ele>1844.0</ele><time>2026-04-19T18:05:03Z</time></trkpt><trkpt lat="36.78385449438872" lon="-107.9892768731681"><ele>1843.0</ele><time>2026-04-19T18:05:04Z</time></trkpt><trkpt lat="36.783899938702554" lon="-107.98937653180637"><ele>1842.0</ele><time>2026-04-19T18:05:05Z</time></trkpt><trkpt lat="36.78393627411545" lon="-107.98947263547231"><ele>1841.3333333333333</ele><time>2026-04-19T18:05:06Z</time></trkpt><trkpt lat="36.783957416485" lon="-107.98955698715586"><ele>1840.6666666666665</ele><time>2026-04-19T18:05:07Z</time></trkpt><trkpt lat="36.784064417736644" lon="-107.98963844196072"><ele>1840.0</ele><time>2026-04-19T18:05:09Z</time></trkpt><trkpt lat="36.78414222817208" lon="-107.9896453349903"><ele>1839.3333333333333</ele><time>2026-04-19T18:05:10Z</time></trkpt><trkpt lat="36.78421424276154" lon="-107.98966205754259"><ele>1838.6666666666665</ele><time>2026-04-19T18:05:11Z</time></trkpt><trkpt lat="36.7842776447279" lon="-107.98970919061496"><ele>1838.0</ele><time>2026-04-19T18:05:12Z</time></trkpt><trkpt lat="36.784344205473396" lon="-107.98975705921269"><ele>1837.8333333333333</ele><time>2026-04-19T18:05:13Z</time></trkpt><trkpt lat="36.78442916624913" lon="-107.98977212272064"><ele>1837.6666666666665</ele><time>2026-04-19T18:05:14Z</time></trkpt><trkpt lat="36.7845189259974" lon="-107.98976455519947"><ele>1837.5</ele><time>2026-04-19T18:05:15Z</time></trkpt><trkpt lat="36.78459274218255" lon="-107.98977726000017"><ele>1837.3333333333335</ele><time>2026-04-19T18:05:16Z</time></trkpt><trkpt lat="36.784650200605924" lon="-107.98983365035174"><ele>1837.1666666666667</ele><time>2026-04-19T18:05:17Z</time></trkpt><trkpt lat="36.78470255593809" lon="-107.98994634515148"><ele>1837.0</ele><time>2026-04-19T18:05:18Z</time></trkpt><trkpt lat="36.784780607422455" lon="-107.99007557002194"><ele>1837.0000000000002</ele><time>2026-04-19T18:05:19Z</time></trkpt><trkpt lat="36.784870042348835" lon="-107.99018078269455"><ele>1837.0</ele><time>2026-04-19T18:05:20Z</time></trkpt><trkpt lat="36.78494541369798" lon="-107.99025106923557"><ele>1837.0</ele><time>2026-04-19T18:05:21Z</time></trkpt><trkpt lat="36.78498682305562" lon="-107.99031239138608"><ele>1837.0</ele><time>2026-04-19T18:05:22Z</time></trkpt><trkpt lat="36.78502299749589" lon="-107.99037759372278"><ele>1837.0000000000002</ele><time>2026-04-19T18:05:23Z</time></trkpt><trkpt lat="36.78510040230093" lon="-107.99037561829878"><ele>1837.0</ele><time>2026-04-19T18:05:24Z</time></trkpt><trkpt lat="36.785188624116024" lon="-107.99040032294502"><ele>1837.3333333333335</ele><time>2026-04-19T18:05:25Z</time></trkpt><trkpt lat="36.78524985249383" lon="-107.99045607828104"><ele>1837.6666666666667</ele><time>2026-04-19T18:05:26Z</time></trkpt><trkpt lat="36.78530995610834" lon="-107.99052655983532"><ele>1838.0</ele><time>2026-04-19T18:05:27Z</time></trkpt><trkpt lat="36.78538967596678" lon="-107.99055221655286"><ele>1838.3333333333335</ele><time>2026-04-19T18:05:28Z</time></trkpt><trkpt lat="36.7854979842457" lon="-107.99055852782311"><ele>1838.6666666666667</ele><time>2026-04-19T18:05:29Z</time></trkpt><trkpt lat="36.78559145451829" lon="-107.99059114344307"><ele>1839.0</ele><time>2026-04-19T18:05:30Z</time></trkpt><trkpt lat="36.7856676959313" lon="-107.99062655583974"><ele>1839.0</ele><time>2026-04-19T18:05:31Z</time></trkpt><trkpt lat="36.78574601301456" lon="-107.99063160283376"><ele>1839.0</ele><time>2026-04-19T18:05:32Z</time></trkpt><trkpt lat="36.78583837483579" lon="-107.99062261551106"><ele>1839.0</ele><time>2026-04-19T18:05:33Z</time></trkpt><trkpt lat="36.78593598740497" lon="-107.99060784453722"><ele>1839.0</ele><time>2026-04-19T18:05:34Z</time></trkpt><trkpt lat="36.7860291364758" lon="-107.99058817806396"><ele>1839.0</ele><time>2026-04-19T18:05:35Z</time></trkpt><trkpt lat="36.78611750809667" lon="-107.99056230327247"><ele>1838.2</ele><time>2026-04-19T18:05:36Z</time></trkpt><trkpt lat="36.78621736616274" lon="-107.99054246850277"><ele>1837.4</ele><time>2026-04-19T18:05:37Z</time></trkpt><trkpt lat="36.786303133815956" lon="-107.99051958184835"><ele>1836.6</ele><time>2026-04-19T18:05:38Z</time></trkpt><trkpt lat="36.78639475892321" lon="-107.99051688037804"><ele>1835.8</ele><time>2026-04-19T18:05:39Z</time></trkpt><trkpt lat="36.78649812992034" lon="-107.99049351284846"><ele>1835.0</ele><time>2026-04-19T18:05:40Z</time></trkpt><trkpt lat="36.78658093824222" lon="-107.9904621922399"><ele>1835.0</ele><time>2026-04-19T18:05:41Z</time></trkpt><trkpt lat="36.78667117477104" lon="-107.99043096669509"><ele>1835.0</ele><time>2026-04-19T18:05:42Z</time></trkpt><trkpt lat="36.786762073772096" lon="-107.9904220135643"><ele>1835.0</ele><time>2026-04-19T18:05:43Z</time></trkpt><trkpt lat="36.7868570194229" lon="-107.9904322898662"><ele>1835.0</ele><time>2026-04-19T18:05:44Z</time></trkpt><trkpt lat="36.78694339087178" lon="-107.99042821497997"><ele>1835.0</ele><time>2026-04-19T18:05:45Z</time></trkpt><trkpt lat="36.78703144202161" lon="-107.99035463596903"><ele>1834.4</ele><time>2026-04-19T18:05:47Z</time></trkpt><trkpt lat="36.78715209910752" lon="-107.99040787573367"><ele>1833.8</ele><time>2026-04-19T18:05:49.001Z</time></trkpt><trkpt lat="36.787220596566904" lon="-107.99048675020667"><ele>1833.1999999999998</ele><time>2026-04-19T18:05:50.001Z</time></trkpt><trkpt lat="36.78727234215913" lon="-107.99057580169904"><ele>1832.6</ele><time>2026-04-19T18:05:51.001Z</time></trkpt><trkpt lat="36.78731813641818" lon="-107.99066785611623"><ele>1832.0</ele><time>2026-04-19T18:05:52.001Z</time></trkpt><trkpt lat="36.787378102357664" lon="-107.99073344158963"><ele>1832.0</ele><time>2026-04-19T18:05:53.001Z</time></trkpt><trkpt lat="36.78742937265122" lon="-107.99080071588948"><ele>1831.9999999999998</ele><time>2026-04-19T18:05:54.001Z</time></trkpt><trkpt lat="36.78744764673199" lon="-107.99095591991224"><ele>1831.9999999999998</ele><time>2026-04-19T18:05:56.001Z</time></trkpt><trkpt lat="36.78743654199665" lon="-107.99109606478316"><ele>1832.0</ele><time>2026-04-19T18:05:57.001Z</time></trkpt><trkpt lat="36.787446429809656" lon="-107.99125332847674"><ele>1832.0</ele><time>2026-04-19T18:05:58.001Z</time></trkpt><trkpt lat="36.7874486348372" lon="-107.99139870088223"><ele>1831.4999999999998</ele><time>2026-04-19T18:05:59.001Z</time></trkpt><trkpt lat="36.787445012885286" lon="-107.99153435316875"><ele>1831.0</ele><time>2026-04-19T18:06:00.001Z</time></trkpt><trkpt lat="36.78744844604304" lon="-107.99166888948294"><ele>1830.5</ele><time>2026-04-19T18:06:01.001Z</time></trkpt><trkpt lat="36.7874612463573" lon="-107.99177101375965"><ele>1830.0</ele><time>2026-04-19T18:06:02.001Z</time></trkpt><trkpt lat="36.78747892448528" lon="-107.99186218069941"><ele>1829.4999999999998</ele><time>2026-04-19T18:06:03.001Z</time></trkpt><trkpt lat="36.78749105703031" lon="-107.99194481015911"><ele>1829.0</ele><time>2026-04-19T18:06:04.001Z</time></trkpt><trkpt lat="36.787499528698994" lon="-107.99203988364008"><ele>1828.8333333333333</ele><time>2026-04-19T18:06:05.001Z</time></trkpt><trkpt lat="36.78749816925478" lon="-107.99213283908387"><ele>1828.6666666666665</ele><time>2026-04-19T18:06:06.001Z</time></trkpt><trkpt lat="36.78749142596596" lon="-107.99221458575175"><ele>1828.5</ele><time>2026-04-19T18:06:07.001Z</time></trkpt><trkpt lat="36.78748855805261" lon="-107.99231893169501"><ele>1828.3333333333335</ele><time>2026-04-19T18:06:08.001Z</time></trkpt><trkpt lat="36.787487271966945" lon="-107.99242360525065"><ele>1828.1666666666667</ele><time>2026-04-19T18:06:09.001Z</time></trkpt><trkpt lat="36.78747496117014" lon="-107.99251795646497"><ele>1828.0</ele><time>2026-04-19T18:06:10.001Z</time></trkpt><trkpt lat="36.787448851109545" lon="-107.99261724546895"><ele>1828.0</ele><time>2026-04-19T18:06:11.001Z</time></trkpt><trkpt lat="36.78740655148768" lon="-107.99272885690216"><ele>1828.0000000000002</ele><time>2026-04-19T18:06:12.001Z</time></trkpt><trkpt lat="36.78735099167559" lon="-107.99285062386062"><ele>1828.0000000000002</ele><time>2026-04-19T18:06:13.001Z</time></trkpt><trkpt lat="36.787287783119496" lon="-107.99298854273121"><ele>1828.0</ele><time>2026-04-19T18:06:14.001Z</time></trkpt><trkpt lat="36.78723310045029" lon="-107.99310456143277"><ele>1828.0</ele><time>2026-04-19T18:06:15.001Z</time></trkpt><trkpt lat="36.787185334979306" lon="-107.99318468644516"><ele>1828.0000000000002</ele><time>2026-04-19T18:06:16.001Z</time></trkpt><trkpt lat="36.78714916592208" lon="-107.99327456199589"><ele>1828.0</ele><time>2026-04-19T18:06:17.001Z</time></trkpt><trkpt lat="36.78711669884805" lon="-107.99336014733295"><ele>1828.0</ele><time>2026-04-19T18:06:18.001Z</time></trkpt><trkpt lat="36.78707970767159" lon="-107.99343802573428"><ele>1828.0</ele><time>2026-04-19T18:06:19.001Z</time></trkpt><trkpt lat="36.787069418300966" lon="-107.99352222901078"><ele>1828.0000000000002</ele><time>2026-04-19T18:06:20.001Z</time></trkpt><trkpt lat="36.78706036665278" lon="-107.99361715872381"><ele>1828.0</ele><time>2026-04-19T18:06:21.001Z</time></trkpt><trkpt lat="36.78703012909615" lon="-107.9937073413315"><ele>1827.3333333333335</ele><time>2026-04-19T18:06:22Z</time></trkpt><trkpt lat="36.786987079627664" lon="-107.99378751025736"><ele>1826.6666666666667</ele><time>2026-04-19T18:06:23Z</time></trkpt><trkpt lat="36.78693666360784" lon="-107.99386686612335"><ele>1826.0</ele><time>2026-04-19T18:06:24Z</time></trkpt><trkpt lat="36.78691210717908" lon="-107.99394480226545"><ele>1825.3333333333335</ele><time>2026-04-19T18:06:25Z</time></trkpt><trkpt lat="36.78687929607407" lon="-107.99402342460553"><ele>1824.6666666666667</ele><time>2026-04-19T18:06:26Z</time></trkpt><trkpt lat="36.78685644311387" lon="-107.99418567332904"><ele>1824.0</ele><time>2026-04-19T18:06:28Z</time></trkpt><trkpt lat="36.78685863480584" lon="-107.99428805815029"><ele>1823.2</ele><time>2026-04-19T18:06:29Z</time></trkpt><trkpt lat="36.786862053755115" lon="-107.99437291026642"><ele>1822.4</ele><time>2026-04-19T18:06:30Z</time></trkpt><trkpt lat="36.786850465319446" lon="-107.99452125389264"><ele>1821.6</ele><time>2026-04-19T18:06:32Z</time></trkpt><trkpt lat="36.786801576312925" lon="-107.99468273404533"><ele>1820.8</ele><time>2026-04-19T18:06:34Z</time></trkpt><trkpt lat="36.7867807712499" lon="-107.99477443594499"><ele>1820.0</ele><time>2026-04-19T18:06:35Z</time></trkpt><trkpt lat="36.78677247492973" lon="-107.99488815090548"><ele>1819.6666666666665</ele><time>2026-04-19T18:06:37Z</time></trkpt><trkpt lat="36.786872425024384" lon="-107.99493253379757"><ele>1819.3333333333333</ele><time>2026-04-19T18:06:39Z</time></trkpt><trkpt lat="36.78695535948692" lon="-107.994952420611"><ele>1819.0</ele><time>2026-04-19T18:06:40Z</time></trkpt><trkpt lat="36.78701776929115" lon="-107.99500068900167"><ele>1818.6666666666665</ele><time>2026-04-19T18:06:41Z</time></trkpt><trkpt lat="36.787073628343855" lon="-107.9950687028427"><ele>1818.3333333333333</ele><time>2026-04-19T18:06:42Z</time></trkpt><trkpt lat="36.78712852409951" lon="-107.99512687781527"><ele>1818.0</ele><time>2026-04-19T18:06:43Z</time></trkpt><trkpt lat="36.78720609513041" lon="-107.99521207407862"><ele>1817.1666666666667</ele><time>2026-04-19T18:06:45Z</time></trkpt><trkpt lat="36.787268305356754" lon="-107.99522630036037"><ele>1816.3333333333335</ele><time>2026-04-19T18:06:46Z</time></trkpt><trkpt lat="36.78734428490093" lon="-107.99523642594197"><ele>1815.5</ele><time>2026-04-19T18:06:47Z</time></trkpt><trkpt lat="36.78740526747155" lon="-107.99525680261144"><ele>1814.6666666666667</ele><time>2026-04-19T18:06:48Z</time></trkpt><trkpt lat="36.78749145603096" lon="-107.99534074069304"><ele>1813.8333333333335</ele><time>2026-04-19T18:06:50Z</time></trkpt><trkpt lat="36.787532243370116" lon="-107.99542525952202"><ele>1813.0</ele><time>2026-04-19T18:06:51Z</time></trkpt><trkpt lat="36.78762617670524" lon="-107.99552687413131"><ele>1812.5000000000002</ele><time>2026-04-19T18:06:53Z</time></trkpt><trkpt lat="36.787686656513074" lon="-107.99556482144934"><ele>1812.0</ele><time>2026-04-19T18:06:54Z</time></trkpt><trkpt lat="36.78773567475023" lon="-107.99563632923183"><ele>1811.5</ele><time>2026-04-19T18:06:55Z</time></trkpt><trkpt lat="36.78775676839423" lon="-107.99571476162414"><ele>1811.0</ele><time>2026-04-19T18:06:56Z</time></trkpt><trkpt lat="36.787745095571694" lon="-107.99586510216213"><ele>1810.5000000000002</ele><time>2026-04-19T18:06:58Z</time></trkpt><trkpt lat="36.78773626297578" lon="-107.99596654521349"><ele>1810.0</ele><time>2026-04-19T18:06:59Z</time></trkpt><trkpt lat="36.78773217686604" lon="-107.99606283358482"><ele>1808.8</ele><time>2026-04-19T18:07:00Z</time></trkpt><trkpt lat="36.78772675439274" lon="-107.99617323010227"><ele>1807.6</ele><time>2026-04-19T18:07:02Z</time></trkpt><trkpt lat="36.78768230279586" lon="-107.99627970871883"><ele>1806.4</ele><time>2026-04-19T18:07:04Z</time></trkpt><trkpt lat="36.787752291721034" lon="-107.99637794786008"><ele>1805.2</ele><time>2026-04-19T18:07:06Z</time></trkpt><trkpt lat="36.787832375806595" lon="-107.99648529924487"><ele>1804.0</ele><time>2026-04-19T18:07:07Z</time></trkpt><trkpt lat="36.78790146366058" lon="-107.9965949529369"><ele>1803.8000000000002</ele><time>2026-04-19T18:07:08Z</time></trkpt><trkpt lat="36.7879370177012" lon="-107.99668765293367"><ele>1803.6000000000001</ele><time>2026-04-19T18:07:09Z</time></trkpt><trkpt lat="36.78797460529002" lon="-107.99679926618316"><ele>1803.4</ele><time>2026-04-19T18:07:10Z</time></trkpt><trkpt lat="36.78802565673222" lon="-107.99692764820871"><ele>1803.2</ele><time>2026-04-19T18:07:11Z</time></trkpt><trkpt lat="36.78811247867027" lon="-107.99703631180331"><ele>1803.0</ele><time>2026-04-19T18:07:12Z</time></trkpt><trkpt lat="36.78821649266863" lon="-107.99716583228248"><ele>1803.0</ele><time>2026-04-19T18:07:13Z</time></trkpt><trkpt lat="36.78831415559344" lon="-107.99730416948736"><ele>1803.0</ele><time>2026-04-19T18:07:14Z</time></trkpt><trkpt lat="36.788391083301235" lon="-107.99743933055802"><ele>1803.0</ele><time>2026-04-19T18:07:15Z</time></trkpt><trkpt lat="36.78845218440027" lon="-107.99752567685243"><ele>1803.0</ele><time>2026-04-19T18:07:16Z</time></trkpt><trkpt lat="36.788495394905745" lon="-107.99761294458939"><ele>1802.6000000000001</ele><time>2026-04-19T18:07:17Z</time></trkpt><trkpt lat="36.7885293408738" lon="-107.9977267968901"><ele>1802.2000000000003</ele><time>2026-04-19T18:07:18Z</time></trkpt><trkpt lat="36.78856145319976" lon="-107.99785228478738"><ele>1801.8</ele><time>2026-04-19T18:07:19Z</time></trkpt><trkpt lat="36.78861791988358" lon="-107.99796661715109"><ele>1801.4</ele><time>2026-04-19T18:07:20Z</time></trkpt><trkpt lat="36.78864554642925" lon="-107.99803793040265"><ele>1801.0</ele><time>2026-04-19T18:07:21Z</time></trkpt><trkpt lat="36.78861422480546" lon="-107.99818373839383"><ele>1801.0</ele><time>2026-04-19T18:07:23Z</time></trkpt><trkpt lat="36.7885945716476" lon="-107.99831666101518"><ele>1801.0</ele><time>2026-04-19T18:07:24Z</time></trkpt><trkpt lat="36.78862150990205" lon="-107.9984199180071"><ele>1801.0</ele><time>2026-04-19T18:07:25Z</time></trkpt><trkpt lat="36.78865956212019" lon="-107.99852426587937"><ele>1801.0</ele><time>2026-04-19T18:07:26Z</time></trkpt><trkpt lat="36.78868160602801" lon="-107.99867267364529"><ele>1801.0</ele><time>2026-04-19T18:07:27Z</time></trkpt><trkpt lat="36.78868666754254" lon="-107.99878325633269"><ele>1801.4</ele><time>2026-04-19T18:07:28Z</time></trkpt><trkpt lat="36.78871463892713" lon="-107.99887027201297"><ele>1801.8</ele><time>2026-04-19T18:07:29Z</time></trkpt><trkpt lat="36.7887943416377" lon="-107.9989895333953"><ele>1802.2000000000003</ele><time>2026-04-19T18:07:30Z</time></trkpt><trkpt lat="36.7888824581446" lon="-107.99910802836837"><ele>1802.6000000000001</ele><time>2026-04-19T18:07:31Z</time></trkpt><trkpt lat="36.788964629895446" lon="-107.9991634018689"><ele>1803.0</ele><time>2026-04-19T18:07:32Z</time></trkpt><trkpt lat="36.78904288851589" lon="-107.99924755382197"><ele>1803.0</ele><time>2026-04-19T18:07:33Z</time></trkpt><trkpt lat="36.789096796405424" lon="-107.9993410478912"><ele>1803.0</ele><time>2026-04-19T18:07:34Z</time></trkpt><trkpt lat="36.78913644153639" lon="-107.99944512730724"><ele>1803.0</ele><time>2026-04-19T18:07:35Z</time></trkpt><trkpt lat="36.789138388013704" lon="-107.99953064003728"><ele>1803.0</ele><time>2026-04-19T18:07:36Z</time></trkpt><trkpt lat="36.78912144968588" lon="-107.99961893678544"><ele>1803.0</ele><time>2026-04-19T18:07:37Z</time></trkpt><trkpt lat="36.7891053596384" lon="-107.99975826851286"><ele>1803.0</ele><time>2026-04-19T18:07:38Z</time></trkpt><trkpt lat="36.78908957652565" lon="-107.99988710063673"><ele>1803.0</ele><time>2026-04-19T18:07:39Z</time></trkpt><trkpt lat="36.7891319170945" lon="-107.9999820741882"><ele>1803.0000000000002</ele><time>2026-04-19T18:07:41Z</time></trkpt><trkpt lat="36.78918307082004" lon="-108.0000632129331"><ele>1803.0000000000002</ele><time>2026-04-19T18:07:42Z</time></trkpt><trkpt lat="36.78920238377512" lon="-108.00021029902355"><ele>1803.0</ele><time>2026-04-19T18:07:43Z</time></trkpt><trkpt lat="36.789201538738496" lon="-108.00031986394204"><ele>1803.0</ele><time>2026-04-19T18:07:44Z</time></trkpt><trkpt lat="36.78919331961143" lon="-108.00044630767769"><ele>1803.0</ele><time>2026-04-19T18:07:45Z</time></trkpt><trkpt lat="36.789180070922626" lon="-108.00058194622373"><ele>1803.0000000000002</ele><time>2026-04-19T18:07:46Z</time></trkpt><trkpt lat="36.78918695433592" lon="-108.00071476316738"><ele>1803.0000000000002</ele><time>2026-04-19T18:07:47Z</time></trkpt><trkpt lat="36.78920731699976" lon="-108.0008418628082"><ele>1803.0</ele><time>2026-04-19T18:07:48Z</time></trkpt><trkpt lat="36.78924227339825" lon="-108.00094762442318"><ele>1803.0</ele><time>2026-04-19T18:07:49Z</time></trkpt><trkpt lat="36.78928000522304" lon="-108.00102133956801"><ele>1802.8000000000002</ele><time>2026-04-19T18:07:50Z</time></trkpt><trkpt lat="36.78933877281306" lon="-108.00112646910657"><ele>1802.6000000000001</ele><time>2026-04-19T18:07:51Z</time></trkpt><trkpt lat="36.789376963820764" lon="-108.00126523575409"><ele>1802.3999999999999</ele><time>2026-04-19T18:07:52Z</time></trkpt><trkpt lat="36.78940461365162" lon="-108.00139837896276"><ele>1802.1999999999998</ele><time>2026-04-19T18:07:53Z</time></trkpt><trkpt lat="36.789423790462415" lon="-108.00149201009371"><ele>1802.0</ele><time>2026-04-19T18:07:54Z</time></trkpt><trkpt lat="36.78944696269719" lon="-108.00157737512113"><ele>1801.9999999999998</ele><time>2026-04-19T18:07:55Z</time></trkpt><trkpt lat="36.78946910929098" lon="-108.00167875667472"><ele>1802.0</ele><time>2026-04-19T18:07:56.001Z</time></trkpt><trkpt lat="36.78950917175875" lon="-108.00175866502863"><ele>1802.0</ele><time>2026-04-19T18:07:57.001Z</time></trkpt><trkpt lat="36.789574891757496" lon="-108.00181808522915"><ele>1802.0</ele><time>2026-04-19T18:07:58.001Z</time></trkpt><trkpt lat="36.78963117736209" lon="-108.00185964813711"><ele>1801.9999999999998</ele><time>2026-04-19T18:07:59.001Z</time></trkpt><trkpt lat="36.789667002590065" lon="-108.00196534166642"><ele>1802.0</ele><time>2026-04-19T18:08:00.001Z</time></trkpt><trkpt lat="36.78968047006588" lon="-108.00208518914175"><ele>1802.0</ele><time>2026-04-19T18:08:01.001Z</time></trkpt><trkpt lat="36.78968567782256" lon="-108.00218819380858"><ele>1801.9999999999998</ele><time>2026-04-19T18:08:02.001Z</time></trkpt><trkpt lat="36.78976248399851" lon="-108.0023206336265"><ele>1801.9999999999998</ele><time>2026-04-19T18:08:04.001Z</time></trkpt><trkpt lat="36.78980975909141" lon="-108.00237945554407"><ele>1802.0</ele><time>2026-04-19T18:08:05.001Z</time></trkpt><trkpt lat="36.78980571176445" lon="-108.00248059360507"><ele>1802.0</ele><time>2026-04-19T18:08:06.001Z</time></trkpt><trkpt lat="36.78979045966863" lon="-108.00259203440521"><ele>1802.1999999999998</ele><time>2026-04-19T18:08:07.001Z</time></trkpt><trkpt lat="36.789749451264655" lon="-108.00273819172862"><ele>1802.3999999999999</ele><time>2026-04-19T18:08:09.001Z</time></trkpt><trkpt lat="36.789728785288425" lon="-108.00286593005256"><ele>1802.6000000000001</ele><time>2026-04-19T18:08:11.001Z</time></trkpt><trkpt lat="36.78969154685244" lon="-108.00293933549663"><ele>1802.8000000000002</ele><time>2026-04-19T18:08:13.001Z</time></trkpt><trkpt lat="36.78965301692267" lon="-108.00302003591322"><ele>1803.0</ele><time>2026-04-19T18:08:15.001Z</time></trkpt><trkpt lat="36.789627536771526" lon="-108.00311045689367"><ele>1803.0</ele><time>2026-04-19T18:08:19.001Z</time></trkpt><trkpt lat="36.789646025699575" lon="-108.00319774515933"><ele>1803.0000000000002</ele><time>2026-04-19T18:08:46Z</time></trkpt><trkpt lat="36.78969835963214" lon="-108.0032558906187"><ele>1803.0000000000002</ele><time>2026-04-19T18:08:49Z</time></trkpt><trkpt lat="36.78978738087086" lon="-108.00341932667993"><ele>1803.0</ele><time>2026-04-19T18:08:50Z</time></trkpt><trkpt lat="36.78983104849775" lon="-108.00353206065826"><ele>1803.0</ele><time>2026-04-19T18:08:51Z</time></trkpt><trkpt lat="36.78986705396513" lon="-108.00364994390806"><ele>1801.6666666666667</ele><time>2026-04-19T18:08:52Z</time></trkpt><trkpt lat="36.789911925515945" lon="-108.0037669231105"><ele>1800.3333333333335</ele><time>2026-04-19T18:08:53Z</time></trkpt><trkpt lat="36.78994311627682" lon="-108.00384732087518"><ele>1799.0</ele><time>2026-04-19T18:08:54Z</time></trkpt><trkpt lat="36.78997730248375" lon="-108.00393288972789"><ele>1797.6666666666667</ele><time>2026-04-19T18:08:55Z</time></trkpt><trkpt lat="36.79002664358605" lon="-108.00401600401767"><ele>1796.3333333333335</ele><time>2026-04-19T18:08:57Z</time></trkpt><trkpt lat="36.790103108291376" lon="-108.00405039610231"><ele>1795.0</ele><time>2026-04-19T18:13:17Z</time></trkpt><trkpt lat="36.79015695149307" lon="-108.00410889302701"><ele>1792.6666666666667</ele><time>2026-04-19T18:13:18Z</time></trkpt><trkpt lat="36.79026075406853" lon="-108.00417729631242"><ele>1790.3333333333335</ele><time>2026-04-19T18:13:20Z</time></trkpt><trkpt lat="36.79034087358805" lon="-108.00422036674368"><ele>1788.0</ele><time>2026-04-19T18:13:21Z</time></trkpt><trkpt lat="36.79041184731238" lon="-108.00425953085562"><ele>1785.6666666666665</ele><time>2026-04-19T18:13:22Z</time></trkpt><trkpt lat="36.79049844712955" lon="-108.00431475417133"><ele>1783.3333333333333</ele><time>2026-04-19T18:13:24Z</time></trkpt><trkpt lat="36.79056191394484" lon="-108.00433137025202"><ele>1781.0</ele><time>2026-04-19T18:13:26Z</time></trkpt><trkpt lat="36.790626436305395" lon="-108.00435098645683"><ele>1781.0</ele><time>2026-04-19T18:13:27Z</time></trkpt><trkpt lat="36.79071200692419" lon="-108.00440098923471"><ele>1781.0</ele><time>2026-04-19T18:13:28Z</time></trkpt><trkpt lat="36.790776826963935" lon="-108.00446583110498"><ele>1781.0</ele><time>2026-04-19T18:13:29Z</time></trkpt><trkpt lat="36.79082215084387" lon="-108.00453453034953"><ele>1781.0</ele><time>2026-04-19T18:13:30Z</time></trkpt><trkpt lat="36.79087905032166" lon="-108.00463497667721"><ele>1781.0</ele><time>2026-04-19T18:13:31Z</time></trkpt><trkpt lat="36.79095962417765" lon="-108.0047755153255"><ele>1780.8</ele><time>2026-04-19T18:13:32Z</time></trkpt><trkpt lat="36.79102469774795" lon="-108.00488384282968"><ele>1780.6</ele><time>2026-04-19T18:13:33Z</time></trkpt><trkpt lat="36.791078741318515" lon="-108.00496431372851"><ele>1780.4</ele><time>2026-04-19T18:13:34Z</time></trkpt><trkpt lat="36.791134311277894" lon="-108.00502482702704"><ele>1780.2</ele><time>2026-04-19T18:13:35Z</time></trkpt><trkpt lat="36.79119166151906" lon="-108.00506148129196"><ele>1780.0</ele><time>2026-04-19T18:13:36Z</time></trkpt><trkpt lat="36.79132121536636" lon="-108.00511897455921"><ele>1780.0</ele><time>2026-04-19T18:13:38Z</time></trkpt><trkpt lat="36.79142741531545" lon="-108.00514961999696"><ele>1780.0</ele><time>2026-04-19T18:13:39Z</time></trkpt><trkpt lat="36.79152478219173" lon="-108.00517286641332"><ele>1780.0</ele><time>2026-04-19T18:13:40Z</time></trkpt><trkpt lat="36.79159180062027" lon="-108.00518365197468"><ele>1780.0</ele><time>2026-04-19T18:13:41Z</time></trkpt><trkpt lat="36.791670666538344" lon="-108.00518179726949"><ele>1780.0</ele><time>2026-04-19T18:13:43Z</time></trkpt><trkpt lat="36.79182662248873" lon="-108.0051462014195"><ele>1779.8</ele><time>2026-04-19T18:13:45Z</time></trkpt><trkpt lat="36.79192828284113" lon="-108.00508055447196"><ele>1779.6</ele><time>2026-04-19T18:13:46Z</time></trkpt><trkpt lat="36.7920049163874" lon="-108.00499406948414"><ele>1779.4</ele><time>2026-04-19T18:13:47Z</time></trkpt><trkpt lat="36.79207867178915" lon="-108.00494397499752"><ele>1779.2</ele><time>2026-04-19T18:13:48Z</time></trkpt><trkpt lat="36.7921521153161" lon="-108.00490700776591"><ele>1779.0</ele><time>2026-04-19T18:13:49Z</time></trkpt><trkpt lat="36.792223076008135" lon="-108.00488932744358"><ele>1779.2</ele><time>2026-04-19T18:13:50Z</time></trkpt><trkpt lat="36.792306751945276" lon="-108.00488579655844"><ele>1779.4</ele><time>2026-04-19T18:13:51Z</time></trkpt><trkpt lat="36.79241597025782" lon="-108.00490134786835"><ele>1779.6</ele><time>2026-04-19T18:13:52Z</time></trkpt><trkpt lat="36.79254065802208" lon="-108.00493187188262"><ele>1779.8</ele><time>2026-04-19T18:13:53Z</time></trkpt><trkpt lat="36.79264741983621" lon="-108.00495238590881"><ele>1780.0</ele><time>2026-04-19T18:13:54Z</time></trkpt><trkpt lat="36.792723312215045" lon="-108.00498612046846"><ele>1780.0</ele><time>2026-04-19T18:13:55Z</time></trkpt><trkpt lat="36.7928149342538" lon="-108.00501456578048"><ele>1780.0</ele><time>2026-04-19T18:13:56Z</time></trkpt><trkpt lat="36.79291900486972" lon="-108.00502634230733"><ele>1780.0</ele><time>2026-04-19T18:13:57Z</time></trkpt><trkpt lat="36.79301058108043" lon="-108.00501130895786"><ele>1780.0</ele><time>2026-04-19T18:13:58Z</time></trkpt><trkpt lat="36.793077352698376" lon="-108.00497826207143"><ele>1780.0</ele><time>2026-04-19T18:13:59Z</time></trkpt><trkpt lat="36.79316720621771" lon="-108.00491603222105"><ele>1780.0</ele><time>2026-04-19T18:14:00Z</time></trkpt><trkpt lat="36.79325371941679" lon="-108.00488580786752"><ele>1780.0</ele><time>2026-04-19T18:14:01Z</time></trkpt><trkpt lat="36.793334441552894" lon="-108.00487564943417"><ele>1780.0</ele><time>2026-04-19T18:14:02Z</time></trkpt><trkpt lat="36.793418688882234" lon="-108.00488920811215"><ele>1780.0</ele><time>2026-04-19T18:14:03Z</time></trkpt><trkpt lat="36.79350876138849" lon="-108.0048886111967"><ele>1780.0</ele><time>2026-04-19T18:14:04Z</time></trkpt><trkpt lat="36.793628379128826" lon="-108.00487670411817"><ele>1779.8</ele><time>2026-04-19T18:14:05Z</time></trkpt><trkpt lat="36.79373494795045" lon="-108.00488288382803"><ele>1779.6</ele><time>2026-04-19T18:14:06Z</time></trkpt><trkpt lat="36.793803590685215" lon="-108.00491041648503"><ele>1779.4</ele><time>2026-04-19T18:14:07Z</time></trkpt><trkpt lat="36.79386681140824" lon="-108.00495644512358"><ele>1779.2</ele><time>2026-04-19T18:14:08Z</time></trkpt><trkpt lat="36.79396797329218" lon="-108.00507740041482"><ele>1779.0</ele><time>2026-04-19T18:14:10Z</time></trkpt><trkpt lat="36.79401267442877" lon="-108.00514604834042"><ele>1779.0</ele><time>2026-04-19T18:14:11Z</time></trkpt><trkpt lat="36.79403262038772" lon="-108.00523840276895"><ele>1779.0</ele><time>2026-04-19T18:14:12Z</time></trkpt><trkpt lat="36.79405225834402" lon="-108.00535992193036"><ele>1779.0</ele><time>2026-04-19T18:14:13Z</time></trkpt><trkpt lat="36.794050085467" lon="-108.00553252473425"><ele>1779.0</ele><time>2026-04-19T18:14:14Z</time></trkpt><trkpt lat="36.79404451310712" lon="-108.00569912902525"><ele>1779.0</ele><time>2026-04-19T18:14:15Z</time></trkpt><trkpt lat="36.794064299056615" lon="-108.0058484857821"><ele>1779.0</ele><time>2026-04-19T18:14:16Z</time></trkpt><trkpt lat="36.794099446901235" lon="-108.00599508029727"><ele>1779.0</ele><time>2026-04-19T18:14:17Z</time></trkpt><trkpt lat="36.794105583699505" lon="-108.00610014212245"><ele>1779.0</ele><time>2026-04-19T18:14:18Z</time></trkpt><trkpt lat="36.794149330195594" lon="-108.0062178007387"><ele>1779.0</ele><time>2026-04-19T18:14:20Z</time></trkpt><trkpt lat="36.79427755897719" lon="-108.00626216779402"><ele>1779.0</ele><time>2026-04-19T18:14:21Z</time></trkpt><trkpt lat="36.79435519840946" lon="-108.00630715469752"><ele>1778.6666666666667</ele><time>2026-04-19T18:14:22Z</time></trkpt><trkpt lat="36.794393001337184" lon="-108.00641260537948"><ele>1778.3333333333335</ele><time>2026-04-19T18:14:23Z</time></trkpt><trkpt lat="36.79444860174493" lon="-108.00651560248303"><ele>1778.0</ele><time>2026-04-19T18:14:24Z</time></trkpt><trkpt lat="36.79452308618031" lon="-108.00654678340018"><ele>1777.6666666666667</ele><time>2026-04-19T18:14:25.001Z</time></trkpt><trkpt lat="36.79460105838218" lon="-108.00656308536128"><ele>1777.3333333333335</ele><time>2026-04-19T18:14:26.001Z</time></trkpt><trkpt lat="36.79468697898349" lon="-108.00659478534598"><ele>1777.0</ele><time>2026-04-19T18:14:27.001Z</time></trkpt><trkpt lat="36.794792430933306" lon="-108.00662951120984"><ele>1777.0</ele><time>2026-04-19T18:14:28.001Z</time></trkpt><trkpt lat="36.79489058714858" lon="-108.00662527886118"><ele>1776.9999999999998</ele><time>2026-04-19T18:14:29.001Z</time></trkpt><trkpt lat="36.794959316975024" lon="-108.00661407119269"><ele>1776.9999999999998</ele><time>2026-04-19T18:14:30.001Z</time></trkpt><trkpt lat="36.795092379196205" lon="-108.00668735853485"><ele>1777.0</ele><time>2026-04-19T18:14:32.001Z</time></trkpt><trkpt lat="36.79516812642495" lon="-108.00675335817104"><ele>1777.0</ele><time>2026-04-19T18:14:33.001Z</time></trkpt><trkpt lat="36.79524641017563" lon="-108.00686687538808"><ele>1777.25</ele><time>2026-04-19T18:14:34.001Z</time></trkpt><trkpt lat="36.79534365647426" lon="-108.00699250033229"><ele>1777.5</ele><time>2026-04-19T18:14:35.001Z</time></trkpt><trkpt lat="36.79543114284757" lon="-108.00710201256466"><ele>1777.75</ele><time>2026-04-19T18:14:36.001Z</time></trkpt><trkpt lat="36.79550295846317" lon="-108.00719951540803"><ele>1778.0</ele><time>2026-04-19T18:14:37.001Z</time></trkpt><trkpt lat="36.795585760320435" lon="-108.0072639657286"><ele>1778.0</ele><time>2026-04-19T18:14:38.001Z</time></trkpt><trkpt lat="36.795696182792376" lon="-108.00733177376385"><ele>1778.0</ele><time>2026-04-19T18:14:39.001Z</time></trkpt><trkpt lat="36.79580724748329" lon="-108.00740351697154"><ele>1778.0</ele><time>2026-04-19T18:14:40.001Z</time></trkpt><trkpt lat="36.79591049187515" lon="-108.00745771465395"><ele>1778.0</ele><time>2026-04-19T18:14:41.001Z</time></trkpt><trkpt lat="36.79600051766266" lon="-108.00753311806697"><ele>1778.2</ele><time>2026-04-19T18:14:42.001Z</time></trkpt><trkpt lat="36.796074248418876" lon="-108.00762264401091"><ele>1778.4</ele><time>2026-04-19T18:14:43.001Z</time></trkpt><trkpt lat="36.796154013266104" lon="-108.00771600984635"><ele>1778.6000000000001</ele><time>2026-04-19T18:14:44.001Z</time></trkpt><trkpt lat="36.796221582030746" lon="-108.0077645593476"><ele>1778.8000000000002</ele><time>2026-04-19T18:14:45.001Z</time></trkpt><trkpt lat="36.79637191706653" lon="-108.00774509249861"><ele>1779.0</ele><time>2026-04-19T18:14:47Z</time></trkpt><trkpt lat="36.796493186809286" lon="-108.0077174690652"><ele>1779.0</ele><time>2026-04-19T18:14:48Z</time></trkpt><trkpt lat="36.79657356742042" lon="-108.0076740667278"><ele>1779.0</ele><time>2026-04-19T18:14:49Z</time></trkpt><trkpt lat="36.79668181261534" lon="-108.00762425682326"><ele>1779.0</ele><time>2026-04-19T18:14:50Z</time></trkpt><trkpt lat="36.79680661899162" lon="-108.00758100986452"><ele>1779.0</ele><time>2026-04-19T18:14:51Z</time></trkpt><trkpt lat="36.796913738756544" lon="-108.00753733025162"><ele>1779.0</ele><time>2026-04-19T18:14:52Z</time></trkpt><trkpt lat="36.7970062463152" lon="-108.00747663404108"><ele>1778.8000000000002</ele><time>2026-04-19T18:14:53Z</time></trkpt><trkpt lat="36.797080058906104" lon="-108.0074297351069"><ele>1778.6000000000001</ele><time>2026-04-19T18:14:54Z</time></trkpt><trkpt lat="36.79715424615739" lon="-108.00742519012616"><ele>1778.4</ele><time>2026-04-19T18:14:55Z</time></trkpt><trkpt lat="36.797244050629224" lon="-108.00748040695684"><ele>1778.2</ele><time>2026-04-19T18:14:56Z</time></trkpt><trkpt lat="36.79733696780381" lon="-108.00753819155116"><ele>1778.0</ele><time>2026-04-19T18:14:57Z</time></trkpt><trkpt lat="36.79742844264592" lon="-108.0075571941627"><ele>1777.9999999999998</ele><time>2026-04-19T18:14:58Z</time></trkpt><trkpt lat="36.797525998270864" lon="-108.00755730394509"><ele>1778.0</ele><time>2026-04-19T18:14:59Z</time></trkpt><trkpt lat="36.79760982250579" lon="-108.00753529028682"><ele>1778.0</ele><time>2026-04-19T18:15:00Z</time></trkpt><trkpt lat="36.79768465362585" lon="-108.00753953958204"><ele>1778.0</ele><time>2026-04-19T18:15:01Z</time></trkpt><trkpt lat="36.797753705160446" lon="-108.00758794656053"><ele>1777.9999999999998</ele><time>2026-04-19T18:15:02Z</time></trkpt><trkpt lat="36.79783205450613" lon="-108.00768371387042"><ele>1778.0</ele><time>2026-04-19T18:15:03Z</time></trkpt><trkpt lat="36.79790853904432" lon="-108.00778066125457"><ele>1777.0</ele><time>2026-04-19T18:15:04Z</time></trkpt><trkpt lat="36.79797504782599" lon="-108.00789214114754"><ele>1776.0</ele><time>2026-04-19T18:15:05Z</time></trkpt><trkpt lat="36.798022096844214" lon="-108.00798917813613"><ele>1775.0</ele><time>2026-04-19T18:15:06Z</time></trkpt><trkpt lat="36.79811543489242" lon="-108.00811724101374"><ele>1774.0</ele><time>2026-04-19T18:15:08Z</time></trkpt><trkpt lat="36.798235088974145" lon="-108.0082139684187"><ele>1774.0</ele><time>2026-04-19T18:15:09Z</time></trkpt><trkpt lat="36.798343585911006" lon="-108.00830588450994"><ele>1774.0</ele><time>2026-04-19T18:15:10Z</time></trkpt><trkpt lat="36.79842422091984" lon="-108.00837901782984"><ele>1774.0</ele><time>2026-04-19T18:15:11Z</time></trkpt><trkpt lat="36.798492027395326" lon="-108.0084321293918"><ele>1774.0</ele><time>2026-04-19T18:15:12Z</time></trkpt><trkpt lat="36.79859187293402" lon="-108.00849393662779"><ele>1774.0</ele><time>2026-04-19T18:15:14Z</time></trkpt><trkpt lat="36.798652222372745" lon="-108.00857677023276"><ele>1773.8000000000002</ele><time>2026-04-19T18:15:15Z</time></trkpt><trkpt lat="36.79868222162142" lon="-108.00870522675113"><ele>1773.6000000000001</ele><time>2026-04-19T18:15:16Z</time></trkpt><trkpt lat="36.79869755338852" lon="-108.00883400273082"><ele>1773.4</ele><time>2026-04-19T18:15:17Z</time></trkpt><trkpt lat="36.79873215267509" lon="-108.00896982952777"><ele>1773.2</ele><time>2026-04-19T18:15:18Z</time></trkpt><trkpt lat="36.79878221155857" lon="-108.00909746324552"><ele>1773.0</ele><time>2026-04-19T18:15:19Z</time></trkpt><trkpt lat="36.798830955963695" lon="-108.00920609686075"><ele>1774.2</ele><time>2026-04-19T18:15:20Z</time></trkpt><trkpt lat="36.798887780844694" lon="-108.00926729372179"><ele>1775.4</ele><time>2026-04-19T18:15:21Z</time></trkpt><trkpt lat="36.7989559756412" lon="-108.00933391652498"><ele>1776.6000000000001</ele><time>2026-04-19T18:15:22Z</time></trkpt><trkpt lat="36.79904911532592" lon="-108.00941379424026"><ele>1777.8000000000002</ele><time>2026-04-19T18:15:23Z</time></trkpt><trkpt lat="36.79912294387202" lon="-108.00949488192136"><ele>1779.0</ele><time>2026-04-19T18:15:24Z</time></trkpt><trkpt lat="36.79918833780578" lon="-108.00956814582047"><ele>1779.0</ele><time>2026-04-19T18:15:25Z</time></trkpt><trkpt lat="36.79927733550592" lon="-108.00965266379916"><ele>1779.0</ele><time>2026-04-19T18:15:26Z</time></trkpt><trkpt lat="36.79934293709626" lon="-108.00970063968873"><ele>1779.0</ele><time>2026-04-19T18:15:27Z</time></trkpt><trkpt lat="36.79941793916766" lon="-108.00971599548093"><ele>1779.0</ele><time>2026-04-19T18:15:28Z</time></trkpt><trkpt lat="36.799478655325466" lon="-108.00968024141436"><ele>1779.0</ele><time>2026-04-19T18:15:29Z</time></trkpt><trkpt lat="36.799522170615106" lon="-108.00961381740784"><ele>1779.0</ele><time>2026-04-19T18:15:30Z</time></trkpt><trkpt lat="36.79959110074014" lon="-108.00953181238698"><ele>1778.5</ele><time>2026-04-19T18:15:31Z</time></trkpt><trkpt lat="36.799667045816136" lon="-108.00946263568707"><ele>1778.0</ele><time>2026-04-19T18:15:32Z</time></trkpt><trkpt lat="36.79975846561639" lon="-108.00945201294067"><ele>1777.5</ele><time>2026-04-19T18:15:34Z</time></trkpt><trkpt lat="36.799828054221635" lon="-108.00947400929772"><ele>1777.0</ele><time>2026-04-19T18:15:35Z</time></trkpt><trkpt lat="36.79989402569673" lon="-108.00951620168361"><ele>1776.5</ele><time>2026-04-19T18:15:36Z</time></trkpt><trkpt lat="36.799956731429624" lon="-108.00955594691408"><ele>1776.0</ele><time>2026-04-19T18:15:37Z</time></trkpt><trkpt lat="36.800023374038894" lon="-108.00959778323204"><ele>1776.0</ele><time>2026-04-19T18:15:38Z</time></trkpt><trkpt lat="36.80009281630774" lon="-108.00963705504401"><ele>1776.0</ele><time>2026-04-19T18:15:39Z</time></trkpt><trkpt lat="36.800163434573086" lon="-108.00967123498711"><ele>1776.0</ele><time>2026-04-19T18:15:40Z</time></trkpt><trkpt lat="36.800230160628146" lon="-108.00970121362596"><ele>1776.0</ele><time>2026-04-19T18:15:41Z</time></trkpt><trkpt lat="36.800303381994425" lon="-108.00970516863426"><ele>1776.0</ele><time>2026-04-19T18:15:42Z</time></trkpt><trkpt lat="36.80038565990629" lon="-108.00970368857492"><ele>1776.0</ele><time>2026-04-19T18:15:43Z</time></trkpt><trkpt lat="36.80048713412056" lon="-108.0097088401536"><ele>1775.1666666666667</ele><time>2026-04-19T18:15:44Z</time></trkpt><trkpt lat="36.800575168169736" lon="-108.00971478544484"><ele>1774.3333333333335</ele><time>2026-04-19T18:15:45Z</time></trkpt><trkpt lat="36.80063821642102" lon="-108.00970078530521"><ele>1773.5</ele><time>2026-04-19T18:15:46Z</time></trkpt><trkpt lat="36.80070600822261" lon="-108.00960989321977"><ele>1772.6666666666667</ele><time>2026-04-19T18:15:48Z</time></trkpt><trkpt lat="36.8008090726192" lon="-108.00955559243695"><ele>1771.8333333333335</ele><time>2026-04-19T18:15:50Z</time></trkpt><trkpt lat="36.800876830619224" lon="-108.00959360996205"><ele>1771.0</ele><time>2026-04-19T18:15:51Z</time></trkpt><trkpt lat="36.800944005336355" lon="-108.00966126011053"><ele>1771.0000000000002</ele><time>2026-04-19T18:15:52Z</time></trkpt><trkpt lat="36.80099250745343" lon="-108.0097377130181"><ele>1771.0</ele><time>2026-04-19T18:15:53Z</time></trkpt><trkpt lat="36.801101039986584" lon="-108.00975124879119"><ele>1771.0</ele><time>2026-04-19T18:15:55Z</time></trkpt><trkpt lat="36.80118070227035" lon="-108.00975956890723"><ele>1771.0</ele><time>2026-04-19T18:15:56Z</time></trkpt><trkpt lat="36.801254240538604" lon="-108.00980730914705"><ele>1771.0000000000002</ele><time>2026-04-19T18:15:57Z</time></trkpt><trkpt lat="36.8013153137661" lon="-108.0098683180084"><ele>1771.0</ele><time>2026-04-19T18:15:58Z</time></trkpt><trkpt lat="36.80138523276219" lon="-108.00993125304258"><ele>1770.0</ele><time>2026-04-19T18:15:59Z</time></trkpt><trkpt lat="36.80145630201175" lon="-108.01000737141419"><ele>1769.0</ele><time>2026-04-19T18:16:00Z</time></trkpt><trkpt lat="36.80151736566612" lon="-108.01008173831576"><ele>1768.0</ele><time>2026-04-19T18:16:01Z</time></trkpt><trkpt lat="36.80157094338651" lon="-108.01014441877044"><ele>1767.0</ele><time>2026-04-19T18:16:02Z</time></trkpt><trkpt lat="36.8016633311135" lon="-108.01017028166017"><ele>1766.0</ele><time>2026-04-19T18:16:04Z</time></trkpt><trkpt lat="36.801807661384984" lon="-108.01013939892212"><ele>1762.6</ele><time>2026-04-19T18:16:06Z</time></trkpt><trkpt lat="36.80188317881094" lon="-108.01012778758039"><ele>1759.1999999999998</ele><time>2026-04-19T18:16:07Z</time></trkpt><trkpt lat="36.80199430036258" lon="-108.01008661088834"><ele>1755.8000000000002</ele><time>2026-04-19T18:16:09Z</time></trkpt><trkpt lat="36.80206262884439" lon="-108.01003347677799"><ele>1752.4</ele><time>2026-04-19T18:16:11Z</time></trkpt><trkpt lat="36.802181867839906" lon="-108.01002357370747"><ele>1749.0</ele><time>2026-04-19T18:16:13Z</time></trkpt><trkpt lat="36.802278629529404" lon="-108.01003478670032"><ele>1749.0</ele><time>2026-04-19T18:16:14Z</time></trkpt><trkpt lat="36.80237565805972" lon="-108.01005524913069"><ele>1749.0</ele><time>2026-04-19T18:16:15Z</time></trkpt><trkpt lat="36.80246949386438" lon="-108.0100769246656"><ele>1749.0</ele><time>2026-04-19T18:16:16Z</time></trkpt><trkpt lat="36.80256189180834" lon="-108.01007718598183"><ele>1749.0</ele><time>2026-04-19T18:16:17Z</time></trkpt><trkpt lat="36.80267544917215" lon="-108.01004851387869"><ele>1749.0</ele><time>2026-04-19T18:16:18Z</time></trkpt><trkpt lat="36.80277657358281" lon="-108.00999972787744"><ele>1748.2</ele><time>2026-04-19T18:16:19Z</time></trkpt><trkpt lat="36.80284262493556" lon="-108.0099357022423"><ele>1747.4</ele><time>2026-04-19T18:16:20Z</time></trkpt><trkpt lat="36.80297355074485" lon="-108.00987162983436"><ele>1746.6</ele><time>2026-04-19T18:16:22Z</time></trkpt><trkpt lat="36.803088680503656" lon="-108.00982837577212"><ele>1745.8</ele><time>2026-04-19T18:16:23Z</time></trkpt><trkpt lat="36.8031901854061" lon="-108.00980398806847"><ele>1745.0</ele><time>2026-04-19T18:16:24Z</time></trkpt><trkpt lat="36.80327485972112" lon="-108.00975455138018"><ele>1745.0</ele><time>2026-04-19T18:16:25Z</time></trkpt><trkpt lat="36.80336452785227" lon="-108.00972905941909"><ele>1745.0</ele><time>2026-04-19T18:16:26Z</time></trkpt><trkpt lat="36.80344717311937" lon="-108.00972660688223"><ele>1745.0</ele><time>2026-04-19T18:16:27Z</time></trkpt><trkpt lat="36.803547640044584" lon="-108.00974265163943"><ele>1745.0</ele><time>2026-04-19T18:16:28Z</time></trkpt><trkpt lat="36.803646236177975" lon="-108.00976131652949"><ele>1745.0</ele><time>2026-04-19T18:16:29Z</time></trkpt><trkpt lat="36.8037437347952" lon="-108.00976547169394"><ele>1743.9999999999998</ele><time>2026-04-19T18:16:30Z</time></trkpt><trkpt lat="36.80383407478638" lon="-108.00973628725943"><ele>1743.0</ele><time>2026-04-19T18:16:31Z</time></trkpt><trkpt lat="36.80391571481458" lon="-108.00967835303491"><ele>1742.0</ele><time>2026-04-19T18:16:32Z</time></trkpt><trkpt lat="36.804000076253786" lon="-108.00964764574078"><ele>1741.0</ele><time>2026-04-19T18:16:33Z</time></trkpt><trkpt lat="36.804069713414584" lon="-108.0096398029425"><ele>1739.9999999999998</ele><time>2026-04-19T18:16:34Z</time></trkpt><trkpt lat="36.80414201060308" lon="-108.00965292016869"><ele>1739.0</ele><time>2026-04-19T18:16:35.001Z</time></trkpt><trkpt lat="36.80423139172459" lon="-108.00969671117778"><ele>1739.2</ele><time>2026-04-19T18:16:36.001Z</time></trkpt><trkpt lat="36.80433409575499" lon="-108.00975862641874"><ele>1739.4</ele><time>2026-04-19T18:16:37.001Z</time></trkpt><trkpt lat="36.804413553733696" lon="-108.00980698941986"><ele>1739.6</ele><time>2026-04-19T18:16:38.001Z</time></trkpt><trkpt lat="36.80449655075833" lon="-108.00983794066391"><ele>1739.8</ele><time>2026-04-19T18:16:40.001Z</time></trkpt><trkpt lat="36.80453896293249" lon="-108.0097730895868"><ele>1740.0</ele><time>2026-04-19T18:16:42.001Z</time></trkpt><trkpt lat="36.80457943912426" lon="-108.00960015865131"><ele>1740.0</ele><time>2026-04-19T18:16:44.001Z</time></trkpt><trkpt lat="36.80457885106588" lon="-108.00948204433024"><ele>1740.0</ele><time>2026-04-19T18:16:45.001Z</time></trkpt><trkpt lat="36.80455661402402" lon="-108.00936124232244"><ele>1740.0</ele><time>2026-04-19T18:16:46.001Z</time></trkpt><trkpt lat="36.804546130535236" lon="-108.00924958909759"><ele>1740.0</ele><time>2026-04-19T18:16:47.001Z</time></trkpt><trkpt lat="36.80457121239218" lon="-108.00915552508877"><ele>1740.0</ele><time>2026-04-19T18:16:48.001Z</time></trkpt><trkpt lat="36.80462760393011" lon="-108.00903297012962"><ele>1741.75</ele><time>2026-04-19T18:16:49.001Z</time></trkpt><trkpt lat="36.80466339551985" lon="-108.0088972039962"><ele>1743.5</ele><time>2026-04-19T18:16:50.001Z</time></trkpt><trkpt lat="36.80467189101083" lon="-108.00876092539373"><ele>1745.25</ele><time>2026-04-19T18:16:51.001Z</time></trkpt><trkpt lat="36.80468167921933" lon="-108.0086073126159"><ele>1747.0</ele><time>2026-04-19T18:16:52Z</time></trkpt><trkpt lat="36.804694637793084" lon="-108.00845495918269"><ele>1748.6</ele><time>2026-04-19T18:16:53Z</time></trkpt><trkpt lat="36.80469706764216" lon="-108.00830601471912"><ele>1750.1999999999998</ele><time>2026-04-19T18:16:54Z</time></trkpt><trkpt lat="36.804681228977856" lon="-108.00816927723416"><ele>1751.8</ele><time>2026-04-19T18:16:55Z</time></trkpt><trkpt lat="36.804661927535676" lon="-108.00804779955497"><ele>1753.4</ele><time>2026-04-19T18:16:56Z</time></trkpt><trkpt lat="36.804642368339245" lon="-108.00795065573627"><ele>1755.0</ele><time>2026-04-19T18:16:57Z</time></trkpt><trkpt lat="36.804642005409015" lon="-108.00787039674732"><ele>1755.0</ele><time>2026-04-19T18:16:58Z</time></trkpt><trkpt lat="36.80466305208508" lon="-108.00768305087763"><ele>1755.0</ele><time>2026-04-19T18:17:00Z</time></trkpt><trkpt lat="36.804664588096735" lon="-108.00754069562316"><ele>1755.0</ele><time>2026-04-19T18:17:01Z</time></trkpt><trkpt lat="36.80465316711054" lon="-108.0073809844169"><ele>1755.0</ele><time>2026-04-19T18:17:02Z</time></trkpt><trkpt lat="36.804644557965" lon="-108.00729571414196"><ele>1755.0</ele><time>2026-04-19T18:17:03Z</time></trkpt><trkpt lat="36.80468414350814" lon="-108.00717556461986"><ele>1755.0</ele><time>2026-04-19T18:17:05Z</time></trkpt><trkpt lat="36.804738098982554" lon="-108.00710215082563"><ele>1755.0</ele><time>2026-04-19T18:17:06Z</time></trkpt><trkpt lat="36.80479853113026" lon="-108.00706157683301"><ele>1755.0</ele><time>2026-04-19T18:17:07Z</time></trkpt><trkpt lat="36.80489144272717" lon="-108.00708098145242"><ele>1755.0</ele><time>2026-04-19T18:17:09Z</time></trkpt><trkpt lat="36.80496012396907" lon="-108.00718729652206"><ele>1755.0</ele><time>2026-04-19T18:17:11Z</time></trkpt><trkpt lat="36.80500982712018" lon="-108.00725261077757"><ele>1755.0</ele><time>2026-04-19T18:17:12Z</time></trkpt><trkpt lat="36.80508297630769" lon="-108.00733351666071"><ele>1755.0</ele><time>2026-04-19T18:17:13Z</time></trkpt><trkpt lat="36.80516210473014" lon="-108.00743553879443"><ele>1755.0</ele><time>2026-04-19T18:17:14Z</time></trkpt><trkpt lat="36.80522299195695" lon="-108.00752847337728"><ele>1755.0</ele><time>2026-04-19T18:17:15Z</time></trkpt><trkpt lat="36.80530058423436" lon="-108.00761897100665"><ele>1753.8</ele><time>2026-04-19T18:17:16Z</time></trkpt><trkpt lat="36.80537775577048" lon="-108.0076795819974"><ele>1752.6</ele><time>2026-04-19T18:17:17Z</time></trkpt><trkpt lat="36.80546896709958" lon="-108.00776231895476"><ele>1751.4</ele><time>2026-04-19T18:17:18Z</time></trkpt><trkpt lat="36.80556685676363" lon="-108.00786211307782"><ele>1750.2</ele><time>2026-04-19T18:17:19Z</time></trkpt><trkpt lat="36.80562555365944" lon="-108.00795204286666"><ele>1749.0</ele><time>2026-04-19T18:17:20Z</time></trkpt><trkpt lat="36.805677090194024" lon="-108.00806052510362"><ele>1749.0</ele><time>2026-04-19T18:17:21Z</time></trkpt><trkpt lat="36.80571109454046" lon="-108.00815402827837"><ele>1749.0</ele><time>2026-04-19T18:17:23Z</time></trkpt><trkpt lat="36.80584689591813" lon="-108.00824110580706"><ele>1749.0</ele><time>2026-04-19T18:17:25Z</time></trkpt><trkpt lat="36.80592805625562" lon="-108.00826344540421"><ele>1749.0</ele><time>2026-04-19T18:17:26Z</time></trkpt><trkpt lat="36.80603874182415" lon="-108.00831579550155"><ele>1749.0</ele><time>2026-04-19T18:17:28Z</time></trkpt><trkpt lat="36.80612028519652" lon="-108.00834814796919"><ele>1747.6666666666667</ele><time>2026-04-19T18:17:30Z</time></trkpt><trkpt lat="36.806187808809064" lon="-108.00825293018434"><ele>1746.3333333333335</ele><time>2026-04-19T18:17:34Z</time></trkpt><trkpt lat="36.806216061240285" lon="-108.00817010698066"><ele>1745.0</ele><time>2026-04-19T18:17:35Z</time></trkpt><trkpt lat="36.80623427260231" lon="-108.00809202754347"><ele>1743.6666666666667</ele><time>2026-04-19T18:17:36Z</time></trkpt><trkpt lat="36.80626266596059" lon="-108.00799866875306"><ele>1742.3333333333335</ele><time>2026-04-19T18:17:37Z</time></trkpt><trkpt lat="36.806300041499895" lon="-108.00789911676745"><ele>1741.0</ele><time>2026-04-19T18:17:38Z</time></trkpt><trkpt lat="36.806347820904044" lon="-108.00781443580921"><ele>1741.0</ele><time>2026-04-19T18:17:39Z</time></trkpt><trkpt lat="36.806455664530475" lon="-108.00768162626734"><ele>1741.0</ele><time>2026-04-19T18:17:40Z</time></trkpt><trkpt lat="36.806536051927495" lon="-108.00759223072693"><ele>1741.0</ele><time>2026-04-19T18:17:41Z</time></trkpt><trkpt lat="36.806628199746726" lon="-108.0074676452625"><ele>1741.0</ele><time>2026-04-19T18:17:42Z</time></trkpt><trkpt lat="36.806724152370954" lon="-108.0073314179259"><ele>1740.25</ele><time>2026-04-19T18:17:43Z</time></trkpt><trkpt lat="36.80681686296385" lon="-108.00718813941982"><ele>1739.5</ele><time>2026-04-19T18:17:44Z</time></trkpt><trkpt lat="36.80691618127501" lon="-108.0070457107812"><ele>1738.75</ele><time>2026-04-19T18:17:45Z</time></trkpt><trkpt lat="36.807014750233606" lon="-108.00690843011475"><ele>1738.0</ele><time>2026-04-19T18:17:46Z</time></trkpt><trkpt lat="36.807096886557616" lon="-108.00678747414607"><ele>1737.4</ele><time>2026-04-19T18:17:47Z</time></trkpt><trkpt lat="36.80714974434616" lon="-108.00668769122106"><ele>1736.8000000000002</ele><time>2026-04-19T18:17:48Z</time></trkpt><trkpt lat="36.807185986273055" lon="-108.00660323598504"><ele>1736.2</ele><time>2026-04-19T18:17:49Z</time></trkpt><trkpt lat="36.80722894115853" lon="-108.00648660238633"><ele>1735.6</ele><time>2026-04-19T18:17:51Z</time></trkpt><trkpt lat="36.807279982548465" lon="-108.00635843828898"><ele>1735.0</ele><time>2026-04-19T18:17:53Z</time></trkpt><trkpt lat="36.80731571543281" lon="-108.0062550860748"><ele>1734.8</ele><time>2026-04-19T18:17:54Z</time></trkpt><trkpt lat="36.807346194651466" lon="-108.00616331652041"><ele>1734.6</ele><time>2026-04-19T18:17:55Z</time></trkpt><trkpt lat="36.807394632113734" lon="-108.00605462205188"><ele>1734.4</ele><time>2026-04-19T18:17:56Z</time></trkpt><trkpt lat="36.80744026141866" lon="-108.00593924486225"><ele>1734.2</ele><time>2026-04-19T18:17:57Z</time></trkpt><trkpt lat="36.80748919014476" lon="-108.00583564295263"><ele>1734.0</ele><time>2026-04-19T18:17:58Z</time></trkpt><trkpt lat="36.80753774946256" lon="-108.00573229807888"><ele>1733.8333333333333</ele><time>2026-04-19T18:17:59Z</time></trkpt><trkpt lat="36.80756820086131" lon="-108.00564796335361"><ele>1733.6666666666665</ele><time>2026-04-19T18:18:00Z</time></trkpt><trkpt lat="36.80766226508854" lon="-108.00554494258074"><ele>1733.5</ele><time>2026-04-19T18:18:02Z</time></trkpt><trkpt lat="36.80774376447831" lon="-108.00550376466217"><ele>1733.3333333333333</ele><time>2026-04-19T18:18:03Z</time></trkpt><trkpt lat="36.80781289565353" lon="-108.00547251845529"><ele>1733.1666666666665</ele><time>2026-04-19T18:18:04Z</time></trkpt><trkpt lat="36.80787555345614" lon="-108.00545536413745"><ele>1733.0</ele><time>2026-04-19T18:18:05Z</time></trkpt><trkpt lat="36.8079513855787" lon="-108.00547564218542"><ele>1732.0</ele><time>2026-04-19T18:18:07Z</time></trkpt></trkseg></trk></gpx>